<?xml version="1.0" encoding="UTF-8" standalone="no" ?>
<gpx xmlns="http://www.topografix.com/GPX/1/1" xmlns:xsi="http://www.w3.org/2001/XMLSchema-instance" xsi:schemaLocation="http://www.topografix.com/GPX/1/1 http://www.topografix.com/GPX/1/1/gpx.xsd" version="1.1" creator="VisuGPX - https://www.visugpx.com">
  <metadata>
    <name>vtt besancon</name>
    <desc><![CDATA[parcours pour voir la ville depuis differents belvederes]]></desc>
  </metadata>
  <trk>
    <name><![CDATA[Tracé actuel: 29 SEP 2018 13:34]]></name>
    <trkseg>
      <trkpt lat="47.2606" lon="6.05176">
        <ele>337.08</ele>
        <time>2018-09-29T11:34:02Z</time>
      </trkpt>
      <trkpt lat="47.2608" lon="6.05199">
        <ele>339.96</ele>
        <time>2018-09-29T11:34:15Z</time>
      </trkpt>
      <trkpt lat="47.2608" lon="6.05232">
        <ele>342.85</ele>
        <time>2018-09-29T11:34:28Z</time>
      </trkpt>
      <trkpt lat="47.26084" lon="6.05239">
        <ele>343.33</ele>
        <time>2018-09-29T11:34:33Z</time>
      </trkpt>
      <trkpt lat="47.26085" lon="6.05241">
        <ele>343.81</ele>
        <time>2018-09-29T11:34:34Z</time>
      </trkpt>
      <trkpt lat="47.26092" lon="6.05256">
        <ele>347.17</ele>
        <time>2018-09-29T11:34:44Z</time>
      </trkpt>
      <trkpt lat="47.26101" lon="6.05275">
        <ele>350.06</ele>
        <time>2018-09-29T11:34:56Z</time>
      </trkpt>
      <trkpt lat="47.26102" lon="6.05277">
        <ele>350.54</ele>
        <time>2018-09-29T11:34:58Z</time>
      </trkpt>
      <trkpt lat="47.26104" lon="6.05281">
        <ele>350.54</ele>
        <time>2018-09-29T11:35:01Z</time>
      </trkpt>
      <trkpt lat="47.26105" lon="6.05282">
        <ele>351.02</ele>
        <time>2018-09-29T11:35:02Z</time>
      </trkpt>
      <trkpt lat="47.26106" lon="6.05284">
        <ele>351.02</ele>
        <time>2018-09-29T11:35:03Z</time>
      </trkpt>
      <trkpt lat="47.26108" lon="6.05285">
        <ele>351.02</ele>
        <time>2018-09-29T11:35:04Z</time>
      </trkpt>
      <trkpt lat="47.26108" lon="6.05287">
        <ele>351.02</ele>
        <time>2018-09-29T11:35:05Z</time>
      </trkpt>
      <trkpt lat="47.26109" lon="6.05289">
        <ele>351.5</ele>
        <time>2018-09-29T11:35:06Z</time>
      </trkpt>
      <trkpt lat="47.26115" lon="6.053">
        <ele>352.94</ele>
        <time>2018-09-29T11:35:14Z</time>
      </trkpt>
      <trkpt lat="47.26115" lon="6.05302">
        <ele>352.94</ele>
        <time>2018-09-29T11:35:15Z</time>
      </trkpt>
      <trkpt lat="47.26117" lon="6.05304">
        <ele>352.94</ele>
        <time>2018-09-29T11:35:16Z</time>
      </trkpt>
      <trkpt lat="47.26117" lon="6.05306">
        <ele>353.42</ele>
        <time>2018-09-29T11:35:17Z</time>
      </trkpt>
      <trkpt lat="47.26118" lon="6.05309">
        <ele>352.94</ele>
        <time>2018-09-29T11:35:18Z</time>
      </trkpt>
      <trkpt lat="47.26119" lon="6.05311">
        <ele>352.94</ele>
        <time>2018-09-29T11:35:19Z</time>
      </trkpt>
      <trkpt lat="47.26136" lon="6.05341">
        <ele>353.9</ele>
        <time>2018-09-29T11:35:32Z</time>
      </trkpt>
      <trkpt lat="47.26144" lon="6.05361">
        <ele>353.42</ele>
        <time>2018-09-29T11:35:39Z</time>
      </trkpt>
      <trkpt lat="47.26144" lon="6.05365">
        <ele>353.42</ele>
        <time>2018-09-29T11:35:40Z</time>
      </trkpt>
      <trkpt lat="47.26142" lon="6.05376">
        <ele>353.9</ele>
        <time>2018-09-29T11:35:44Z</time>
      </trkpt>
      <trkpt lat="47.26142" lon="6.05379">
        <ele>354.38</ele>
        <time>2018-09-29T11:35:45Z</time>
      </trkpt>
      <trkpt lat="47.26142" lon="6.05381">
        <ele>354.86</ele>
        <time>2018-09-29T11:35:46Z</time>
      </trkpt>
      <trkpt lat="47.26141" lon="6.05384">
        <ele>354.86</ele>
        <time>2018-09-29T11:35:47Z</time>
      </trkpt>
      <trkpt lat="47.26141" lon="6.05387">
        <ele>354.86</ele>
        <time>2018-09-29T11:35:48Z</time>
      </trkpt>
      <trkpt lat="47.2614" lon="6.0539">
        <ele>355.83</ele>
        <time>2018-09-29T11:35:49Z</time>
      </trkpt>
      <trkpt lat="47.26139" lon="6.05392">
        <ele>356.79</ele>
        <time>2018-09-29T11:35:50Z</time>
      </trkpt>
      <trkpt lat="47.26138" lon="6.05394">
        <ele>356.31</ele>
        <time>2018-09-29T11:35:51Z</time>
      </trkpt>
      <trkpt lat="47.2612" lon="6.05414">
        <ele>358.23</ele>
        <time>2018-09-29T11:36:02Z</time>
      </trkpt>
      <trkpt lat="47.26095" lon="6.05418">
        <ele>361.11</ele>
        <time>2018-09-29T11:36:13Z</time>
      </trkpt>
      <trkpt lat="47.26068" lon="6.05424">
        <ele>362.55</ele>
        <time>2018-09-29T11:36:25Z</time>
      </trkpt>
      <trkpt lat="47.26037" lon="6.05438">
        <ele>362.55</ele>
        <time>2018-09-29T11:36:37Z</time>
      </trkpt>
      <trkpt lat="47.25995" lon="6.0546">
        <ele>362.55</ele>
        <time>2018-09-29T11:36:51Z</time>
      </trkpt>
      <trkpt lat="47.25962" lon="6.05484">
        <ele>362.55</ele>
        <time>2018-09-29T11:37:03Z</time>
      </trkpt>
      <trkpt lat="47.25938" lon="6.05499">
        <ele>362.07</ele>
        <time>2018-09-29T11:37:13Z</time>
      </trkpt>
      <trkpt lat="47.25934" lon="6.05503">
        <ele>362.07</ele>
        <time>2018-09-29T11:37:15Z</time>
      </trkpt>
      <trkpt lat="47.25931" lon="6.05504">
        <ele>362.07</ele>
        <time>2018-09-29T11:37:16Z</time>
      </trkpt>
      <trkpt lat="47.25929" lon="6.05506">
        <ele>362.07</ele>
        <time>2018-09-29T11:37:17Z</time>
      </trkpt>
      <trkpt lat="47.25927" lon="6.05507">
        <ele>362.55</ele>
        <time>2018-09-29T11:37:18Z</time>
      </trkpt>
      <trkpt lat="47.25924" lon="6.05507">
        <ele>363.04</ele>
        <time>2018-09-29T11:37:20Z</time>
      </trkpt>
      <trkpt lat="47.25923" lon="6.05505">
        <ele>363.04</ele>
        <time>2018-09-29T11:37:21Z</time>
      </trkpt>
      <trkpt lat="47.25921" lon="6.05503">
        <ele>363.04</ele>
        <time>2018-09-29T11:37:22Z</time>
      </trkpt>
      <trkpt lat="47.25919" lon="6.055">
        <ele>362.55</ele>
        <time>2018-09-29T11:37:23Z</time>
      </trkpt>
      <trkpt lat="47.25916" lon="6.05499">
        <ele>363.04</ele>
        <time>2018-09-29T11:37:24Z</time>
      </trkpt>
      <trkpt lat="47.25915" lon="6.05498">
        <ele>364</ele>
        <time>2018-09-29T11:37:25Z</time>
      </trkpt>
      <trkpt lat="47.25913" lon="6.055">
        <ele>364</ele>
        <time>2018-09-29T11:37:27Z</time>
      </trkpt>
      <trkpt lat="47.25911" lon="6.05502">
        <ele>364</ele>
        <time>2018-09-29T11:37:28Z</time>
      </trkpt>
      <trkpt lat="47.25909" lon="6.05504">
        <ele>364</ele>
        <time>2018-09-29T11:37:29Z</time>
      </trkpt>
      <trkpt lat="47.25907" lon="6.05515">
        <ele>362.07</ele>
        <time>2018-09-29T11:37:33Z</time>
      </trkpt>
      <trkpt lat="47.25904" lon="6.0552">
        <ele>362.07</ele>
        <time>2018-09-29T11:37:34Z</time>
      </trkpt>
      <trkpt lat="47.25901" lon="6.05523">
        <ele>362.07</ele>
        <time>2018-09-29T11:37:35Z</time>
      </trkpt>
      <trkpt lat="47.25899" lon="6.05524">
        <ele>362.55</ele>
        <time>2018-09-29T11:37:36Z</time>
      </trkpt>
      <trkpt lat="47.25897" lon="6.05525">
        <ele>362.55</ele>
        <time>2018-09-29T11:37:37Z</time>
      </trkpt>
      <trkpt lat="47.25892" lon="6.05528">
        <ele>362.55</ele>
        <time>2018-09-29T11:37:41Z</time>
      </trkpt>
      <trkpt lat="47.2589" lon="6.0553">
        <ele>362.55</ele>
        <time>2018-09-29T11:37:42Z</time>
      </trkpt>
      <trkpt lat="47.25887" lon="6.05531">
        <ele>362.55</ele>
        <time>2018-09-29T11:37:43Z</time>
      </trkpt>
      <trkpt lat="47.25884" lon="6.0553">
        <ele>361.59</ele>
        <time>2018-09-29T11:37:44Z</time>
      </trkpt>
      <trkpt lat="47.25881" lon="6.0553">
        <ele>360.63</ele>
        <time>2018-09-29T11:37:45Z</time>
      </trkpt>
      <trkpt lat="47.25877" lon="6.05529">
        <ele>358.71</ele>
        <time>2018-09-29T11:37:46Z</time>
      </trkpt>
      <trkpt lat="47.25875" lon="6.05528">
        <ele>357.75</ele>
        <time>2018-09-29T11:37:47Z</time>
      </trkpt>
      <trkpt lat="47.25865" lon="6.05533">
        <ele>357.27</ele>
        <time>2018-09-29T11:37:50Z</time>
      </trkpt>
      <trkpt lat="47.25863" lon="6.05535">
        <ele>356.79</ele>
        <time>2018-09-29T11:37:51Z</time>
      </trkpt>
      <trkpt lat="47.25861" lon="6.05538">
        <ele>356.79</ele>
        <time>2018-09-29T11:37:52Z</time>
      </trkpt>
      <trkpt lat="47.25858" lon="6.05541">
        <ele>356.31</ele>
        <time>2018-09-29T11:37:53Z</time>
      </trkpt>
      <trkpt lat="47.25855" lon="6.05546">
        <ele>356.79</ele>
        <time>2018-09-29T11:37:54Z</time>
      </trkpt>
      <trkpt lat="47.25848" lon="6.05553">
        <ele>356.31</ele>
        <time>2018-09-29T11:37:55Z</time>
      </trkpt>
      <trkpt lat="47.25843" lon="6.05559">
        <ele>356.31</ele>
        <time>2018-09-29T11:37:56Z</time>
      </trkpt>
      <trkpt lat="47.25813" lon="6.05592">
        <ele>355.34</ele>
        <time>2018-09-29T11:38:02Z</time>
      </trkpt>
      <trkpt lat="47.25809" lon="6.05595">
        <ele>355.34</ele>
        <time>2018-09-29T11:38:03Z</time>
      </trkpt>
      <trkpt lat="47.25803" lon="6.05598">
        <ele>355.34</ele>
        <time>2018-09-29T11:38:04Z</time>
      </trkpt>
      <trkpt lat="47.25782" lon="6.0561">
        <ele>355.83</ele>
        <time>2018-09-29T11:38:07Z</time>
      </trkpt>
      <trkpt lat="47.25775" lon="6.05616">
        <ele>355.83</ele>
        <time>2018-09-29T11:38:08Z</time>
      </trkpt>
      <trkpt lat="47.25768" lon="6.05621">
        <ele>355.83</ele>
        <time>2018-09-29T11:38:09Z</time>
      </trkpt>
      <trkpt lat="47.25733" lon="6.0565">
        <ele>355.34</ele>
        <time>2018-09-29T11:38:17Z</time>
      </trkpt>
      <trkpt lat="47.25696" lon="6.05669">
        <ele>354.86</ele>
        <time>2018-09-29T11:38:27Z</time>
      </trkpt>
      <trkpt lat="47.25692" lon="6.05672">
        <ele>354.86</ele>
        <time>2018-09-29T11:38:28Z</time>
      </trkpt>
      <trkpt lat="47.25682" lon="6.0568">
        <ele>354.86</ele>
        <time>2018-09-29T11:38:32Z</time>
      </trkpt>
      <trkpt lat="47.2567" lon="6.05693">
        <ele>354.38</ele>
        <time>2018-09-29T11:38:35Z</time>
      </trkpt>
      <trkpt lat="47.25641" lon="6.05708">
        <ele>353.9</ele>
        <time>2018-09-29T11:38:43Z</time>
      </trkpt>
      <trkpt lat="47.25637" lon="6.05708">
        <ele>354.38</ele>
        <time>2018-09-29T11:38:44Z</time>
      </trkpt>
      <trkpt lat="47.25633" lon="6.05708">
        <ele>354.38</ele>
        <time>2018-09-29T11:38:45Z</time>
      </trkpt>
      <trkpt lat="47.25591" lon="6.05724">
        <ele>353.42</ele>
        <time>2018-09-29T11:38:56Z</time>
      </trkpt>
      <trkpt lat="47.25556" lon="6.05743">
        <ele>352.94</ele>
        <time>2018-09-29T11:39:03Z</time>
      </trkpt>
      <trkpt lat="47.2555" lon="6.05746">
        <ele>352.46</ele>
        <time>2018-09-29T11:39:04Z</time>
      </trkpt>
      <trkpt lat="47.25545" lon="6.05749">
        <ele>352.46</ele>
        <time>2018-09-29T11:39:05Z</time>
      </trkpt>
      <trkpt lat="47.2554" lon="6.05754">
        <ele>352.46</ele>
        <time>2018-09-29T11:39:06Z</time>
      </trkpt>
      <trkpt lat="47.25536" lon="6.05757">
        <ele>351.98</ele>
        <time>2018-09-29T11:39:07Z</time>
      </trkpt>
      <trkpt lat="47.25531" lon="6.05761">
        <ele>351.5</ele>
        <time>2018-09-29T11:39:08Z</time>
      </trkpt>
      <trkpt lat="47.25518" lon="6.05769">
        <ele>350.54</ele>
        <time>2018-09-29T11:39:12Z</time>
      </trkpt>
      <trkpt lat="47.25515" lon="6.05771">
        <ele>350.54</ele>
        <time>2018-09-29T11:39:13Z</time>
      </trkpt>
      <trkpt lat="47.25512" lon="6.05773">
        <ele>350.54</ele>
        <time>2018-09-29T11:39:14Z</time>
      </trkpt>
      <trkpt lat="47.25508" lon="6.05776">
        <ele>350.54</ele>
        <time>2018-09-29T11:39:15Z</time>
      </trkpt>
      <trkpt lat="47.25504" lon="6.0578">
        <ele>350.06</ele>
        <time>2018-09-29T11:39:16Z</time>
      </trkpt>
      <trkpt lat="47.255" lon="6.05785">
        <ele>350.06</ele>
        <time>2018-09-29T11:39:17Z</time>
      </trkpt>
      <trkpt lat="47.25495" lon="6.05789">
        <ele>349.58</ele>
        <time>2018-09-29T11:39:18Z</time>
      </trkpt>
      <trkpt lat="47.25491" lon="6.05792">
        <ele>349.58</ele>
        <time>2018-09-29T11:39:19Z</time>
      </trkpt>
      <trkpt lat="47.25488" lon="6.05795">
        <ele>349.58</ele>
        <time>2018-09-29T11:39:20Z</time>
      </trkpt>
      <trkpt lat="47.25485" lon="6.05798">
        <ele>349.58</ele>
        <time>2018-09-29T11:39:21Z</time>
      </trkpt>
      <trkpt lat="47.25483" lon="6.05801">
        <ele>349.58</ele>
        <time>2018-09-29T11:39:22Z</time>
      </trkpt>
      <trkpt lat="47.2545" lon="6.0582">
        <ele>348.62</ele>
        <time>2018-09-29T11:39:31Z</time>
      </trkpt>
      <trkpt lat="47.25442" lon="6.05827">
        <ele>347.65</ele>
        <time>2018-09-29T11:39:33Z</time>
      </trkpt>
      <trkpt lat="47.25439" lon="6.05832">
        <ele>347.65</ele>
        <time>2018-09-29T11:39:34Z</time>
      </trkpt>
      <trkpt lat="47.25436" lon="6.05839">
        <ele>347.17</ele>
        <time>2018-09-29T11:39:35Z</time>
      </trkpt>
      <trkpt lat="47.2543" lon="6.0585">
        <ele>346.69</ele>
        <time>2018-09-29T11:39:37Z</time>
      </trkpt>
      <trkpt lat="47.25411" lon="6.05902">
        <ele>346.69</ele>
        <time>2018-09-29T11:39:46Z</time>
      </trkpt>
      <trkpt lat="47.25407" lon="6.05925">
        <ele>346.69</ele>
        <time>2018-09-29T11:39:50Z</time>
      </trkpt>
      <trkpt lat="47.25405" lon="6.0593">
        <ele>346.69</ele>
        <time>2018-09-29T11:39:51Z</time>
      </trkpt>
      <trkpt lat="47.25403" lon="6.05935">
        <ele>346.69</ele>
        <time>2018-09-29T11:39:52Z</time>
      </trkpt>
      <trkpt lat="47.25401" lon="6.0594">
        <ele>346.69</ele>
        <time>2018-09-29T11:39:53Z</time>
      </trkpt>
      <trkpt lat="47.25399" lon="6.05945">
        <ele>346.21</ele>
        <time>2018-09-29T11:39:54Z</time>
      </trkpt>
      <trkpt lat="47.25398" lon="6.05949">
        <ele>346.21</ele>
        <time>2018-09-29T11:39:55Z</time>
      </trkpt>
      <trkpt lat="47.25396" lon="6.05953">
        <ele>346.21</ele>
        <time>2018-09-29T11:39:56Z</time>
      </trkpt>
      <trkpt lat="47.25379" lon="6.05989">
        <ele>345.73</ele>
        <time>2018-09-29T11:40:05Z</time>
      </trkpt>
      <trkpt lat="47.2536" lon="6.06032">
        <ele>345.25</ele>
        <time>2018-09-29T11:40:14Z</time>
      </trkpt>
      <trkpt lat="47.25359" lon="6.06036">
        <ele>345.25</ele>
        <time>2018-09-29T11:40:15Z</time>
      </trkpt>
      <trkpt lat="47.25358" lon="6.0604">
        <ele>345.25</ele>
        <time>2018-09-29T11:40:16Z</time>
      </trkpt>
      <trkpt lat="47.25359" lon="6.06043">
        <ele>345.25</ele>
        <time>2018-09-29T11:40:17Z</time>
      </trkpt>
      <trkpt lat="47.25359" lon="6.06045">
        <ele>345.25</ele>
        <time>2018-09-29T11:40:18Z</time>
      </trkpt>
      <trkpt lat="47.25361" lon="6.06047">
        <ele>345.25</ele>
        <time>2018-09-29T11:40:19Z</time>
      </trkpt>
      <trkpt lat="47.25366" lon="6.06058">
        <ele>345.73</ele>
        <time>2018-09-29T11:40:23Z</time>
      </trkpt>
      <trkpt lat="47.25368" lon="6.06061">
        <ele>345.73</ele>
        <time>2018-09-29T11:40:24Z</time>
      </trkpt>
      <trkpt lat="47.25369" lon="6.06064">
        <ele>345.73</ele>
        <time>2018-09-29T11:40:25Z</time>
      </trkpt>
      <trkpt lat="47.25379" lon="6.06095">
        <ele>346.69</ele>
        <time>2018-09-29T11:40:33Z</time>
      </trkpt>
      <trkpt lat="47.25381" lon="6.06099">
        <ele>346.69</ele>
        <time>2018-09-29T11:40:34Z</time>
      </trkpt>
      <trkpt lat="47.25383" lon="6.06103">
        <ele>347.17</ele>
        <time>2018-09-29T11:40:35Z</time>
      </trkpt>
      <trkpt lat="47.25386" lon="6.06107">
        <ele>347.17</ele>
        <time>2018-09-29T11:40:36Z</time>
      </trkpt>
      <trkpt lat="47.25388" lon="6.06111">
        <ele>346.69</ele>
        <time>2018-09-29T11:40:37Z</time>
      </trkpt>
      <trkpt lat="47.2539" lon="6.06115">
        <ele>346.69</ele>
        <time>2018-09-29T11:40:38Z</time>
      </trkpt>
      <trkpt lat="47.25392" lon="6.0612">
        <ele>346.69</ele>
        <time>2018-09-29T11:40:39Z</time>
      </trkpt>
      <trkpt lat="47.25392" lon="6.06125">
        <ele>347.17</ele>
        <time>2018-09-29T11:40:40Z</time>
      </trkpt>
      <trkpt lat="47.25392" lon="6.06129">
        <ele>347.17</ele>
        <time>2018-09-29T11:40:41Z</time>
      </trkpt>
      <trkpt lat="47.25392" lon="6.06134">
        <ele>347.17</ele>
        <time>2018-09-29T11:40:42Z</time>
      </trkpt>
      <trkpt lat="47.25392" lon="6.06138">
        <ele>347.17</ele>
        <time>2018-09-29T11:40:43Z</time>
      </trkpt>
      <trkpt lat="47.25391" lon="6.06143">
        <ele>347.17</ele>
        <time>2018-09-29T11:40:44Z</time>
      </trkpt>
      <trkpt lat="47.25391" lon="6.06148">
        <ele>347.17</ele>
        <time>2018-09-29T11:40:45Z</time>
      </trkpt>
      <trkpt lat="47.25392" lon="6.06152">
        <ele>347.17</ele>
        <time>2018-09-29T11:40:46Z</time>
      </trkpt>
      <trkpt lat="47.25392" lon="6.0617">
        <ele>347.65</ele>
        <time>2018-09-29T11:40:51Z</time>
      </trkpt>
      <trkpt lat="47.25369" lon="6.06206">
        <ele>347.65</ele>
        <time>2018-09-29T11:41:02Z</time>
      </trkpt>
      <trkpt lat="47.25343" lon="6.06238">
        <ele>347.65</ele>
        <time>2018-09-29T11:41:13Z</time>
      </trkpt>
      <trkpt lat="47.25316" lon="6.06272">
        <ele>348.62</ele>
        <time>2018-09-29T11:41:25Z</time>
      </trkpt>
      <trkpt lat="47.25298" lon="6.06296">
        <ele>349.58</ele>
        <time>2018-09-29T11:41:34Z</time>
      </trkpt>
      <trkpt lat="47.25297" lon="6.06299">
        <ele>349.58</ele>
        <time>2018-09-29T11:41:35Z</time>
      </trkpt>
      <trkpt lat="47.25297" lon="6.06303">
        <ele>349.58</ele>
        <time>2018-09-29T11:41:36Z</time>
      </trkpt>
      <trkpt lat="47.25297" lon="6.06307">
        <ele>349.58</ele>
        <time>2018-09-29T11:41:37Z</time>
      </trkpt>
      <trkpt lat="47.25298" lon="6.0631">
        <ele>349.58</ele>
        <time>2018-09-29T11:41:38Z</time>
      </trkpt>
      <trkpt lat="47.253" lon="6.06314">
        <ele>349.58</ele>
        <time>2018-09-29T11:41:39Z</time>
      </trkpt>
      <trkpt lat="47.25325" lon="6.06375">
        <ele>350.06</ele>
        <time>2018-09-29T11:41:52Z</time>
      </trkpt>
      <trkpt lat="47.25323" lon="6.06425">
        <ele>349.58</ele>
        <time>2018-09-29T11:42:02Z</time>
      </trkpt>
      <trkpt lat="47.25301" lon="6.06451">
        <ele>352.94</ele>
        <time>2018-09-29T11:42:12Z</time>
      </trkpt>
      <trkpt lat="47.25298" lon="6.06456">
        <ele>353.9</ele>
        <time>2018-09-29T11:42:14Z</time>
      </trkpt>
      <trkpt lat="47.25298" lon="6.06458">
        <ele>353.42</ele>
        <time>2018-09-29T11:42:15Z</time>
      </trkpt>
      <trkpt lat="47.25296" lon="6.0646">
        <ele>353.9</ele>
        <time>2018-09-29T11:42:16Z</time>
      </trkpt>
      <trkpt lat="47.25295" lon="6.06461">
        <ele>353.9</ele>
        <time>2018-09-29T11:42:17Z</time>
      </trkpt>
      <trkpt lat="47.25294" lon="6.06463">
        <ele>354.38</ele>
        <time>2018-09-29T11:42:18Z</time>
      </trkpt>
      <trkpt lat="47.25292" lon="6.06465">
        <ele>354.38</ele>
        <time>2018-09-29T11:42:19Z</time>
      </trkpt>
      <trkpt lat="47.25291" lon="6.06467">
        <ele>354.38</ele>
        <time>2018-09-29T11:42:20Z</time>
      </trkpt>
      <trkpt lat="47.25289" lon="6.06469">
        <ele>354.86</ele>
        <time>2018-09-29T11:42:21Z</time>
      </trkpt>
      <trkpt lat="47.25288" lon="6.06471">
        <ele>354.86</ele>
        <time>2018-09-29T11:42:22Z</time>
      </trkpt>
      <trkpt lat="47.25286" lon="6.06472">
        <ele>354.86</ele>
        <time>2018-09-29T11:42:23Z</time>
      </trkpt>
      <trkpt lat="47.25261" lon="6.06489">
        <ele>356.31</ele>
        <time>2018-09-29T11:42:35Z</time>
      </trkpt>
      <trkpt lat="47.25233" lon="6.06477">
        <ele>359.19</ele>
        <time>2018-09-29T11:42:48Z</time>
      </trkpt>
      <trkpt lat="47.25198" lon="6.06457">
        <ele>361.11</ele>
        <time>2018-09-29T11:43:03Z</time>
      </trkpt>
      <trkpt lat="47.25145" lon="6.06434">
        <ele>361.11</ele>
        <time>2018-09-29T11:43:19Z</time>
      </trkpt>
      <trkpt lat="47.25082" lon="6.06399">
        <ele>358.23</ele>
        <time>2018-09-29T11:43:33Z</time>
      </trkpt>
      <trkpt lat="47.25077" lon="6.06394">
        <ele>358.23</ele>
        <time>2018-09-29T11:43:34Z</time>
      </trkpt>
      <trkpt lat="47.25069" lon="6.06382">
        <ele>358.23</ele>
        <time>2018-09-29T11:43:36Z</time>
      </trkpt>
      <trkpt lat="47.25065" lon="6.06376">
        <ele>358.71</ele>
        <time>2018-09-29T11:43:37Z</time>
      </trkpt>
      <trkpt lat="47.25043" lon="6.06332">
        <ele>358.71</ele>
        <time>2018-09-29T11:43:44Z</time>
      </trkpt>
      <trkpt lat="47.25038" lon="6.06319">
        <ele>358.23</ele>
        <time>2018-09-29T11:43:46Z</time>
      </trkpt>
      <trkpt lat="47.25034" lon="6.06313">
        <ele>358.23</ele>
        <time>2018-09-29T11:43:47Z</time>
      </trkpt>
      <trkpt lat="47.2503" lon="6.06307">
        <ele>358.23</ele>
        <time>2018-09-29T11:43:48Z</time>
      </trkpt>
      <trkpt lat="47.25026" lon="6.06302">
        <ele>358.23</ele>
        <time>2018-09-29T11:43:49Z</time>
      </trkpt>
      <trkpt lat="47.2502" lon="6.06298">
        <ele>357.75</ele>
        <time>2018-09-29T11:43:50Z</time>
      </trkpt>
      <trkpt lat="47.25014" lon="6.06294">
        <ele>357.75</ele>
        <time>2018-09-29T11:43:51Z</time>
      </trkpt>
      <trkpt lat="47.25002" lon="6.06286">
        <ele>356.79</ele>
        <time>2018-09-29T11:43:53Z</time>
      </trkpt>
      <trkpt lat="47.24997" lon="6.0628">
        <ele>356.31</ele>
        <time>2018-09-29T11:43:54Z</time>
      </trkpt>
      <trkpt lat="47.24986" lon="6.06267">
        <ele>356.31</ele>
        <time>2018-09-29T11:43:56Z</time>
      </trkpt>
      <trkpt lat="47.24981" lon="6.06261">
        <ele>355.83</ele>
        <time>2018-09-29T11:43:57Z</time>
      </trkpt>
      <trkpt lat="47.24916" lon="6.06199">
        <ele>356.79</ele>
        <time>2018-09-29T11:44:10Z</time>
      </trkpt>
      <trkpt lat="47.24913" lon="6.06197">
        <ele>356.79</ele>
        <time>2018-09-29T11:44:11Z</time>
      </trkpt>
      <trkpt lat="47.24909" lon="6.06196">
        <ele>356.79</ele>
        <time>2018-09-29T11:44:12Z</time>
      </trkpt>
      <trkpt lat="47.24905" lon="6.06196">
        <ele>357.27</ele>
        <time>2018-09-29T11:44:13Z</time>
      </trkpt>
      <trkpt lat="47.24902" lon="6.06197">
        <ele>357.75</ele>
        <time>2018-09-29T11:44:14Z</time>
      </trkpt>
      <trkpt lat="47.249" lon="6.06199">
        <ele>357.75</ele>
        <time>2018-09-29T11:44:15Z</time>
      </trkpt>
      <trkpt lat="47.24898" lon="6.06201">
        <ele>358.23</ele>
        <time>2018-09-29T11:44:16Z</time>
      </trkpt>
      <trkpt lat="47.2488" lon="6.06213">
        <ele>361.11</ele>
        <time>2018-09-29T11:44:28Z</time>
      </trkpt>
      <trkpt lat="47.24855" lon="6.06225">
        <ele>364</ele>
        <time>2018-09-29T11:44:44Z</time>
      </trkpt>
      <trkpt lat="47.24833" lon="6.06235">
        <ele>366.88</ele>
        <time>2018-09-29T11:44:58Z</time>
      </trkpt>
      <trkpt lat="47.24811" lon="6.06245">
        <ele>370.24</ele>
        <time>2018-09-29T11:45:13Z</time>
      </trkpt>
      <trkpt lat="47.24793" lon="6.06238">
        <ele>372.17</ele>
        <time>2018-09-29T11:45:25Z</time>
      </trkpt>
      <trkpt lat="47.24791" lon="6.06237">
        <ele>372.17</ele>
        <time>2018-09-29T11:45:26Z</time>
      </trkpt>
      <trkpt lat="47.2479" lon="6.06237">
        <ele>372.65</ele>
        <time>2018-09-29T11:45:27Z</time>
      </trkpt>
      <trkpt lat="47.24771" lon="6.06227">
        <ele>375.53</ele>
        <time>2018-09-29T11:45:40Z</time>
      </trkpt>
      <trkpt lat="47.2477" lon="6.06226">
        <ele>375.53</ele>
        <time>2018-09-29T11:45:41Z</time>
      </trkpt>
      <trkpt lat="47.24769" lon="6.06226">
        <ele>376.01</ele>
        <time>2018-09-29T11:45:42Z</time>
      </trkpt>
      <trkpt lat="47.24755" lon="6.06219">
        <ele>377.94</ele>
        <time>2018-09-29T11:45:50Z</time>
      </trkpt>
      <trkpt lat="47.24728" lon="6.06208">
        <ele>377.45</ele>
        <time>2018-09-29T11:46:02Z</time>
      </trkpt>
      <trkpt lat="47.24685" lon="6.06184">
        <ele>376.49</ele>
        <time>2018-09-29T11:46:16Z</time>
      </trkpt>
      <trkpt lat="47.24657" lon="6.06174">
        <ele>373.61</ele>
        <time>2018-09-29T11:46:23Z</time>
      </trkpt>
      <trkpt lat="47.24642" lon="6.06169">
        <ele>370.73</ele>
        <time>2018-09-29T11:46:26Z</time>
      </trkpt>
      <trkpt lat="47.24637" lon="6.06167">
        <ele>370.24</ele>
        <time>2018-09-29T11:46:27Z</time>
      </trkpt>
      <trkpt lat="47.24632" lon="6.06166">
        <ele>368.8</ele>
        <time>2018-09-29T11:46:28Z</time>
      </trkpt>
      <trkpt lat="47.24626" lon="6.06164">
        <ele>367.84</ele>
        <time>2018-09-29T11:46:29Z</time>
      </trkpt>
      <trkpt lat="47.2462" lon="6.06162">
        <ele>366.88</ele>
        <time>2018-09-29T11:46:30Z</time>
      </trkpt>
      <trkpt lat="47.24597" lon="6.06147">
        <ele>364</ele>
        <time>2018-09-29T11:46:34Z</time>
      </trkpt>
      <trkpt lat="47.24584" lon="6.06136">
        <ele>362.55</ele>
        <time>2018-09-29T11:46:36Z</time>
      </trkpt>
      <trkpt lat="47.24568" lon="6.06122">
        <ele>361.59</ele>
        <time>2018-09-29T11:46:39Z</time>
      </trkpt>
      <trkpt lat="47.24564" lon="6.06117">
        <ele>361.59</ele>
        <time>2018-09-29T11:46:40Z</time>
      </trkpt>
      <trkpt lat="47.24559" lon="6.06114">
        <ele>361.11</ele>
        <time>2018-09-29T11:46:41Z</time>
      </trkpt>
      <trkpt lat="47.24554" lon="6.0611">
        <ele>361.11</ele>
        <time>2018-09-29T11:46:42Z</time>
      </trkpt>
      <trkpt lat="47.24549" lon="6.06107">
        <ele>361.11</ele>
        <time>2018-09-29T11:46:43Z</time>
      </trkpt>
      <trkpt lat="47.24544" lon="6.06104">
        <ele>360.15</ele>
        <time>2018-09-29T11:46:44Z</time>
      </trkpt>
      <trkpt lat="47.24538" lon="6.06101">
        <ele>359.19</ele>
        <time>2018-09-29T11:46:45Z</time>
      </trkpt>
      <trkpt lat="47.24532" lon="6.06099">
        <ele>357.75</ele>
        <time>2018-09-29T11:46:46Z</time>
      </trkpt>
      <trkpt lat="47.24525" lon="6.06097">
        <ele>356.79</ele>
        <time>2018-09-29T11:46:47Z</time>
      </trkpt>
      <trkpt lat="47.24519" lon="6.06095">
        <ele>354.38</ele>
        <time>2018-09-29T11:46:48Z</time>
      </trkpt>
      <trkpt lat="47.24513" lon="6.06095">
        <ele>353.42</ele>
        <time>2018-09-29T11:46:49Z</time>
      </trkpt>
      <trkpt lat="47.24508" lon="6.06096">
        <ele>352.46</ele>
        <time>2018-09-29T11:46:50Z</time>
      </trkpt>
      <trkpt lat="47.24504" lon="6.06099">
        <ele>351.5</ele>
        <time>2018-09-29T11:46:51Z</time>
      </trkpt>
      <trkpt lat="47.24502" lon="6.06103">
        <ele>350.54</ele>
        <time>2018-09-29T11:46:52Z</time>
      </trkpt>
      <trkpt lat="47.245" lon="6.06108">
        <ele>348.62</ele>
        <time>2018-09-29T11:46:53Z</time>
      </trkpt>
      <trkpt lat="47.24497" lon="6.06114">
        <ele>346.69</ele>
        <time>2018-09-29T11:46:54Z</time>
      </trkpt>
      <trkpt lat="47.24494" lon="6.06121">
        <ele>344.77</ele>
        <time>2018-09-29T11:46:55Z</time>
      </trkpt>
      <trkpt lat="47.24488" lon="6.06138">
        <ele>339.96</ele>
        <time>2018-09-29T11:46:57Z</time>
      </trkpt>
      <trkpt lat="47.24484" lon="6.06146">
        <ele>338.52</ele>
        <time>2018-09-29T11:46:58Z</time>
      </trkpt>
      <trkpt lat="47.24477" lon="6.06158">
        <ele>336.12</ele>
        <time>2018-09-29T11:47:00Z</time>
      </trkpt>
      <trkpt lat="47.24474" lon="6.06163">
        <ele>335.16</ele>
        <time>2018-09-29T11:47:01Z</time>
      </trkpt>
      <trkpt lat="47.2447" lon="6.06169">
        <ele>333.71</ele>
        <time>2018-09-29T11:47:02Z</time>
      </trkpt>
      <trkpt lat="47.24467" lon="6.06175">
        <ele>332.75</ele>
        <time>2018-09-29T11:47:03Z</time>
      </trkpt>
      <trkpt lat="47.24463" lon="6.06181">
        <ele>331.79</ele>
        <time>2018-09-29T11:47:04Z</time>
      </trkpt>
      <trkpt lat="47.24458" lon="6.06185">
        <ele>331.31</ele>
        <time>2018-09-29T11:47:05Z</time>
      </trkpt>
      <trkpt lat="47.24453" lon="6.06188">
        <ele>330.35</ele>
        <time>2018-09-29T11:47:06Z</time>
      </trkpt>
      <trkpt lat="47.24448" lon="6.06189">
        <ele>329.87</ele>
        <time>2018-09-29T11:47:07Z</time>
      </trkpt>
      <trkpt lat="47.24442" lon="6.0619">
        <ele>329.39</ele>
        <time>2018-09-29T11:47:08Z</time>
      </trkpt>
      <trkpt lat="47.24436" lon="6.0619">
        <ele>328.91</ele>
        <time>2018-09-29T11:47:09Z</time>
      </trkpt>
      <trkpt lat="47.24431" lon="6.0619">
        <ele>328.43</ele>
        <time>2018-09-29T11:47:10Z</time>
      </trkpt>
      <trkpt lat="47.24426" lon="6.06191">
        <ele>328.43</ele>
        <time>2018-09-29T11:47:11Z</time>
      </trkpt>
      <trkpt lat="47.24409" lon="6.06194">
        <ele>326.5</ele>
        <time>2018-09-29T11:47:14Z</time>
      </trkpt>
      <trkpt lat="47.24401" lon="6.06194">
        <ele>325.06</ele>
        <time>2018-09-29T11:47:15Z</time>
      </trkpt>
      <trkpt lat="47.24392" lon="6.06192">
        <ele>322.18</ele>
        <time>2018-09-29T11:47:16Z</time>
      </trkpt>
      <trkpt lat="47.24384" lon="6.06189">
        <ele>321.7</ele>
        <time>2018-09-29T11:47:17Z</time>
      </trkpt>
      <trkpt lat="47.24376" lon="6.06185">
        <ele>321.22</ele>
        <time>2018-09-29T11:47:18Z</time>
      </trkpt>
      <trkpt lat="47.24367" lon="6.06182">
        <ele>320.26</ele>
        <time>2018-09-29T11:47:19Z</time>
      </trkpt>
      <trkpt lat="47.24358" lon="6.06182">
        <ele>319.3</ele>
        <time>2018-09-29T11:47:20Z</time>
      </trkpt>
      <trkpt lat="47.24338" lon="6.0618">
        <ele>315.93</ele>
        <time>2018-09-29T11:47:22Z</time>
      </trkpt>
      <trkpt lat="47.24329" lon="6.06177">
        <ele>314.97</ele>
        <time>2018-09-29T11:47:23Z</time>
      </trkpt>
      <trkpt lat="47.24319" lon="6.06173">
        <ele>314.49</ele>
        <time>2018-09-29T11:47:24Z</time>
      </trkpt>
      <trkpt lat="47.2431" lon="6.06167">
        <ele>314.49</ele>
        <time>2018-09-29T11:47:25Z</time>
      </trkpt>
      <trkpt lat="47.24301" lon="6.0616">
        <ele>312.57</ele>
        <time>2018-09-29T11:47:26Z</time>
      </trkpt>
      <trkpt lat="47.24292" lon="6.06153">
        <ele>312.57</ele>
        <time>2018-09-29T11:47:27Z</time>
      </trkpt>
      <trkpt lat="47.24263" lon="6.06132">
        <ele>308.72</ele>
        <time>2018-09-29T11:47:30Z</time>
      </trkpt>
      <trkpt lat="47.24232" lon="6.0611">
        <ele>305.84</ele>
        <time>2018-09-29T11:47:33Z</time>
      </trkpt>
      <trkpt lat="47.24222" lon="6.06104">
        <ele>305.36</ele>
        <time>2018-09-29T11:47:34Z</time>
      </trkpt>
      <trkpt lat="47.24168" lon="6.06072">
        <ele>298.15</ele>
        <time>2018-09-29T11:47:39Z</time>
      </trkpt>
      <trkpt lat="47.24145" lon="6.06063">
        <ele>294.3</ele>
        <time>2018-09-29T11:47:41Z</time>
      </trkpt>
      <trkpt lat="47.24133" lon="6.06057">
        <ele>294.3</ele>
        <time>2018-09-29T11:47:42Z</time>
      </trkpt>
      <trkpt lat="47.24094" lon="6.06037">
        <ele>293.34</ele>
        <time>2018-09-29T11:47:46Z</time>
      </trkpt>
      <trkpt lat="47.24085" lon="6.06036">
        <ele>292.38</ele>
        <time>2018-09-29T11:47:47Z</time>
      </trkpt>
      <trkpt lat="47.24074" lon="6.06038">
        <ele>290.94</ele>
        <time>2018-09-29T11:47:48Z</time>
      </trkpt>
      <trkpt lat="47.24052" lon="6.0604">
        <ele>288.05</ele>
        <time>2018-09-29T11:47:50Z</time>
      </trkpt>
      <trkpt lat="47.24041" lon="6.06038">
        <ele>286.61</ele>
        <time>2018-09-29T11:47:51Z</time>
      </trkpt>
      <trkpt lat="47.2403" lon="6.06035">
        <ele>285.17</ele>
        <time>2018-09-29T11:47:52Z</time>
      </trkpt>
      <trkpt lat="47.24019" lon="6.06033">
        <ele>284.21</ele>
        <time>2018-09-29T11:47:53Z</time>
      </trkpt>
      <trkpt lat="47.24008" lon="6.06033">
        <ele>284.69</ele>
        <time>2018-09-29T11:47:54Z</time>
      </trkpt>
      <trkpt lat="47.23996" lon="6.06035">
        <ele>283.25</ele>
        <time>2018-09-29T11:47:55Z</time>
      </trkpt>
      <trkpt lat="47.23985" lon="6.06037">
        <ele>281.32</ele>
        <time>2018-09-29T11:47:56Z</time>
      </trkpt>
      <trkpt lat="47.23962" lon="6.0604">
        <ele>278.92</ele>
        <time>2018-09-29T11:47:58Z</time>
      </trkpt>
      <trkpt lat="47.2395" lon="6.06039">
        <ele>277.48</ele>
        <time>2018-09-29T11:47:59Z</time>
      </trkpt>
      <trkpt lat="47.23906" lon="6.06023">
        <ele>274.11</ele>
        <time>2018-09-29T11:48:03Z</time>
      </trkpt>
      <trkpt lat="47.23896" lon="6.0602">
        <ele>274.11</ele>
        <time>2018-09-29T11:48:04Z</time>
      </trkpt>
      <trkpt lat="47.23885" lon="6.06018">
        <ele>275.56</ele>
        <time>2018-09-29T11:48:05Z</time>
      </trkpt>
      <trkpt lat="47.23807" lon="6.06009">
        <ele>274.11</ele>
        <time>2018-09-29T11:48:13Z</time>
      </trkpt>
      <trkpt lat="47.23798" lon="6.06005">
        <ele>272.67</ele>
        <time>2018-09-29T11:48:14Z</time>
      </trkpt>
      <trkpt lat="47.2379" lon="6.06">
        <ele>271.71</ele>
        <time>2018-09-29T11:48:15Z</time>
      </trkpt>
      <trkpt lat="47.23782" lon="6.05992">
        <ele>270.27</ele>
        <time>2018-09-29T11:48:16Z</time>
      </trkpt>
      <trkpt lat="47.23774" lon="6.05984">
        <ele>267.86</ele>
        <time>2018-09-29T11:48:17Z</time>
      </trkpt>
      <trkpt lat="47.23765" lon="6.05978">
        <ele>265.46</ele>
        <time>2018-09-29T11:48:18Z</time>
      </trkpt>
      <trkpt lat="47.23755" lon="6.05974">
        <ele>263.06</ele>
        <time>2018-09-29T11:48:19Z</time>
      </trkpt>
      <trkpt lat="47.23745" lon="6.05972">
        <ele>260.65</ele>
        <time>2018-09-29T11:48:20Z</time>
      </trkpt>
      <trkpt lat="47.23734" lon="6.05972">
        <ele>258.25</ele>
        <time>2018-09-29T11:48:21Z</time>
      </trkpt>
      <trkpt lat="47.23723" lon="6.05973">
        <ele>256.33</ele>
        <time>2018-09-29T11:48:22Z</time>
      </trkpt>
      <trkpt lat="47.23711" lon="6.05976">
        <ele>254.41</ele>
        <time>2018-09-29T11:48:23Z</time>
      </trkpt>
      <trkpt lat="47.237" lon="6.05982">
        <ele>251.04</ele>
        <time>2018-09-29T11:48:24Z</time>
      </trkpt>
      <trkpt lat="47.23689" lon="6.0599">
        <ele>249.12</ele>
        <time>2018-09-29T11:48:25Z</time>
      </trkpt>
      <trkpt lat="47.2368" lon="6.05999">
        <ele>248.64</ele>
        <time>2018-09-29T11:48:26Z</time>
      </trkpt>
      <trkpt lat="47.23672" lon="6.06008">
        <ele>248.16</ele>
        <time>2018-09-29T11:48:27Z</time>
      </trkpt>
      <trkpt lat="47.23664" lon="6.06014">
        <ele>247.68</ele>
        <time>2018-09-29T11:48:28Z</time>
      </trkpt>
      <trkpt lat="47.23656" lon="6.06016">
        <ele>249.6</ele>
        <time>2018-09-29T11:48:29Z</time>
      </trkpt>
      <trkpt lat="47.23648" lon="6.06015">
        <ele>249.6</ele>
        <time>2018-09-29T11:48:30Z</time>
      </trkpt>
      <trkpt lat="47.2364" lon="6.06012">
        <ele>249.12</ele>
        <time>2018-09-29T11:48:31Z</time>
      </trkpt>
      <trkpt lat="47.23633" lon="6.06008">
        <ele>250.08</ele>
        <time>2018-09-29T11:48:32Z</time>
      </trkpt>
      <trkpt lat="47.23541" lon="6.05961">
        <ele>250.56</ele>
        <time>2018-09-29T11:48:46Z</time>
      </trkpt>
      <trkpt lat="47.23463" lon="6.05944">
        <ele>251.04</ele>
        <time>2018-09-29T11:49:01Z</time>
      </trkpt>
      <trkpt lat="47.23376" lon="6.05918">
        <ele>250.08</ele>
        <time>2018-09-29T11:49:19Z</time>
      </trkpt>
      <trkpt lat="47.23298" lon="6.05862">
        <ele>250.56</ele>
        <time>2018-09-29T11:49:36Z</time>
      </trkpt>
      <trkpt lat="47.23234" lon="6.0579">
        <ele>250.56</ele>
        <time>2018-09-29T11:49:53Z</time>
      </trkpt>
      <trkpt lat="47.2323" lon="6.05785">
        <ele>250.56</ele>
        <time>2018-09-29T11:49:54Z</time>
      </trkpt>
      <trkpt lat="47.23216" lon="6.05762">
        <ele>250.56</ele>
        <time>2018-09-29T11:49:59Z</time>
      </trkpt>
      <trkpt lat="47.23214" lon="6.05757">
        <ele>250.56</ele>
        <time>2018-09-29T11:50:00Z</time>
      </trkpt>
      <trkpt lat="47.23212" lon="6.05751">
        <ele>251.04</ele>
        <time>2018-09-29T11:50:01Z</time>
      </trkpt>
      <trkpt lat="47.23211" lon="6.05744">
        <ele>250.56</ele>
        <time>2018-09-29T11:50:02Z</time>
      </trkpt>
      <trkpt lat="47.2321" lon="6.05738">
        <ele>251.04</ele>
        <time>2018-09-29T11:50:03Z</time>
      </trkpt>
      <trkpt lat="47.23201" lon="6.0569">
        <ele>250.56</ele>
        <time>2018-09-29T11:50:10Z</time>
      </trkpt>
      <trkpt lat="47.23199" lon="6.05683">
        <ele>250.56</ele>
        <time>2018-09-29T11:50:11Z</time>
      </trkpt>
      <trkpt lat="47.23196" lon="6.05677">
        <ele>250.56</ele>
        <time>2018-09-29T11:50:12Z</time>
      </trkpt>
      <trkpt lat="47.23141" lon="6.05615">
        <ele>251.52</ele>
        <time>2018-09-29T11:50:27Z</time>
      </trkpt>
      <trkpt lat="47.23131" lon="6.05606">
        <ele>251.52</ele>
        <time>2018-09-29T11:50:30Z</time>
      </trkpt>
      <trkpt lat="47.23127" lon="6.05605">
        <ele>252</ele>
        <time>2018-09-29T11:50:31Z</time>
      </trkpt>
      <trkpt lat="47.23086" lon="6.05616">
        <ele>252</ele>
        <time>2018-09-29T11:50:42Z</time>
      </trkpt>
      <trkpt lat="47.23086" lon="6.05621">
        <ele>252</ele>
        <time>2018-09-29T11:50:43Z</time>
      </trkpt>
      <trkpt lat="47.23087" lon="6.05626">
        <ele>251.52</ele>
        <time>2018-09-29T11:50:44Z</time>
      </trkpt>
      <trkpt lat="47.23088" lon="6.05659">
        <ele>252</ele>
        <time>2018-09-29T11:50:50Z</time>
      </trkpt>
      <trkpt lat="47.2309" lon="6.05664">
        <ele>252.96</ele>
        <time>2018-09-29T11:50:51Z</time>
      </trkpt>
      <trkpt lat="47.23092" lon="6.05669">
        <ele>253.44</ele>
        <time>2018-09-29T11:50:52Z</time>
      </trkpt>
      <trkpt lat="47.23094" lon="6.05673">
        <ele>252</ele>
        <time>2018-09-29T11:50:53Z</time>
      </trkpt>
      <trkpt lat="47.23097" lon="6.05677">
        <ele>251.04</ele>
        <time>2018-09-29T11:50:54Z</time>
      </trkpt>
      <trkpt lat="47.231" lon="6.0568">
        <ele>251.04</ele>
        <time>2018-09-29T11:50:55Z</time>
      </trkpt>
      <trkpt lat="47.23103" lon="6.05682">
        <ele>251.52</ele>
        <time>2018-09-29T11:50:56Z</time>
      </trkpt>
      <trkpt lat="47.23142" lon="6.0571">
        <ele>252.96</ele>
        <time>2018-09-29T11:51:10Z</time>
      </trkpt>
      <trkpt lat="47.2315" lon="6.05715">
        <ele>253.93</ele>
        <time>2018-09-29T11:51:13Z</time>
      </trkpt>
      <trkpt lat="47.23156" lon="6.05721">
        <ele>254.89</ele>
        <time>2018-09-29T11:51:16Z</time>
      </trkpt>
      <trkpt lat="47.23156" lon="6.05724">
        <ele>255.37</ele>
        <time>2018-09-29T11:51:17Z</time>
      </trkpt>
      <trkpt lat="47.23154" lon="6.05727">
        <ele>257.29</ele>
        <time>2018-09-29T11:51:18Z</time>
      </trkpt>
      <trkpt lat="47.2313" lon="6.05775">
        <ele>258.25</ele>
        <time>2018-09-29T11:51:30Z</time>
      </trkpt>
      <trkpt lat="47.23119" lon="6.05796">
        <ele>260.65</ele>
        <time>2018-09-29T11:51:35Z</time>
      </trkpt>
      <trkpt lat="47.23113" lon="6.0581">
        <ele>258.73</ele>
        <time>2018-09-29T11:51:38Z</time>
      </trkpt>
      <trkpt lat="47.23107" lon="6.05823">
        <ele>259.21</ele>
        <time>2018-09-29T11:51:41Z</time>
      </trkpt>
      <trkpt lat="47.23097" lon="6.05818">
        <ele>256.81</ele>
        <time>2018-09-29T11:51:45Z</time>
      </trkpt>
      <trkpt lat="47.23094" lon="6.05815">
        <ele>255.85</ele>
        <time>2018-09-29T11:51:46Z</time>
      </trkpt>
      <trkpt lat="47.2309" lon="6.05812">
        <ele>255.37</ele>
        <time>2018-09-29T11:51:47Z</time>
      </trkpt>
      <trkpt lat="47.23081" lon="6.05806">
        <ele>254.41</ele>
        <time>2018-09-29T11:51:49Z</time>
      </trkpt>
      <trkpt lat="47.23065" lon="6.05793">
        <ele>253.44</ele>
        <time>2018-09-29T11:51:54Z</time>
      </trkpt>
      <trkpt lat="47.23064" lon="6.05796">
        <ele>253.44</ele>
        <time>2018-09-29T11:51:55Z</time>
      </trkpt>
      <trkpt lat="47.23064" lon="6.05799">
        <ele>252.96</ele>
        <time>2018-09-29T11:51:56Z</time>
      </trkpt>
      <trkpt lat="47.23062" lon="6.05803">
        <ele>252.96</ele>
        <time>2018-09-29T11:51:57Z</time>
      </trkpt>
      <trkpt lat="47.23061" lon="6.05806">
        <ele>252.96</ele>
        <time>2018-09-29T11:51:58Z</time>
      </trkpt>
      <trkpt lat="47.23062" lon="6.05809">
        <ele>252.48</ele>
        <time>2018-09-29T11:51:59Z</time>
      </trkpt>
      <trkpt lat="47.23064" lon="6.05812">
        <ele>252.48</ele>
        <time>2018-09-29T11:52:00Z</time>
      </trkpt>
      <trkpt lat="47.23067" lon="6.05815">
        <ele>252</ele>
        <time>2018-09-29T11:52:01Z</time>
      </trkpt>
      <trkpt lat="47.2307" lon="6.05817">
        <ele>252</ele>
        <time>2018-09-29T11:52:02Z</time>
      </trkpt>
      <trkpt lat="47.23076" lon="6.05824">
        <ele>251.04</ele>
        <time>2018-09-29T11:52:04Z</time>
      </trkpt>
      <trkpt lat="47.23077" lon="6.05827">
        <ele>251.04</ele>
        <time>2018-09-29T11:52:05Z</time>
      </trkpt>
      <trkpt lat="47.23079" lon="6.0583">
        <ele>251.52</ele>
        <time>2018-09-29T11:52:06Z</time>
      </trkpt>
      <trkpt lat="47.23081" lon="6.05832">
        <ele>251.04</ele>
        <time>2018-09-29T11:52:07Z</time>
      </trkpt>
      <trkpt lat="47.23084" lon="6.05834">
        <ele>250.56</ele>
        <time>2018-09-29T11:52:08Z</time>
      </trkpt>
      <trkpt lat="47.23087" lon="6.05837">
        <ele>250.08</ele>
        <time>2018-09-29T11:52:09Z</time>
      </trkpt>
      <trkpt lat="47.23146" lon="6.05887">
        <ele>249.6</ele>
        <time>2018-09-29T11:52:25Z</time>
      </trkpt>
      <trkpt lat="47.23212" lon="6.0594">
        <ele>249.6</ele>
        <time>2018-09-29T11:52:42Z</time>
      </trkpt>
      <trkpt lat="47.23233" lon="6.05961">
        <ele>249.6</ele>
        <time>2018-09-29T11:52:48Z</time>
      </trkpt>
      <trkpt lat="47.23286" lon="6.0602">
        <ele>248.64</ele>
        <time>2018-09-29T11:53:02Z</time>
      </trkpt>
      <trkpt lat="47.23344" lon="6.0607">
        <ele>249.6</ele>
        <time>2018-09-29T11:53:17Z</time>
      </trkpt>
      <trkpt lat="47.23418" lon="6.06098">
        <ele>248.16</ele>
        <time>2018-09-29T11:53:33Z</time>
      </trkpt>
      <trkpt lat="47.23446" lon="6.06106">
        <ele>249.12</ele>
        <time>2018-09-29T11:53:39Z</time>
      </trkpt>
      <trkpt lat="47.23515" lon="6.06122">
        <ele>249.12</ele>
        <time>2018-09-29T11:53:55Z</time>
      </trkpt>
      <trkpt lat="47.23524" lon="6.06124">
        <ele>248.64</ele>
        <time>2018-09-29T11:53:57Z</time>
      </trkpt>
      <trkpt lat="47.23528" lon="6.06125">
        <ele>248.64</ele>
        <time>2018-09-29T11:53:58Z</time>
      </trkpt>
      <trkpt lat="47.23613" lon="6.06151">
        <ele>248.64</ele>
        <time>2018-09-29T11:54:17Z</time>
      </trkpt>
      <trkpt lat="47.23692" lon="6.06181">
        <ele>249.6</ele>
        <time>2018-09-29T11:54:34Z</time>
      </trkpt>
      <trkpt lat="47.23766" lon="6.06224">
        <ele>249.6</ele>
        <time>2018-09-29T11:54:51Z</time>
      </trkpt>
      <trkpt lat="47.2383" lon="6.06278">
        <ele>250.56</ele>
        <time>2018-09-29T11:55:07Z</time>
      </trkpt>
      <trkpt lat="47.23834" lon="6.06281">
        <ele>250.56</ele>
        <time>2018-09-29T11:55:08Z</time>
      </trkpt>
      <trkpt lat="47.23838" lon="6.06285">
        <ele>250.56</ele>
        <time>2018-09-29T11:55:09Z</time>
      </trkpt>
      <trkpt lat="47.23841" lon="6.06289">
        <ele>250.56</ele>
        <time>2018-09-29T11:55:10Z</time>
      </trkpt>
      <trkpt lat="47.23845" lon="6.06293">
        <ele>250.56</ele>
        <time>2018-09-29T11:55:11Z</time>
      </trkpt>
      <trkpt lat="47.2391" lon="6.06378">
        <ele>250.08</ele>
        <time>2018-09-29T11:55:29Z</time>
      </trkpt>
      <trkpt lat="47.2397" lon="6.06463">
        <ele>250.56</ele>
        <time>2018-09-29T11:55:46Z</time>
      </trkpt>
      <trkpt lat="47.23996" lon="6.06493">
        <ele>249.12</ele>
        <time>2018-09-29T11:55:53Z</time>
      </trkpt>
      <trkpt lat="47.24059" lon="6.06557">
        <ele>249.12</ele>
        <time>2018-09-29T11:56:09Z</time>
      </trkpt>
      <trkpt lat="47.24112" lon="6.06623">
        <ele>248.64</ele>
        <time>2018-09-29T11:56:24Z</time>
      </trkpt>
      <trkpt lat="47.24119" lon="6.06631">
        <ele>250.08</ele>
        <time>2018-09-29T11:56:26Z</time>
      </trkpt>
      <trkpt lat="47.24174" lon="6.06692">
        <ele>250.08</ele>
        <time>2018-09-29T11:56:42Z</time>
      </trkpt>
      <trkpt lat="47.24204" lon="6.06733">
        <ele>250.08</ele>
        <time>2018-09-29T11:56:53Z</time>
      </trkpt>
      <trkpt lat="47.2425" lon="6.06778">
        <ele>251.52</ele>
        <time>2018-09-29T11:57:07Z</time>
      </trkpt>
      <trkpt lat="47.24316" lon="6.06845">
        <ele>250.56</ele>
        <time>2018-09-29T11:57:26Z</time>
      </trkpt>
      <trkpt lat="47.24347" lon="6.06885">
        <ele>251.04</ele>
        <time>2018-09-29T11:57:36Z</time>
      </trkpt>
      <trkpt lat="47.2435" lon="6.06889">
        <ele>251.04</ele>
        <time>2018-09-29T11:57:37Z</time>
      </trkpt>
      <trkpt lat="47.24356" lon="6.06898">
        <ele>252</ele>
        <time>2018-09-29T11:57:39Z</time>
      </trkpt>
      <trkpt lat="47.24359" lon="6.06901">
        <ele>252</ele>
        <time>2018-09-29T11:57:40Z</time>
      </trkpt>
      <trkpt lat="47.24363" lon="6.06905">
        <ele>251.52</ele>
        <time>2018-09-29T11:57:41Z</time>
      </trkpt>
      <trkpt lat="47.24366" lon="6.06909">
        <ele>252</ele>
        <time>2018-09-29T11:57:42Z</time>
      </trkpt>
      <trkpt lat="47.2437" lon="6.06913">
        <ele>252</ele>
        <time>2018-09-29T11:57:43Z</time>
      </trkpt>
      <trkpt lat="47.24373" lon="6.06916">
        <ele>252</ele>
        <time>2018-09-29T11:57:44Z</time>
      </trkpt>
      <trkpt lat="47.24377" lon="6.06919">
        <ele>252</ele>
        <time>2018-09-29T11:57:45Z</time>
      </trkpt>
      <trkpt lat="47.24412" lon="6.06957">
        <ele>253.44</ele>
        <time>2018-09-29T11:57:57Z</time>
      </trkpt>
      <trkpt lat="47.24453" lon="6.07001">
        <ele>254.41</ele>
        <time>2018-09-29T11:58:11Z</time>
      </trkpt>
      <trkpt lat="47.24498" lon="6.07045">
        <ele>255.37</ele>
        <time>2018-09-29T11:58:26Z</time>
      </trkpt>
      <trkpt lat="47.24506" lon="6.07068">
        <ele>257.29</ele>
        <time>2018-09-29T11:58:38Z</time>
      </trkpt>
      <trkpt lat="47.24507" lon="6.0707">
        <ele>257.77</ele>
        <time>2018-09-29T11:58:39Z</time>
      </trkpt>
      <trkpt lat="47.24508" lon="6.07071">
        <ele>257.77</ele>
        <time>2018-09-29T11:58:40Z</time>
      </trkpt>
      <trkpt lat="47.24508" lon="6.07073">
        <ele>257.77</ele>
        <time>2018-09-29T11:58:41Z</time>
      </trkpt>
      <trkpt lat="47.24508" lon="6.07075">
        <ele>258.25</ele>
        <time>2018-09-29T11:58:42Z</time>
      </trkpt>
      <trkpt lat="47.24509" lon="6.07077">
        <ele>258.73</ele>
        <time>2018-09-29T11:58:43Z</time>
      </trkpt>
      <trkpt lat="47.2451" lon="6.07081">
        <ele>259.21</ele>
        <time>2018-09-29T11:58:45Z</time>
      </trkpt>
      <trkpt lat="47.24511" lon="6.07093">
        <ele>260.65</ele>
        <time>2018-09-29T11:58:52Z</time>
      </trkpt>
      <trkpt lat="47.24516" lon="6.07106">
        <ele>263.06</ele>
        <time>2018-09-29T11:59:02Z</time>
      </trkpt>
      <trkpt lat="47.24519" lon="6.07114">
        <ele>264.5</ele>
        <time>2018-09-29T11:59:08Z</time>
      </trkpt>
      <trkpt lat="47.24526" lon="6.07127">
        <ele>266.9</ele>
        <time>2018-09-29T11:59:16Z</time>
      </trkpt>
      <trkpt lat="47.24527" lon="6.07128">
        <ele>267.38</ele>
        <time>2018-09-29T11:59:17Z</time>
      </trkpt>
      <trkpt lat="47.24529" lon="6.07132">
        <ele>268.35</ele>
        <time>2018-09-29T11:59:19Z</time>
      </trkpt>
      <trkpt lat="47.2453" lon="6.07139">
        <ele>268.83</ele>
        <time>2018-09-29T11:59:22Z</time>
      </trkpt>
      <trkpt lat="47.2453" lon="6.07141">
        <ele>268.83</ele>
        <time>2018-09-29T11:59:23Z</time>
      </trkpt>
      <trkpt lat="47.24531" lon="6.07146">
        <ele>269.31</ele>
        <time>2018-09-29T11:59:25Z</time>
      </trkpt>
      <trkpt lat="47.24532" lon="6.07148">
        <ele>269.79</ele>
        <time>2018-09-29T11:59:26Z</time>
      </trkpt>
      <trkpt lat="47.24533" lon="6.0715">
        <ele>269.79</ele>
        <time>2018-09-29T11:59:27Z</time>
      </trkpt>
      <trkpt lat="47.24535" lon="6.07156">
        <ele>270.27</ele>
        <time>2018-09-29T11:59:30Z</time>
      </trkpt>
      <trkpt lat="47.24536" lon="6.07158">
        <ele>270.27</ele>
        <time>2018-09-29T11:59:31Z</time>
      </trkpt>
      <trkpt lat="47.24539" lon="6.07162">
        <ele>271.23</ele>
        <time>2018-09-29T11:59:34Z</time>
      </trkpt>
      <trkpt lat="47.24539" lon="6.07164">
        <ele>271.23</ele>
        <time>2018-09-29T11:59:35Z</time>
      </trkpt>
      <trkpt lat="47.2454" lon="6.07166">
        <ele>271.71</ele>
        <time>2018-09-29T11:59:36Z</time>
      </trkpt>
      <trkpt lat="47.24541" lon="6.07167">
        <ele>271.71</ele>
        <time>2018-09-29T11:59:37Z</time>
      </trkpt>
      <trkpt lat="47.24542" lon="6.07169">
        <ele>271.71</ele>
        <time>2018-09-29T11:59:38Z</time>
      </trkpt>
      <trkpt lat="47.24545" lon="6.07175">
        <ele>272.19</ele>
        <time>2018-09-29T11:59:41Z</time>
      </trkpt>
      <trkpt lat="47.24547" lon="6.07177">
        <ele>272.67</ele>
        <time>2018-09-29T11:59:42Z</time>
      </trkpt>
      <trkpt lat="47.24548" lon="6.07178">
        <ele>272.67</ele>
        <time>2018-09-29T11:59:43Z</time>
      </trkpt>
      <trkpt lat="47.24549" lon="6.0718">
        <ele>273.15</ele>
        <time>2018-09-29T11:59:44Z</time>
      </trkpt>
      <trkpt lat="47.2455" lon="6.07183">
        <ele>273.63</ele>
        <time>2018-09-29T11:59:45Z</time>
      </trkpt>
      <trkpt lat="47.2455" lon="6.07185">
        <ele>273.63</ele>
        <time>2018-09-29T11:59:46Z</time>
      </trkpt>
      <trkpt lat="47.24551" lon="6.07187">
        <ele>273.63</ele>
        <time>2018-09-29T11:59:47Z</time>
      </trkpt>
      <trkpt lat="47.24551" lon="6.07189">
        <ele>273.63</ele>
        <time>2018-09-29T11:59:48Z</time>
      </trkpt>
      <trkpt lat="47.24552" lon="6.07191">
        <ele>274.11</ele>
        <time>2018-09-29T11:59:49Z</time>
      </trkpt>
      <trkpt lat="47.24553" lon="6.07216">
        <ele>274.11</ele>
        <time>2018-09-29T11:59:58Z</time>
      </trkpt>
      <trkpt lat="47.24549" lon="6.07241">
        <ele>275.07</ele>
        <time>2018-09-29T12:00:07Z</time>
      </trkpt>
      <trkpt lat="47.2455" lon="6.07245">
        <ele>275.56</ele>
        <time>2018-09-29T12:00:09Z</time>
      </trkpt>
      <trkpt lat="47.2455" lon="6.07249">
        <ele>276.04</ele>
        <time>2018-09-29T12:00:11Z</time>
      </trkpt>
      <trkpt lat="47.24551" lon="6.07251">
        <ele>276.04</ele>
        <time>2018-09-29T12:00:12Z</time>
      </trkpt>
      <trkpt lat="47.24552" lon="6.07253">
        <ele>276.04</ele>
        <time>2018-09-29T12:00:13Z</time>
      </trkpt>
      <trkpt lat="47.24552" lon="6.07255">
        <ele>276.04</ele>
        <time>2018-09-29T12:00:14Z</time>
      </trkpt>
      <trkpt lat="47.24553" lon="6.07257">
        <ele>276.52</ele>
        <time>2018-09-29T12:00:15Z</time>
      </trkpt>
      <trkpt lat="47.24553" lon="6.07259">
        <ele>276.52</ele>
        <time>2018-09-29T12:00:16Z</time>
      </trkpt>
      <trkpt lat="47.24554" lon="6.07261">
        <ele>277</ele>
        <time>2018-09-29T12:00:17Z</time>
      </trkpt>
      <trkpt lat="47.24554" lon="6.07262">
        <ele>277</ele>
        <time>2018-09-29T12:00:18Z</time>
      </trkpt>
      <trkpt lat="47.24554" lon="6.07267">
        <ele>277.48</ele>
        <time>2018-09-29T12:00:21Z</time>
      </trkpt>
      <trkpt lat="47.24555" lon="6.07274">
        <ele>278.44</ele>
        <time>2018-09-29T12:00:24Z</time>
      </trkpt>
      <trkpt lat="47.24556" lon="6.07276">
        <ele>278.44</ele>
        <time>2018-09-29T12:00:25Z</time>
      </trkpt>
      <trkpt lat="47.24562" lon="6.07291">
        <ele>280.84</ele>
        <time>2018-09-29T12:00:32Z</time>
      </trkpt>
      <trkpt lat="47.24567" lon="6.07298">
        <ele>281.8</ele>
        <time>2018-09-29T12:00:36Z</time>
      </trkpt>
      <trkpt lat="47.24581" lon="6.07304">
        <ele>284.21</ele>
        <time>2018-09-29T12:00:47Z</time>
      </trkpt>
      <trkpt lat="47.24583" lon="6.07305">
        <ele>284.69</ele>
        <time>2018-09-29T12:00:49Z</time>
      </trkpt>
      <trkpt lat="47.24584" lon="6.07305">
        <ele>284.69</ele>
        <time>2018-09-29T12:00:50Z</time>
      </trkpt>
      <trkpt lat="47.24586" lon="6.07305">
        <ele>285.17</ele>
        <time>2018-09-29T12:00:51Z</time>
      </trkpt>
      <trkpt lat="47.24588" lon="6.07305">
        <ele>285.17</ele>
        <time>2018-09-29T12:00:53Z</time>
      </trkpt>
      <trkpt lat="47.2459" lon="6.07306">
        <ele>286.13</ele>
        <time>2018-09-29T12:00:54Z</time>
      </trkpt>
      <trkpt lat="47.24602" lon="6.07311">
        <ele>289.01</ele>
        <time>2018-09-29T12:01:05Z</time>
      </trkpt>
      <trkpt lat="47.24609" lon="6.0732">
        <ele>290.94</ele>
        <time>2018-09-29T12:01:14Z</time>
      </trkpt>
      <trkpt lat="47.2461" lon="6.07321">
        <ele>290.94</ele>
        <time>2018-09-29T12:01:15Z</time>
      </trkpt>
      <trkpt lat="47.24611" lon="6.07322">
        <ele>291.42</ele>
        <time>2018-09-29T12:01:16Z</time>
      </trkpt>
      <trkpt lat="47.24623" lon="6.07339">
        <ele>294.3</ele>
        <time>2018-09-29T12:01:29Z</time>
      </trkpt>
      <trkpt lat="47.24631" lon="6.07352">
        <ele>296.7</ele>
        <time>2018-09-29T12:01:39Z</time>
      </trkpt>
      <trkpt lat="47.24633" lon="6.07356">
        <ele>297.18</ele>
        <time>2018-09-29T12:01:42Z</time>
      </trkpt>
      <trkpt lat="47.2464" lon="6.07366">
        <ele>300.07</ele>
        <time>2018-09-29T12:01:51Z</time>
      </trkpt>
      <trkpt lat="47.24641" lon="6.0737">
        <ele>301.03</ele>
        <time>2018-09-29T12:01:54Z</time>
      </trkpt>
      <trkpt lat="47.24643" lon="6.07372">
        <ele>301.03</ele>
        <time>2018-09-29T12:01:55Z</time>
      </trkpt>
      <trkpt lat="47.24644" lon="6.07373">
        <ele>301.51</ele>
        <time>2018-09-29T12:01:56Z</time>
      </trkpt>
      <trkpt lat="47.24653" lon="6.07386">
        <ele>304.39</ele>
        <time>2018-09-29T12:02:07Z</time>
      </trkpt>
      <trkpt lat="47.2466" lon="6.07397">
        <ele>306.8</ele>
        <time>2018-09-29T12:02:16Z</time>
      </trkpt>
      <trkpt lat="47.24663" lon="6.07402">
        <ele>307.76</ele>
        <time>2018-09-29T12:02:20Z</time>
      </trkpt>
      <trkpt lat="47.2467" lon="6.07413">
        <ele>310.16</ele>
        <time>2018-09-29T12:02:30Z</time>
      </trkpt>
      <trkpt lat="47.24675" lon="6.07421">
        <ele>312.09</ele>
        <time>2018-09-29T12:02:36Z</time>
      </trkpt>
      <trkpt lat="47.24675" lon="6.07422">
        <ele>312.57</ele>
        <time>2018-09-29T12:02:37Z</time>
      </trkpt>
      <trkpt lat="47.24676" lon="6.07424">
        <ele>312.57</ele>
        <time>2018-09-29T12:02:38Z</time>
      </trkpt>
      <trkpt lat="47.2469" lon="6.07441">
        <ele>315.93</ele>
        <time>2018-09-29T12:02:53Z</time>
      </trkpt>
      <trkpt lat="47.24698" lon="6.0745">
        <ele>317.37</ele>
        <time>2018-09-29T12:03:01Z</time>
      </trkpt>
      <trkpt lat="47.24698" lon="6.07452">
        <ele>317.85</ele>
        <time>2018-09-29T12:03:02Z</time>
      </trkpt>
      <trkpt lat="47.24699" lon="6.07454">
        <ele>317.85</ele>
        <time>2018-09-29T12:03:03Z</time>
      </trkpt>
      <trkpt lat="47.24704" lon="6.07462">
        <ele>319.78</ele>
        <time>2018-09-29T12:03:09Z</time>
      </trkpt>
      <trkpt lat="47.24706" lon="6.07463">
        <ele>320.26</ele>
        <time>2018-09-29T12:03:10Z</time>
      </trkpt>
      <trkpt lat="47.24707" lon="6.07465">
        <ele>320.26</ele>
        <time>2018-09-29T12:03:11Z</time>
      </trkpt>
      <trkpt lat="47.24708" lon="6.07469">
        <ele>320.74</ele>
        <time>2018-09-29T12:03:13Z</time>
      </trkpt>
      <trkpt lat="47.24715" lon="6.07485">
        <ele>323.14</ele>
        <time>2018-09-29T12:03:24Z</time>
      </trkpt>
      <trkpt lat="47.24717" lon="6.07493">
        <ele>325.06</ele>
        <time>2018-09-29T12:03:29Z</time>
      </trkpt>
      <trkpt lat="47.24718" lon="6.07495">
        <ele>325.54</ele>
        <time>2018-09-29T12:03:30Z</time>
      </trkpt>
      <trkpt lat="47.24723" lon="6.0751">
        <ele>327.95</ele>
        <time>2018-09-29T12:03:40Z</time>
      </trkpt>
      <trkpt lat="47.24734" lon="6.07523">
        <ele>330.83</ele>
        <time>2018-09-29T12:03:51Z</time>
      </trkpt>
      <trkpt lat="47.24739" lon="6.0754">
        <ele>332.75</ele>
        <time>2018-09-29T12:04:02Z</time>
      </trkpt>
      <trkpt lat="47.24746" lon="6.07555">
        <ele>335.64</ele>
        <time>2018-09-29T12:04:13Z</time>
      </trkpt>
      <trkpt lat="47.24748" lon="6.0756">
        <ele>337.56</ele>
        <time>2018-09-29T12:04:18Z</time>
      </trkpt>
      <trkpt lat="47.24755" lon="6.07573">
        <ele>339.96</ele>
        <time>2018-09-29T12:04:28Z</time>
      </trkpt>
      <trkpt lat="47.24756" lon="6.07578">
        <ele>340.92</ele>
        <time>2018-09-29T12:04:32Z</time>
      </trkpt>
      <trkpt lat="47.2476" lon="6.07588">
        <ele>342.85</ele>
        <time>2018-09-29T12:04:37Z</time>
      </trkpt>
      <trkpt lat="47.24767" lon="6.07604">
        <ele>345.73</ele>
        <time>2018-09-29T12:04:47Z</time>
      </trkpt>
      <trkpt lat="47.24772" lon="6.07616">
        <ele>349.1</ele>
        <time>2018-09-29T12:04:56Z</time>
      </trkpt>
      <trkpt lat="47.24779" lon="6.07631">
        <ele>351.98</ele>
        <time>2018-09-29T12:05:06Z</time>
      </trkpt>
      <trkpt lat="47.24785" lon="6.07644">
        <ele>354.38</ele>
        <time>2018-09-29T12:05:15Z</time>
      </trkpt>
      <trkpt lat="47.24793" lon="6.07655">
        <ele>356.79</ele>
        <time>2018-09-29T12:05:26Z</time>
      </trkpt>
      <trkpt lat="47.24794" lon="6.07657">
        <ele>356.79</ele>
        <time>2018-09-29T12:05:27Z</time>
      </trkpt>
      <trkpt lat="47.248" lon="6.07668">
        <ele>359.19</ele>
        <time>2018-09-29T12:05:38Z</time>
      </trkpt>
      <trkpt lat="47.24801" lon="6.07672">
        <ele>359.67</ele>
        <time>2018-09-29T12:05:51Z</time>
      </trkpt>
      <trkpt lat="47.24804" lon="6.07677">
        <ele>360.15</ele>
        <time>2018-09-29T12:06:08Z</time>
      </trkpt>
      <trkpt lat="47.24808" lon="6.07681">
        <ele>361.59</ele>
        <time>2018-09-29T12:06:12Z</time>
      </trkpt>
      <trkpt lat="47.24817" lon="6.07698">
        <ele>363.52</ele>
        <time>2018-09-29T12:06:22Z</time>
      </trkpt>
      <trkpt lat="47.24824" lon="6.0771">
        <ele>366.4</ele>
        <time>2018-09-29T12:06:31Z</time>
      </trkpt>
      <trkpt lat="47.24826" lon="6.07716">
        <ele>367.36</ele>
        <time>2018-09-29T12:06:34Z</time>
      </trkpt>
      <trkpt lat="47.24827" lon="6.07717">
        <ele>367.36</ele>
        <time>2018-09-29T12:06:35Z</time>
      </trkpt>
      <trkpt lat="47.24834" lon="6.07733">
        <ele>370.24</ele>
        <time>2018-09-29T12:06:44Z</time>
      </trkpt>
      <trkpt lat="47.24838" lon="6.07745">
        <ele>372.65</ele>
        <time>2018-09-29T12:06:55Z</time>
      </trkpt>
      <trkpt lat="47.24843" lon="6.07759">
        <ele>374.09</ele>
        <time>2018-09-29T12:07:04Z</time>
      </trkpt>
      <trkpt lat="47.24851" lon="6.07772">
        <ele>376.49</ele>
        <time>2018-09-29T12:07:15Z</time>
      </trkpt>
      <trkpt lat="47.24859" lon="6.07782">
        <ele>378.9</ele>
        <time>2018-09-29T12:07:25Z</time>
      </trkpt>
      <trkpt lat="47.24864" lon="6.07797">
        <ele>380.34</ele>
        <time>2018-09-29T12:07:35Z</time>
      </trkpt>
      <trkpt lat="47.24864" lon="6.07798">
        <ele>380.82</ele>
        <time>2018-09-29T12:07:36Z</time>
      </trkpt>
      <trkpt lat="47.2487" lon="6.07813">
        <ele>383.22</ele>
        <time>2018-09-29T12:07:46Z</time>
      </trkpt>
      <trkpt lat="47.24871" lon="6.07816">
        <ele>383.7</ele>
        <time>2018-09-29T12:07:47Z</time>
      </trkpt>
      <trkpt lat="47.24872" lon="6.07818">
        <ele>383.7</ele>
        <time>2018-09-29T12:07:48Z</time>
      </trkpt>
      <trkpt lat="47.2488" lon="6.07831">
        <ele>385.63</ele>
        <time>2018-09-29T12:07:57Z</time>
      </trkpt>
      <trkpt lat="47.24888" lon="6.07843">
        <ele>388.03</ele>
        <time>2018-09-29T12:08:08Z</time>
      </trkpt>
      <trkpt lat="47.24892" lon="6.07848">
        <ele>388.99</ele>
        <time>2018-09-29T12:08:13Z</time>
      </trkpt>
      <trkpt lat="47.24901" lon="6.07869">
        <ele>391.87</ele>
        <time>2018-09-29T12:08:25Z</time>
      </trkpt>
      <trkpt lat="47.24903" lon="6.07873">
        <ele>392.36</ele>
        <time>2018-09-29T12:08:28Z</time>
      </trkpt>
      <trkpt lat="47.24903" lon="6.07875">
        <ele>392.84</ele>
        <time>2018-09-29T12:08:29Z</time>
      </trkpt>
      <trkpt lat="47.24904" lon="6.07878">
        <ele>394.28</ele>
        <time>2018-09-29T12:08:41Z</time>
      </trkpt>
      <trkpt lat="47.24907" lon="6.07887">
        <ele>396.2</ele>
        <time>2018-09-29T12:08:50Z</time>
      </trkpt>
      <trkpt lat="47.24911" lon="6.07897">
        <ele>397.64</ele>
        <time>2018-09-29T12:08:56Z</time>
      </trkpt>
      <trkpt lat="47.24915" lon="6.07917">
        <ele>401.01</ele>
        <time>2018-09-29T12:09:08Z</time>
      </trkpt>
      <trkpt lat="47.24914" lon="6.07928">
        <ele>402.45</ele>
        <time>2018-09-29T12:09:15Z</time>
      </trkpt>
      <trkpt lat="47.2491" lon="6.07942">
        <ele>404.37</ele>
        <time>2018-09-29T12:09:26Z</time>
      </trkpt>
      <trkpt lat="47.24909" lon="6.07948">
        <ele>404.85</ele>
        <time>2018-09-29T12:09:30Z</time>
      </trkpt>
      <trkpt lat="47.24908" lon="6.07952">
        <ele>404.85</ele>
        <time>2018-09-29T12:09:32Z</time>
      </trkpt>
      <trkpt lat="47.24906" lon="6.07954">
        <ele>404.85</ele>
        <time>2018-09-29T12:09:33Z</time>
      </trkpt>
      <trkpt lat="47.24904" lon="6.07958">
        <ele>404.85</ele>
        <time>2018-09-29T12:09:34Z</time>
      </trkpt>
      <trkpt lat="47.24903" lon="6.07961">
        <ele>404.37</ele>
        <time>2018-09-29T12:09:35Z</time>
      </trkpt>
      <trkpt lat="47.24902" lon="6.07966">
        <ele>404.37</ele>
        <time>2018-09-29T12:09:36Z</time>
      </trkpt>
      <trkpt lat="47.24898" lon="6.07994">
        <ele>405.33</ele>
        <time>2018-09-29T12:09:46Z</time>
      </trkpt>
      <trkpt lat="47.24897" lon="6.07999">
        <ele>404.85</ele>
        <time>2018-09-29T12:09:48Z</time>
      </trkpt>
      <trkpt lat="47.24897" lon="6.08001">
        <ele>404.85</ele>
        <time>2018-09-29T12:09:49Z</time>
      </trkpt>
      <trkpt lat="47.24897" lon="6.08003">
        <ele>404.85</ele>
        <time>2018-09-29T12:09:50Z</time>
      </trkpt>
      <trkpt lat="47.24895" lon="6.08006">
        <ele>404.85</ele>
        <time>2018-09-29T12:09:51Z</time>
      </trkpt>
      <trkpt lat="47.24895" lon="6.08009">
        <ele>404.85</ele>
        <time>2018-09-29T12:09:52Z</time>
      </trkpt>
      <trkpt lat="47.24888" lon="6.08029">
        <ele>404.85</ele>
        <time>2018-09-29T12:10:00Z</time>
      </trkpt>
      <trkpt lat="47.24887" lon="6.08032">
        <ele>404.85</ele>
        <time>2018-09-29T12:10:01Z</time>
      </trkpt>
      <trkpt lat="47.24879" lon="6.08048">
        <ele>405.33</ele>
        <time>2018-09-29T12:10:12Z</time>
      </trkpt>
      <trkpt lat="47.2488" lon="6.08051">
        <ele>405.81</ele>
        <time>2018-09-29T12:10:36Z</time>
      </trkpt>
      <trkpt lat="47.24879" lon="6.08053">
        <ele>405.81</ele>
        <time>2018-09-29T12:10:41Z</time>
      </trkpt>
      <trkpt lat="47.24878" lon="6.08055">
        <ele>405.81</ele>
        <time>2018-09-29T12:10:42Z</time>
      </trkpt>
      <trkpt lat="47.24877" lon="6.08057">
        <ele>406.29</ele>
        <time>2018-09-29T12:10:43Z</time>
      </trkpt>
      <trkpt lat="47.24873" lon="6.08063">
        <ele>406.29</ele>
        <time>2018-09-29T12:10:46Z</time>
      </trkpt>
      <trkpt lat="47.24872" lon="6.08065">
        <ele>406.77</ele>
        <time>2018-09-29T12:10:47Z</time>
      </trkpt>
      <trkpt lat="47.24871" lon="6.08066">
        <ele>406.77</ele>
        <time>2018-09-29T12:10:48Z</time>
      </trkpt>
      <trkpt lat="47.2487" lon="6.08067">
        <ele>406.77</ele>
        <time>2018-09-29T12:10:49Z</time>
      </trkpt>
      <trkpt lat="47.24869" lon="6.08069">
        <ele>406.77</ele>
        <time>2018-09-29T12:10:50Z</time>
      </trkpt>
      <trkpt lat="47.24855" lon="6.08089">
        <ele>408.22</ele>
        <time>2018-09-29T12:11:02Z</time>
      </trkpt>
      <trkpt lat="47.24854" lon="6.08097">
        <ele>409.18</ele>
        <time>2018-09-29T12:11:06Z</time>
      </trkpt>
      <trkpt lat="47.24854" lon="6.08099">
        <ele>409.18</ele>
        <time>2018-09-29T12:11:07Z</time>
      </trkpt>
      <trkpt lat="47.24853" lon="6.081">
        <ele>409.18</ele>
        <time>2018-09-29T12:11:08Z</time>
      </trkpt>
      <trkpt lat="47.24853" lon="6.08102">
        <ele>409.18</ele>
        <time>2018-09-29T12:11:09Z</time>
      </trkpt>
      <trkpt lat="47.24852" lon="6.08103">
        <ele>409.66</ele>
        <time>2018-09-29T12:11:10Z</time>
      </trkpt>
      <trkpt lat="47.24841" lon="6.08116">
        <ele>411.58</ele>
        <time>2018-09-29T12:11:23Z</time>
      </trkpt>
      <trkpt lat="47.2484" lon="6.08117">
        <ele>411.1</ele>
        <time>2018-09-29T12:11:24Z</time>
      </trkpt>
      <trkpt lat="47.24838" lon="6.08119">
        <ele>411.58</ele>
        <time>2018-09-29T12:11:25Z</time>
      </trkpt>
      <trkpt lat="47.24837" lon="6.08121">
        <ele>411.58</ele>
        <time>2018-09-29T12:11:26Z</time>
      </trkpt>
      <trkpt lat="47.24836" lon="6.08123">
        <ele>411.58</ele>
        <time>2018-09-29T12:11:27Z</time>
      </trkpt>
      <trkpt lat="47.24835" lon="6.08124">
        <ele>411.58</ele>
        <time>2018-09-29T12:11:28Z</time>
      </trkpt>
      <trkpt lat="47.24831" lon="6.0813">
        <ele>412.06</ele>
        <time>2018-09-29T12:11:33Z</time>
      </trkpt>
      <trkpt lat="47.24826" lon="6.08137">
        <ele>413.5</ele>
        <time>2018-09-29T12:11:43Z</time>
      </trkpt>
      <trkpt lat="47.24817" lon="6.08143">
        <ele>414.95</ele>
        <time>2018-09-29T12:11:54Z</time>
      </trkpt>
      <trkpt lat="47.2481" lon="6.08149">
        <ele>416.39</ele>
        <time>2018-09-29T12:12:07Z</time>
      </trkpt>
      <trkpt lat="47.24807" lon="6.08151">
        <ele>418.31</ele>
        <time>2018-09-29T12:12:18Z</time>
      </trkpt>
      <trkpt lat="47.24801" lon="6.0815">
        <ele>421.19</ele>
        <time>2018-09-29T12:12:32Z</time>
      </trkpt>
      <trkpt lat="47.24793" lon="6.08148">
        <ele>423.12</ele>
        <time>2018-09-29T12:12:42Z</time>
      </trkpt>
      <trkpt lat="47.24786" lon="6.08145">
        <ele>425.04</ele>
        <time>2018-09-29T12:12:52Z</time>
      </trkpt>
      <trkpt lat="47.24776" lon="6.08138">
        <ele>426.48</ele>
        <time>2018-09-29T12:13:03Z</time>
      </trkpt>
      <trkpt lat="47.24768" lon="6.08133">
        <ele>428.89</ele>
        <time>2018-09-29T12:13:15Z</time>
      </trkpt>
      <trkpt lat="47.24767" lon="6.08132">
        <ele>428.89</ele>
        <time>2018-09-29T12:13:17Z</time>
      </trkpt>
      <trkpt lat="47.24757" lon="6.08118">
        <ele>430.81</ele>
        <time>2018-09-29T12:13:31Z</time>
      </trkpt>
      <trkpt lat="47.24755" lon="6.0811">
        <ele>431.29</ele>
        <time>2018-09-29T12:13:43Z</time>
      </trkpt>
      <trkpt lat="47.24756" lon="6.08111">
        <ele>431.29</ele>
        <time>2018-09-29T12:14:04Z</time>
      </trkpt>
      <trkpt lat="47.24756" lon="6.08112">
        <ele>431.29</ele>
        <time>2018-09-29T12:14:32Z</time>
      </trkpt>
      <trkpt lat="47.24753" lon="6.08108">
        <ele>432.73</ele>
        <time>2018-09-29T12:14:55Z</time>
      </trkpt>
      <trkpt lat="47.24751" lon="6.08104">
        <ele>432.73</ele>
        <time>2018-09-29T12:15:05Z</time>
      </trkpt>
      <trkpt lat="47.24736" lon="6.08092">
        <ele>434.65</ele>
        <time>2018-09-29T12:15:19Z</time>
      </trkpt>
      <trkpt lat="47.24728" lon="6.08085">
        <ele>436.1</ele>
        <time>2018-09-29T12:15:26Z</time>
      </trkpt>
      <trkpt lat="47.24727" lon="6.08085">
        <ele>436.1</ele>
        <time>2018-09-29T12:15:27Z</time>
      </trkpt>
      <trkpt lat="47.24716" lon="6.08076">
        <ele>438.02</ele>
        <time>2018-09-29T12:15:39Z</time>
      </trkpt>
      <trkpt lat="47.24712" lon="6.08071">
        <ele>438.98</ele>
        <time>2018-09-29T12:15:44Z</time>
      </trkpt>
      <trkpt lat="47.24711" lon="6.08071">
        <ele>439.46</ele>
        <time>2018-09-29T12:15:45Z</time>
      </trkpt>
      <trkpt lat="47.2471" lon="6.0807">
        <ele>439.46</ele>
        <time>2018-09-29T12:15:46Z</time>
      </trkpt>
      <trkpt lat="47.24709" lon="6.08069">
        <ele>439.46</ele>
        <time>2018-09-29T12:15:47Z</time>
      </trkpt>
      <trkpt lat="47.24708" lon="6.08068">
        <ele>439.94</ele>
        <time>2018-09-29T12:15:48Z</time>
      </trkpt>
      <trkpt lat="47.24691" lon="6.08055">
        <ele>442.34</ele>
        <time>2018-09-29T12:16:05Z</time>
      </trkpt>
      <trkpt lat="47.24677" lon="6.08042">
        <ele>445.71</ele>
        <time>2018-09-29T12:16:19Z</time>
      </trkpt>
      <trkpt lat="47.24672" lon="6.08037">
        <ele>446.67</ele>
        <time>2018-09-29T12:16:24Z</time>
      </trkpt>
      <trkpt lat="47.24671" lon="6.08036">
        <ele>447.15</ele>
        <time>2018-09-29T12:16:25Z</time>
      </trkpt>
      <trkpt lat="47.2467" lon="6.08035">
        <ele>447.63</ele>
        <time>2018-09-29T12:16:26Z</time>
      </trkpt>
      <trkpt lat="47.24669" lon="6.08034">
        <ele>447.63</ele>
        <time>2018-09-29T12:16:27Z</time>
      </trkpt>
      <trkpt lat="47.24668" lon="6.08033">
        <ele>448.11</ele>
        <time>2018-09-29T12:16:28Z</time>
      </trkpt>
      <trkpt lat="47.24667" lon="6.08032">
        <ele>448.11</ele>
        <time>2018-09-29T12:16:29Z</time>
      </trkpt>
      <trkpt lat="47.24666" lon="6.08032">
        <ele>448.59</ele>
        <time>2018-09-29T12:16:30Z</time>
      </trkpt>
      <trkpt lat="47.24665" lon="6.08031">
        <ele>448.59</ele>
        <time>2018-09-29T12:16:31Z</time>
      </trkpt>
      <trkpt lat="47.2466" lon="6.08029">
        <ele>449.55</ele>
        <time>2018-09-29T12:16:35Z</time>
      </trkpt>
      <trkpt lat="47.2466" lon="6.08028">
        <ele>449.55</ele>
        <time>2018-09-29T12:16:36Z</time>
      </trkpt>
      <trkpt lat="47.24659" lon="6.08027">
        <ele>450.03</ele>
        <time>2018-09-29T12:16:37Z</time>
      </trkpt>
      <trkpt lat="47.24658" lon="6.08026">
        <ele>450.03</ele>
        <time>2018-09-29T12:16:38Z</time>
      </trkpt>
      <trkpt lat="47.24657" lon="6.08025">
        <ele>450.52</ele>
        <time>2018-09-29T12:16:39Z</time>
      </trkpt>
      <trkpt lat="47.24656" lon="6.08024">
        <ele>450.52</ele>
        <time>2018-09-29T12:16:40Z</time>
      </trkpt>
      <trkpt lat="47.24655" lon="6.08023">
        <ele>450.52</ele>
        <time>2018-09-29T12:16:41Z</time>
      </trkpt>
      <trkpt lat="47.24649" lon="6.08018">
        <ele>451.48</ele>
        <time>2018-09-29T12:16:46Z</time>
      </trkpt>
      <trkpt lat="47.24648" lon="6.08017">
        <ele>451.48</ele>
        <time>2018-09-29T12:16:47Z</time>
      </trkpt>
      <trkpt lat="47.24631" lon="6.08">
        <ele>453.4</ele>
        <time>2018-09-29T12:17:03Z</time>
      </trkpt>
      <trkpt lat="47.24627" lon="6.07997">
        <ele>453.88</ele>
        <time>2018-09-29T12:17:06Z</time>
      </trkpt>
      <trkpt lat="47.24626" lon="6.07997">
        <ele>453.88</ele>
        <time>2018-09-29T12:17:07Z</time>
      </trkpt>
      <trkpt lat="47.24613" lon="6.07988">
        <ele>454.84</ele>
        <time>2018-09-29T12:17:17Z</time>
      </trkpt>
      <trkpt lat="47.24612" lon="6.07989">
        <ele>454.84</ele>
        <time>2018-09-29T12:17:18Z</time>
      </trkpt>
      <trkpt lat="47.24611" lon="6.07991">
        <ele>454.84</ele>
        <time>2018-09-29T12:17:19Z</time>
      </trkpt>
      <trkpt lat="47.24611" lon="6.07993">
        <ele>454.36</ele>
        <time>2018-09-29T12:17:20Z</time>
      </trkpt>
      <trkpt lat="47.24611" lon="6.07999">
        <ele>454.36</ele>
        <time>2018-09-29T12:17:22Z</time>
      </trkpt>
      <trkpt lat="47.24622" lon="6.08039">
        <ele>454.36</ele>
        <time>2018-09-29T12:17:37Z</time>
      </trkpt>
      <trkpt lat="47.24632" lon="6.08068">
        <ele>455.32</ele>
        <time>2018-09-29T12:17:48Z</time>
      </trkpt>
      <trkpt lat="47.2464" lon="6.08092">
        <ele>456.76</ele>
        <time>2018-09-29T12:17:59Z</time>
      </trkpt>
      <trkpt lat="47.24653" lon="6.08128">
        <ele>457.24</ele>
        <time>2018-09-29T12:18:12Z</time>
      </trkpt>
      <trkpt lat="47.24665" lon="6.0817">
        <ele>456.76</ele>
        <time>2018-09-29T12:18:25Z</time>
      </trkpt>
      <trkpt lat="47.24676" lon="6.08204">
        <ele>458.69</ele>
        <time>2018-09-29T12:18:38Z</time>
      </trkpt>
      <trkpt lat="47.24683" lon="6.08233">
        <ele>460.13</ele>
        <time>2018-09-29T12:18:49Z</time>
      </trkpt>
      <trkpt lat="47.24685" lon="6.0824">
        <ele>461.09</ele>
        <time>2018-09-29T12:18:52Z</time>
      </trkpt>
      <trkpt lat="47.24689" lon="6.08256">
        <ele>463.49</ele>
        <time>2018-09-29T12:19:02Z</time>
      </trkpt>
      <trkpt lat="47.24689" lon="6.08261">
        <ele>464.45</ele>
        <time>2018-09-29T12:19:05Z</time>
      </trkpt>
      <trkpt lat="47.24689" lon="6.08273">
        <ele>465.9</ele>
        <time>2018-09-29T12:19:12Z</time>
      </trkpt>
      <trkpt lat="47.24688" lon="6.08311">
        <ele>466.86</ele>
        <time>2018-09-29T12:19:24Z</time>
      </trkpt>
      <trkpt lat="47.24684" lon="6.08348">
        <ele>467.82</ele>
        <time>2018-09-29T12:19:35Z</time>
      </trkpt>
      <trkpt lat="47.24686" lon="6.0837">
        <ele>469.26</ele>
        <time>2018-09-29T12:19:44Z</time>
      </trkpt>
      <trkpt lat="47.2469" lon="6.08392">
        <ele>471.18</ele>
        <time>2018-09-29T12:19:54Z</time>
      </trkpt>
      <trkpt lat="47.24691" lon="6.08398">
        <ele>471.18</ele>
        <time>2018-09-29T12:19:57Z</time>
      </trkpt>
      <trkpt lat="47.24692" lon="6.08401">
        <ele>471.66</ele>
        <time>2018-09-29T12:19:59Z</time>
      </trkpt>
      <trkpt lat="47.24695" lon="6.08408">
        <ele>472.63</ele>
        <time>2018-09-29T12:20:04Z</time>
      </trkpt>
      <trkpt lat="47.24698" lon="6.08414">
        <ele>473.59</ele>
        <time>2018-09-29T12:20:14Z</time>
      </trkpt>
      <trkpt lat="47.24701" lon="6.08416">
        <ele>473.59</ele>
        <time>2018-09-29T12:20:18Z</time>
      </trkpt>
      <trkpt lat="47.24703" lon="6.0842">
        <ele>474.07</ele>
        <time>2018-09-29T12:20:21Z</time>
      </trkpt>
      <trkpt lat="47.2471" lon="6.0844">
        <ele>476.47</ele>
        <time>2018-09-29T12:20:33Z</time>
      </trkpt>
      <trkpt lat="47.24715" lon="6.08447">
        <ele>477.43</ele>
        <time>2018-09-29T12:20:38Z</time>
      </trkpt>
      <trkpt lat="47.24724" lon="6.08462">
        <ele>479.35</ele>
        <time>2018-09-29T12:20:48Z</time>
      </trkpt>
      <trkpt lat="47.2473" lon="6.08472">
        <ele>480.8</ele>
        <time>2018-09-29T12:20:56Z</time>
      </trkpt>
      <trkpt lat="47.24732" lon="6.08477">
        <ele>480.8</ele>
        <time>2018-09-29T12:21:00Z</time>
      </trkpt>
      <trkpt lat="47.24743" lon="6.08486">
        <ele>481.28</ele>
        <time>2018-09-29T12:21:05Z</time>
      </trkpt>
      <trkpt lat="47.24751" lon="6.08491">
        <ele>482.24</ele>
        <time>2018-09-29T12:21:11Z</time>
      </trkpt>
      <trkpt lat="47.24762" lon="6.08495">
        <ele>482.72</ele>
        <time>2018-09-29T12:21:17Z</time>
      </trkpt>
      <trkpt lat="47.24763" lon="6.08498">
        <ele>482.72</ele>
        <time>2018-09-29T12:21:19Z</time>
      </trkpt>
      <trkpt lat="47.24766" lon="6.085">
        <ele>483.2</ele>
        <time>2018-09-29T12:21:22Z</time>
      </trkpt>
      <trkpt lat="47.24781" lon="6.08511">
        <ele>483.68</ele>
        <time>2018-09-29T12:21:30Z</time>
      </trkpt>
      <trkpt lat="47.24794" lon="6.08525">
        <ele>484.16</ele>
        <time>2018-09-29T12:21:39Z</time>
      </trkpt>
      <trkpt lat="47.24803" lon="6.08531">
        <ele>484.64</ele>
        <time>2018-09-29T12:21:44Z</time>
      </trkpt>
      <trkpt lat="47.24812" lon="6.08534">
        <ele>485.12</ele>
        <time>2018-09-29T12:21:48Z</time>
      </trkpt>
      <trkpt lat="47.24824" lon="6.08541">
        <ele>486.56</ele>
        <time>2018-09-29T12:21:56Z</time>
      </trkpt>
      <trkpt lat="47.24841" lon="6.08556">
        <ele>489.93</ele>
        <time>2018-09-29T12:22:08Z</time>
      </trkpt>
      <trkpt lat="47.24844" lon="6.08559">
        <ele>490.89</ele>
        <time>2018-09-29T12:22:10Z</time>
      </trkpt>
      <trkpt lat="47.24847" lon="6.08563">
        <ele>491.37</ele>
        <time>2018-09-29T12:22:13Z</time>
      </trkpt>
      <trkpt lat="47.24849" lon="6.08568">
        <ele>491.85</ele>
        <time>2018-09-29T12:22:16Z</time>
      </trkpt>
      <trkpt lat="47.24859" lon="6.08581">
        <ele>491.85</ele>
        <time>2018-09-29T12:22:23Z</time>
      </trkpt>
      <trkpt lat="47.24864" lon="6.08585">
        <ele>491.85</ele>
        <time>2018-09-29T12:22:26Z</time>
      </trkpt>
      <trkpt lat="47.24881" lon="6.08596">
        <ele>492.81</ele>
        <time>2018-09-29T12:22:35Z</time>
      </trkpt>
      <trkpt lat="47.249" lon="6.08609">
        <ele>493.29</ele>
        <time>2018-09-29T12:22:45Z</time>
      </trkpt>
      <trkpt lat="47.24905" lon="6.0861">
        <ele>493.77</ele>
        <time>2018-09-29T12:22:48Z</time>
      </trkpt>
      <trkpt lat="47.24913" lon="6.08613">
        <ele>493.77</ele>
        <time>2018-09-29T12:22:53Z</time>
      </trkpt>
      <trkpt lat="47.24936" lon="6.08607">
        <ele>494.26</ele>
        <time>2018-09-29T12:23:03Z</time>
      </trkpt>
      <trkpt lat="47.24938" lon="6.08607">
        <ele>494.26</ele>
        <time>2018-09-29T12:23:04Z</time>
      </trkpt>
      <trkpt lat="47.24948" lon="6.08601">
        <ele>494.26</ele>
        <time>2018-09-29T12:23:08Z</time>
      </trkpt>
      <trkpt lat="47.24952" lon="6.08599">
        <ele>494.74</ele>
        <time>2018-09-29T12:23:10Z</time>
      </trkpt>
      <trkpt lat="47.2496" lon="6.08595">
        <ele>495.7</ele>
        <time>2018-09-29T12:23:14Z</time>
      </trkpt>
      <trkpt lat="47.24971" lon="6.0859">
        <ele>497.62</ele>
        <time>2018-09-29T12:23:22Z</time>
      </trkpt>
      <trkpt lat="47.24975" lon="6.08587">
        <ele>498.1</ele>
        <time>2018-09-29T12:23:25Z</time>
      </trkpt>
      <trkpt lat="47.24981" lon="6.08584">
        <ele>499.06</ele>
        <time>2018-09-29T12:23:30Z</time>
      </trkpt>
      <trkpt lat="47.24994" lon="6.08579">
        <ele>500.02</ele>
        <time>2018-09-29T12:23:37Z</time>
      </trkpt>
      <trkpt lat="47.25012" lon="6.08568">
        <ele>502.43</ele>
        <time>2018-09-29T12:23:49Z</time>
      </trkpt>
      <trkpt lat="47.25025" lon="6.0856">
        <ele>502.91</ele>
        <time>2018-09-29T12:23:58Z</time>
      </trkpt>
      <trkpt lat="47.25032" lon="6.08556">
        <ele>503.87</ele>
        <time>2018-09-29T12:24:02Z</time>
      </trkpt>
      <trkpt lat="47.25036" lon="6.08554">
        <ele>503.87</ele>
        <time>2018-09-29T12:24:05Z</time>
      </trkpt>
      <trkpt lat="47.25043" lon="6.08546">
        <ele>504.35</ele>
        <time>2018-09-29T12:24:10Z</time>
      </trkpt>
      <trkpt lat="47.25047" lon="6.08544">
        <ele>505.79</ele>
        <time>2018-09-29T12:24:15Z</time>
      </trkpt>
      <trkpt lat="47.2505" lon="6.08542">
        <ele>505.79</ele>
        <time>2018-09-29T12:24:17Z</time>
      </trkpt>
      <trkpt lat="47.25053" lon="6.0854">
        <ele>506.75</ele>
        <time>2018-09-29T12:24:20Z</time>
      </trkpt>
      <trkpt lat="47.2506" lon="6.08533">
        <ele>507.71</ele>
        <time>2018-09-29T12:24:27Z</time>
      </trkpt>
      <trkpt lat="47.25064" lon="6.08528">
        <ele>508.19</ele>
        <time>2018-09-29T12:24:30Z</time>
      </trkpt>
      <trkpt lat="47.25074" lon="6.08513">
        <ele>510.6</ele>
        <time>2018-09-29T12:24:39Z</time>
      </trkpt>
      <trkpt lat="47.25086" lon="6.08503">
        <ele>513.48</ele>
        <time>2018-09-29T12:24:50Z</time>
      </trkpt>
      <trkpt lat="47.25088" lon="6.085">
        <ele>513.96</ele>
        <time>2018-09-29T12:24:52Z</time>
      </trkpt>
      <trkpt lat="47.25091" lon="6.08499">
        <ele>514.44</ele>
        <time>2018-09-29T12:24:54Z</time>
      </trkpt>
      <trkpt lat="47.25097" lon="6.08498">
        <ele>514.92</ele>
        <time>2018-09-29T12:24:59Z</time>
      </trkpt>
      <trkpt lat="47.25118" lon="6.08524">
        <ele>515.4</ele>
        <time>2018-09-29T12:25:13Z</time>
      </trkpt>
      <trkpt lat="47.25129" lon="6.08555">
        <ele>516.85</ele>
        <time>2018-09-29T12:25:26Z</time>
      </trkpt>
      <trkpt lat="47.25129" lon="6.08558">
        <ele>516.85</ele>
        <time>2018-09-29T12:25:27Z</time>
      </trkpt>
      <trkpt lat="47.2513" lon="6.08569">
        <ele>517.81</ele>
        <time>2018-09-29T12:25:31Z</time>
      </trkpt>
      <trkpt lat="47.25134" lon="6.08587">
        <ele>519.25</ele>
        <time>2018-09-29T12:25:40Z</time>
      </trkpt>
      <trkpt lat="47.25138" lon="6.08607">
        <ele>520.21</ele>
        <time>2018-09-29T12:25:49Z</time>
      </trkpt>
      <trkpt lat="47.2514" lon="6.08615">
        <ele>520.69</ele>
        <time>2018-09-29T12:25:53Z</time>
      </trkpt>
      <trkpt lat="47.25142" lon="6.08633">
        <ele>522.13</ele>
        <time>2018-09-29T12:26:03Z</time>
      </trkpt>
      <trkpt lat="47.25141" lon="6.08651">
        <ele>523.09</ele>
        <time>2018-09-29T12:26:13Z</time>
      </trkpt>
      <trkpt lat="47.25141" lon="6.0866">
        <ele>524.06</ele>
        <time>2018-09-29T12:26:19Z</time>
      </trkpt>
      <trkpt lat="47.2514" lon="6.08673">
        <ele>525.5</ele>
        <time>2018-09-29T12:26:25Z</time>
      </trkpt>
      <trkpt lat="47.25142" lon="6.08689">
        <ele>526.46</ele>
        <time>2018-09-29T12:26:32Z</time>
      </trkpt>
      <trkpt lat="47.25143" lon="6.08695">
        <ele>527.42</ele>
        <time>2018-09-29T12:26:36Z</time>
      </trkpt>
      <trkpt lat="47.25146" lon="6.08718">
        <ele>529.34</ele>
        <time>2018-09-29T12:26:49Z</time>
      </trkpt>
      <trkpt lat="47.2515" lon="6.08743">
        <ele>530.3</ele>
        <time>2018-09-29T12:27:02Z</time>
      </trkpt>
      <trkpt lat="47.25153" lon="6.0876">
        <ele>531.27</ele>
        <time>2018-09-29T12:27:10Z</time>
      </trkpt>
      <trkpt lat="47.25155" lon="6.08792">
        <ele>532.23</ele>
        <time>2018-09-29T12:27:23Z</time>
      </trkpt>
      <trkpt lat="47.25154" lon="6.08809">
        <ele>533.19</ele>
        <time>2018-09-29T12:27:29Z</time>
      </trkpt>
      <trkpt lat="47.25152" lon="6.08831">
        <ele>534.15</ele>
        <time>2018-09-29T12:27:37Z</time>
      </trkpt>
      <trkpt lat="47.25152" lon="6.08864">
        <ele>536.55</ele>
        <time>2018-09-29T12:27:51Z</time>
      </trkpt>
      <trkpt lat="47.25151" lon="6.08882">
        <ele>537.51</ele>
        <time>2018-09-29T12:27:59Z</time>
      </trkpt>
      <trkpt lat="47.2515" lon="6.08902">
        <ele>538.96</ele>
        <time>2018-09-29T12:28:08Z</time>
      </trkpt>
      <trkpt lat="47.2515" lon="6.08912">
        <ele>538.96</ele>
        <time>2018-09-29T12:28:12Z</time>
      </trkpt>
      <trkpt lat="47.2515" lon="6.0892">
        <ele>539.92</ele>
        <time>2018-09-29T12:28:16Z</time>
      </trkpt>
      <trkpt lat="47.2515" lon="6.08949">
        <ele>540.4</ele>
        <time>2018-09-29T12:28:29Z</time>
      </trkpt>
      <trkpt lat="47.25152" lon="6.09003">
        <ele>539.44</ele>
        <time>2018-09-29T12:28:45Z</time>
      </trkpt>
      <trkpt lat="47.25155" lon="6.09015">
        <ele>538.48</ele>
        <time>2018-09-29T12:28:47Z</time>
      </trkpt>
      <trkpt lat="47.25156" lon="6.09022">
        <ele>538.96</ele>
        <time>2018-09-29T12:28:48Z</time>
      </trkpt>
      <trkpt lat="47.25157" lon="6.09028">
        <ele>538.48</ele>
        <time>2018-09-29T12:28:49Z</time>
      </trkpt>
      <trkpt lat="47.25156" lon="6.09035">
        <ele>538.48</ele>
        <time>2018-09-29T12:28:50Z</time>
      </trkpt>
      <trkpt lat="47.25155" lon="6.09041">
        <ele>538.48</ele>
        <time>2018-09-29T12:28:51Z</time>
      </trkpt>
      <trkpt lat="47.25154" lon="6.09046">
        <ele>538.48</ele>
        <time>2018-09-29T12:28:52Z</time>
      </trkpt>
      <trkpt lat="47.25147" lon="6.09094">
        <ele>539.44</ele>
        <time>2018-09-29T12:29:03Z</time>
      </trkpt>
      <trkpt lat="47.25136" lon="6.09131">
        <ele>541.36</ele>
        <time>2018-09-29T12:29:14Z</time>
      </trkpt>
      <trkpt lat="47.25133" lon="6.09137">
        <ele>541.36</ele>
        <time>2018-09-29T12:29:16Z</time>
      </trkpt>
      <trkpt lat="47.25132" lon="6.09141">
        <ele>541.84</ele>
        <time>2018-09-29T12:29:17Z</time>
      </trkpt>
      <trkpt lat="47.25131" lon="6.09144">
        <ele>541.84</ele>
        <time>2018-09-29T12:29:18Z</time>
      </trkpt>
      <trkpt lat="47.2513" lon="6.09148">
        <ele>541.84</ele>
        <time>2018-09-29T12:29:19Z</time>
      </trkpt>
      <trkpt lat="47.25129" lon="6.09152">
        <ele>541.84</ele>
        <time>2018-09-29T12:29:20Z</time>
      </trkpt>
      <trkpt lat="47.25128" lon="6.09155">
        <ele>541.84</ele>
        <time>2018-09-29T12:29:21Z</time>
      </trkpt>
      <trkpt lat="47.25126" lon="6.09157">
        <ele>542.32</ele>
        <time>2018-09-29T12:29:22Z</time>
      </trkpt>
      <trkpt lat="47.25125" lon="6.0916">
        <ele>542.8</ele>
        <time>2018-09-29T12:29:23Z</time>
      </trkpt>
      <trkpt lat="47.25123" lon="6.09162">
        <ele>542.32</ele>
        <time>2018-09-29T12:29:24Z</time>
      </trkpt>
      <trkpt lat="47.25122" lon="6.09164">
        <ele>542.32</ele>
        <time>2018-09-29T12:29:25Z</time>
      </trkpt>
      <trkpt lat="47.2512" lon="6.09166">
        <ele>542.8</ele>
        <time>2018-09-29T12:29:26Z</time>
      </trkpt>
      <trkpt lat="47.25094" lon="6.09195">
        <ele>545.2</ele>
        <time>2018-09-29T12:29:41Z</time>
      </trkpt>
      <trkpt lat="47.25069" lon="6.09235">
        <ele>545.69</ele>
        <time>2018-09-29T12:29:56Z</time>
      </trkpt>
      <trkpt lat="47.25052" lon="6.09277">
        <ele>545.69</ele>
        <time>2018-09-29T12:30:08Z</time>
      </trkpt>
      <trkpt lat="47.25047" lon="6.09333">
        <ele>546.65</ele>
        <time>2018-09-29T12:30:22Z</time>
      </trkpt>
      <trkpt lat="47.2505" lon="6.09371">
        <ele>548.57</ele>
        <time>2018-09-29T12:30:34Z</time>
      </trkpt>
      <trkpt lat="47.25046" lon="6.09417">
        <ele>551.45</ele>
        <time>2018-09-29T12:30:49Z</time>
      </trkpt>
      <trkpt lat="47.25052" lon="6.09456">
        <ele>552.9</ele>
        <time>2018-09-29T12:31:01Z</time>
      </trkpt>
      <trkpt lat="47.25054" lon="6.09467">
        <ele>552.41</ele>
        <time>2018-09-29T12:31:04Z</time>
      </trkpt>
      <trkpt lat="47.25055" lon="6.0947">
        <ele>551.93</ele>
        <time>2018-09-29T12:31:05Z</time>
      </trkpt>
      <trkpt lat="47.25055" lon="6.09474">
        <ele>552.9</ele>
        <time>2018-09-29T12:31:06Z</time>
      </trkpt>
      <trkpt lat="47.25056" lon="6.09513">
        <ele>556.26</ele>
        <time>2018-09-29T12:31:19Z</time>
      </trkpt>
      <trkpt lat="47.25057" lon="6.09525">
        <ele>556.26</ele>
        <time>2018-09-29T12:31:23Z</time>
      </trkpt>
      <trkpt lat="47.25057" lon="6.09528">
        <ele>556.74</ele>
        <time>2018-09-29T12:31:24Z</time>
      </trkpt>
      <trkpt lat="47.25057" lon="6.09531">
        <ele>556.74</ele>
        <time>2018-09-29T12:31:25Z</time>
      </trkpt>
      <trkpt lat="47.25058" lon="6.09544">
        <ele>557.22</ele>
        <time>2018-09-29T12:31:30Z</time>
      </trkpt>
      <trkpt lat="47.25058" lon="6.09547">
        <ele>557.22</ele>
        <time>2018-09-29T12:31:31Z</time>
      </trkpt>
      <trkpt lat="47.25058" lon="6.09549">
        <ele>557.22</ele>
        <time>2018-09-29T12:31:32Z</time>
      </trkpt>
      <trkpt lat="47.25058" lon="6.09551">
        <ele>557.22</ele>
        <time>2018-09-29T12:31:33Z</time>
      </trkpt>
      <trkpt lat="47.25058" lon="6.09554">
        <ele>557.7</ele>
        <time>2018-09-29T12:31:34Z</time>
      </trkpt>
      <trkpt lat="47.25058" lon="6.09557">
        <ele>557.7</ele>
        <time>2018-09-29T12:31:35Z</time>
      </trkpt>
      <trkpt lat="47.25059" lon="6.0956">
        <ele>557.7</ele>
        <time>2018-09-29T12:31:36Z</time>
      </trkpt>
      <trkpt lat="47.25059" lon="6.09563">
        <ele>558.18</ele>
        <time>2018-09-29T12:31:37Z</time>
      </trkpt>
      <trkpt lat="47.25059" lon="6.09567">
        <ele>558.18</ele>
        <time>2018-09-29T12:31:38Z</time>
      </trkpt>
      <trkpt lat="47.25059" lon="6.0957">
        <ele>558.66</ele>
        <time>2018-09-29T12:31:39Z</time>
      </trkpt>
      <trkpt lat="47.25059" lon="6.09573">
        <ele>558.66</ele>
        <time>2018-09-29T12:31:40Z</time>
      </trkpt>
      <trkpt lat="47.25061" lon="6.09613">
        <ele>561.55</ele>
        <time>2018-09-29T12:31:52Z</time>
      </trkpt>
      <trkpt lat="47.25066" lon="6.09658">
        <ele>562.03</ele>
        <time>2018-09-29T12:32:06Z</time>
      </trkpt>
      <trkpt lat="47.25066" lon="6.09703">
        <ele>565.39</ele>
        <time>2018-09-29T12:32:21Z</time>
      </trkpt>
      <trkpt lat="47.2506" lon="6.09748">
        <ele>567.32</ele>
        <time>2018-09-29T12:32:35Z</time>
      </trkpt>
      <trkpt lat="47.25034" lon="6.09791">
        <ele>567.8</ele>
        <time>2018-09-29T12:32:51Z</time>
      </trkpt>
      <trkpt lat="47.25004" lon="6.09796">
        <ele>567.8</ele>
        <time>2018-09-29T12:33:01Z</time>
      </trkpt>
      <trkpt lat="47.25001" lon="6.09796">
        <ele>567.32</ele>
        <time>2018-09-29T12:33:02Z</time>
      </trkpt>
      <trkpt lat="47.24984" lon="6.09799">
        <ele>566.35</ele>
        <time>2018-09-29T12:33:06Z</time>
      </trkpt>
      <trkpt lat="47.2495" lon="6.09811">
        <ele>564.43</ele>
        <time>2018-09-29T12:33:14Z</time>
      </trkpt>
      <trkpt lat="47.24948" lon="6.09808">
        <ele>564.43</ele>
        <time>2018-09-29T12:33:15Z</time>
      </trkpt>
      <trkpt lat="47.24947" lon="6.09804">
        <ele>563.95</ele>
        <time>2018-09-29T12:33:16Z</time>
      </trkpt>
      <trkpt lat="47.24947" lon="6.09801">
        <ele>564.43</ele>
        <time>2018-09-29T12:33:17Z</time>
      </trkpt>
      <trkpt lat="47.24947" lon="6.09798">
        <ele>564.43</ele>
        <time>2018-09-29T12:33:18Z</time>
      </trkpt>
      <trkpt lat="47.24947" lon="6.09796">
        <ele>564.91</ele>
        <time>2018-09-29T12:33:19Z</time>
      </trkpt>
      <trkpt lat="47.24948" lon="6.09793">
        <ele>564.91</ele>
        <time>2018-09-29T12:33:20Z</time>
      </trkpt>
      <trkpt lat="47.24948" lon="6.0979">
        <ele>564.91</ele>
        <time>2018-09-29T12:33:21Z</time>
      </trkpt>
      <trkpt lat="47.24951" lon="6.09764">
        <ele>565.87</ele>
        <time>2018-09-29T12:33:30Z</time>
      </trkpt>
      <trkpt lat="47.24951" lon="6.09762">
        <ele>566.35</ele>
        <time>2018-09-29T12:33:31Z</time>
      </trkpt>
      <trkpt lat="47.24952" lon="6.09761">
        <ele>566.35</ele>
        <time>2018-09-29T12:33:32Z</time>
      </trkpt>
      <trkpt lat="47.24953" lon="6.09759">
        <ele>566.35</ele>
        <time>2018-09-29T12:33:33Z</time>
      </trkpt>
      <trkpt lat="47.24953" lon="6.09757">
        <ele>566.83</ele>
        <time>2018-09-29T12:33:34Z</time>
      </trkpt>
      <trkpt lat="47.24953" lon="6.09755">
        <ele>566.83</ele>
        <time>2018-09-29T12:33:35Z</time>
      </trkpt>
      <trkpt lat="47.24951" lon="6.09753">
        <ele>566.83</ele>
        <time>2018-09-29T12:33:36Z</time>
      </trkpt>
      <trkpt lat="47.24949" lon="6.09751">
        <ele>566.83</ele>
        <time>2018-09-29T12:33:37Z</time>
      </trkpt>
      <trkpt lat="47.24948" lon="6.09748">
        <ele>566.35</ele>
        <time>2018-09-29T12:33:38Z</time>
      </trkpt>
      <trkpt lat="47.24946" lon="6.09745">
        <ele>566.35</ele>
        <time>2018-09-29T12:33:39Z</time>
      </trkpt>
      <trkpt lat="47.24945" lon="6.09741">
        <ele>566.35</ele>
        <time>2018-09-29T12:33:40Z</time>
      </trkpt>
      <trkpt lat="47.24928" lon="6.09697">
        <ele>567.8</ele>
        <time>2018-09-29T12:33:53Z</time>
      </trkpt>
      <trkpt lat="47.24909" lon="6.09652">
        <ele>568.76</ele>
        <time>2018-09-29T12:34:06Z</time>
      </trkpt>
      <trkpt lat="47.24888" lon="6.09586">
        <ele>570.2</ele>
        <time>2018-09-29T12:34:24Z</time>
      </trkpt>
      <trkpt lat="47.2487" lon="6.09521">
        <ele>572.12</ele>
        <time>2018-09-29T12:34:41Z</time>
      </trkpt>
      <trkpt lat="47.24873" lon="6.09465">
        <ele>573.56</ele>
        <time>2018-09-29T12:34:56Z</time>
      </trkpt>
      <trkpt lat="47.24875" lon="6.09449">
        <ele>574.53</ele>
        <time>2018-09-29T12:35:01Z</time>
      </trkpt>
      <trkpt lat="47.24876" lon="6.09446">
        <ele>574.53</ele>
        <time>2018-09-29T12:35:02Z</time>
      </trkpt>
      <trkpt lat="47.24877" lon="6.0941">
        <ele>575.01</ele>
        <time>2018-09-29T12:35:13Z</time>
      </trkpt>
      <trkpt lat="47.2486" lon="6.09378">
        <ele>575.97</ele>
        <time>2018-09-29T12:35:25Z</time>
      </trkpt>
      <trkpt lat="47.24842" lon="6.09351">
        <ele>577.41</ele>
        <time>2018-09-29T12:35:37Z</time>
      </trkpt>
      <trkpt lat="47.24831" lon="6.09322">
        <ele>578.37</ele>
        <time>2018-09-29T12:35:48Z</time>
      </trkpt>
      <trkpt lat="47.24831" lon="6.0932">
        <ele>578.85</ele>
        <time>2018-09-29T12:35:49Z</time>
      </trkpt>
      <trkpt lat="47.24831" lon="6.09317">
        <ele>578.85</ele>
        <time>2018-09-29T12:35:50Z</time>
      </trkpt>
      <trkpt lat="47.2483" lon="6.09315">
        <ele>578.85</ele>
        <time>2018-09-29T12:35:51Z</time>
      </trkpt>
      <trkpt lat="47.24831" lon="6.09312">
        <ele>579.33</ele>
        <time>2018-09-29T12:35:52Z</time>
      </trkpt>
      <trkpt lat="47.24831" lon="6.09309">
        <ele>579.33</ele>
        <time>2018-09-29T12:35:53Z</time>
      </trkpt>
      <trkpt lat="47.24831" lon="6.09307">
        <ele>579.81</ele>
        <time>2018-09-29T12:35:54Z</time>
      </trkpt>
      <trkpt lat="47.24831" lon="6.09304">
        <ele>579.81</ele>
        <time>2018-09-29T12:35:55Z</time>
      </trkpt>
      <trkpt lat="47.24832" lon="6.09301">
        <ele>580.29</ele>
        <time>2018-09-29T12:35:56Z</time>
      </trkpt>
      <trkpt lat="47.24832" lon="6.09298">
        <ele>580.29</ele>
        <time>2018-09-29T12:35:57Z</time>
      </trkpt>
      <trkpt lat="47.24832" lon="6.09292">
        <ele>580.77</ele>
        <time>2018-09-29T12:35:59Z</time>
      </trkpt>
      <trkpt lat="47.24831" lon="6.0929">
        <ele>580.77</ele>
        <time>2018-09-29T12:36:00Z</time>
      </trkpt>
      <trkpt lat="47.24829" lon="6.09287">
        <ele>581.25</ele>
        <time>2018-09-29T12:36:02Z</time>
      </trkpt>
      <trkpt lat="47.24828" lon="6.09287">
        <ele>581.25</ele>
        <time>2018-09-29T12:36:03Z</time>
      </trkpt>
      <trkpt lat="47.24826" lon="6.09288">
        <ele>581.73</ele>
        <time>2018-09-29T12:36:04Z</time>
      </trkpt>
      <trkpt lat="47.24824" lon="6.09289">
        <ele>581.73</ele>
        <time>2018-09-29T12:36:06Z</time>
      </trkpt>
      <trkpt lat="47.248" lon="6.09298">
        <ele>582.22</ele>
        <time>2018-09-29T12:36:18Z</time>
      </trkpt>
      <trkpt lat="47.24772" lon="6.09304">
        <ele>583.18</ele>
        <time>2018-09-29T12:36:29Z</time>
      </trkpt>
      <trkpt lat="47.24744" lon="6.09306">
        <ele>584.14</ele>
        <time>2018-09-29T12:36:41Z</time>
      </trkpt>
      <trkpt lat="47.24723" lon="6.09301">
        <ele>585.58</ele>
        <time>2018-09-29T12:36:51Z</time>
      </trkpt>
      <trkpt lat="47.247" lon="6.09281">
        <ele>586.54</ele>
        <time>2018-09-29T12:37:02Z</time>
      </trkpt>
      <trkpt lat="47.24696" lon="6.09278">
        <ele>586.54</ele>
        <time>2018-09-29T12:37:04Z</time>
      </trkpt>
      <trkpt lat="47.24688" lon="6.0927">
        <ele>587.5</ele>
        <time>2018-09-29T12:37:10Z</time>
      </trkpt>
      <trkpt lat="47.24663" lon="6.09239">
        <ele>588.95</ele>
        <time>2018-09-29T12:37:21Z</time>
      </trkpt>
      <trkpt lat="47.2464" lon="6.09207">
        <ele>589.91</ele>
        <time>2018-09-29T12:37:33Z</time>
      </trkpt>
      <trkpt lat="47.24618" lon="6.09169">
        <ele>591.35</ele>
        <time>2018-09-29T12:37:46Z</time>
      </trkpt>
      <trkpt lat="47.24599" lon="6.09134">
        <ele>592.79</ele>
        <time>2018-09-29T12:37:59Z</time>
      </trkpt>
      <trkpt lat="47.24581" lon="6.09089">
        <ele>594.23</ele>
        <time>2018-09-29T12:38:14Z</time>
      </trkpt>
      <trkpt lat="47.24558" lon="6.09031">
        <ele>594.71</ele>
        <time>2018-09-29T12:38:31Z</time>
      </trkpt>
      <trkpt lat="47.24544" lon="6.08989">
        <ele>596.15</ele>
        <time>2018-09-29T12:38:43Z</time>
      </trkpt>
      <trkpt lat="47.24544" lon="6.08986">
        <ele>596.15</ele>
        <time>2018-09-29T12:38:44Z</time>
      </trkpt>
      <trkpt lat="47.24528" lon="6.08947">
        <ele>598.08</ele>
        <time>2018-09-29T12:38:55Z</time>
      </trkpt>
      <trkpt lat="47.24513" lon="6.08907">
        <ele>598.56</ele>
        <time>2018-09-29T12:39:07Z</time>
      </trkpt>
      <trkpt lat="47.24506" lon="6.08881">
        <ele>599.52</ele>
        <time>2018-09-29T12:39:14Z</time>
      </trkpt>
      <trkpt lat="47.24504" lon="6.08878">
        <ele>599.52</ele>
        <time>2018-09-29T12:39:15Z</time>
      </trkpt>
      <trkpt lat="47.24503" lon="6.08875">
        <ele>599.52</ele>
        <time>2018-09-29T12:39:16Z</time>
      </trkpt>
      <trkpt lat="47.24502" lon="6.08871">
        <ele>599.52</ele>
        <time>2018-09-29T12:39:17Z</time>
      </trkpt>
      <trkpt lat="47.24501" lon="6.08868">
        <ele>600</ele>
        <time>2018-09-29T12:39:18Z</time>
      </trkpt>
      <trkpt lat="47.24499" lon="6.08864">
        <ele>600</ele>
        <time>2018-09-29T12:39:19Z</time>
      </trkpt>
      <trkpt lat="47.24496" lon="6.0885">
        <ele>600</ele>
        <time>2018-09-29T12:39:23Z</time>
      </trkpt>
      <trkpt lat="47.24497" lon="6.08849">
        <ele>600.48</ele>
        <time>2018-09-29T12:39:24Z</time>
      </trkpt>
      <trkpt lat="47.24498" lon="6.08847">
        <ele>600.48</ele>
        <time>2018-09-29T12:39:25Z</time>
      </trkpt>
      <trkpt lat="47.24508" lon="6.08832">
        <ele>603.85</ele>
        <time>2018-09-29T12:39:34Z</time>
      </trkpt>
      <trkpt lat="47.24505" lon="6.08819">
        <ele>602.88</ele>
        <time>2018-09-29T12:39:40Z</time>
      </trkpt>
      <trkpt lat="47.24479" lon="6.08785">
        <ele>601.92</ele>
        <time>2018-09-29T12:39:53Z</time>
      </trkpt>
      <trkpt lat="47.24464" lon="6.08742">
        <ele>601.92</ele>
        <time>2018-09-29T12:40:04Z</time>
      </trkpt>
      <trkpt lat="47.24479" lon="6.08694">
        <ele>601.44</ele>
        <time>2018-09-29T12:40:16Z</time>
      </trkpt>
      <trkpt lat="47.24498" lon="6.08654">
        <ele>600.48</ele>
        <time>2018-09-29T12:40:26Z</time>
      </trkpt>
      <trkpt lat="47.24519" lon="6.08597">
        <ele>597.6</ele>
        <time>2018-09-29T12:40:35Z</time>
      </trkpt>
      <trkpt lat="47.2452" lon="6.08589">
        <ele>597.6</ele>
        <time>2018-09-29T12:40:36Z</time>
      </trkpt>
      <trkpt lat="47.24519" lon="6.08582">
        <ele>597.12</ele>
        <time>2018-09-29T12:40:37Z</time>
      </trkpt>
      <trkpt lat="47.24516" lon="6.08568">
        <ele>597.12</ele>
        <time>2018-09-29T12:40:39Z</time>
      </trkpt>
      <trkpt lat="47.24513" lon="6.08563">
        <ele>597.12</ele>
        <time>2018-09-29T12:40:40Z</time>
      </trkpt>
      <trkpt lat="47.24509" lon="6.08558">
        <ele>597.12</ele>
        <time>2018-09-29T12:40:41Z</time>
      </trkpt>
      <trkpt lat="47.24496" lon="6.08542">
        <ele>596.64</ele>
        <time>2018-09-29T12:40:45Z</time>
      </trkpt>
      <trkpt lat="47.24486" lon="6.08526">
        <ele>595.19</ele>
        <time>2018-09-29T12:40:48Z</time>
      </trkpt>
      <trkpt lat="47.24477" lon="6.08509">
        <ele>593.27</ele>
        <time>2018-09-29T12:40:51Z</time>
      </trkpt>
      <trkpt lat="47.24472" lon="6.08504">
        <ele>592.79</ele>
        <time>2018-09-29T12:40:52Z</time>
      </trkpt>
      <trkpt lat="47.24461" lon="6.08492">
        <ele>591.35</ele>
        <time>2018-09-29T12:40:54Z</time>
      </trkpt>
      <trkpt lat="47.24456" lon="6.08484">
        <ele>590.39</ele>
        <time>2018-09-29T12:40:55Z</time>
      </trkpt>
      <trkpt lat="47.24446" lon="6.0847">
        <ele>589.43</ele>
        <time>2018-09-29T12:40:57Z</time>
      </trkpt>
      <trkpt lat="47.2444" lon="6.08463">
        <ele>588.46</ele>
        <time>2018-09-29T12:40:58Z</time>
      </trkpt>
      <trkpt lat="47.24427" lon="6.08451">
        <ele>586.54</ele>
        <time>2018-09-29T12:41:00Z</time>
      </trkpt>
      <trkpt lat="47.24401" lon="6.08433">
        <ele>583.66</ele>
        <time>2018-09-29T12:41:03Z</time>
      </trkpt>
      <trkpt lat="47.24383" lon="6.08417">
        <ele>581.25</ele>
        <time>2018-09-29T12:41:05Z</time>
      </trkpt>
      <trkpt lat="47.24347" lon="6.08384">
        <ele>578.37</ele>
        <time>2018-09-29T12:41:09Z</time>
      </trkpt>
      <trkpt lat="47.24319" lon="6.08358">
        <ele>575.01</ele>
        <time>2018-09-29T12:41:12Z</time>
      </trkpt>
      <trkpt lat="47.2429" lon="6.08333">
        <ele>571.16</ele>
        <time>2018-09-29T12:41:15Z</time>
      </trkpt>
      <trkpt lat="47.24249" lon="6.08302">
        <ele>567.32</ele>
        <time>2018-09-29T12:41:19Z</time>
      </trkpt>
      <trkpt lat="47.2422" lon="6.08277">
        <ele>564.43</ele>
        <time>2018-09-29T12:41:22Z</time>
      </trkpt>
      <trkpt lat="47.24211" lon="6.08268">
        <ele>563.47</ele>
        <time>2018-09-29T12:41:23Z</time>
      </trkpt>
      <trkpt lat="47.24204" lon="6.0826">
        <ele>562.51</ele>
        <time>2018-09-29T12:41:24Z</time>
      </trkpt>
      <trkpt lat="47.24172" lon="6.08222">
        <ele>559.14</ele>
        <time>2018-09-29T12:41:28Z</time>
      </trkpt>
      <trkpt lat="47.24163" lon="6.08213">
        <ele>558.18</ele>
        <time>2018-09-29T12:41:29Z</time>
      </trkpt>
      <trkpt lat="47.24154" lon="6.08204">
        <ele>556.74</ele>
        <time>2018-09-29T12:41:30Z</time>
      </trkpt>
      <trkpt lat="47.24144" lon="6.08197">
        <ele>556.26</ele>
        <time>2018-09-29T12:41:31Z</time>
      </trkpt>
      <trkpt lat="47.24134" lon="6.08189">
        <ele>555.78</ele>
        <time>2018-09-29T12:41:32Z</time>
      </trkpt>
      <trkpt lat="47.24125" lon="6.0818">
        <ele>554.82</ele>
        <time>2018-09-29T12:41:33Z</time>
      </trkpt>
      <trkpt lat="47.24117" lon="6.08169">
        <ele>553.38</ele>
        <time>2018-09-29T12:41:34Z</time>
      </trkpt>
      <trkpt lat="47.24093" lon="6.08139">
        <ele>550.49</ele>
        <time>2018-09-29T12:41:37Z</time>
      </trkpt>
      <trkpt lat="47.24067" lon="6.0811">
        <ele>546.17</ele>
        <time>2018-09-29T12:41:40Z</time>
      </trkpt>
      <trkpt lat="47.2404" lon="6.08083">
        <ele>542.32</ele>
        <time>2018-09-29T12:41:43Z</time>
      </trkpt>
      <trkpt lat="47.24032" lon="6.08074">
        <ele>542.32</ele>
        <time>2018-09-29T12:41:44Z</time>
      </trkpt>
      <trkpt lat="47.23998" lon="6.08036">
        <ele>538.48</ele>
        <time>2018-09-29T12:41:48Z</time>
      </trkpt>
      <trkpt lat="47.2396" lon="6.07995">
        <ele>535.11</ele>
        <time>2018-09-29T12:41:52Z</time>
      </trkpt>
      <trkpt lat="47.23891" lon="6.07923">
        <ele>533.19</ele>
        <time>2018-09-29T12:42:00Z</time>
      </trkpt>
      <trkpt lat="47.23854" lon="6.07888">
        <ele>531.75</ele>
        <time>2018-09-29T12:42:04Z</time>
      </trkpt>
      <trkpt lat="47.23845" lon="6.07883">
        <ele>531.27</ele>
        <time>2018-09-29T12:42:05Z</time>
      </trkpt>
      <trkpt lat="47.23836" lon="6.0788">
        <ele>530.3</ele>
        <time>2018-09-29T12:42:06Z</time>
      </trkpt>
      <trkpt lat="47.2379" lon="6.07879">
        <ele>526.94</ele>
        <time>2018-09-29T12:42:11Z</time>
      </trkpt>
      <trkpt lat="47.2373" lon="6.07894">
        <ele>523.58</ele>
        <time>2018-09-29T12:42:17Z</time>
      </trkpt>
      <trkpt lat="47.23701" lon="6.07898">
        <ele>521.65</ele>
        <time>2018-09-29T12:42:20Z</time>
      </trkpt>
      <trkpt lat="47.23693" lon="6.07897">
        <ele>521.65</ele>
        <time>2018-09-29T12:42:21Z</time>
      </trkpt>
      <trkpt lat="47.23688" lon="6.07892">
        <ele>521.17</ele>
        <time>2018-09-29T12:42:22Z</time>
      </trkpt>
      <trkpt lat="47.23684" lon="6.07885">
        <ele>520.69</ele>
        <time>2018-09-29T12:42:23Z</time>
      </trkpt>
      <trkpt lat="47.23682" lon="6.07876">
        <ele>520.21</ele>
        <time>2018-09-29T12:42:24Z</time>
      </trkpt>
      <trkpt lat="47.23683" lon="6.07866">
        <ele>519.25</ele>
        <time>2018-09-29T12:42:25Z</time>
      </trkpt>
      <trkpt lat="47.23685" lon="6.07857">
        <ele>518.77</ele>
        <time>2018-09-29T12:42:26Z</time>
      </trkpt>
      <trkpt lat="47.23689" lon="6.0785">
        <ele>518.29</ele>
        <time>2018-09-29T12:42:27Z</time>
      </trkpt>
      <trkpt lat="47.23694" lon="6.07843">
        <ele>517.81</ele>
        <time>2018-09-29T12:42:28Z</time>
      </trkpt>
      <trkpt lat="47.23699" lon="6.07838">
        <ele>516.85</ele>
        <time>2018-09-29T12:42:29Z</time>
      </trkpt>
      <trkpt lat="47.23705" lon="6.07833">
        <ele>516.85</ele>
        <time>2018-09-29T12:42:30Z</time>
      </trkpt>
      <trkpt lat="47.23709" lon="6.07827">
        <ele>516.85</ele>
        <time>2018-09-29T12:42:31Z</time>
      </trkpt>
      <trkpt lat="47.23735" lon="6.07792">
        <ele>514.44</ele>
        <time>2018-09-29T12:42:36Z</time>
      </trkpt>
      <trkpt lat="47.2374" lon="6.07786">
        <ele>514.44</ele>
        <time>2018-09-29T12:42:37Z</time>
      </trkpt>
      <trkpt lat="47.23746" lon="6.0778">
        <ele>513.96</ele>
        <time>2018-09-29T12:42:38Z</time>
      </trkpt>
      <trkpt lat="47.23767" lon="6.07762">
        <ele>512.04</ele>
        <time>2018-09-29T12:42:41Z</time>
      </trkpt>
      <trkpt lat="47.23773" lon="6.07753">
        <ele>511.08</ele>
        <time>2018-09-29T12:42:42Z</time>
      </trkpt>
      <trkpt lat="47.23778" lon="6.07742">
        <ele>510.6</ele>
        <time>2018-09-29T12:42:43Z</time>
      </trkpt>
      <trkpt lat="47.23781" lon="6.07729">
        <ele>510.12</ele>
        <time>2018-09-29T12:42:44Z</time>
      </trkpt>
      <trkpt lat="47.23782" lon="6.07716">
        <ele>508.67</ele>
        <time>2018-09-29T12:42:45Z</time>
      </trkpt>
      <trkpt lat="47.23782" lon="6.07702">
        <ele>507.23</ele>
        <time>2018-09-29T12:42:46Z</time>
      </trkpt>
      <trkpt lat="47.23782" lon="6.0769">
        <ele>506.27</ele>
        <time>2018-09-29T12:42:47Z</time>
      </trkpt>
      <trkpt lat="47.2378" lon="6.07679">
        <ele>506.27</ele>
        <time>2018-09-29T12:42:48Z</time>
      </trkpt>
      <trkpt lat="47.23775" lon="6.07671">
        <ele>506.27</ele>
        <time>2018-09-29T12:42:49Z</time>
      </trkpt>
      <trkpt lat="47.23768" lon="6.07666">
        <ele>506.27</ele>
        <time>2018-09-29T12:42:50Z</time>
      </trkpt>
      <trkpt lat="47.2376" lon="6.07663">
        <ele>504.83</ele>
        <time>2018-09-29T12:42:51Z</time>
      </trkpt>
      <trkpt lat="47.23752" lon="6.0766">
        <ele>503.39</ele>
        <time>2018-09-29T12:42:52Z</time>
      </trkpt>
      <trkpt lat="47.23744" lon="6.07658">
        <ele>503.39</ele>
        <time>2018-09-29T12:42:53Z</time>
      </trkpt>
      <trkpt lat="47.23713" lon="6.0765">
        <ele>501.46</ele>
        <time>2018-09-29T12:42:57Z</time>
      </trkpt>
      <trkpt lat="47.23705" lon="6.0765">
        <ele>500.5</ele>
        <time>2018-09-29T12:42:58Z</time>
      </trkpt>
      <trkpt lat="47.23698" lon="6.0765">
        <ele>500.02</ele>
        <time>2018-09-29T12:42:59Z</time>
      </trkpt>
      <trkpt lat="47.23691" lon="6.07652">
        <ele>499.06</ele>
        <time>2018-09-29T12:43:00Z</time>
      </trkpt>
      <trkpt lat="47.23684" lon="6.07656">
        <ele>498.58</ele>
        <time>2018-09-29T12:43:01Z</time>
      </trkpt>
      <trkpt lat="47.23678" lon="6.07661">
        <ele>497.62</ele>
        <time>2018-09-29T12:43:02Z</time>
      </trkpt>
      <trkpt lat="47.23672" lon="6.07668">
        <ele>496.66</ele>
        <time>2018-09-29T12:43:03Z</time>
      </trkpt>
      <trkpt lat="47.23666" lon="6.07676">
        <ele>496.66</ele>
        <time>2018-09-29T12:43:04Z</time>
      </trkpt>
      <trkpt lat="47.23661" lon="6.07686">
        <ele>496.18</ele>
        <time>2018-09-29T12:43:05Z</time>
      </trkpt>
      <trkpt lat="47.23643" lon="6.07722">
        <ele>491.85</ele>
        <time>2018-09-29T12:43:09Z</time>
      </trkpt>
      <trkpt lat="47.23638" lon="6.07731">
        <ele>497.14</ele>
        <time>2018-09-29T12:43:10Z</time>
      </trkpt>
      <trkpt lat="47.23622" lon="6.07754">
        <ele>494.74</ele>
        <time>2018-09-29T12:43:13Z</time>
      </trkpt>
      <trkpt lat="47.23616" lon="6.07759">
        <ele>495.22</ele>
        <time>2018-09-29T12:43:14Z</time>
      </trkpt>
      <trkpt lat="47.2361" lon="6.07763">
        <ele>494.74</ele>
        <time>2018-09-29T12:43:15Z</time>
      </trkpt>
      <trkpt lat="47.23602" lon="6.07764">
        <ele>494.26</ele>
        <time>2018-09-29T12:43:16Z</time>
      </trkpt>
      <trkpt lat="47.23595" lon="6.07764">
        <ele>493.77</ele>
        <time>2018-09-29T12:43:17Z</time>
      </trkpt>
      <trkpt lat="47.23587" lon="6.07764">
        <ele>493.77</ele>
        <time>2018-09-29T12:43:18Z</time>
      </trkpt>
      <trkpt lat="47.23579" lon="6.07765">
        <ele>492.81</ele>
        <time>2018-09-29T12:43:19Z</time>
      </trkpt>
      <trkpt lat="47.23572" lon="6.07767">
        <ele>493.29</ele>
        <time>2018-09-29T12:43:20Z</time>
      </trkpt>
      <trkpt lat="47.23565" lon="6.0777">
        <ele>493.29</ele>
        <time>2018-09-29T12:43:21Z</time>
      </trkpt>
      <trkpt lat="47.23539" lon="6.07776">
        <ele>493.77</ele>
        <time>2018-09-29T12:43:25Z</time>
      </trkpt>
      <trkpt lat="47.23533" lon="6.07776">
        <ele>492.81</ele>
        <time>2018-09-29T12:43:26Z</time>
      </trkpt>
      <trkpt lat="47.23527" lon="6.07775">
        <ele>493.77</ele>
        <time>2018-09-29T12:43:27Z</time>
      </trkpt>
      <trkpt lat="47.23521" lon="6.07773">
        <ele>493.29</ele>
        <time>2018-09-29T12:43:28Z</time>
      </trkpt>
      <trkpt lat="47.23515" lon="6.0777">
        <ele>492.81</ele>
        <time>2018-09-29T12:43:29Z</time>
      </trkpt>
      <trkpt lat="47.23509" lon="6.07767">
        <ele>492.33</ele>
        <time>2018-09-29T12:43:30Z</time>
      </trkpt>
      <trkpt lat="47.2349" lon="6.07754">
        <ele>490.89</ele>
        <time>2018-09-29T12:43:33Z</time>
      </trkpt>
      <trkpt lat="47.23485" lon="6.07749">
        <ele>491.37</ele>
        <time>2018-09-29T12:43:34Z</time>
      </trkpt>
      <trkpt lat="47.23483" lon="6.07742">
        <ele>491.37</ele>
        <time>2018-09-29T12:43:35Z</time>
      </trkpt>
      <trkpt lat="47.23483" lon="6.07735">
        <ele>490.89</ele>
        <time>2018-09-29T12:43:36Z</time>
      </trkpt>
      <trkpt lat="47.23484" lon="6.07727">
        <ele>490.41</ele>
        <time>2018-09-29T12:43:37Z</time>
      </trkpt>
      <trkpt lat="47.23486" lon="6.0772">
        <ele>490.89</ele>
        <time>2018-09-29T12:43:38Z</time>
      </trkpt>
      <trkpt lat="47.23487" lon="6.07715">
        <ele>490.89</ele>
        <time>2018-09-29T12:43:39Z</time>
      </trkpt>
      <trkpt lat="47.23487" lon="6.07708">
        <ele>490.89</ele>
        <time>2018-09-29T12:43:46Z</time>
      </trkpt>
      <trkpt lat="47.23488" lon="6.07708">
        <ele>491.37</ele>
        <time>2018-09-29T12:44:03Z</time>
      </trkpt>
      <trkpt lat="47.23489" lon="6.07707">
        <ele>491.37</ele>
        <time>2018-09-29T12:44:30Z</time>
      </trkpt>
      <trkpt lat="47.23489" lon="6.07705">
        <ele>491.85</ele>
        <time>2018-09-29T12:44:54Z</time>
      </trkpt>
      <trkpt lat="47.23488" lon="6.07708">
        <ele>491.85</ele>
        <time>2018-09-29T12:45:15Z</time>
      </trkpt>
      <trkpt lat="47.23483" lon="6.07737">
        <ele>490.89</ele>
        <time>2018-09-29T12:45:27Z</time>
      </trkpt>
      <trkpt lat="47.23482" lon="6.0774">
        <ele>490.89</ele>
        <time>2018-09-29T12:45:28Z</time>
      </trkpt>
      <trkpt lat="47.23457" lon="6.07723">
        <ele>492.81</ele>
        <time>2018-09-29T12:45:39Z</time>
      </trkpt>
      <trkpt lat="47.23417" lon="6.07697">
        <ele>495.7</ele>
        <time>2018-09-29T12:45:53Z</time>
      </trkpt>
      <trkpt lat="47.234" lon="6.07685">
        <ele>494.26</ele>
        <time>2018-09-29T12:45:58Z</time>
      </trkpt>
      <trkpt lat="47.23392" lon="6.07676">
        <ele>493.29</ele>
        <time>2018-09-29T12:46:00Z</time>
      </trkpt>
      <trkpt lat="47.23388" lon="6.0767">
        <ele>493.29</ele>
        <time>2018-09-29T12:46:01Z</time>
      </trkpt>
      <trkpt lat="47.23385" lon="6.07661">
        <ele>492.33</ele>
        <time>2018-09-29T12:46:02Z</time>
      </trkpt>
      <trkpt lat="47.23382" lon="6.07652">
        <ele>491.37</ele>
        <time>2018-09-29T12:46:03Z</time>
      </trkpt>
      <trkpt lat="47.23381" lon="6.07641">
        <ele>490.41</ele>
        <time>2018-09-29T12:46:04Z</time>
      </trkpt>
      <trkpt lat="47.2338" lon="6.07629">
        <ele>488.97</ele>
        <time>2018-09-29T12:46:05Z</time>
      </trkpt>
      <trkpt lat="47.23381" lon="6.07617">
        <ele>488.97</ele>
        <time>2018-09-29T12:46:06Z</time>
      </trkpt>
      <trkpt lat="47.23383" lon="6.07605">
        <ele>488.49</ele>
        <time>2018-09-29T12:46:07Z</time>
      </trkpt>
      <trkpt lat="47.23391" lon="6.07567">
        <ele>486.08</ele>
        <time>2018-09-29T12:46:10Z</time>
      </trkpt>
      <trkpt lat="47.23396" lon="6.07529">
        <ele>486.08</ele>
        <time>2018-09-29T12:46:13Z</time>
      </trkpt>
      <trkpt lat="47.23397" lon="6.07516">
        <ele>485.12</ele>
        <time>2018-09-29T12:46:14Z</time>
      </trkpt>
      <trkpt lat="47.23396" lon="6.07502">
        <ele>484.64</ele>
        <time>2018-09-29T12:46:15Z</time>
      </trkpt>
      <trkpt lat="47.23395" lon="6.07474">
        <ele>483.2</ele>
        <time>2018-09-29T12:46:17Z</time>
      </trkpt>
      <trkpt lat="47.23396" lon="6.0746">
        <ele>482.24</ele>
        <time>2018-09-29T12:46:18Z</time>
      </trkpt>
      <trkpt lat="47.23397" lon="6.07414">
        <ele>478.39</ele>
        <time>2018-09-29T12:46:21Z</time>
      </trkpt>
      <trkpt lat="47.23401" lon="6.07366">
        <ele>475.03</ele>
        <time>2018-09-29T12:46:24Z</time>
      </trkpt>
      <trkpt lat="47.23404" lon="6.07338">
        <ele>473.11</ele>
        <time>2018-09-29T12:46:26Z</time>
      </trkpt>
      <trkpt lat="47.23408" lon="6.07328">
        <ele>472.63</ele>
        <time>2018-09-29T12:46:27Z</time>
      </trkpt>
      <trkpt lat="47.23414" lon="6.0732">
        <ele>471.66</ele>
        <time>2018-09-29T12:46:28Z</time>
      </trkpt>
      <trkpt lat="47.23422" lon="6.07314">
        <ele>470.22</ele>
        <time>2018-09-29T12:46:29Z</time>
      </trkpt>
      <trkpt lat="47.23431" lon="6.0731">
        <ele>469.26</ele>
        <time>2018-09-29T12:46:30Z</time>
      </trkpt>
      <trkpt lat="47.23439" lon="6.07304">
        <ele>468.3</ele>
        <time>2018-09-29T12:46:31Z</time>
      </trkpt>
      <trkpt lat="47.23445" lon="6.07297">
        <ele>468.3</ele>
        <time>2018-09-29T12:46:32Z</time>
      </trkpt>
      <trkpt lat="47.23449" lon="6.07288">
        <ele>467.82</ele>
        <time>2018-09-29T12:46:33Z</time>
      </trkpt>
      <trkpt lat="47.2345" lon="6.07277">
        <ele>467.34</ele>
        <time>2018-09-29T12:46:34Z</time>
      </trkpt>
      <trkpt lat="47.23449" lon="6.07266">
        <ele>466.38</ele>
        <time>2018-09-29T12:46:35Z</time>
      </trkpt>
      <trkpt lat="47.23446" lon="6.07255">
        <ele>465.42</ele>
        <time>2018-09-29T12:46:36Z</time>
      </trkpt>
      <trkpt lat="47.23443" lon="6.07242">
        <ele>464.45</ele>
        <time>2018-09-29T12:46:37Z</time>
      </trkpt>
      <trkpt lat="47.2344" lon="6.07228">
        <ele>461.57</ele>
        <time>2018-09-29T12:46:38Z</time>
      </trkpt>
      <trkpt lat="47.23439" lon="6.07212">
        <ele>460.13</ele>
        <time>2018-09-29T12:46:39Z</time>
      </trkpt>
      <trkpt lat="47.23433" lon="6.07181">
        <ele>457.72</ele>
        <time>2018-09-29T12:46:41Z</time>
      </trkpt>
      <trkpt lat="47.23423" lon="6.0715">
        <ele>454.36</ele>
        <time>2018-09-29T12:46:43Z</time>
      </trkpt>
      <trkpt lat="47.23417" lon="6.07134">
        <ele>452.92</ele>
        <time>2018-09-29T12:46:44Z</time>
      </trkpt>
      <trkpt lat="47.23403" lon="6.07103">
        <ele>450.03</ele>
        <time>2018-09-29T12:46:46Z</time>
      </trkpt>
      <trkpt lat="47.23393" lon="6.07073">
        <ele>448.59</ele>
        <time>2018-09-29T12:46:48Z</time>
      </trkpt>
      <trkpt lat="47.23388" lon="6.0705">
        <ele>448.11</ele>
        <time>2018-09-29T12:46:50Z</time>
      </trkpt>
      <trkpt lat="47.23388" lon="6.07041">
        <ele>447.63</ele>
        <time>2018-09-29T12:46:51Z</time>
      </trkpt>
      <trkpt lat="47.23392" lon="6.07035">
        <ele>446.67</ele>
        <time>2018-09-29T12:46:52Z</time>
      </trkpt>
      <trkpt lat="47.23397" lon="6.07032">
        <ele>445.71</ele>
        <time>2018-09-29T12:46:53Z</time>
      </trkpt>
      <trkpt lat="47.23404" lon="6.07034">
        <ele>444.75</ele>
        <time>2018-09-29T12:46:54Z</time>
      </trkpt>
      <trkpt lat="47.2341" lon="6.07039">
        <ele>443.79</ele>
        <time>2018-09-29T12:46:55Z</time>
      </trkpt>
      <trkpt lat="47.23417" lon="6.07043">
        <ele>442.82</ele>
        <time>2018-09-29T12:46:56Z</time>
      </trkpt>
      <trkpt lat="47.23424" lon="6.07046">
        <ele>442.34</ele>
        <time>2018-09-29T12:46:57Z</time>
      </trkpt>
      <trkpt lat="47.23431" lon="6.07048">
        <ele>441.86</ele>
        <time>2018-09-29T12:46:58Z</time>
      </trkpt>
      <trkpt lat="47.23439" lon="6.07051">
        <ele>440.9</ele>
        <time>2018-09-29T12:46:59Z</time>
      </trkpt>
      <trkpt lat="47.23454" lon="6.07054">
        <ele>439.46</ele>
        <time>2018-09-29T12:47:01Z</time>
      </trkpt>
      <trkpt lat="47.23479" lon="6.07054">
        <ele>436.1</ele>
        <time>2018-09-29T12:47:04Z</time>
      </trkpt>
      <trkpt lat="47.23488" lon="6.07055">
        <ele>435.13</ele>
        <time>2018-09-29T12:47:05Z</time>
      </trkpt>
      <trkpt lat="47.23498" lon="6.07057">
        <ele>433.69</ele>
        <time>2018-09-29T12:47:06Z</time>
      </trkpt>
      <trkpt lat="47.23508" lon="6.07061">
        <ele>433.21</ele>
        <time>2018-09-29T12:47:07Z</time>
      </trkpt>
      <trkpt lat="47.23517" lon="6.07066">
        <ele>432.25</ele>
        <time>2018-09-29T12:47:08Z</time>
      </trkpt>
      <trkpt lat="47.23525" lon="6.0707">
        <ele>432.73</ele>
        <time>2018-09-29T12:47:09Z</time>
      </trkpt>
      <trkpt lat="47.23533" lon="6.0707">
        <ele>432.25</ele>
        <time>2018-09-29T12:47:10Z</time>
      </trkpt>
      <trkpt lat="47.23539" lon="6.07066">
        <ele>431.29</ele>
        <time>2018-09-29T12:47:11Z</time>
      </trkpt>
      <trkpt lat="47.23542" lon="6.07059">
        <ele>431.29</ele>
        <time>2018-09-29T12:47:12Z</time>
      </trkpt>
      <trkpt lat="47.23541" lon="6.0705">
        <ele>430.33</ele>
        <time>2018-09-29T12:47:13Z</time>
      </trkpt>
      <trkpt lat="47.23538" lon="6.07042">
        <ele>429.37</ele>
        <time>2018-09-29T12:47:14Z</time>
      </trkpt>
      <trkpt lat="47.23534" lon="6.07034">
        <ele>428.89</ele>
        <time>2018-09-29T12:47:15Z</time>
      </trkpt>
      <trkpt lat="47.2353" lon="6.07025">
        <ele>427.92</ele>
        <time>2018-09-29T12:47:16Z</time>
      </trkpt>
      <trkpt lat="47.2352" lon="6.06992">
        <ele>424.08</ele>
        <time>2018-09-29T12:47:19Z</time>
      </trkpt>
      <trkpt lat="47.2351" lon="6.06968">
        <ele>421.68</ele>
        <time>2018-09-29T12:47:21Z</time>
      </trkpt>
      <trkpt lat="47.23493" lon="6.0693">
        <ele>417.35</ele>
        <time>2018-09-29T12:47:24Z</time>
      </trkpt>
      <trkpt lat="47.23481" lon="6.06902">
        <ele>414.47</ele>
        <time>2018-09-29T12:47:26Z</time>
      </trkpt>
      <trkpt lat="47.23469" lon="6.06873">
        <ele>409.66</ele>
        <time>2018-09-29T12:47:28Z</time>
      </trkpt>
      <trkpt lat="47.23454" lon="6.06844">
        <ele>406.29</ele>
        <time>2018-09-29T12:47:30Z</time>
      </trkpt>
      <trkpt lat="47.23438" lon="6.06816">
        <ele>402.93</ele>
        <time>2018-09-29T12:47:32Z</time>
      </trkpt>
      <trkpt lat="47.23419" lon="6.06788">
        <ele>399.57</ele>
        <time>2018-09-29T12:47:34Z</time>
      </trkpt>
      <trkpt lat="47.234" lon="6.06758">
        <ele>396.2</ele>
        <time>2018-09-29T12:47:36Z</time>
      </trkpt>
      <trkpt lat="47.23392" lon="6.06741">
        <ele>394.76</ele>
        <time>2018-09-29T12:47:37Z</time>
      </trkpt>
      <trkpt lat="47.23371" lon="6.06695">
        <ele>391.39</ele>
        <time>2018-09-29T12:47:40Z</time>
      </trkpt>
      <trkpt lat="47.23366" lon="6.06678">
        <ele>389.95</ele>
        <time>2018-09-29T12:47:41Z</time>
      </trkpt>
      <trkpt lat="47.23362" lon="6.06661">
        <ele>388.99</ele>
        <time>2018-09-29T12:47:42Z</time>
      </trkpt>
      <trkpt lat="47.2336" lon="6.06646">
        <ele>388.03</ele>
        <time>2018-09-29T12:47:43Z</time>
      </trkpt>
      <trkpt lat="47.23357" lon="6.06634">
        <ele>388.03</ele>
        <time>2018-09-29T12:47:44Z</time>
      </trkpt>
      <trkpt lat="47.23353" lon="6.06625">
        <ele>388.03</ele>
        <time>2018-09-29T12:47:45Z</time>
      </trkpt>
      <trkpt lat="47.23348" lon="6.0662">
        <ele>387.55</ele>
        <time>2018-09-29T12:47:46Z</time>
      </trkpt>
      <trkpt lat="47.23343" lon="6.06616">
        <ele>387.07</ele>
        <time>2018-09-29T12:47:47Z</time>
      </trkpt>
      <trkpt lat="47.2334" lon="6.06613">
        <ele>387.07</ele>
        <time>2018-09-29T12:47:48Z</time>
      </trkpt>
      <trkpt lat="47.23339" lon="6.06609">
        <ele>387.07</ele>
        <time>2018-09-29T12:47:49Z</time>
      </trkpt>
      <trkpt lat="47.23339" lon="6.06606">
        <ele>386.59</ele>
        <time>2018-09-29T12:47:50Z</time>
      </trkpt>
      <trkpt lat="47.23337" lon="6.06604">
        <ele>386.11</ele>
        <time>2018-09-29T12:47:51Z</time>
      </trkpt>
      <trkpt lat="47.23335" lon="6.06605">
        <ele>385.15</ele>
        <time>2018-09-29T12:47:52Z</time>
      </trkpt>
      <trkpt lat="47.23333" lon="6.06606">
        <ele>384.18</ele>
        <time>2018-09-29T12:47:53Z</time>
      </trkpt>
      <trkpt lat="47.23329" lon="6.06608">
        <ele>383.7</ele>
        <time>2018-09-29T12:47:54Z</time>
      </trkpt>
      <trkpt lat="47.23324" lon="6.06611">
        <ele>382.74</ele>
        <time>2018-09-29T12:47:55Z</time>
      </trkpt>
      <trkpt lat="47.23319" lon="6.06615">
        <ele>381.78</ele>
        <time>2018-09-29T12:47:56Z</time>
      </trkpt>
      <trkpt lat="47.23315" lon="6.06621">
        <ele>381.3</ele>
        <time>2018-09-29T12:47:57Z</time>
      </trkpt>
      <trkpt lat="47.23309" lon="6.06632">
        <ele>382.26</ele>
        <time>2018-09-29T12:47:59Z</time>
      </trkpt>
      <trkpt lat="47.233" lon="6.06646">
        <ele>381.3</ele>
        <time>2018-09-29T12:48:02Z</time>
      </trkpt>
      <trkpt lat="47.23277" lon="6.06677">
        <ele>380.34</ele>
        <time>2018-09-29T12:48:10Z</time>
      </trkpt>
      <trkpt lat="47.23275" lon="6.06681">
        <ele>380.34</ele>
        <time>2018-09-29T12:48:11Z</time>
      </trkpt>
      <trkpt lat="47.23272" lon="6.06686">
        <ele>380.34</ele>
        <time>2018-09-29T12:48:12Z</time>
      </trkpt>
      <trkpt lat="47.23256" lon="6.06707">
        <ele>378.42</ele>
        <time>2018-09-29T12:48:20Z</time>
      </trkpt>
      <trkpt lat="47.23247" lon="6.06714">
        <ele>376.01</ele>
        <time>2018-09-29T12:48:22Z</time>
      </trkpt>
      <trkpt lat="47.23243" lon="6.06717">
        <ele>375.05</ele>
        <time>2018-09-29T12:48:23Z</time>
      </trkpt>
      <trkpt lat="47.2324" lon="6.0672">
        <ele>375.05</ele>
        <time>2018-09-29T12:48:24Z</time>
      </trkpt>
      <trkpt lat="47.23237" lon="6.06727">
        <ele>374.57</ele>
        <time>2018-09-29T12:48:33Z</time>
      </trkpt>
      <trkpt lat="47.23213" lon="6.06743">
        <ele>371.21</ele>
        <time>2018-09-29T12:48:42Z</time>
      </trkpt>
      <trkpt lat="47.23208" lon="6.06745">
        <ele>371.21</ele>
        <time>2018-09-29T12:48:43Z</time>
      </trkpt>
      <trkpt lat="47.2319" lon="6.06751">
        <ele>369.28</ele>
        <time>2018-09-29T12:48:46Z</time>
      </trkpt>
      <trkpt lat="47.23177" lon="6.06755">
        <ele>368.32</ele>
        <time>2018-09-29T12:48:48Z</time>
      </trkpt>
      <trkpt lat="47.23172" lon="6.06758">
        <ele>367.84</ele>
        <time>2018-09-29T12:48:49Z</time>
      </trkpt>
      <trkpt lat="47.23167" lon="6.06763">
        <ele>367.36</ele>
        <time>2018-09-29T12:48:50Z</time>
      </trkpt>
      <trkpt lat="47.23162" lon="6.06771">
        <ele>366.4</ele>
        <time>2018-09-29T12:48:51Z</time>
      </trkpt>
      <trkpt lat="47.23158" lon="6.06779">
        <ele>365.92</ele>
        <time>2018-09-29T12:48:52Z</time>
      </trkpt>
      <trkpt lat="47.23153" lon="6.06787">
        <ele>364.96</ele>
        <time>2018-09-29T12:48:53Z</time>
      </trkpt>
      <trkpt lat="47.23147" lon="6.06792">
        <ele>364.96</ele>
        <time>2018-09-29T12:48:54Z</time>
      </trkpt>
      <trkpt lat="47.23141" lon="6.06796">
        <ele>364.48</ele>
        <time>2018-09-29T12:48:55Z</time>
      </trkpt>
      <trkpt lat="47.23134" lon="6.06799">
        <ele>364</ele>
        <time>2018-09-29T12:48:56Z</time>
      </trkpt>
      <trkpt lat="47.23128" lon="6.068">
        <ele>363.52</ele>
        <time>2018-09-29T12:48:57Z</time>
      </trkpt>
      <trkpt lat="47.23121" lon="6.06801">
        <ele>363.52</ele>
        <time>2018-09-29T12:48:58Z</time>
      </trkpt>
      <trkpt lat="47.23114" lon="6.068">
        <ele>363.52</ele>
        <time>2018-09-29T12:48:59Z</time>
      </trkpt>
      <trkpt lat="47.23107" lon="6.06799">
        <ele>363.52</ele>
        <time>2018-09-29T12:49:00Z</time>
      </trkpt>
      <trkpt lat="47.23101" lon="6.06796">
        <ele>364</ele>
        <time>2018-09-29T12:49:01Z</time>
      </trkpt>
      <trkpt lat="47.23095" lon="6.06793">
        <ele>364</ele>
        <time>2018-09-29T12:49:02Z</time>
      </trkpt>
      <trkpt lat="47.23053" lon="6.06776">
        <ele>364.48</ele>
        <time>2018-09-29T12:49:10Z</time>
      </trkpt>
      <trkpt lat="47.23046" lon="6.06771">
        <ele>364.48</ele>
        <time>2018-09-29T12:49:12Z</time>
      </trkpt>
      <trkpt lat="47.22998" lon="6.06753">
        <ele>366.4</ele>
        <time>2018-09-29T12:49:26Z</time>
      </trkpt>
      <trkpt lat="47.2296" lon="6.06738">
        <ele>364</ele>
        <time>2018-09-29T12:49:34Z</time>
      </trkpt>
      <trkpt lat="47.22955" lon="6.06737">
        <ele>364</ele>
        <time>2018-09-29T12:49:35Z</time>
      </trkpt>
      <trkpt lat="47.22943" lon="6.06736">
        <ele>364</ele>
        <time>2018-09-29T12:49:37Z</time>
      </trkpt>
      <trkpt lat="47.22932" lon="6.06736">
        <ele>364</ele>
        <time>2018-09-29T12:49:39Z</time>
      </trkpt>
      <trkpt lat="47.22926" lon="6.06734">
        <ele>364</ele>
        <time>2018-09-29T12:49:40Z</time>
      </trkpt>
      <trkpt lat="47.22921" lon="6.06732">
        <ele>364</ele>
        <time>2018-09-29T12:49:41Z</time>
      </trkpt>
      <trkpt lat="47.22907" lon="6.06725">
        <ele>364.48</ele>
        <time>2018-09-29T12:49:44Z</time>
      </trkpt>
      <trkpt lat="47.22859" lon="6.0671">
        <ele>364.96</ele>
        <time>2018-09-29T12:49:54Z</time>
      </trkpt>
      <trkpt lat="47.22854" lon="6.06708">
        <ele>364.96</ele>
        <time>2018-09-29T12:49:55Z</time>
      </trkpt>
      <trkpt lat="47.22849" lon="6.06705">
        <ele>364.48</ele>
        <time>2018-09-29T12:49:56Z</time>
      </trkpt>
      <trkpt lat="47.22844" lon="6.06701">
        <ele>364</ele>
        <time>2018-09-29T12:49:57Z</time>
      </trkpt>
      <trkpt lat="47.22839" lon="6.06695">
        <ele>363.04</ele>
        <time>2018-09-29T12:49:58Z</time>
      </trkpt>
      <trkpt lat="47.22834" lon="6.06689">
        <ele>362.07</ele>
        <time>2018-09-29T12:49:59Z</time>
      </trkpt>
      <trkpt lat="47.22829" lon="6.06681">
        <ele>361.59</ele>
        <time>2018-09-29T12:50:00Z</time>
      </trkpt>
      <trkpt lat="47.22818" lon="6.06664">
        <ele>360.15</ele>
        <time>2018-09-29T12:50:02Z</time>
      </trkpt>
      <trkpt lat="47.22811" lon="6.06657">
        <ele>359.19</ele>
        <time>2018-09-29T12:50:03Z</time>
      </trkpt>
      <trkpt lat="47.22779" lon="6.06627">
        <ele>357.27</ele>
        <time>2018-09-29T12:50:09Z</time>
      </trkpt>
      <trkpt lat="47.22781" lon="6.06623">
        <ele>356.79</ele>
        <time>2018-09-29T12:50:10Z</time>
      </trkpt>
      <trkpt lat="47.22784" lon="6.06621">
        <ele>356.31</ele>
        <time>2018-09-29T12:50:11Z</time>
      </trkpt>
      <trkpt lat="47.22789" lon="6.06621">
        <ele>355.34</ele>
        <time>2018-09-29T12:50:12Z</time>
      </trkpt>
      <trkpt lat="47.22794" lon="6.06621">
        <ele>354.86</ele>
        <time>2018-09-29T12:50:13Z</time>
      </trkpt>
      <trkpt lat="47.22799" lon="6.06619">
        <ele>354.38</ele>
        <time>2018-09-29T12:50:14Z</time>
      </trkpt>
      <trkpt lat="47.22805" lon="6.06617">
        <ele>353.9</ele>
        <time>2018-09-29T12:50:15Z</time>
      </trkpt>
      <trkpt lat="47.22811" lon="6.06614">
        <ele>352.94</ele>
        <time>2018-09-29T12:50:16Z</time>
      </trkpt>
      <trkpt lat="47.22817" lon="6.06609">
        <ele>351.98</ele>
        <time>2018-09-29T12:50:17Z</time>
      </trkpt>
      <trkpt lat="47.22838" lon="6.06593">
        <ele>349.1</ele>
        <time>2018-09-29T12:50:20Z</time>
      </trkpt>
      <trkpt lat="47.22855" lon="6.06576">
        <ele>345.73</ele>
        <time>2018-09-29T12:50:23Z</time>
      </trkpt>
      <trkpt lat="47.22869" lon="6.06566">
        <ele>346.21</ele>
        <time>2018-09-29T12:50:29Z</time>
      </trkpt>
      <trkpt lat="47.22879" lon="6.06562">
        <ele>344.77</ele>
        <time>2018-09-29T12:50:32Z</time>
      </trkpt>
      <trkpt lat="47.22884" lon="6.0656">
        <ele>344.29</ele>
        <time>2018-09-29T12:50:33Z</time>
      </trkpt>
      <trkpt lat="47.22888" lon="6.06558">
        <ele>343.81</ele>
        <time>2018-09-29T12:50:34Z</time>
      </trkpt>
      <trkpt lat="47.22892" lon="6.06558">
        <ele>343.33</ele>
        <time>2018-09-29T12:50:35Z</time>
      </trkpt>
      <trkpt lat="47.22894" lon="6.06558">
        <ele>343.33</ele>
        <time>2018-09-29T12:50:36Z</time>
      </trkpt>
      <trkpt lat="47.22896" lon="6.06558">
        <ele>343.33</ele>
        <time>2018-09-29T12:50:37Z</time>
      </trkpt>
      <trkpt lat="47.22915" lon="6.06564">
        <ele>340.92</ele>
        <time>2018-09-29T12:50:46Z</time>
      </trkpt>
      <trkpt lat="47.22944" lon="6.06556">
        <ele>338.52</ele>
        <time>2018-09-29T12:50:54Z</time>
      </trkpt>
      <trkpt lat="47.22967" lon="6.06556">
        <ele>336.12</ele>
        <time>2018-09-29T12:50:58Z</time>
      </trkpt>
      <trkpt lat="47.23005" lon="6.06551">
        <ele>333.23</ele>
        <time>2018-09-29T12:51:05Z</time>
      </trkpt>
      <trkpt lat="47.2301" lon="6.06551">
        <ele>333.23</ele>
        <time>2018-09-29T12:51:06Z</time>
      </trkpt>
      <trkpt lat="47.23016" lon="6.06551">
        <ele>332.75</ele>
        <time>2018-09-29T12:51:07Z</time>
      </trkpt>
      <trkpt lat="47.23047" lon="6.06549">
        <ele>330.83</ele>
        <time>2018-09-29T12:51:17Z</time>
      </trkpt>
      <trkpt lat="47.23051" lon="6.06549">
        <ele>330.35</ele>
        <time>2018-09-29T12:51:42Z</time>
      </trkpt>
      <trkpt lat="47.23052" lon="6.06545">
        <ele>330.35</ele>
        <time>2018-09-29T12:52:04Z</time>
      </trkpt>
      <trkpt lat="47.23053" lon="6.06545">
        <ele>330.35</ele>
        <time>2018-09-29T12:52:08Z</time>
      </trkpt>
      <trkpt lat="47.23054" lon="6.06545">
        <ele>330.35</ele>
        <time>2018-09-29T12:52:09Z</time>
      </trkpt>
      <trkpt lat="47.23056" lon="6.06546">
        <ele>330.35</ele>
        <time>2018-09-29T12:52:10Z</time>
      </trkpt>
      <trkpt lat="47.23059" lon="6.06547">
        <ele>329.87</ele>
        <time>2018-09-29T12:52:11Z</time>
      </trkpt>
      <trkpt lat="47.23063" lon="6.06548">
        <ele>329.87</ele>
        <time>2018-09-29T12:52:12Z</time>
      </trkpt>
      <trkpt lat="47.23066" lon="6.06549">
        <ele>329.39</ele>
        <time>2018-09-29T12:52:13Z</time>
      </trkpt>
      <trkpt lat="47.2307" lon="6.0655">
        <ele>329.39</ele>
        <time>2018-09-29T12:52:14Z</time>
      </trkpt>
      <trkpt lat="47.23075" lon="6.06551">
        <ele>328.91</ele>
        <time>2018-09-29T12:52:15Z</time>
      </trkpt>
      <trkpt lat="47.2308" lon="6.06553">
        <ele>328.43</ele>
        <time>2018-09-29T12:52:16Z</time>
      </trkpt>
      <trkpt lat="47.23101" lon="6.06559">
        <ele>324.58</ele>
        <time>2018-09-29T12:52:20Z</time>
      </trkpt>
      <trkpt lat="47.23105" lon="6.06561">
        <ele>323.62</ele>
        <time>2018-09-29T12:52:21Z</time>
      </trkpt>
      <trkpt lat="47.23109" lon="6.06564">
        <ele>322.66</ele>
        <time>2018-09-29T12:52:22Z</time>
      </trkpt>
      <trkpt lat="47.23111" lon="6.06568">
        <ele>322.18</ele>
        <time>2018-09-29T12:52:23Z</time>
      </trkpt>
      <trkpt lat="47.23113" lon="6.06585">
        <ele>319.3</ele>
        <time>2018-09-29T12:52:27Z</time>
      </trkpt>
      <trkpt lat="47.23122" lon="6.06585">
        <ele>315.45</ele>
        <time>2018-09-29T12:52:32Z</time>
      </trkpt>
      <trkpt lat="47.23124" lon="6.06579">
        <ele>314.49</ele>
        <time>2018-09-29T12:52:33Z</time>
      </trkpt>
      <trkpt lat="47.2313" lon="6.06556">
        <ele>310.64</ele>
        <time>2018-09-29T12:52:37Z</time>
      </trkpt>
      <trkpt lat="47.23132" lon="6.06535">
        <ele>307.28</ele>
        <time>2018-09-29T12:52:41Z</time>
      </trkpt>
      <trkpt lat="47.23132" lon="6.06522">
        <ele>305.36</ele>
        <time>2018-09-29T12:52:43Z</time>
      </trkpt>
      <trkpt lat="47.23132" lon="6.06515">
        <ele>304.39</ele>
        <time>2018-09-29T12:52:44Z</time>
      </trkpt>
      <trkpt lat="47.23131" lon="6.06493">
        <ele>300.55</ele>
        <time>2018-09-29T12:52:47Z</time>
      </trkpt>
      <trkpt lat="47.23131" lon="6.06486">
        <ele>300.07</ele>
        <time>2018-09-29T12:52:48Z</time>
      </trkpt>
      <trkpt lat="47.23132" lon="6.0648">
        <ele>299.11</ele>
        <time>2018-09-29T12:52:49Z</time>
      </trkpt>
      <trkpt lat="47.23138" lon="6.06465">
        <ele>295.74</ele>
        <time>2018-09-29T12:52:52Z</time>
      </trkpt>
      <trkpt lat="47.2314" lon="6.0646">
        <ele>294.78</ele>
        <time>2018-09-29T12:52:53Z</time>
      </trkpt>
      <trkpt lat="47.23142" lon="6.06454">
        <ele>294.3</ele>
        <time>2018-09-29T12:52:54Z</time>
      </trkpt>
      <trkpt lat="47.23143" lon="6.06448">
        <ele>293.34</ele>
        <time>2018-09-29T12:52:55Z</time>
      </trkpt>
      <trkpt lat="47.23145" lon="6.06443">
        <ele>292.86</ele>
        <time>2018-09-29T12:52:56Z</time>
      </trkpt>
      <trkpt lat="47.23147" lon="6.06438">
        <ele>291.9</ele>
        <time>2018-09-29T12:52:57Z</time>
      </trkpt>
      <trkpt lat="47.23149" lon="6.06433">
        <ele>291.42</ele>
        <time>2018-09-29T12:52:58Z</time>
      </trkpt>
      <trkpt lat="47.23152" lon="6.06428">
        <ele>290.46</ele>
        <time>2018-09-29T12:52:59Z</time>
      </trkpt>
      <trkpt lat="47.23156" lon="6.06424">
        <ele>289.97</ele>
        <time>2018-09-29T12:53:00Z</time>
      </trkpt>
      <trkpt lat="47.2316" lon="6.0642">
        <ele>289.01</ele>
        <time>2018-09-29T12:53:01Z</time>
      </trkpt>
      <trkpt lat="47.23163" lon="6.06417">
        <ele>288.05</ele>
        <time>2018-09-29T12:53:02Z</time>
      </trkpt>
      <trkpt lat="47.23172" lon="6.06404">
        <ele>286.61</ele>
        <time>2018-09-29T12:53:05Z</time>
      </trkpt>
      <trkpt lat="47.23176" lon="6.064">
        <ele>286.13</ele>
        <time>2018-09-29T12:53:06Z</time>
      </trkpt>
      <trkpt lat="47.2318" lon="6.06395">
        <ele>285.17</ele>
        <time>2018-09-29T12:53:07Z</time>
      </trkpt>
      <trkpt lat="47.23183" lon="6.0639">
        <ele>284.69</ele>
        <time>2018-09-29T12:53:08Z</time>
      </trkpt>
      <trkpt lat="47.23187" lon="6.06384">
        <ele>284.69</ele>
        <time>2018-09-29T12:53:09Z</time>
      </trkpt>
      <trkpt lat="47.2319" lon="6.06378">
        <ele>284.21</ele>
        <time>2018-09-29T12:53:10Z</time>
      </trkpt>
      <trkpt lat="47.23193" lon="6.06371">
        <ele>283.73</ele>
        <time>2018-09-29T12:53:11Z</time>
      </trkpt>
      <trkpt lat="47.23201" lon="6.06346">
        <ele>282.28</ele>
        <time>2018-09-29T12:53:14Z</time>
      </trkpt>
      <trkpt lat="47.23203" lon="6.06337">
        <ele>281.8</ele>
        <time>2018-09-29T12:53:15Z</time>
      </trkpt>
      <trkpt lat="47.23207" lon="6.06305">
        <ele>279.4</ele>
        <time>2018-09-29T12:53:19Z</time>
      </trkpt>
      <trkpt lat="47.23208" lon="6.06292">
        <ele>278.92</ele>
        <time>2018-09-29T12:53:27Z</time>
      </trkpt>
      <trkpt lat="47.23209" lon="6.06291">
        <ele>278.44</ele>
        <time>2018-09-29T12:53:30Z</time>
      </trkpt>
      <trkpt lat="47.2321" lon="6.06289">
        <ele>278.44</ele>
        <time>2018-09-29T12:53:31Z</time>
      </trkpt>
      <trkpt lat="47.2321" lon="6.06287">
        <ele>277.96</ele>
        <time>2018-09-29T12:53:32Z</time>
      </trkpt>
      <trkpt lat="47.23211" lon="6.06285">
        <ele>277.96</ele>
        <time>2018-09-29T12:53:33Z</time>
      </trkpt>
      <trkpt lat="47.23212" lon="6.06282">
        <ele>277.48</ele>
        <time>2018-09-29T12:53:34Z</time>
      </trkpt>
      <trkpt lat="47.23212" lon="6.0628">
        <ele>277</ele>
        <time>2018-09-29T12:53:35Z</time>
      </trkpt>
      <trkpt lat="47.23211" lon="6.06278">
        <ele>277</ele>
        <time>2018-09-29T12:53:36Z</time>
      </trkpt>
      <trkpt lat="47.23211" lon="6.06276">
        <ele>277</ele>
        <time>2018-09-29T12:53:37Z</time>
      </trkpt>
      <trkpt lat="47.23212" lon="6.06271">
        <ele>276.52</ele>
        <time>2018-09-29T12:53:38Z</time>
      </trkpt>
      <trkpt lat="47.23214" lon="6.06264">
        <ele>275.56</ele>
        <time>2018-09-29T12:53:39Z</time>
      </trkpt>
      <trkpt lat="47.23215" lon="6.06255">
        <ele>274.11</ele>
        <time>2018-09-29T12:53:40Z</time>
      </trkpt>
      <trkpt lat="47.23216" lon="6.06246">
        <ele>272.67</ele>
        <time>2018-09-29T12:53:41Z</time>
      </trkpt>
      <trkpt lat="47.23218" lon="6.06236">
        <ele>269.79</ele>
        <time>2018-09-29T12:53:42Z</time>
      </trkpt>
      <trkpt lat="47.23221" lon="6.06226">
        <ele>268.83</ele>
        <time>2018-09-29T12:53:43Z</time>
      </trkpt>
      <trkpt lat="47.23225" lon="6.06217">
        <ele>267.38</ele>
        <time>2018-09-29T12:53:44Z</time>
      </trkpt>
      <trkpt lat="47.2323" lon="6.06208">
        <ele>266.42</ele>
        <time>2018-09-29T12:53:45Z</time>
      </trkpt>
      <trkpt lat="47.23235" lon="6.06201">
        <ele>265.46</ele>
        <time>2018-09-29T12:53:46Z</time>
      </trkpt>
      <trkpt lat="47.2324" lon="6.06193">
        <ele>264.5</ele>
        <time>2018-09-29T12:53:47Z</time>
      </trkpt>
      <trkpt lat="47.23243" lon="6.06185">
        <ele>263.54</ele>
        <time>2018-09-29T12:53:48Z</time>
      </trkpt>
      <trkpt lat="47.23243" lon="6.06174">
        <ele>262.1</ele>
        <time>2018-09-29T12:53:49Z</time>
      </trkpt>
      <trkpt lat="47.23243" lon="6.06163">
        <ele>260.65</ele>
        <time>2018-09-29T12:53:50Z</time>
      </trkpt>
      <trkpt lat="47.23242" lon="6.06151">
        <ele>259.21</ele>
        <time>2018-09-29T12:53:51Z</time>
      </trkpt>
      <trkpt lat="47.2324" lon="6.06139">
        <ele>258.73</ele>
        <time>2018-09-29T12:53:52Z</time>
      </trkpt>
      <trkpt lat="47.23238" lon="6.06129">
        <ele>258.25</ele>
        <time>2018-09-29T12:53:53Z</time>
      </trkpt>
      <trkpt lat="47.23236" lon="6.06119">
        <ele>257.77</ele>
        <time>2018-09-29T12:53:54Z</time>
      </trkpt>
      <trkpt lat="47.23231" lon="6.06087">
        <ele>254.89</ele>
        <time>2018-09-29T12:53:57Z</time>
      </trkpt>
      <trkpt lat="47.23229" lon="6.06069">
        <ele>253.93</ele>
        <time>2018-09-29T12:53:59Z</time>
      </trkpt>
      <trkpt lat="47.23227" lon="6.06062">
        <ele>253.93</ele>
        <time>2018-09-29T12:54:00Z</time>
      </trkpt>
      <trkpt lat="47.23225" lon="6.06054">
        <ele>253.44</ele>
        <time>2018-09-29T12:54:01Z</time>
      </trkpt>
      <trkpt lat="47.23222" lon="6.06047">
        <ele>252.96</ele>
        <time>2018-09-29T12:54:02Z</time>
      </trkpt>
      <trkpt lat="47.23219" lon="6.06041">
        <ele>252.96</ele>
        <time>2018-09-29T12:54:03Z</time>
      </trkpt>
      <trkpt lat="47.23216" lon="6.06034">
        <ele>252.96</ele>
        <time>2018-09-29T12:54:04Z</time>
      </trkpt>
      <trkpt lat="47.23214" lon="6.06027">
        <ele>253.44</ele>
        <time>2018-09-29T12:54:05Z</time>
      </trkpt>
      <trkpt lat="47.23205" lon="6.06007">
        <ele>252.96</ele>
        <time>2018-09-29T12:54:08Z</time>
      </trkpt>
      <trkpt lat="47.23201" lon="6.06001">
        <ele>252.96</ele>
        <time>2018-09-29T12:54:09Z</time>
      </trkpt>
      <trkpt lat="47.23158" lon="6.05942">
        <ele>252</ele>
        <time>2018-09-29T12:54:20Z</time>
      </trkpt>
      <trkpt lat="47.23123" lon="6.05899">
        <ele>252</ele>
        <time>2018-09-29T12:54:29Z</time>
      </trkpt>
      <trkpt lat="47.2312" lon="6.05894">
        <ele>252.48</ele>
        <time>2018-09-29T12:54:30Z</time>
      </trkpt>
      <trkpt lat="47.2312" lon="6.05889">
        <ele>252.48</ele>
        <time>2018-09-29T12:54:31Z</time>
      </trkpt>
      <trkpt lat="47.2312" lon="6.05884">
        <ele>252.48</ele>
        <time>2018-09-29T12:54:32Z</time>
      </trkpt>
      <trkpt lat="47.23122" lon="6.0588">
        <ele>252.48</ele>
        <time>2018-09-29T12:54:33Z</time>
      </trkpt>
      <trkpt lat="47.23123" lon="6.05874">
        <ele>252.48</ele>
        <time>2018-09-29T12:54:34Z</time>
      </trkpt>
      <trkpt lat="47.23125" lon="6.05869">
        <ele>252</ele>
        <time>2018-09-29T12:54:35Z</time>
      </trkpt>
      <trkpt lat="47.23124" lon="6.05863">
        <ele>252</ele>
        <time>2018-09-29T12:54:36Z</time>
      </trkpt>
      <trkpt lat="47.23122" lon="6.0586">
        <ele>252</ele>
        <time>2018-09-29T12:54:37Z</time>
      </trkpt>
      <trkpt lat="47.23118" lon="6.05857">
        <ele>252.48</ele>
        <time>2018-09-29T12:54:38Z</time>
      </trkpt>
      <trkpt lat="47.23115" lon="6.05855">
        <ele>252.48</ele>
        <time>2018-09-29T12:54:39Z</time>
      </trkpt>
      <trkpt lat="47.23085" lon="6.05832">
        <ele>252.48</ele>
        <time>2018-09-29T12:54:48Z</time>
      </trkpt>
      <trkpt lat="47.23082" lon="6.05829">
        <ele>252.96</ele>
        <time>2018-09-29T12:54:49Z</time>
      </trkpt>
      <trkpt lat="47.23079" lon="6.05826">
        <ele>252.96</ele>
        <time>2018-09-29T12:54:50Z</time>
      </trkpt>
      <trkpt lat="47.23075" lon="6.05823">
        <ele>252.96</ele>
        <time>2018-09-29T12:54:51Z</time>
      </trkpt>
      <trkpt lat="47.23072" lon="6.0582">
        <ele>252.96</ele>
        <time>2018-09-29T12:54:52Z</time>
      </trkpt>
      <trkpt lat="47.23009" lon="6.05764">
        <ele>251.04</ele>
        <time>2018-09-29T12:55:07Z</time>
      </trkpt>
      <trkpt lat="47.22978" lon="6.0573">
        <ele>251.04</ele>
        <time>2018-09-29T12:55:15Z</time>
      </trkpt>
      <trkpt lat="47.22974" lon="6.05726">
        <ele>251.04</ele>
        <time>2018-09-29T12:55:16Z</time>
      </trkpt>
      <trkpt lat="47.2292" lon="6.05653">
        <ele>250.08</ele>
        <time>2018-09-29T12:55:31Z</time>
      </trkpt>
      <trkpt lat="47.22866" lon="6.05571">
        <ele>250.56</ele>
        <time>2018-09-29T12:55:46Z</time>
      </trkpt>
      <trkpt lat="47.22814" lon="6.0548">
        <ele>249.6</ele>
        <time>2018-09-29T12:56:01Z</time>
      </trkpt>
      <trkpt lat="47.22779" lon="6.05411">
        <ele>250.08</ele>
        <time>2018-09-29T12:56:12Z</time>
      </trkpt>
      <trkpt lat="47.22752" lon="6.05344">
        <ele>250.08</ele>
        <time>2018-09-29T12:56:22Z</time>
      </trkpt>
      <trkpt lat="47.22717" lon="6.05241">
        <ele>249.6</ele>
        <time>2018-09-29T12:56:36Z</time>
      </trkpt>
      <trkpt lat="47.22685" lon="6.05123">
        <ele>249.6</ele>
        <time>2018-09-29T12:56:52Z</time>
      </trkpt>
      <trkpt lat="47.22654" lon="6.05017">
        <ele>248.64</ele>
        <time>2018-09-29T12:57:07Z</time>
      </trkpt>
      <trkpt lat="47.22652" lon="6.05011">
        <ele>249.12</ele>
        <time>2018-09-29T12:57:08Z</time>
      </trkpt>
      <trkpt lat="47.2265" lon="6.05004">
        <ele>249.12</ele>
        <time>2018-09-29T12:57:09Z</time>
      </trkpt>
      <trkpt lat="47.22648" lon="6.04997">
        <ele>248.64</ele>
        <time>2018-09-29T12:57:10Z</time>
      </trkpt>
      <trkpt lat="47.22647" lon="6.04991">
        <ele>249.12</ele>
        <time>2018-09-29T12:57:11Z</time>
      </trkpt>
      <trkpt lat="47.22621" lon="6.04893">
        <ele>249.12</ele>
        <time>2018-09-29T12:57:25Z</time>
      </trkpt>
      <trkpt lat="47.22602" lon="6.04781">
        <ele>248.64</ele>
        <time>2018-09-29T12:57:40Z</time>
      </trkpt>
      <trkpt lat="47.22593" lon="6.04686">
        <ele>249.12</ele>
        <time>2018-09-29T12:57:53Z</time>
      </trkpt>
      <trkpt lat="47.22589" lon="6.04654">
        <ele>249.12</ele>
        <time>2018-09-29T12:57:59Z</time>
      </trkpt>
      <trkpt lat="47.22588" lon="6.04647">
        <ele>249.6</ele>
        <time>2018-09-29T12:58:00Z</time>
      </trkpt>
      <trkpt lat="47.22588" lon="6.04641">
        <ele>249.6</ele>
        <time>2018-09-29T12:58:01Z</time>
      </trkpt>
      <trkpt lat="47.22578" lon="6.04518">
        <ele>249.12</ele>
        <time>2018-09-29T12:58:18Z</time>
      </trkpt>
      <trkpt lat="47.22584" lon="6.04411">
        <ele>249.6</ele>
        <time>2018-09-29T12:58:32Z</time>
      </trkpt>
      <trkpt lat="47.22586" lon="6.04396">
        <ele>249.6</ele>
        <time>2018-09-29T12:58:34Z</time>
      </trkpt>
      <trkpt lat="47.22592" lon="6.04361">
        <ele>249.12</ele>
        <time>2018-09-29T12:58:39Z</time>
      </trkpt>
      <trkpt lat="47.22599" lon="6.04319">
        <ele>248.64</ele>
        <time>2018-09-29T12:58:45Z</time>
      </trkpt>
      <trkpt lat="47.226" lon="6.04312">
        <ele>248.64</ele>
        <time>2018-09-29T12:58:46Z</time>
      </trkpt>
      <trkpt lat="47.22631" lon="6.04206">
        <ele>248.64</ele>
        <time>2018-09-29T12:59:01Z</time>
      </trkpt>
      <trkpt lat="47.22634" lon="6.04199">
        <ele>248.64</ele>
        <time>2018-09-29T12:59:02Z</time>
      </trkpt>
      <trkpt lat="47.22659" lon="6.04121">
        <ele>247.2</ele>
        <time>2018-09-29T12:59:14Z</time>
      </trkpt>
      <trkpt lat="47.22661" lon="6.04115">
        <ele>247.2</ele>
        <time>2018-09-29T12:59:15Z</time>
      </trkpt>
      <trkpt lat="47.22668" lon="6.04097">
        <ele>247.2</ele>
        <time>2018-09-29T12:59:18Z</time>
      </trkpt>
      <trkpt lat="47.22681" lon="6.04068">
        <ele>246.72</ele>
        <time>2018-09-29T12:59:23Z</time>
      </trkpt>
      <trkpt lat="47.22684" lon="6.04062">
        <ele>247.2</ele>
        <time>2018-09-29T12:59:24Z</time>
      </trkpt>
      <trkpt lat="47.22707" lon="6.04012">
        <ele>247.2</ele>
        <time>2018-09-29T12:59:33Z</time>
      </trkpt>
      <trkpt lat="47.22715" lon="6.03996">
        <ele>247.2</ele>
        <time>2018-09-29T12:59:36Z</time>
      </trkpt>
      <trkpt lat="47.22731" lon="6.03972">
        <ele>247.68</ele>
        <time>2018-09-29T12:59:41Z</time>
      </trkpt>
      <trkpt lat="47.22746" lon="6.03952">
        <ele>247.68</ele>
        <time>2018-09-29T12:59:49Z</time>
      </trkpt>
      <trkpt lat="47.22746" lon="6.03951">
        <ele>248.16</ele>
        <time>2018-09-29T12:59:50Z</time>
      </trkpt>
      <trkpt lat="47.22745" lon="6.03952">
        <ele>247.68</ele>
        <time>2018-09-29T12:59:51Z</time>
      </trkpt>
      <trkpt lat="47.22744" lon="6.03953">
        <ele>247.68</ele>
        <time>2018-09-29T12:59:52Z</time>
      </trkpt>
      <trkpt lat="47.22744" lon="6.03955">
        <ele>247.68</ele>
        <time>2018-09-29T12:59:53Z</time>
      </trkpt>
      <trkpt lat="47.22743" lon="6.03957">
        <ele>247.68</ele>
        <time>2018-09-29T12:59:54Z</time>
      </trkpt>
      <trkpt lat="47.22742" lon="6.03959">
        <ele>247.68</ele>
        <time>2018-09-29T12:59:55Z</time>
      </trkpt>
      <trkpt lat="47.22741" lon="6.03961">
        <ele>247.68</ele>
        <time>2018-09-29T12:59:56Z</time>
      </trkpt>
      <trkpt lat="47.2274" lon="6.03962">
        <ele>247.68</ele>
        <time>2018-09-29T12:59:57Z</time>
      </trkpt>
      <trkpt lat="47.22739" lon="6.03963">
        <ele>247.68</ele>
        <time>2018-09-29T12:59:58Z</time>
      </trkpt>
      <trkpt lat="47.22737" lon="6.03964">
        <ele>247.68</ele>
        <time>2018-09-29T12:59:59Z</time>
      </trkpt>
      <trkpt lat="47.22736" lon="6.03965">
        <ele>248.16</ele>
        <time>2018-09-29T13:00:00Z</time>
      </trkpt>
      <trkpt lat="47.22735" lon="6.03966">
        <ele>249.12</ele>
        <time>2018-09-29T13:00:01Z</time>
      </trkpt>
      <trkpt lat="47.22734" lon="6.03967">
        <ele>249.6</ele>
        <time>2018-09-29T13:00:02Z</time>
      </trkpt>
      <trkpt lat="47.22733" lon="6.03968">
        <ele>250.08</ele>
        <time>2018-09-29T13:00:03Z</time>
      </trkpt>
      <trkpt lat="47.22722" lon="6.03975">
        <ele>252.96</ele>
        <time>2018-09-29T13:00:10Z</time>
      </trkpt>
      <trkpt lat="47.2272" lon="6.03972">
        <ele>254.41</ele>
        <time>2018-09-29T13:00:13Z</time>
      </trkpt>
      <trkpt lat="47.22721" lon="6.03971">
        <ele>254.41</ele>
        <time>2018-09-29T13:00:14Z</time>
      </trkpt>
      <trkpt lat="47.22722" lon="6.0397">
        <ele>254.41</ele>
        <time>2018-09-29T13:00:15Z</time>
      </trkpt>
      <trkpt lat="47.22724" lon="6.03968">
        <ele>254.41</ele>
        <time>2018-09-29T13:00:16Z</time>
      </trkpt>
      <trkpt lat="47.22725" lon="6.03965">
        <ele>254.41</ele>
        <time>2018-09-29T13:00:17Z</time>
      </trkpt>
      <trkpt lat="47.22726" lon="6.03963">
        <ele>254.41</ele>
        <time>2018-09-29T13:00:18Z</time>
      </trkpt>
      <trkpt lat="47.22728" lon="6.0396">
        <ele>254.41</ele>
        <time>2018-09-29T13:00:19Z</time>
      </trkpt>
      <trkpt lat="47.2273" lon="6.03957">
        <ele>254.41</ele>
        <time>2018-09-29T13:00:20Z</time>
      </trkpt>
      <trkpt lat="47.22731" lon="6.03953">
        <ele>254.41</ele>
        <time>2018-09-29T13:00:21Z</time>
      </trkpt>
      <trkpt lat="47.22732" lon="6.0395">
        <ele>254.41</ele>
        <time>2018-09-29T13:00:22Z</time>
      </trkpt>
      <trkpt lat="47.22734" lon="6.03946">
        <ele>254.89</ele>
        <time>2018-09-29T13:00:23Z</time>
      </trkpt>
      <trkpt lat="47.22735" lon="6.03942">
        <ele>254.89</ele>
        <time>2018-09-29T13:00:24Z</time>
      </trkpt>
      <trkpt lat="47.22736" lon="6.03939">
        <ele>254.89</ele>
        <time>2018-09-29T13:00:25Z</time>
      </trkpt>
      <trkpt lat="47.22738" lon="6.03936">
        <ele>254.89</ele>
        <time>2018-09-29T13:00:26Z</time>
      </trkpt>
      <trkpt lat="47.22757" lon="6.03893">
        <ele>256.33</ele>
        <time>2018-09-29T13:00:40Z</time>
      </trkpt>
      <trkpt lat="47.2278" lon="6.0386">
        <ele>258.73</ele>
        <time>2018-09-29T13:00:52Z</time>
      </trkpt>
      <trkpt lat="47.22812" lon="6.03841">
        <ele>261.14</ele>
        <time>2018-09-29T13:01:05Z</time>
      </trkpt>
      <trkpt lat="47.22815" lon="6.03838">
        <ele>261.62</ele>
        <time>2018-09-29T13:01:07Z</time>
      </trkpt>
      <trkpt lat="47.22816" lon="6.03837">
        <ele>261.62</ele>
        <time>2018-09-29T13:01:08Z</time>
      </trkpt>
      <trkpt lat="47.2282" lon="6.03833">
        <ele>262.1</ele>
        <time>2018-09-29T13:01:20Z</time>
      </trkpt>
      <trkpt lat="47.22819" lon="6.0383">
        <ele>262.1</ele>
        <time>2018-09-29T13:01:23Z</time>
      </trkpt>
      <trkpt lat="47.22818" lon="6.03827">
        <ele>262.1</ele>
        <time>2018-09-29T13:01:24Z</time>
      </trkpt>
      <trkpt lat="47.22815" lon="6.03825">
        <ele>262.1</ele>
        <time>2018-09-29T13:01:25Z</time>
      </trkpt>
      <trkpt lat="47.22812" lon="6.03824">
        <ele>262.58</ele>
        <time>2018-09-29T13:01:26Z</time>
      </trkpt>
      <trkpt lat="47.22808" lon="6.03824">
        <ele>262.58</ele>
        <time>2018-09-29T13:01:27Z</time>
      </trkpt>
      <trkpt lat="47.22805" lon="6.03824">
        <ele>263.06</ele>
        <time>2018-09-29T13:01:28Z</time>
      </trkpt>
      <trkpt lat="47.22801" lon="6.03825">
        <ele>263.06</ele>
        <time>2018-09-29T13:01:29Z</time>
      </trkpt>
      <trkpt lat="47.22798" lon="6.03826">
        <ele>263.06</ele>
        <time>2018-09-29T13:01:30Z</time>
      </trkpt>
      <trkpt lat="47.22795" lon="6.03828">
        <ele>263.06</ele>
        <time>2018-09-29T13:01:31Z</time>
      </trkpt>
      <trkpt lat="47.22792" lon="6.03829">
        <ele>263.06</ele>
        <time>2018-09-29T13:01:32Z</time>
      </trkpt>
      <trkpt lat="47.22789" lon="6.0383">
        <ele>263.54</ele>
        <time>2018-09-29T13:01:33Z</time>
      </trkpt>
      <trkpt lat="47.22762" lon="6.03852">
        <ele>263.54</ele>
        <time>2018-09-29T13:01:43Z</time>
      </trkpt>
      <trkpt lat="47.22751" lon="6.03864">
        <ele>264.02</ele>
        <time>2018-09-29T13:01:48Z</time>
      </trkpt>
      <trkpt lat="47.2275" lon="6.03864">
        <ele>264.02</ele>
        <time>2018-09-29T13:01:49Z</time>
      </trkpt>
      <trkpt lat="47.22749" lon="6.03863">
        <ele>264.02</ele>
        <time>2018-09-29T13:01:50Z</time>
      </trkpt>
      <trkpt lat="47.22749" lon="6.03861">
        <ele>264.5</ele>
        <time>2018-09-29T13:01:51Z</time>
      </trkpt>
      <trkpt lat="47.22748" lon="6.03859">
        <ele>264.5</ele>
        <time>2018-09-29T13:01:52Z</time>
      </trkpt>
      <trkpt lat="47.22748" lon="6.03857">
        <ele>264.98</ele>
        <time>2018-09-29T13:01:53Z</time>
      </trkpt>
      <trkpt lat="47.22748" lon="6.03855">
        <ele>264.98</ele>
        <time>2018-09-29T13:01:54Z</time>
      </trkpt>
      <trkpt lat="47.22748" lon="6.03852">
        <ele>265.46</ele>
        <time>2018-09-29T13:01:55Z</time>
      </trkpt>
      <trkpt lat="47.22749" lon="6.0385">
        <ele>265.46</ele>
        <time>2018-09-29T13:01:56Z</time>
      </trkpt>
      <trkpt lat="47.22749" lon="6.03849">
        <ele>265.94</ele>
        <time>2018-09-29T13:01:57Z</time>
      </trkpt>
      <trkpt lat="47.22749" lon="6.03847">
        <ele>265.94</ele>
        <time>2018-09-29T13:01:58Z</time>
      </trkpt>
      <trkpt lat="47.2275" lon="6.03845">
        <ele>266.42</ele>
        <time>2018-09-29T13:01:59Z</time>
      </trkpt>
      <trkpt lat="47.22751" lon="6.03842">
        <ele>266.9</ele>
        <time>2018-09-29T13:02:01Z</time>
      </trkpt>
      <trkpt lat="47.22752" lon="6.0384">
        <ele>266.9</ele>
        <time>2018-09-29T13:02:02Z</time>
      </trkpt>
      <trkpt lat="47.22752" lon="6.03839">
        <ele>267.38</ele>
        <time>2018-09-29T13:02:03Z</time>
      </trkpt>
      <trkpt lat="47.22753" lon="6.03837">
        <ele>267.38</ele>
        <time>2018-09-29T13:02:04Z</time>
      </trkpt>
      <trkpt lat="47.22754" lon="6.03835">
        <ele>267.38</ele>
        <time>2018-09-29T13:02:05Z</time>
      </trkpt>
      <trkpt lat="47.22755" lon="6.03834">
        <ele>267.86</ele>
        <time>2018-09-29T13:02:06Z</time>
      </trkpt>
      <trkpt lat="47.22756" lon="6.03833">
        <ele>267.86</ele>
        <time>2018-09-29T13:02:07Z</time>
      </trkpt>
      <trkpt lat="47.22756" lon="6.03832">
        <ele>268.35</ele>
        <time>2018-09-29T13:02:08Z</time>
      </trkpt>
      <trkpt lat="47.22757" lon="6.03831">
        <ele>268.83</ele>
        <time>2018-09-29T13:02:09Z</time>
      </trkpt>
      <trkpt lat="47.22758" lon="6.03829">
        <ele>268.83</ele>
        <time>2018-09-29T13:02:10Z</time>
      </trkpt>
      <trkpt lat="47.22759" lon="6.03826">
        <ele>269.31</ele>
        <time>2018-09-29T13:02:12Z</time>
      </trkpt>
      <trkpt lat="47.22771" lon="6.03811">
        <ele>272.67</ele>
        <time>2018-09-29T13:02:24Z</time>
      </trkpt>
      <trkpt lat="47.22772" lon="6.0381">
        <ele>272.67</ele>
        <time>2018-09-29T13:02:25Z</time>
      </trkpt>
      <trkpt lat="47.22773" lon="6.03808">
        <ele>272.67</ele>
        <time>2018-09-29T13:02:26Z</time>
      </trkpt>
      <trkpt lat="47.22774" lon="6.03807">
        <ele>273.15</ele>
        <time>2018-09-29T13:02:27Z</time>
      </trkpt>
      <trkpt lat="47.22775" lon="6.03805">
        <ele>273.15</ele>
        <time>2018-09-29T13:02:28Z</time>
      </trkpt>
      <trkpt lat="47.22777" lon="6.03804">
        <ele>273.63</ele>
        <time>2018-09-29T13:02:29Z</time>
      </trkpt>
      <trkpt lat="47.22778" lon="6.03803">
        <ele>273.63</ele>
        <time>2018-09-29T13:02:30Z</time>
      </trkpt>
      <trkpt lat="47.22779" lon="6.03801">
        <ele>274.11</ele>
        <time>2018-09-29T13:02:31Z</time>
      </trkpt>
      <trkpt lat="47.22779" lon="6.038">
        <ele>274.11</ele>
        <time>2018-09-29T13:02:32Z</time>
      </trkpt>
      <trkpt lat="47.2278" lon="6.03798">
        <ele>274.11</ele>
        <time>2018-09-29T13:02:33Z</time>
      </trkpt>
      <trkpt lat="47.22781" lon="6.03797">
        <ele>274.59</ele>
        <time>2018-09-29T13:02:34Z</time>
      </trkpt>
      <trkpt lat="47.22782" lon="6.03795">
        <ele>275.07</ele>
        <time>2018-09-29T13:02:35Z</time>
      </trkpt>
      <trkpt lat="47.22782" lon="6.03793">
        <ele>275.07</ele>
        <time>2018-09-29T13:02:36Z</time>
      </trkpt>
      <trkpt lat="47.22781" lon="6.03777">
        <ele>277.48</ele>
        <time>2018-09-29T13:02:46Z</time>
      </trkpt>
      <trkpt lat="47.22771" lon="6.03777">
        <ele>278.92</ele>
        <time>2018-09-29T13:02:53Z</time>
      </trkpt>
      <trkpt lat="47.22769" lon="6.03777">
        <ele>278.92</ele>
        <time>2018-09-29T13:02:54Z</time>
      </trkpt>
      <trkpt lat="47.22767" lon="6.03778">
        <ele>278.92</ele>
        <time>2018-09-29T13:02:56Z</time>
      </trkpt>
      <trkpt lat="47.22755" lon="6.0378">
        <ele>280.84</ele>
        <time>2018-09-29T13:03:06Z</time>
      </trkpt>
      <trkpt lat="47.22753" lon="6.0378">
        <ele>280.84</ele>
        <time>2018-09-29T13:03:07Z</time>
      </trkpt>
      <trkpt lat="47.22746" lon="6.03784">
        <ele>281.32</ele>
        <time>2018-09-29T13:03:12Z</time>
      </trkpt>
      <trkpt lat="47.22745" lon="6.03785">
        <ele>281.8</ele>
        <time>2018-09-29T13:03:13Z</time>
      </trkpt>
      <trkpt lat="47.22744" lon="6.03785">
        <ele>282.28</ele>
        <time>2018-09-29T13:03:14Z</time>
      </trkpt>
      <trkpt lat="47.22743" lon="6.03786">
        <ele>282.28</ele>
        <time>2018-09-29T13:03:15Z</time>
      </trkpt>
      <trkpt lat="47.22741" lon="6.03787">
        <ele>282.77</ele>
        <time>2018-09-29T13:03:17Z</time>
      </trkpt>
      <trkpt lat="47.2274" lon="6.03786">
        <ele>282.77</ele>
        <time>2018-09-29T13:03:18Z</time>
      </trkpt>
      <trkpt lat="47.22739" lon="6.03786">
        <ele>283.25</ele>
        <time>2018-09-29T13:03:19Z</time>
      </trkpt>
      <trkpt lat="47.22736" lon="6.03784">
        <ele>283.73</ele>
        <time>2018-09-29T13:03:22Z</time>
      </trkpt>
      <trkpt lat="47.22735" lon="6.03783">
        <ele>283.73</ele>
        <time>2018-09-29T13:03:23Z</time>
      </trkpt>
      <trkpt lat="47.22739" lon="6.03769">
        <ele>287.09</ele>
        <time>2018-09-29T13:03:35Z</time>
      </trkpt>
      <trkpt lat="47.2274" lon="6.03768">
        <ele>287.09</ele>
        <time>2018-09-29T13:03:36Z</time>
      </trkpt>
      <trkpt lat="47.22747" lon="6.03763">
        <ele>289.49</ele>
        <time>2018-09-29T13:03:45Z</time>
      </trkpt>
      <trkpt lat="47.22754" lon="6.03759">
        <ele>290.94</ele>
        <time>2018-09-29T13:03:51Z</time>
      </trkpt>
      <trkpt lat="47.22763" lon="6.03738">
        <ele>293.34</ele>
        <time>2018-09-29T13:04:03Z</time>
      </trkpt>
      <trkpt lat="47.22762" lon="6.03736">
        <ele>293.82</ele>
        <time>2018-09-29T13:04:05Z</time>
      </trkpt>
      <trkpt lat="47.22761" lon="6.03735">
        <ele>293.82</ele>
        <time>2018-09-29T13:04:06Z</time>
      </trkpt>
      <trkpt lat="47.2276" lon="6.03734">
        <ele>294.3</ele>
        <time>2018-09-29T13:04:07Z</time>
      </trkpt>
      <trkpt lat="47.22759" lon="6.03733">
        <ele>294.3</ele>
        <time>2018-09-29T13:04:08Z</time>
      </trkpt>
      <trkpt lat="47.22758" lon="6.03734">
        <ele>294.78</ele>
        <time>2018-09-29T13:04:09Z</time>
      </trkpt>
      <trkpt lat="47.22756" lon="6.03734">
        <ele>294.78</ele>
        <time>2018-09-29T13:04:10Z</time>
      </trkpt>
      <trkpt lat="47.22755" lon="6.03734">
        <ele>295.26</ele>
        <time>2018-09-29T13:04:11Z</time>
      </trkpt>
      <trkpt lat="47.22754" lon="6.03735">
        <ele>295.26</ele>
        <time>2018-09-29T13:04:12Z</time>
      </trkpt>
      <trkpt lat="47.22753" lon="6.03734">
        <ele>295.26</ele>
        <time>2018-09-29T13:04:13Z</time>
      </trkpt>
      <trkpt lat="47.22751" lon="6.03734">
        <ele>295.74</ele>
        <time>2018-09-29T13:04:14Z</time>
      </trkpt>
      <trkpt lat="47.2275" lon="6.03735">
        <ele>295.74</ele>
        <time>2018-09-29T13:04:15Z</time>
      </trkpt>
      <trkpt lat="47.2274" lon="6.03738">
        <ele>297.67</ele>
        <time>2018-09-29T13:04:23Z</time>
      </trkpt>
      <trkpt lat="47.22739" lon="6.03738">
        <ele>297.67</ele>
        <time>2018-09-29T13:04:24Z</time>
      </trkpt>
      <trkpt lat="47.22737" lon="6.03739">
        <ele>298.15</ele>
        <time>2018-09-29T13:04:26Z</time>
      </trkpt>
      <trkpt lat="47.22733" lon="6.03741">
        <ele>299.11</ele>
        <time>2018-09-29T13:04:30Z</time>
      </trkpt>
      <trkpt lat="47.22724" lon="6.03739">
        <ele>301.99</ele>
        <time>2018-09-29T13:04:40Z</time>
      </trkpt>
      <trkpt lat="47.22723" lon="6.03738">
        <ele>302.47</ele>
        <time>2018-09-29T13:04:41Z</time>
      </trkpt>
      <trkpt lat="47.22722" lon="6.03737">
        <ele>302.47</ele>
        <time>2018-09-29T13:04:42Z</time>
      </trkpt>
      <trkpt lat="47.22722" lon="6.03735">
        <ele>302.95</ele>
        <time>2018-09-29T13:04:43Z</time>
      </trkpt>
      <trkpt lat="47.22722" lon="6.03732">
        <ele>303.91</ele>
        <time>2018-09-29T13:04:45Z</time>
      </trkpt>
      <trkpt lat="47.22733" lon="6.03718">
        <ele>305.84</ele>
        <time>2018-09-29T13:04:56Z</time>
      </trkpt>
      <trkpt lat="47.22734" lon="6.03716">
        <ele>306.32</ele>
        <time>2018-09-29T13:04:57Z</time>
      </trkpt>
      <trkpt lat="47.22735" lon="6.03715">
        <ele>306.8</ele>
        <time>2018-09-29T13:04:58Z</time>
      </trkpt>
      <trkpt lat="47.22736" lon="6.03713">
        <ele>307.28</ele>
        <time>2018-09-29T13:04:59Z</time>
      </trkpt>
      <trkpt lat="47.22737" lon="6.03711">
        <ele>307.28</ele>
        <time>2018-09-29T13:05:00Z</time>
      </trkpt>
      <trkpt lat="47.22738" lon="6.03709">
        <ele>307.28</ele>
        <time>2018-09-29T13:05:01Z</time>
      </trkpt>
      <trkpt lat="47.22739" lon="6.03708">
        <ele>307.76</ele>
        <time>2018-09-29T13:05:02Z</time>
      </trkpt>
      <trkpt lat="47.22739" lon="6.03707">
        <ele>307.76</ele>
        <time>2018-09-29T13:05:03Z</time>
      </trkpt>
      <trkpt lat="47.2274" lon="6.03705">
        <ele>308.24</ele>
        <time>2018-09-29T13:05:04Z</time>
      </trkpt>
      <trkpt lat="47.22741" lon="6.03703">
        <ele>308.24</ele>
        <time>2018-09-29T13:05:05Z</time>
      </trkpt>
      <trkpt lat="47.22744" lon="6.03693">
        <ele>309.68</ele>
        <time>2018-09-29T13:05:10Z</time>
      </trkpt>
      <trkpt lat="47.22744" lon="6.03691">
        <ele>309.68</ele>
        <time>2018-09-29T13:05:11Z</time>
      </trkpt>
      <trkpt lat="47.22743" lon="6.03677">
        <ele>312.09</ele>
        <time>2018-09-29T13:05:20Z</time>
      </trkpt>
      <trkpt lat="47.22742" lon="6.03675">
        <ele>312.09</ele>
        <time>2018-09-29T13:05:21Z</time>
      </trkpt>
      <trkpt lat="47.22741" lon="6.03673">
        <ele>312.57</ele>
        <time>2018-09-29T13:05:22Z</time>
      </trkpt>
      <trkpt lat="47.2274" lon="6.03672">
        <ele>312.57</ele>
        <time>2018-09-29T13:05:23Z</time>
      </trkpt>
      <trkpt lat="47.22739" lon="6.03671">
        <ele>312.57</ele>
        <time>2018-09-29T13:05:24Z</time>
      </trkpt>
      <trkpt lat="47.22738" lon="6.03671">
        <ele>313.05</ele>
        <time>2018-09-29T13:05:25Z</time>
      </trkpt>
      <trkpt lat="47.22721" lon="6.03657">
        <ele>315.45</ele>
        <time>2018-09-29T13:05:38Z</time>
      </trkpt>
      <trkpt lat="47.22719" lon="6.03657">
        <ele>315.45</ele>
        <time>2018-09-29T13:05:39Z</time>
      </trkpt>
      <trkpt lat="47.22717" lon="6.03656">
        <ele>315.93</ele>
        <time>2018-09-29T13:05:40Z</time>
      </trkpt>
      <trkpt lat="47.22716" lon="6.03656">
        <ele>315.93</ele>
        <time>2018-09-29T13:05:41Z</time>
      </trkpt>
      <trkpt lat="47.22714" lon="6.03655">
        <ele>316.41</ele>
        <time>2018-09-29T13:05:42Z</time>
      </trkpt>
      <trkpt lat="47.22713" lon="6.03653">
        <ele>316.89</ele>
        <time>2018-09-29T13:05:43Z</time>
      </trkpt>
      <trkpt lat="47.22711" lon="6.03652">
        <ele>316.89</ele>
        <time>2018-09-29T13:05:44Z</time>
      </trkpt>
      <trkpt lat="47.2271" lon="6.0365">
        <ele>317.37</ele>
        <time>2018-09-29T13:05:45Z</time>
      </trkpt>
      <trkpt lat="47.22708" lon="6.03649">
        <ele>317.37</ele>
        <time>2018-09-29T13:05:46Z</time>
      </trkpt>
      <trkpt lat="47.22707" lon="6.03648">
        <ele>317.37</ele>
        <time>2018-09-29T13:05:47Z</time>
      </trkpt>
      <trkpt lat="47.22706" lon="6.03646">
        <ele>317.85</ele>
        <time>2018-09-29T13:05:48Z</time>
      </trkpt>
      <trkpt lat="47.22705" lon="6.03645">
        <ele>317.85</ele>
        <time>2018-09-29T13:05:49Z</time>
      </trkpt>
      <trkpt lat="47.22703" lon="6.03644">
        <ele>318.33</ele>
        <time>2018-09-29T13:05:50Z</time>
      </trkpt>
      <trkpt lat="47.22688" lon="6.03633">
        <ele>319.3</ele>
        <time>2018-09-29T13:06:01Z</time>
      </trkpt>
      <trkpt lat="47.22684" lon="6.03628">
        <ele>319.78</ele>
        <time>2018-09-29T13:06:05Z</time>
      </trkpt>
      <trkpt lat="47.22683" lon="6.03627">
        <ele>320.26</ele>
        <time>2018-09-29T13:06:06Z</time>
      </trkpt>
      <trkpt lat="47.22681" lon="6.03625">
        <ele>320.74</ele>
        <time>2018-09-29T13:06:07Z</time>
      </trkpt>
      <trkpt lat="47.2268" lon="6.03624">
        <ele>320.74</ele>
        <time>2018-09-29T13:06:08Z</time>
      </trkpt>
      <trkpt lat="47.22678" lon="6.03622">
        <ele>320.74</ele>
        <time>2018-09-29T13:06:09Z</time>
      </trkpt>
      <trkpt lat="47.22677" lon="6.03621">
        <ele>321.22</ele>
        <time>2018-09-29T13:06:10Z</time>
      </trkpt>
      <trkpt lat="47.22676" lon="6.03619">
        <ele>321.22</ele>
        <time>2018-09-29T13:06:11Z</time>
      </trkpt>
      <trkpt lat="47.22674" lon="6.03617">
        <ele>321.7</ele>
        <time>2018-09-29T13:06:12Z</time>
      </trkpt>
      <trkpt lat="47.22673" lon="6.03615">
        <ele>321.7</ele>
        <time>2018-09-29T13:06:13Z</time>
      </trkpt>
      <trkpt lat="47.22672" lon="6.03614">
        <ele>321.7</ele>
        <time>2018-09-29T13:06:14Z</time>
      </trkpt>
      <trkpt lat="47.22657" lon="6.03596">
        <ele>323.62</ele>
        <time>2018-09-29T13:06:26Z</time>
      </trkpt>
      <trkpt lat="47.22653" lon="6.03592">
        <ele>324.58</ele>
        <time>2018-09-29T13:06:29Z</time>
      </trkpt>
      <trkpt lat="47.22651" lon="6.03591">
        <ele>324.58</ele>
        <time>2018-09-29T13:06:30Z</time>
      </trkpt>
      <trkpt lat="47.22624" lon="6.03585">
        <ele>326.99</ele>
        <time>2018-09-29T13:06:45Z</time>
      </trkpt>
      <trkpt lat="47.22621" lon="6.03585">
        <ele>327.47</ele>
        <time>2018-09-29T13:06:47Z</time>
      </trkpt>
      <trkpt lat="47.22619" lon="6.03584">
        <ele>327.95</ele>
        <time>2018-09-29T13:06:48Z</time>
      </trkpt>
      <trkpt lat="47.22617" lon="6.03583">
        <ele>327.95</ele>
        <time>2018-09-29T13:06:49Z</time>
      </trkpt>
      <trkpt lat="47.22603" lon="6.0358">
        <ele>329.39</ele>
        <time>2018-09-29T13:06:57Z</time>
      </trkpt>
      <trkpt lat="47.22601" lon="6.0358">
        <ele>329.87</ele>
        <time>2018-09-29T13:06:58Z</time>
      </trkpt>
      <trkpt lat="47.22576" lon="6.03572">
        <ele>333.23</ele>
        <time>2018-09-29T13:07:12Z</time>
      </trkpt>
      <trkpt lat="47.22574" lon="6.03572">
        <ele>333.23</ele>
        <time>2018-09-29T13:07:13Z</time>
      </trkpt>
      <trkpt lat="47.22551" lon="6.03564">
        <ele>335.64</ele>
        <time>2018-09-29T13:07:27Z</time>
      </trkpt>
      <trkpt lat="47.2255" lon="6.03564">
        <ele>335.64</ele>
        <time>2018-09-29T13:07:28Z</time>
      </trkpt>
      <trkpt lat="47.22548" lon="6.03563">
        <ele>335.64</ele>
        <time>2018-09-29T13:07:29Z</time>
      </trkpt>
      <trkpt lat="47.22547" lon="6.03563">
        <ele>336.12</ele>
        <time>2018-09-29T13:07:30Z</time>
      </trkpt>
      <trkpt lat="47.22545" lon="6.03563">
        <ele>336.12</ele>
        <time>2018-09-29T13:07:31Z</time>
      </trkpt>
      <trkpt lat="47.22543" lon="6.03563">
        <ele>336.12</ele>
        <time>2018-09-29T13:07:32Z</time>
      </trkpt>
      <trkpt lat="47.22541" lon="6.03563">
        <ele>336.6</ele>
        <time>2018-09-29T13:07:33Z</time>
      </trkpt>
      <trkpt lat="47.2254" lon="6.03564">
        <ele>336.6</ele>
        <time>2018-09-29T13:07:34Z</time>
      </trkpt>
      <trkpt lat="47.22538" lon="6.03565">
        <ele>336.6</ele>
        <time>2018-09-29T13:07:35Z</time>
      </trkpt>
      <trkpt lat="47.22537" lon="6.03566">
        <ele>337.08</ele>
        <time>2018-09-29T13:07:36Z</time>
      </trkpt>
      <trkpt lat="47.22535" lon="6.03567">
        <ele>337.08</ele>
        <time>2018-09-29T13:07:37Z</time>
      </trkpt>
      <trkpt lat="47.22533" lon="6.03568">
        <ele>337.08</ele>
        <time>2018-09-29T13:07:38Z</time>
      </trkpt>
      <trkpt lat="47.22531" lon="6.03568">
        <ele>337.56</ele>
        <time>2018-09-29T13:07:39Z</time>
      </trkpt>
      <trkpt lat="47.2253" lon="6.03569">
        <ele>337.56</ele>
        <time>2018-09-29T13:07:40Z</time>
      </trkpt>
      <trkpt lat="47.22528" lon="6.03569">
        <ele>338.04</ele>
        <time>2018-09-29T13:07:41Z</time>
      </trkpt>
      <trkpt lat="47.22527" lon="6.0357">
        <ele>338.04</ele>
        <time>2018-09-29T13:07:42Z</time>
      </trkpt>
      <trkpt lat="47.22525" lon="6.03571">
        <ele>338.04</ele>
        <time>2018-09-29T13:07:43Z</time>
      </trkpt>
      <trkpt lat="47.22524" lon="6.03572">
        <ele>338.04</ele>
        <time>2018-09-29T13:07:44Z</time>
      </trkpt>
      <trkpt lat="47.22522" lon="6.03573">
        <ele>338.52</ele>
        <time>2018-09-29T13:07:45Z</time>
      </trkpt>
      <trkpt lat="47.22521" lon="6.03574">
        <ele>338.52</ele>
        <time>2018-09-29T13:07:46Z</time>
      </trkpt>
      <trkpt lat="47.22519" lon="6.03575">
        <ele>339</ele>
        <time>2018-09-29T13:07:47Z</time>
      </trkpt>
      <trkpt lat="47.22518" lon="6.03577">
        <ele>339</ele>
        <time>2018-09-29T13:07:48Z</time>
      </trkpt>
      <trkpt lat="47.22517" lon="6.03578">
        <ele>339.48</ele>
        <time>2018-09-29T13:07:49Z</time>
      </trkpt>
      <trkpt lat="47.22516" lon="6.0358">
        <ele>339.48</ele>
        <time>2018-09-29T13:07:50Z</time>
      </trkpt>
      <trkpt lat="47.22515" lon="6.03582">
        <ele>339.48</ele>
        <time>2018-09-29T13:07:51Z</time>
      </trkpt>
      <trkpt lat="47.22513" lon="6.03584">
        <ele>339.96</ele>
        <time>2018-09-29T13:07:52Z</time>
      </trkpt>
      <trkpt lat="47.22512" lon="6.03585">
        <ele>339.96</ele>
        <time>2018-09-29T13:07:53Z</time>
      </trkpt>
      <trkpt lat="47.2251" lon="6.03587">
        <ele>339.96</ele>
        <time>2018-09-29T13:07:54Z</time>
      </trkpt>
      <trkpt lat="47.22509" lon="6.0359">
        <ele>340.44</ele>
        <time>2018-09-29T13:07:55Z</time>
      </trkpt>
      <trkpt lat="47.22479" lon="6.0362">
        <ele>342.85</ele>
        <time>2018-09-29T13:08:11Z</time>
      </trkpt>
      <trkpt lat="47.22443" lon="6.03622">
        <ele>345.25</ele>
        <time>2018-09-29T13:08:27Z</time>
      </trkpt>
      <trkpt lat="47.22423" lon="6.03613">
        <ele>348.62</ele>
        <time>2018-09-29T13:08:38Z</time>
      </trkpt>
      <trkpt lat="47.22421" lon="6.03614">
        <ele>349.1</ele>
        <time>2018-09-29T13:08:39Z</time>
      </trkpt>
      <trkpt lat="47.2242" lon="6.03615">
        <ele>349.58</ele>
        <time>2018-09-29T13:08:40Z</time>
      </trkpt>
      <trkpt lat="47.22418" lon="6.03616">
        <ele>349.58</ele>
        <time>2018-09-29T13:08:41Z</time>
      </trkpt>
      <trkpt lat="47.22417" lon="6.03618">
        <ele>350.06</ele>
        <time>2018-09-29T13:08:42Z</time>
      </trkpt>
      <trkpt lat="47.22409" lon="6.03622">
        <ele>351.02</ele>
        <time>2018-09-29T13:08:47Z</time>
      </trkpt>
      <trkpt lat="47.22392" lon="6.03616">
        <ele>352.94</ele>
        <time>2018-09-29T13:08:57Z</time>
      </trkpt>
      <trkpt lat="47.22381" lon="6.03612">
        <ele>354.38</ele>
        <time>2018-09-29T13:09:04Z</time>
      </trkpt>
      <trkpt lat="47.22379" lon="6.03611">
        <ele>354.38</ele>
        <time>2018-09-29T13:09:05Z</time>
      </trkpt>
      <trkpt lat="47.22378" lon="6.0361">
        <ele>354.86</ele>
        <time>2018-09-29T13:09:06Z</time>
      </trkpt>
      <trkpt lat="47.22366" lon="6.03606">
        <ele>355.83</ele>
        <time>2018-09-29T13:09:13Z</time>
      </trkpt>
      <trkpt lat="47.22364" lon="6.03605">
        <ele>356.31</ele>
        <time>2018-09-29T13:09:14Z</time>
      </trkpt>
      <trkpt lat="47.22362" lon="6.03604">
        <ele>356.31</ele>
        <time>2018-09-29T13:09:15Z</time>
      </trkpt>
      <trkpt lat="47.2236" lon="6.03604">
        <ele>356.31</ele>
        <time>2018-09-29T13:09:16Z</time>
      </trkpt>
      <trkpt lat="47.22359" lon="6.03603">
        <ele>356.31</ele>
        <time>2018-09-29T13:09:17Z</time>
      </trkpt>
      <trkpt lat="47.22357" lon="6.03603">
        <ele>356.79</ele>
        <time>2018-09-29T13:09:18Z</time>
      </trkpt>
      <trkpt lat="47.22355" lon="6.03603">
        <ele>356.79</ele>
        <time>2018-09-29T13:09:19Z</time>
      </trkpt>
      <trkpt lat="47.22353" lon="6.03602">
        <ele>357.27</ele>
        <time>2018-09-29T13:09:20Z</time>
      </trkpt>
      <trkpt lat="47.22351" lon="6.03602">
        <ele>357.27</ele>
        <time>2018-09-29T13:09:21Z</time>
      </trkpt>
      <trkpt lat="47.22349" lon="6.03601">
        <ele>357.75</ele>
        <time>2018-09-29T13:09:22Z</time>
      </trkpt>
      <trkpt lat="47.22347" lon="6.036">
        <ele>357.75</ele>
        <time>2018-09-29T13:09:23Z</time>
      </trkpt>
      <trkpt lat="47.22346" lon="6.03599">
        <ele>357.75</ele>
        <time>2018-09-29T13:09:24Z</time>
      </trkpt>
      <trkpt lat="47.22344" lon="6.03599">
        <ele>358.23</ele>
        <time>2018-09-29T13:09:25Z</time>
      </trkpt>
      <trkpt lat="47.22342" lon="6.03599">
        <ele>358.71</ele>
        <time>2018-09-29T13:09:26Z</time>
      </trkpt>
      <trkpt lat="47.2234" lon="6.03598">
        <ele>358.71</ele>
        <time>2018-09-29T13:09:27Z</time>
      </trkpt>
      <trkpt lat="47.22312" lon="6.03591">
        <ele>361.59</ele>
        <time>2018-09-29T13:09:42Z</time>
      </trkpt>
      <trkpt lat="47.22288" lon="6.03578">
        <ele>362.07</ele>
        <time>2018-09-29T13:09:54Z</time>
      </trkpt>
      <trkpt lat="47.22266" lon="6.03553">
        <ele>365.44</ele>
        <time>2018-09-29T13:10:05Z</time>
      </trkpt>
      <trkpt lat="47.22241" lon="6.03522">
        <ele>366.88</ele>
        <time>2018-09-29T13:10:19Z</time>
      </trkpt>
      <trkpt lat="47.22212" lon="6.03489">
        <ele>369.28</ele>
        <time>2018-09-29T13:10:34Z</time>
      </trkpt>
      <trkpt lat="47.22176" lon="6.03451">
        <ele>371.69</ele>
        <time>2018-09-29T13:10:51Z</time>
      </trkpt>
      <trkpt lat="47.22156" lon="6.03463">
        <ele>373.13</ele>
        <time>2018-09-29T13:11:01Z</time>
      </trkpt>
      <trkpt lat="47.22147" lon="6.03477">
        <ele>375.05</ele>
        <time>2018-09-29T13:11:08Z</time>
      </trkpt>
      <trkpt lat="47.2212" lon="6.03508">
        <ele>376.97</ele>
        <time>2018-09-29T13:11:25Z</time>
      </trkpt>
      <trkpt lat="47.22109" lon="6.03506">
        <ele>380.34</ele>
        <time>2018-09-29T13:11:31Z</time>
      </trkpt>
      <trkpt lat="47.22107" lon="6.03504">
        <ele>381.3</ele>
        <time>2018-09-29T13:11:32Z</time>
      </trkpt>
      <trkpt lat="47.22106" lon="6.03502">
        <ele>381.3</ele>
        <time>2018-09-29T13:11:33Z</time>
      </trkpt>
      <trkpt lat="47.22105" lon="6.03499">
        <ele>381.78</ele>
        <time>2018-09-29T13:11:34Z</time>
      </trkpt>
      <trkpt lat="47.22104" lon="6.03497">
        <ele>381.78</ele>
        <time>2018-09-29T13:11:35Z</time>
      </trkpt>
      <trkpt lat="47.22103" lon="6.03494">
        <ele>382.74</ele>
        <time>2018-09-29T13:11:36Z</time>
      </trkpt>
      <trkpt lat="47.22091" lon="6.03459">
        <ele>384.18</ele>
        <time>2018-09-29T13:11:50Z</time>
      </trkpt>
      <trkpt lat="47.22078" lon="6.0345">
        <ele>386.11</ele>
        <time>2018-09-29T13:11:58Z</time>
      </trkpt>
      <trkpt lat="47.22061" lon="6.03451">
        <ele>388.99</ele>
        <time>2018-09-29T13:12:08Z</time>
      </trkpt>
      <trkpt lat="47.22041" lon="6.0345">
        <ele>392.36</ele>
        <time>2018-09-29T13:12:20Z</time>
      </trkpt>
      <trkpt lat="47.22038" lon="6.03451">
        <ele>392.84</ele>
        <time>2018-09-29T13:12:22Z</time>
      </trkpt>
      <trkpt lat="47.22015" lon="6.03451">
        <ele>396.2</ele>
        <time>2018-09-29T13:12:36Z</time>
      </trkpt>
      <trkpt lat="47.21991" lon="6.03446">
        <ele>399.08</ele>
        <time>2018-09-29T13:12:51Z</time>
      </trkpt>
      <trkpt lat="47.2197" lon="6.03443">
        <ele>402.45</ele>
        <time>2018-09-29T13:13:04Z</time>
      </trkpt>
      <trkpt lat="47.2196" lon="6.03443">
        <ele>404.37</ele>
        <time>2018-09-29T13:13:11Z</time>
      </trkpt>
      <trkpt lat="47.21938" lon="6.03442">
        <ele>407.74</ele>
        <time>2018-09-29T13:13:24Z</time>
      </trkpt>
      <trkpt lat="47.21923" lon="6.03444">
        <ele>408.22</ele>
        <time>2018-09-29T13:13:32Z</time>
      </trkpt>
      <trkpt lat="47.21921" lon="6.03443">
        <ele>408.7</ele>
        <time>2018-09-29T13:13:33Z</time>
      </trkpt>
      <trkpt lat="47.21919" lon="6.03443">
        <ele>409.18</ele>
        <time>2018-09-29T13:13:34Z</time>
      </trkpt>
      <trkpt lat="47.21917" lon="6.03443">
        <ele>409.18</ele>
        <time>2018-09-29T13:13:35Z</time>
      </trkpt>
      <trkpt lat="47.21915" lon="6.03442">
        <ele>409.66</ele>
        <time>2018-09-29T13:13:36Z</time>
      </trkpt>
      <trkpt lat="47.21882" lon="6.03436">
        <ele>411.1</ele>
        <time>2018-09-29T13:13:51Z</time>
      </trkpt>
      <trkpt lat="47.21846" lon="6.03445">
        <ele>412.54</ele>
        <time>2018-09-29T13:14:05Z</time>
      </trkpt>
      <trkpt lat="47.21818" lon="6.03451">
        <ele>411.58</ele>
        <time>2018-09-29T13:14:14Z</time>
      </trkpt>
      <trkpt lat="47.21814" lon="6.03451">
        <ele>411.1</ele>
        <time>2018-09-29T13:14:15Z</time>
      </trkpt>
      <trkpt lat="47.21809" lon="6.0345">
        <ele>410.62</ele>
        <time>2018-09-29T13:14:16Z</time>
      </trkpt>
      <trkpt lat="47.21805" lon="6.03451">
        <ele>410.62</ele>
        <time>2018-09-29T13:14:17Z</time>
      </trkpt>
      <trkpt lat="47.218" lon="6.03452">
        <ele>411.1</ele>
        <time>2018-09-29T13:14:18Z</time>
      </trkpt>
      <trkpt lat="47.21792" lon="6.03456">
        <ele>410.62</ele>
        <time>2018-09-29T13:14:20Z</time>
      </trkpt>
      <trkpt lat="47.21761" lon="6.0347">
        <ele>413.98</ele>
        <time>2018-09-29T13:14:31Z</time>
      </trkpt>
      <trkpt lat="47.21743" lon="6.0344">
        <ele>416.87</ele>
        <time>2018-09-29T13:14:43Z</time>
      </trkpt>
      <trkpt lat="47.21735" lon="6.03394">
        <ele>418.79</ele>
        <time>2018-09-29T13:14:55Z</time>
      </trkpt>
      <trkpt lat="47.21707" lon="6.03327">
        <ele>421.19</ele>
        <time>2018-09-29T13:15:12Z</time>
      </trkpt>
      <trkpt lat="47.21684" lon="6.03255">
        <ele>422.16</ele>
        <time>2018-09-29T13:15:28Z</time>
      </trkpt>
      <trkpt lat="47.21665" lon="6.03165">
        <ele>423.12</ele>
        <time>2018-09-29T13:15:44Z</time>
      </trkpt>
      <trkpt lat="47.21662" lon="6.03147">
        <ele>423.12</ele>
        <time>2018-09-29T13:15:47Z</time>
      </trkpt>
      <trkpt lat="47.21636" lon="6.03055">
        <ele>423.6</ele>
        <time>2018-09-29T13:16:03Z</time>
      </trkpt>
      <trkpt lat="47.21618" lon="6.02974">
        <ele>422.64</ele>
        <time>2018-09-29T13:16:15Z</time>
      </trkpt>
      <trkpt lat="47.21617" lon="6.02937">
        <ele>423.6</ele>
        <time>2018-09-29T13:16:20Z</time>
      </trkpt>
      <trkpt lat="47.21615" lon="6.0293">
        <ele>423.6</ele>
        <time>2018-09-29T13:16:21Z</time>
      </trkpt>
      <trkpt lat="47.21614" lon="6.02924">
        <ele>423.6</ele>
        <time>2018-09-29T13:16:22Z</time>
      </trkpt>
      <trkpt lat="47.21588" lon="6.02841">
        <ele>423.12</ele>
        <time>2018-09-29T13:16:36Z</time>
      </trkpt>
      <trkpt lat="47.21569" lon="6.02791">
        <ele>422.64</ele>
        <time>2018-09-29T13:16:43Z</time>
      </trkpt>
      <trkpt lat="47.21566" lon="6.02785">
        <ele>422.64</ele>
        <time>2018-09-29T13:16:44Z</time>
      </trkpt>
      <trkpt lat="47.21563" lon="6.0278">
        <ele>422.64</ele>
        <time>2018-09-29T13:16:45Z</time>
      </trkpt>
      <trkpt lat="47.21544" lon="6.02761">
        <ele>425.04</ele>
        <time>2018-09-29T13:16:53Z</time>
      </trkpt>
      <trkpt lat="47.21531" lon="6.02736">
        <ele>427.92</ele>
        <time>2018-09-29T13:17:04Z</time>
      </trkpt>
      <trkpt lat="47.21516" lon="6.02704">
        <ele>430.33</ele>
        <time>2018-09-29T13:17:15Z</time>
      </trkpt>
      <trkpt lat="47.21494" lon="6.02644">
        <ele>431.77</ele>
        <time>2018-09-29T13:17:29Z</time>
      </trkpt>
      <trkpt lat="47.21486" lon="6.02598">
        <ele>433.21</ele>
        <time>2018-09-29T13:17:40Z</time>
      </trkpt>
      <trkpt lat="47.21478" lon="6.02547">
        <ele>434.65</ele>
        <time>2018-09-29T13:17:51Z</time>
      </trkpt>
      <trkpt lat="47.21468" lon="6.02511">
        <ele>436.58</ele>
        <time>2018-09-29T13:18:02Z</time>
      </trkpt>
      <trkpt lat="47.21463" lon="6.0249">
        <ele>439.46</ele>
        <time>2018-09-29T13:18:11Z</time>
      </trkpt>
      <trkpt lat="47.21455" lon="6.02448">
        <ele>442.34</ele>
        <time>2018-09-29T13:18:24Z</time>
      </trkpt>
      <trkpt lat="47.21437" lon="6.02396">
        <ele>445.23</ele>
        <time>2018-09-29T13:18:40Z</time>
      </trkpt>
      <trkpt lat="47.21423" lon="6.02376">
        <ele>446.19</ele>
        <time>2018-09-29T13:18:48Z</time>
      </trkpt>
      <trkpt lat="47.21416" lon="6.02358">
        <ele>446.19</ele>
        <time>2018-09-29T13:18:53Z</time>
      </trkpt>
      <trkpt lat="47.21416" lon="6.02354">
        <ele>446.19</ele>
        <time>2018-09-29T13:18:54Z</time>
      </trkpt>
      <trkpt lat="47.21415" lon="6.02351">
        <ele>446.19</ele>
        <time>2018-09-29T13:18:55Z</time>
      </trkpt>
      <trkpt lat="47.21403" lon="6.02309">
        <ele>447.63</ele>
        <time>2018-09-29T13:19:06Z</time>
      </trkpt>
      <trkpt lat="47.2138" lon="6.02272">
        <ele>449.07</ele>
        <time>2018-09-29T13:19:17Z</time>
      </trkpt>
      <trkpt lat="47.21348" lon="6.02245">
        <ele>449.07</ele>
        <time>2018-09-29T13:19:29Z</time>
      </trkpt>
      <trkpt lat="47.21328" lon="6.02223">
        <ele>446.19</ele>
        <time>2018-09-29T13:19:35Z</time>
      </trkpt>
      <trkpt lat="47.21324" lon="6.02214">
        <ele>445.71</ele>
        <time>2018-09-29T13:19:37Z</time>
      </trkpt>
      <trkpt lat="47.21323" lon="6.02208">
        <ele>445.23</ele>
        <time>2018-09-29T13:19:38Z</time>
      </trkpt>
      <trkpt lat="47.21323" lon="6.02203">
        <ele>444.75</ele>
        <time>2018-09-29T13:19:39Z</time>
      </trkpt>
      <trkpt lat="47.21324" lon="6.02198">
        <ele>444.75</ele>
        <time>2018-09-29T13:19:40Z</time>
      </trkpt>
      <trkpt lat="47.21324" lon="6.02193">
        <ele>444.27</ele>
        <time>2018-09-29T13:19:41Z</time>
      </trkpt>
      <trkpt lat="47.21323" lon="6.02176">
        <ele>442.34</ele>
        <time>2018-09-29T13:19:44Z</time>
      </trkpt>
      <trkpt lat="47.21322" lon="6.02169">
        <ele>440.9</ele>
        <time>2018-09-29T13:19:45Z</time>
      </trkpt>
      <trkpt lat="47.21312" lon="6.02142">
        <ele>438.98</ele>
        <time>2018-09-29T13:19:48Z</time>
      </trkpt>
      <trkpt lat="47.2131" lon="6.02131">
        <ele>437.54</ele>
        <time>2018-09-29T13:19:49Z</time>
      </trkpt>
      <trkpt lat="47.21309" lon="6.02119">
        <ele>436.58</ele>
        <time>2018-09-29T13:19:50Z</time>
      </trkpt>
      <trkpt lat="47.21309" lon="6.02079">
        <ele>432.73</ele>
        <time>2018-09-29T13:19:53Z</time>
      </trkpt>
      <trkpt lat="47.21311" lon="6.02065">
        <ele>431.29</ele>
        <time>2018-09-29T13:19:54Z</time>
      </trkpt>
      <trkpt lat="47.21314" lon="6.02051">
        <ele>431.29</ele>
        <time>2018-09-29T13:19:55Z</time>
      </trkpt>
      <trkpt lat="47.21318" lon="6.02027">
        <ele>430.81</ele>
        <time>2018-09-29T13:19:57Z</time>
      </trkpt>
      <trkpt lat="47.21324" lon="6.01962">
        <ele>429.37</ele>
        <time>2018-09-29T13:20:03Z</time>
      </trkpt>
      <trkpt lat="47.21331" lon="6.0194">
        <ele>428.4</ele>
        <time>2018-09-29T13:20:05Z</time>
      </trkpt>
      <trkpt lat="47.21336" lon="6.0193">
        <ele>428.4</ele>
        <time>2018-09-29T13:20:06Z</time>
      </trkpt>
      <trkpt lat="47.2134" lon="6.0192">
        <ele>427.92</ele>
        <time>2018-09-29T13:20:07Z</time>
      </trkpt>
      <trkpt lat="47.21345" lon="6.01909">
        <ele>427.44</ele>
        <time>2018-09-29T13:20:08Z</time>
      </trkpt>
      <trkpt lat="47.21348" lon="6.01898">
        <ele>426.96</ele>
        <time>2018-09-29T13:20:09Z</time>
      </trkpt>
      <trkpt lat="47.2135" lon="6.01887">
        <ele>426.96</ele>
        <time>2018-09-29T13:20:10Z</time>
      </trkpt>
      <trkpt lat="47.21352" lon="6.01877">
        <ele>427.44</ele>
        <time>2018-09-29T13:20:11Z</time>
      </trkpt>
      <trkpt lat="47.21352" lon="6.01865">
        <ele>426.96</ele>
        <time>2018-09-29T13:20:12Z</time>
      </trkpt>
      <trkpt lat="47.21351" lon="6.01856">
        <ele>426.48</ele>
        <time>2018-09-29T13:20:13Z</time>
      </trkpt>
      <trkpt lat="47.2135" lon="6.01847">
        <ele>425.04</ele>
        <time>2018-09-29T13:20:14Z</time>
      </trkpt>
      <trkpt lat="47.21347" lon="6.01838">
        <ele>424.56</ele>
        <time>2018-09-29T13:20:15Z</time>
      </trkpt>
      <trkpt lat="47.21345" lon="6.01828">
        <ele>423.6</ele>
        <time>2018-09-29T13:20:16Z</time>
      </trkpt>
      <trkpt lat="47.21337" lon="6.01796">
        <ele>423.12</ele>
        <time>2018-09-29T13:20:19Z</time>
      </trkpt>
      <trkpt lat="47.21322" lon="6.01752">
        <ele>423.6</ele>
        <time>2018-09-29T13:20:24Z</time>
      </trkpt>
      <trkpt lat="47.21321" lon="6.01743">
        <ele>424.08</ele>
        <time>2018-09-29T13:20:25Z</time>
      </trkpt>
      <trkpt lat="47.21322" lon="6.01736">
        <ele>425.04</ele>
        <time>2018-09-29T13:20:26Z</time>
      </trkpt>
      <trkpt lat="47.21316" lon="6.01676">
        <ele>426.96</ele>
        <time>2018-09-29T13:20:37Z</time>
      </trkpt>
      <trkpt lat="47.21315" lon="6.01671">
        <ele>426.96</ele>
        <time>2018-09-29T13:20:38Z</time>
      </trkpt>
      <trkpt lat="47.21313" lon="6.01666">
        <ele>426.96</ele>
        <time>2018-09-29T13:20:39Z</time>
      </trkpt>
      <trkpt lat="47.21289" lon="6.01615">
        <ele>428.4</ele>
        <time>2018-09-29T13:20:51Z</time>
      </trkpt>
      <trkpt lat="47.21268" lon="6.0156">
        <ele>427.92</ele>
        <time>2018-09-29T13:21:02Z</time>
      </trkpt>
      <trkpt lat="47.21263" lon="6.0155">
        <ele>427.44</ele>
        <time>2018-09-29T13:21:04Z</time>
      </trkpt>
      <trkpt lat="47.21252" lon="6.01524">
        <ele>426.96</ele>
        <time>2018-09-29T13:21:09Z</time>
      </trkpt>
      <trkpt lat="47.21244" lon="6.01509">
        <ele>426.96</ele>
        <time>2018-09-29T13:21:12Z</time>
      </trkpt>
      <trkpt lat="47.21241" lon="6.01504">
        <ele>426.96</ele>
        <time>2018-09-29T13:21:13Z</time>
      </trkpt>
      <trkpt lat="47.21238" lon="6.01501">
        <ele>426.96</ele>
        <time>2018-09-29T13:21:14Z</time>
      </trkpt>
      <trkpt lat="47.21235" lon="6.01496">
        <ele>426.96</ele>
        <time>2018-09-29T13:21:15Z</time>
      </trkpt>
      <trkpt lat="47.21232" lon="6.01492">
        <ele>426.96</ele>
        <time>2018-09-29T13:21:16Z</time>
      </trkpt>
      <trkpt lat="47.2123" lon="6.01488">
        <ele>426.96</ele>
        <time>2018-09-29T13:21:17Z</time>
      </trkpt>
      <trkpt lat="47.21205" lon="6.0145">
        <ele>426.48</ele>
        <time>2018-09-29T13:21:27Z</time>
      </trkpt>
      <trkpt lat="47.21166" lon="6.01405">
        <ele>425.04</ele>
        <time>2018-09-29T13:21:39Z</time>
      </trkpt>
      <trkpt lat="47.21133" lon="6.01368">
        <ele>424.08</ele>
        <time>2018-09-29T13:21:49Z</time>
      </trkpt>
      <trkpt lat="47.21101" lon="6.01346">
        <ele>423.12</ele>
        <time>2018-09-29T13:21:57Z</time>
      </trkpt>
      <trkpt lat="47.21094" lon="6.01338">
        <ele>422.16</ele>
        <time>2018-09-29T13:21:59Z</time>
      </trkpt>
      <trkpt lat="47.21091" lon="6.01333">
        <ele>422.16</ele>
        <time>2018-09-29T13:22:00Z</time>
      </trkpt>
      <trkpt lat="47.21088" lon="6.01328">
        <ele>421.68</ele>
        <time>2018-09-29T13:22:01Z</time>
      </trkpt>
      <trkpt lat="47.2106" lon="6.0129">
        <ele>419.27</ele>
        <time>2018-09-29T13:22:08Z</time>
      </trkpt>
      <trkpt lat="47.21056" lon="6.01284">
        <ele>419.27</ele>
        <time>2018-09-29T13:22:09Z</time>
      </trkpt>
      <trkpt lat="47.21048" lon="6.01273">
        <ele>418.31</ele>
        <time>2018-09-29T13:22:11Z</time>
      </trkpt>
      <trkpt lat="47.21043" lon="6.01268">
        <ele>418.31</ele>
        <time>2018-09-29T13:22:12Z</time>
      </trkpt>
      <trkpt lat="47.21038" lon="6.01265">
        <ele>417.83</ele>
        <time>2018-09-29T13:22:13Z</time>
      </trkpt>
      <trkpt lat="47.21033" lon="6.01264">
        <ele>417.83</ele>
        <time>2018-09-29T13:22:14Z</time>
      </trkpt>
      <trkpt lat="47.21028" lon="6.01265">
        <ele>417.83</ele>
        <time>2018-09-29T13:22:15Z</time>
      </trkpt>
      <trkpt lat="47.21024" lon="6.01268">
        <ele>417.83</ele>
        <time>2018-09-29T13:22:16Z</time>
      </trkpt>
      <trkpt lat="47.2102" lon="6.01271">
        <ele>417.83</ele>
        <time>2018-09-29T13:22:17Z</time>
      </trkpt>
      <trkpt lat="47.21016" lon="6.01275">
        <ele>418.31</ele>
        <time>2018-09-29T13:22:18Z</time>
      </trkpt>
      <trkpt lat="47.21013" lon="6.0128">
        <ele>418.31</ele>
        <time>2018-09-29T13:22:19Z</time>
      </trkpt>
      <trkpt lat="47.2101" lon="6.01284">
        <ele>418.79</ele>
        <time>2018-09-29T13:22:20Z</time>
      </trkpt>
      <trkpt lat="47.21008" lon="6.01289">
        <ele>418.79</ele>
        <time>2018-09-29T13:22:21Z</time>
      </trkpt>
      <trkpt lat="47.21006" lon="6.01292">
        <ele>418.79</ele>
        <time>2018-09-29T13:22:22Z</time>
      </trkpt>
      <trkpt lat="47.21003" lon="6.01295">
        <ele>418.79</ele>
        <time>2018-09-29T13:22:23Z</time>
      </trkpt>
      <trkpt lat="47.20983" lon="6.01311">
        <ele>419.27</ele>
        <time>2018-09-29T13:22:29Z</time>
      </trkpt>
      <trkpt lat="47.20979" lon="6.0131">
        <ele>419.27</ele>
        <time>2018-09-29T13:22:30Z</time>
      </trkpt>
      <trkpt lat="47.20976" lon="6.01308">
        <ele>419.75</ele>
        <time>2018-09-29T13:22:31Z</time>
      </trkpt>
      <trkpt lat="47.20973" lon="6.01307">
        <ele>419.75</ele>
        <time>2018-09-29T13:22:32Z</time>
      </trkpt>
      <trkpt lat="47.20969" lon="6.01306">
        <ele>419.75</ele>
        <time>2018-09-29T13:22:33Z</time>
      </trkpt>
      <trkpt lat="47.20966" lon="6.01305">
        <ele>419.75</ele>
        <time>2018-09-29T13:22:34Z</time>
      </trkpt>
      <trkpt lat="47.20931" lon="6.01285">
        <ele>419.27</ele>
        <time>2018-09-29T13:22:44Z</time>
      </trkpt>
      <trkpt lat="47.20902" lon="6.0126">
        <ele>418.31</ele>
        <time>2018-09-29T13:22:53Z</time>
      </trkpt>
      <trkpt lat="47.2089" lon="6.01252">
        <ele>417.35</ele>
        <time>2018-09-29T13:22:56Z</time>
      </trkpt>
      <trkpt lat="47.20885" lon="6.01252">
        <ele>416.87</ele>
        <time>2018-09-29T13:22:57Z</time>
      </trkpt>
      <trkpt lat="47.20881" lon="6.01254">
        <ele>416.39</ele>
        <time>2018-09-29T13:22:58Z</time>
      </trkpt>
      <trkpt lat="47.20876" lon="6.01259">
        <ele>415.91</ele>
        <time>2018-09-29T13:22:59Z</time>
      </trkpt>
      <trkpt lat="47.20872" lon="6.01265">
        <ele>414.95</ele>
        <time>2018-09-29T13:23:00Z</time>
      </trkpt>
      <trkpt lat="47.20868" lon="6.01271">
        <ele>414.47</ele>
        <time>2018-09-29T13:23:01Z</time>
      </trkpt>
      <trkpt lat="47.20863" lon="6.01276">
        <ele>413.98</ele>
        <time>2018-09-29T13:23:02Z</time>
      </trkpt>
      <trkpt lat="47.20857" lon="6.0128">
        <ele>413.02</ele>
        <time>2018-09-29T13:23:03Z</time>
      </trkpt>
      <trkpt lat="47.2085" lon="6.01281">
        <ele>412.06</ele>
        <time>2018-09-29T13:23:04Z</time>
      </trkpt>
      <trkpt lat="47.20843" lon="6.01279">
        <ele>411.58</ele>
        <time>2018-09-29T13:23:05Z</time>
      </trkpt>
      <trkpt lat="47.20837" lon="6.01272">
        <ele>410.62</ele>
        <time>2018-09-29T13:23:06Z</time>
      </trkpt>
      <trkpt lat="47.20832" lon="6.01263">
        <ele>409.66</ele>
        <time>2018-09-29T13:23:07Z</time>
      </trkpt>
      <trkpt lat="47.20828" lon="6.01254">
        <ele>409.18</ele>
        <time>2018-09-29T13:23:08Z</time>
      </trkpt>
      <trkpt lat="47.20821" lon="6.01237">
        <ele>407.26</ele>
        <time>2018-09-29T13:23:10Z</time>
      </trkpt>
      <trkpt lat="47.2081" lon="6.01207">
        <ele>406.29</ele>
        <time>2018-09-29T13:23:13Z</time>
      </trkpt>
      <trkpt lat="47.20805" lon="6.01199">
        <ele>405.81</ele>
        <time>2018-09-29T13:23:14Z</time>
      </trkpt>
      <trkpt lat="47.20799" lon="6.01194">
        <ele>404.37</ele>
        <time>2018-09-29T13:23:15Z</time>
      </trkpt>
      <trkpt lat="47.20778" lon="6.0118">
        <ele>401.97</ele>
        <time>2018-09-29T13:23:18Z</time>
      </trkpt>
      <trkpt lat="47.20772" lon="6.0118">
        <ele>401.49</ele>
        <time>2018-09-29T13:23:19Z</time>
      </trkpt>
      <trkpt lat="47.20767" lon="6.01185">
        <ele>401.01</ele>
        <time>2018-09-29T13:23:20Z</time>
      </trkpt>
      <trkpt lat="47.20761" lon="6.01191">
        <ele>401.01</ele>
        <time>2018-09-29T13:23:21Z</time>
      </trkpt>
      <trkpt lat="47.20757" lon="6.01198">
        <ele>400.05</ele>
        <time>2018-09-29T13:23:22Z</time>
      </trkpt>
      <trkpt lat="47.20753" lon="6.01207">
        <ele>399.57</ele>
        <time>2018-09-29T13:23:23Z</time>
      </trkpt>
      <trkpt lat="47.20746" lon="6.01226">
        <ele>398.12</ele>
        <time>2018-09-29T13:23:25Z</time>
      </trkpt>
      <trkpt lat="47.20743" lon="6.01237">
        <ele>397.16</ele>
        <time>2018-09-29T13:23:26Z</time>
      </trkpt>
      <trkpt lat="47.20742" lon="6.01249">
        <ele>396.2</ele>
        <time>2018-09-29T13:23:27Z</time>
      </trkpt>
      <trkpt lat="47.20743" lon="6.01262">
        <ele>395.72</ele>
        <time>2018-09-29T13:23:28Z</time>
      </trkpt>
      <trkpt lat="47.20745" lon="6.01274">
        <ele>394.76</ele>
        <time>2018-09-29T13:23:29Z</time>
      </trkpt>
      <trkpt lat="47.20748" lon="6.01286">
        <ele>393.8</ele>
        <time>2018-09-29T13:23:30Z</time>
      </trkpt>
      <trkpt lat="47.20752" lon="6.01298">
        <ele>392.36</ele>
        <time>2018-09-29T13:23:31Z</time>
      </trkpt>
      <trkpt lat="47.20767" lon="6.01344">
        <ele>388.99</ele>
        <time>2018-09-29T13:23:35Z</time>
      </trkpt>
      <trkpt lat="47.20771" lon="6.01356">
        <ele>388.51</ele>
        <time>2018-09-29T13:23:36Z</time>
      </trkpt>
      <trkpt lat="47.20774" lon="6.01367">
        <ele>387.55</ele>
        <time>2018-09-29T13:23:37Z</time>
      </trkpt>
      <trkpt lat="47.20781" lon="6.01389">
        <ele>386.11</ele>
        <time>2018-09-29T13:23:39Z</time>
      </trkpt>
      <trkpt lat="47.20786" lon="6.01398">
        <ele>385.15</ele>
        <time>2018-09-29T13:23:40Z</time>
      </trkpt>
      <trkpt lat="47.20792" lon="6.01407">
        <ele>384.66</ele>
        <time>2018-09-29T13:23:41Z</time>
      </trkpt>
      <trkpt lat="47.20797" lon="6.01416">
        <ele>383.22</ele>
        <time>2018-09-29T13:23:42Z</time>
      </trkpt>
      <trkpt lat="47.20803" lon="6.01426">
        <ele>382.26</ele>
        <time>2018-09-29T13:23:43Z</time>
      </trkpt>
      <trkpt lat="47.20809" lon="6.01436">
        <ele>380.82</ele>
        <time>2018-09-29T13:23:44Z</time>
      </trkpt>
      <trkpt lat="47.20813" lon="6.01446">
        <ele>379.86</ele>
        <time>2018-09-29T13:23:45Z</time>
      </trkpt>
      <trkpt lat="47.20816" lon="6.01458">
        <ele>378.9</ele>
        <time>2018-09-29T13:23:46Z</time>
      </trkpt>
      <trkpt lat="47.20818" lon="6.01471">
        <ele>378.42</ele>
        <time>2018-09-29T13:23:47Z</time>
      </trkpt>
      <trkpt lat="47.20818" lon="6.01485">
        <ele>376.97</ele>
        <time>2018-09-29T13:23:48Z</time>
      </trkpt>
      <trkpt lat="47.20817" lon="6.01499">
        <ele>376.01</ele>
        <time>2018-09-29T13:23:49Z</time>
      </trkpt>
      <trkpt lat="47.20814" lon="6.01514">
        <ele>374.57</ele>
        <time>2018-09-29T13:23:50Z</time>
      </trkpt>
      <trkpt lat="47.20813" lon="6.01528">
        <ele>373.13</ele>
        <time>2018-09-29T13:23:51Z</time>
      </trkpt>
      <trkpt lat="47.20808" lon="6.01585">
        <ele>369.76</ele>
        <time>2018-09-29T13:23:55Z</time>
      </trkpt>
      <trkpt lat="47.20806" lon="6.01629">
        <ele>364.96</ele>
        <time>2018-09-29T13:23:58Z</time>
      </trkpt>
      <trkpt lat="47.20812" lon="6.01698">
        <ele>361.59</ele>
        <time>2018-09-29T13:24:03Z</time>
      </trkpt>
      <trkpt lat="47.20814" lon="6.01709">
        <ele>361.11</ele>
        <time>2018-09-29T13:24:04Z</time>
      </trkpt>
      <trkpt lat="47.20818" lon="6.0172">
        <ele>360.63</ele>
        <time>2018-09-29T13:24:05Z</time>
      </trkpt>
      <trkpt lat="47.20823" lon="6.01731">
        <ele>360.15</ele>
        <time>2018-09-29T13:24:06Z</time>
      </trkpt>
      <trkpt lat="47.20829" lon="6.01741">
        <ele>359.67</ele>
        <time>2018-09-29T13:24:07Z</time>
      </trkpt>
      <trkpt lat="47.20834" lon="6.01751">
        <ele>359.19</ele>
        <time>2018-09-29T13:24:08Z</time>
      </trkpt>
      <trkpt lat="47.20838" lon="6.01762">
        <ele>358.23</ele>
        <time>2018-09-29T13:24:09Z</time>
      </trkpt>
      <trkpt lat="47.2084" lon="6.01775">
        <ele>357.27</ele>
        <time>2018-09-29T13:24:10Z</time>
      </trkpt>
      <trkpt lat="47.2084" lon="6.01787">
        <ele>356.31</ele>
        <time>2018-09-29T13:24:11Z</time>
      </trkpt>
      <trkpt lat="47.20839" lon="6.01799">
        <ele>355.83</ele>
        <time>2018-09-29T13:24:12Z</time>
      </trkpt>
      <trkpt lat="47.20837" lon="6.0181">
        <ele>354.86</ele>
        <time>2018-09-29T13:24:13Z</time>
      </trkpt>
      <trkpt lat="47.20834" lon="6.01822">
        <ele>353.9</ele>
        <time>2018-09-29T13:24:14Z</time>
      </trkpt>
      <trkpt lat="47.20832" lon="6.01834">
        <ele>352.94</ele>
        <time>2018-09-29T13:24:15Z</time>
      </trkpt>
      <trkpt lat="47.20831" lon="6.01847">
        <ele>351.98</ele>
        <time>2018-09-29T13:24:16Z</time>
      </trkpt>
      <trkpt lat="47.20823" lon="6.0188">
        <ele>350.06</ele>
        <time>2018-09-29T13:24:19Z</time>
      </trkpt>
      <trkpt lat="47.20819" lon="6.01888">
        <ele>350.06</ele>
        <time>2018-09-29T13:24:20Z</time>
      </trkpt>
      <trkpt lat="47.20814" lon="6.01892">
        <ele>349.58</ele>
        <time>2018-09-29T13:24:21Z</time>
      </trkpt>
      <trkpt lat="47.2081" lon="6.01893">
        <ele>349.1</ele>
        <time>2018-09-29T13:24:22Z</time>
      </trkpt>
      <trkpt lat="47.20805" lon="6.0189">
        <ele>348.62</ele>
        <time>2018-09-29T13:24:23Z</time>
      </trkpt>
      <trkpt lat="47.20802" lon="6.01884">
        <ele>348.62</ele>
        <time>2018-09-29T13:24:24Z</time>
      </trkpt>
      <trkpt lat="47.20801" lon="6.01876">
        <ele>348.13</ele>
        <time>2018-09-29T13:24:25Z</time>
      </trkpt>
      <trkpt lat="47.208" lon="6.01867">
        <ele>347.65</ele>
        <time>2018-09-29T13:24:26Z</time>
      </trkpt>
      <trkpt lat="47.20796" lon="6.01838">
        <ele>345.25</ele>
        <time>2018-09-29T13:24:29Z</time>
      </trkpt>
      <trkpt lat="47.20793" lon="6.01828">
        <ele>345.25</ele>
        <time>2018-09-29T13:24:30Z</time>
      </trkpt>
      <trkpt lat="47.20776" lon="6.01791">
        <ele>341.89</ele>
        <time>2018-09-29T13:24:34Z</time>
      </trkpt>
      <trkpt lat="47.20771" lon="6.01781">
        <ele>341.41</ele>
        <time>2018-09-29T13:24:35Z</time>
      </trkpt>
      <trkpt lat="47.20752" lon="6.01739">
        <ele>337.56</ele>
        <time>2018-09-29T13:24:39Z</time>
      </trkpt>
      <trkpt lat="47.20733" lon="6.01691">
        <ele>334.2</ele>
        <time>2018-09-29T13:24:43Z</time>
      </trkpt>
      <trkpt lat="47.20721" lon="6.01651">
        <ele>330.83</ele>
        <time>2018-09-29T13:24:46Z</time>
      </trkpt>
      <trkpt lat="47.2071" lon="6.01612">
        <ele>326.5</ele>
        <time>2018-09-29T13:24:49Z</time>
      </trkpt>
      <trkpt lat="47.20705" lon="6.016">
        <ele>325.54</ele>
        <time>2018-09-29T13:24:50Z</time>
      </trkpt>
      <trkpt lat="47.20699" lon="6.01587">
        <ele>325.06</ele>
        <time>2018-09-29T13:24:51Z</time>
      </trkpt>
      <trkpt lat="47.20673" lon="6.01541">
        <ele>321.22</ele>
        <time>2018-09-29T13:24:55Z</time>
      </trkpt>
      <trkpt lat="47.20658" lon="6.0152">
        <ele>319.78</ele>
        <time>2018-09-29T13:24:57Z</time>
      </trkpt>
      <trkpt lat="47.2065" lon="6.01511">
        <ele>318.33</ele>
        <time>2018-09-29T13:24:58Z</time>
      </trkpt>
      <trkpt lat="47.20641" lon="6.01504">
        <ele>317.37</ele>
        <time>2018-09-29T13:24:59Z</time>
      </trkpt>
      <trkpt lat="47.20632" lon="6.01498">
        <ele>316.89</ele>
        <time>2018-09-29T13:25:00Z</time>
      </trkpt>
      <trkpt lat="47.20623" lon="6.01493">
        <ele>315.93</ele>
        <time>2018-09-29T13:25:01Z</time>
      </trkpt>
      <trkpt lat="47.20617" lon="6.01486">
        <ele>315.45</ele>
        <time>2018-09-29T13:25:02Z</time>
      </trkpt>
      <trkpt lat="47.20612" lon="6.01477">
        <ele>314.49</ele>
        <time>2018-09-29T13:25:03Z</time>
      </trkpt>
      <trkpt lat="47.20608" lon="6.01466">
        <ele>313.53</ele>
        <time>2018-09-29T13:25:04Z</time>
      </trkpt>
      <trkpt lat="47.20604" lon="6.01455">
        <ele>313.05</ele>
        <time>2018-09-29T13:25:05Z</time>
      </trkpt>
      <trkpt lat="47.20601" lon="6.01444">
        <ele>313.05</ele>
        <time>2018-09-29T13:25:06Z</time>
      </trkpt>
      <trkpt lat="47.20589" lon="6.01414">
        <ele>312.57</ele>
        <time>2018-09-29T13:25:09Z</time>
      </trkpt>
      <trkpt lat="47.20572" lon="6.01379">
        <ele>312.57</ele>
        <time>2018-09-29T13:25:13Z</time>
      </trkpt>
      <trkpt lat="47.20545" lon="6.01307">
        <ele>312.09</ele>
        <time>2018-09-29T13:25:22Z</time>
      </trkpt>
      <trkpt lat="47.20543" lon="6.013">
        <ele>312.57</ele>
        <time>2018-09-29T13:25:23Z</time>
      </trkpt>
      <trkpt lat="47.20542" lon="6.01293">
        <ele>312.57</ele>
        <time>2018-09-29T13:25:24Z</time>
      </trkpt>
      <trkpt lat="47.20542" lon="6.01285">
        <ele>312.57</ele>
        <time>2018-09-29T13:25:25Z</time>
      </trkpt>
      <trkpt lat="47.20543" lon="6.01278">
        <ele>312.57</ele>
        <time>2018-09-29T13:25:26Z</time>
      </trkpt>
      <trkpt lat="47.20543" lon="6.01271">
        <ele>312.09</ele>
        <time>2018-09-29T13:25:27Z</time>
      </trkpt>
      <trkpt lat="47.20544" lon="6.01264">
        <ele>312.09</ele>
        <time>2018-09-29T13:25:28Z</time>
      </trkpt>
      <trkpt lat="47.20543" lon="6.01257">
        <ele>312.09</ele>
        <time>2018-09-29T13:25:29Z</time>
      </trkpt>
      <trkpt lat="47.2054" lon="6.01252">
        <ele>312.09</ele>
        <time>2018-09-29T13:25:30Z</time>
      </trkpt>
      <trkpt lat="47.20536" lon="6.01248">
        <ele>312.09</ele>
        <time>2018-09-29T13:25:31Z</time>
      </trkpt>
      <trkpt lat="47.20532" lon="6.01245">
        <ele>311.6</ele>
        <time>2018-09-29T13:25:32Z</time>
      </trkpt>
      <trkpt lat="47.20517" lon="6.01229">
        <ele>311.6</ele>
        <time>2018-09-29T13:25:36Z</time>
      </trkpt>
      <trkpt lat="47.20514" lon="6.01224">
        <ele>311.6</ele>
        <time>2018-09-29T13:25:37Z</time>
      </trkpt>
      <trkpt lat="47.20512" lon="6.01218">
        <ele>311.6</ele>
        <time>2018-09-29T13:25:38Z</time>
      </trkpt>
      <trkpt lat="47.20502" lon="6.01174">
        <ele>310.64</ele>
        <time>2018-09-29T13:25:48Z</time>
      </trkpt>
      <trkpt lat="47.205" lon="6.01151">
        <ele>310.16</ele>
        <time>2018-09-29T13:25:58Z</time>
      </trkpt>
      <trkpt lat="47.20496" lon="6.01134">
        <ele>309.68</ele>
        <time>2018-09-29T13:26:06Z</time>
      </trkpt>
      <trkpt lat="47.20494" lon="6.01125">
        <ele>309.68</ele>
        <time>2018-09-29T13:26:18Z</time>
      </trkpt>
      <trkpt lat="47.20492" lon="6.01117">
        <ele>310.16</ele>
        <time>2018-09-29T13:26:30Z</time>
      </trkpt>
      <trkpt lat="47.20487" lon="6.0111">
        <ele>311.6</ele>
        <time>2018-09-29T13:26:38Z</time>
      </trkpt>
      <trkpt lat="47.20483" lon="6.01103">
        <ele>312.57</ele>
        <time>2018-09-29T13:26:44Z</time>
      </trkpt>
      <trkpt lat="47.20482" lon="6.01101">
        <ele>313.05</ele>
        <time>2018-09-29T13:26:45Z</time>
      </trkpt>
      <trkpt lat="47.20478" lon="6.01095">
        <ele>314.97</ele>
        <time>2018-09-29T13:26:56Z</time>
      </trkpt>
      <trkpt lat="47.20471" lon="6.01086">
        <ele>316.41</ele>
        <time>2018-09-29T13:27:06Z</time>
      </trkpt>
      <trkpt lat="47.20463" lon="6.01073">
        <ele>318.81</ele>
        <time>2018-09-29T13:27:19Z</time>
      </trkpt>
      <trkpt lat="47.20455" lon="6.01065">
        <ele>321.22</ele>
        <time>2018-09-29T13:27:32Z</time>
      </trkpt>
      <trkpt lat="47.20447" lon="6.01053">
        <ele>323.62</ele>
        <time>2018-09-29T13:27:45Z</time>
      </trkpt>
      <trkpt lat="47.20442" lon="6.01044">
        <ele>326.5</ele>
        <time>2018-09-29T13:27:58Z</time>
      </trkpt>
      <trkpt lat="47.20439" lon="6.01036">
        <ele>328.91</ele>
        <time>2018-09-29T13:28:10Z</time>
      </trkpt>
      <trkpt lat="47.20434" lon="6.01021">
        <ele>331.31</ele>
        <time>2018-09-29T13:28:22Z</time>
      </trkpt>
      <trkpt lat="47.20432" lon="6.01015">
        <ele>333.71</ele>
        <time>2018-09-29T13:28:34Z</time>
      </trkpt>
      <trkpt lat="47.20426" lon="6.01">
        <ele>335.64</ele>
        <time>2018-09-29T13:28:46Z</time>
      </trkpt>
      <trkpt lat="47.20426" lon="6.00998">
        <ele>335.64</ele>
        <time>2018-09-29T13:28:47Z</time>
      </trkpt>
      <trkpt lat="47.20421" lon="6.00978">
        <ele>338.04</ele>
        <time>2018-09-29T13:29:02Z</time>
      </trkpt>
      <trkpt lat="47.20417" lon="6.00966">
        <ele>339</ele>
        <time>2018-09-29T13:29:14Z</time>
      </trkpt>
      <trkpt lat="47.20399" lon="6.00934">
        <ele>337.56</ele>
        <time>2018-09-29T13:29:26Z</time>
      </trkpt>
      <trkpt lat="47.20374" lon="6.00903">
        <ele>336.6</ele>
        <time>2018-09-29T13:29:35Z</time>
      </trkpt>
      <trkpt lat="47.20361" lon="6.00894">
        <ele>337.08</ele>
        <time>2018-09-29T13:29:40Z</time>
      </trkpt>
      <trkpt lat="47.20351" lon="6.00897">
        <ele>337.56</ele>
        <time>2018-09-29T13:29:44Z</time>
      </trkpt>
      <trkpt lat="47.20349" lon="6.00899">
        <ele>337.56</ele>
        <time>2018-09-29T13:29:45Z</time>
      </trkpt>
      <trkpt lat="47.20347" lon="6.00899">
        <ele>337.56</ele>
        <time>2018-09-29T13:29:46Z</time>
      </trkpt>
      <trkpt lat="47.20345" lon="6.00901">
        <ele>337.56</ele>
        <time>2018-09-29T13:29:47Z</time>
      </trkpt>
      <trkpt lat="47.20344" lon="6.00902">
        <ele>338.04</ele>
        <time>2018-09-29T13:29:48Z</time>
      </trkpt>
      <trkpt lat="47.20327" lon="6.00916">
        <ele>340.44</ele>
        <time>2018-09-29T13:29:59Z</time>
      </trkpt>
      <trkpt lat="47.20323" lon="6.00922">
        <ele>341.41</ele>
        <time>2018-09-29T13:30:03Z</time>
      </trkpt>
      <trkpt lat="47.20322" lon="6.00924">
        <ele>341.41</ele>
        <time>2018-09-29T13:30:04Z</time>
      </trkpt>
      <trkpt lat="47.20321" lon="6.00925">
        <ele>341.89</ele>
        <time>2018-09-29T13:30:05Z</time>
      </trkpt>
      <trkpt lat="47.2032" lon="6.00926">
        <ele>341.89</ele>
        <time>2018-09-29T13:30:06Z</time>
      </trkpt>
      <trkpt lat="47.20319" lon="6.00927">
        <ele>342.37</ele>
        <time>2018-09-29T13:30:07Z</time>
      </trkpt>
      <trkpt lat="47.20312" lon="6.00939">
        <ele>343.33</ele>
        <time>2018-09-29T13:30:14Z</time>
      </trkpt>
      <trkpt lat="47.2031" lon="6.00941">
        <ele>344.29</ele>
        <time>2018-09-29T13:30:16Z</time>
      </trkpt>
      <trkpt lat="47.20304" lon="6.0095">
        <ele>345.73</ele>
        <time>2018-09-29T13:30:22Z</time>
      </trkpt>
      <trkpt lat="47.20303" lon="6.00952">
        <ele>345.73</ele>
        <time>2018-09-29T13:30:23Z</time>
      </trkpt>
      <trkpt lat="47.20296" lon="6.00958">
        <ele>347.65</ele>
        <time>2018-09-29T13:30:29Z</time>
      </trkpt>
      <trkpt lat="47.20295" lon="6.00959">
        <ele>347.65</ele>
        <time>2018-09-29T13:30:30Z</time>
      </trkpt>
      <trkpt lat="47.2029" lon="6.00961">
        <ele>348.62</ele>
        <time>2018-09-29T13:30:34Z</time>
      </trkpt>
      <trkpt lat="47.20288" lon="6.00961">
        <ele>349.1</ele>
        <time>2018-09-29T13:30:35Z</time>
      </trkpt>
      <trkpt lat="47.20287" lon="6.00961">
        <ele>350.06</ele>
        <time>2018-09-29T13:30:36Z</time>
      </trkpt>
      <trkpt lat="47.20286" lon="6.00962">
        <ele>350.06</ele>
        <time>2018-09-29T13:30:37Z</time>
      </trkpt>
      <trkpt lat="47.20285" lon="6.00962">
        <ele>350.54</ele>
        <time>2018-09-29T13:30:38Z</time>
      </trkpt>
      <trkpt lat="47.20283" lon="6.00962">
        <ele>350.54</ele>
        <time>2018-09-29T13:30:39Z</time>
      </trkpt>
      <trkpt lat="47.20282" lon="6.00963">
        <ele>351.02</ele>
        <time>2018-09-29T13:30:40Z</time>
      </trkpt>
      <trkpt lat="47.20281" lon="6.00963">
        <ele>351.02</ele>
        <time>2018-09-29T13:30:41Z</time>
      </trkpt>
      <trkpt lat="47.20279" lon="6.00962">
        <ele>351.5</ele>
        <time>2018-09-29T13:30:42Z</time>
      </trkpt>
      <trkpt lat="47.20278" lon="6.00962">
        <ele>351.5</ele>
        <time>2018-09-29T13:30:43Z</time>
      </trkpt>
      <trkpt lat="47.20276" lon="6.00962">
        <ele>351.98</ele>
        <time>2018-09-29T13:30:44Z</time>
      </trkpt>
      <trkpt lat="47.20262" lon="6.00963">
        <ele>354.86</ele>
        <time>2018-09-29T13:30:56Z</time>
      </trkpt>
      <trkpt lat="47.20259" lon="6.00964">
        <ele>355.34</ele>
        <time>2018-09-29T13:30:59Z</time>
      </trkpt>
      <trkpt lat="47.20257" lon="6.00964">
        <ele>355.34</ele>
        <time>2018-09-29T13:31:00Z</time>
      </trkpt>
      <trkpt lat="47.20256" lon="6.00964">
        <ele>355.83</ele>
        <time>2018-09-29T13:31:01Z</time>
      </trkpt>
      <trkpt lat="47.20254" lon="6.00963">
        <ele>355.83</ele>
        <time>2018-09-29T13:31:02Z</time>
      </trkpt>
      <trkpt lat="47.20253" lon="6.00963">
        <ele>356.31</ele>
        <time>2018-09-29T13:31:03Z</time>
      </trkpt>
      <trkpt lat="47.20252" lon="6.00963">
        <ele>356.31</ele>
        <time>2018-09-29T13:31:04Z</time>
      </trkpt>
      <trkpt lat="47.2025" lon="6.00963">
        <ele>356.31</ele>
        <time>2018-09-29T13:31:05Z</time>
      </trkpt>
      <trkpt lat="47.20249" lon="6.00964">
        <ele>356.79</ele>
        <time>2018-09-29T13:31:06Z</time>
      </trkpt>
      <trkpt lat="47.20247" lon="6.00964">
        <ele>356.79</ele>
        <time>2018-09-29T13:31:07Z</time>
      </trkpt>
      <trkpt lat="47.20229" lon="6.00965">
        <ele>359.67</ele>
        <time>2018-09-29T13:31:21Z</time>
      </trkpt>
      <trkpt lat="47.20217" lon="6.00967">
        <ele>361.59</ele>
        <time>2018-09-29T13:31:31Z</time>
      </trkpt>
      <trkpt lat="47.20216" lon="6.00966">
        <ele>361.59</ele>
        <time>2018-09-29T13:31:32Z</time>
      </trkpt>
      <trkpt lat="47.20215" lon="6.00966">
        <ele>362.07</ele>
        <time>2018-09-29T13:31:33Z</time>
      </trkpt>
      <trkpt lat="47.20213" lon="6.00966">
        <ele>362.07</ele>
        <time>2018-09-29T13:31:34Z</time>
      </trkpt>
      <trkpt lat="47.20212" lon="6.00967">
        <ele>362.55</ele>
        <time>2018-09-29T13:31:35Z</time>
      </trkpt>
      <trkpt lat="47.20211" lon="6.00967">
        <ele>362.55</ele>
        <time>2018-09-29T13:31:36Z</time>
      </trkpt>
      <trkpt lat="47.2021" lon="6.00967">
        <ele>363.04</ele>
        <time>2018-09-29T13:31:37Z</time>
      </trkpt>
      <trkpt lat="47.20208" lon="6.00967">
        <ele>363.04</ele>
        <time>2018-09-29T13:31:38Z</time>
      </trkpt>
      <trkpt lat="47.20199" lon="6.00965">
        <ele>364.96</ele>
        <time>2018-09-29T13:31:45Z</time>
      </trkpt>
      <trkpt lat="47.20191" lon="6.00966">
        <ele>366.88</ele>
        <time>2018-09-29T13:31:51Z</time>
      </trkpt>
      <trkpt lat="47.2019" lon="6.00966">
        <ele>367.36</ele>
        <time>2018-09-29T13:31:52Z</time>
      </trkpt>
      <trkpt lat="47.20188" lon="6.00967">
        <ele>367.84</ele>
        <time>2018-09-29T13:31:53Z</time>
      </trkpt>
      <trkpt lat="47.20186" lon="6.00967">
        <ele>368.32</ele>
        <time>2018-09-29T13:31:55Z</time>
      </trkpt>
      <trkpt lat="47.20173" lon="6.00966">
        <ele>371.69</ele>
        <time>2018-09-29T13:32:06Z</time>
      </trkpt>
      <trkpt lat="47.20166" lon="6.00966">
        <ele>372.65</ele>
        <time>2018-09-29T13:32:11Z</time>
      </trkpt>
      <trkpt lat="47.20164" lon="6.00966">
        <ele>372.65</ele>
        <time>2018-09-29T13:32:12Z</time>
      </trkpt>
      <trkpt lat="47.20163" lon="6.00966">
        <ele>372.65</ele>
        <time>2018-09-29T13:32:13Z</time>
      </trkpt>
      <trkpt lat="47.20141" lon="6.00972">
        <ele>374.57</ele>
        <time>2018-09-29T13:32:25Z</time>
      </trkpt>
      <trkpt lat="47.20122" lon="6.00973">
        <ele>374.57</ele>
        <time>2018-09-29T13:32:33Z</time>
      </trkpt>
      <trkpt lat="47.2012" lon="6.0097">
        <ele>374.57</ele>
        <time>2018-09-29T13:32:34Z</time>
      </trkpt>
      <trkpt lat="47.20103" lon="6.00935">
        <ele>373.13</ele>
        <time>2018-09-29T13:32:41Z</time>
      </trkpt>
      <trkpt lat="47.20065" lon="6.00866">
        <ele>373.61</ele>
        <time>2018-09-29T13:32:57Z</time>
      </trkpt>
      <trkpt lat="47.20036" lon="6.00819">
        <ele>375.53</ele>
        <time>2018-09-29T13:33:12Z</time>
      </trkpt>
      <trkpt lat="47.19994" lon="6.0076">
        <ele>375.53</ele>
        <time>2018-09-29T13:33:28Z</time>
      </trkpt>
      <trkpt lat="47.19985" lon="6.00749">
        <ele>376.01</ele>
        <time>2018-09-29T13:33:31Z</time>
      </trkpt>
      <trkpt lat="47.1997" lon="6.00728">
        <ele>375.05</ele>
        <time>2018-09-29T13:33:36Z</time>
      </trkpt>
      <trkpt lat="47.19967" lon="6.00724">
        <ele>375.05</ele>
        <time>2018-09-29T13:33:37Z</time>
      </trkpt>
      <trkpt lat="47.19927" lon="6.0067">
        <ele>375.53</ele>
        <time>2018-09-29T13:33:51Z</time>
      </trkpt>
      <trkpt lat="47.19891" lon="6.00636">
        <ele>376.01</ele>
        <time>2018-09-29T13:34:03Z</time>
      </trkpt>
      <trkpt lat="47.19877" lon="6.00566">
        <ele>377.94</ele>
        <time>2018-09-29T13:34:16Z</time>
      </trkpt>
      <trkpt lat="47.19868" lon="6.0053">
        <ele>379.38</ele>
        <time>2018-09-29T13:34:23Z</time>
      </trkpt>
      <trkpt lat="47.19868" lon="6.00505">
        <ele>378.9</ele>
        <time>2018-09-29T13:34:27Z</time>
      </trkpt>
      <trkpt lat="47.19869" lon="6.00498">
        <ele>378.42</ele>
        <time>2018-09-29T13:34:28Z</time>
      </trkpt>
      <trkpt lat="47.1987" lon="6.00491">
        <ele>378.9</ele>
        <time>2018-09-29T13:34:29Z</time>
      </trkpt>
      <trkpt lat="47.19869" lon="6.00424">
        <ele>380.82</ele>
        <time>2018-09-29T13:34:41Z</time>
      </trkpt>
      <trkpt lat="47.19866" lon="6.00417">
        <ele>381.78</ele>
        <time>2018-09-29T13:34:43Z</time>
      </trkpt>
      <trkpt lat="47.19858" lon="6.00378">
        <ele>380.34</ele>
        <time>2018-09-29T13:34:50Z</time>
      </trkpt>
      <trkpt lat="47.19858" lon="6.0037">
        <ele>379.86</ele>
        <time>2018-09-29T13:34:51Z</time>
      </trkpt>
      <trkpt lat="47.1986" lon="6.00363">
        <ele>379.38</ele>
        <time>2018-09-29T13:34:52Z</time>
      </trkpt>
      <trkpt lat="47.19864" lon="6.00357">
        <ele>378.9</ele>
        <time>2018-09-29T13:34:53Z</time>
      </trkpt>
      <trkpt lat="47.19867" lon="6.00355">
        <ele>378.9</ele>
        <time>2018-09-29T13:34:54Z</time>
      </trkpt>
      <trkpt lat="47.19868" lon="6.00353">
        <ele>379.38</ele>
        <time>2018-09-29T13:34:55Z</time>
      </trkpt>
      <trkpt lat="47.19872" lon="6.00348">
        <ele>379.38</ele>
        <time>2018-09-29T13:35:02Z</time>
      </trkpt>
      <trkpt lat="47.19872" lon="6.00345">
        <ele>378.9</ele>
        <time>2018-09-29T13:35:03Z</time>
      </trkpt>
      <trkpt lat="47.19871" lon="6.00341">
        <ele>378.9</ele>
        <time>2018-09-29T13:35:04Z</time>
      </trkpt>
      <trkpt lat="47.19854" lon="6.00297">
        <ele>381.3</ele>
        <time>2018-09-29T13:35:17Z</time>
      </trkpt>
      <trkpt lat="47.19844" lon="6.00245">
        <ele>384.18</ele>
        <time>2018-09-29T13:35:30Z</time>
      </trkpt>
      <trkpt lat="47.19817" lon="6.00199">
        <ele>384.66</ele>
        <time>2018-09-29T13:35:43Z</time>
      </trkpt>
      <trkpt lat="47.19781" lon="6.00147">
        <ele>385.63</ele>
        <time>2018-09-29T13:35:58Z</time>
      </trkpt>
      <trkpt lat="47.19767" lon="6.00127">
        <ele>386.59</ele>
        <time>2018-09-29T13:36:06Z</time>
      </trkpt>
      <trkpt lat="47.19767" lon="6.00124">
        <ele>386.59</ele>
        <time>2018-09-29T13:36:07Z</time>
      </trkpt>
      <trkpt lat="47.19768" lon="6.00122">
        <ele>387.07</ele>
        <time>2018-09-29T13:36:08Z</time>
      </trkpt>
      <trkpt lat="47.19769" lon="6.0012">
        <ele>387.07</ele>
        <time>2018-09-29T13:36:09Z</time>
      </trkpt>
      <trkpt lat="47.19771" lon="6.00119">
        <ele>387.55</ele>
        <time>2018-09-29T13:36:10Z</time>
      </trkpt>
      <trkpt lat="47.19772" lon="6.00118">
        <ele>387.55</ele>
        <time>2018-09-29T13:36:11Z</time>
      </trkpt>
      <trkpt lat="47.19791" lon="6.00116">
        <ele>390.91</ele>
        <time>2018-09-29T13:36:23Z</time>
      </trkpt>
      <trkpt lat="47.19796" lon="6.00115">
        <ele>391.87</ele>
        <time>2018-09-29T13:36:27Z</time>
      </trkpt>
      <trkpt lat="47.19797" lon="6.00115">
        <ele>392.36</ele>
        <time>2018-09-29T13:36:28Z</time>
      </trkpt>
      <trkpt lat="47.19799" lon="6.00115">
        <ele>392.36</ele>
        <time>2018-09-29T13:36:29Z</time>
      </trkpt>
      <trkpt lat="47.198" lon="6.00116">
        <ele>392.84</ele>
        <time>2018-09-29T13:36:30Z</time>
      </trkpt>
      <trkpt lat="47.1981" lon="6.00119">
        <ele>395.72</ele>
        <time>2018-09-29T13:36:38Z</time>
      </trkpt>
      <trkpt lat="47.19817" lon="6.00124">
        <ele>396.2</ele>
        <time>2018-09-29T13:36:43Z</time>
      </trkpt>
      <trkpt lat="47.19818" lon="6.00124">
        <ele>396.2</ele>
        <time>2018-09-29T13:36:44Z</time>
      </trkpt>
      <trkpt lat="47.1982" lon="6.00125">
        <ele>396.68</ele>
        <time>2018-09-29T13:36:45Z</time>
      </trkpt>
      <trkpt lat="47.19821" lon="6.00126">
        <ele>396.68</ele>
        <time>2018-09-29T13:36:46Z</time>
      </trkpt>
      <trkpt lat="47.19823" lon="6.00127">
        <ele>397.16</ele>
        <time>2018-09-29T13:36:47Z</time>
      </trkpt>
      <trkpt lat="47.19824" lon="6.00128">
        <ele>397.64</ele>
        <time>2018-09-29T13:36:48Z</time>
      </trkpt>
      <trkpt lat="47.19825" lon="6.00129">
        <ele>397.64</ele>
        <time>2018-09-29T13:36:49Z</time>
      </trkpt>
      <trkpt lat="47.19839" lon="6.00137">
        <ele>401.01</ele>
        <time>2018-09-29T13:37:01Z</time>
      </trkpt>
      <trkpt lat="47.19849" lon="6.0014">
        <ele>403.41</ele>
        <time>2018-09-29T13:37:13Z</time>
      </trkpt>
      <trkpt lat="47.19854" lon="6.0014">
        <ele>405.33</ele>
        <time>2018-09-29T13:37:26Z</time>
      </trkpt>
      <trkpt lat="47.19862" lon="6.00132">
        <ele>408.22</ele>
        <time>2018-09-29T13:37:39Z</time>
      </trkpt>
      <trkpt lat="47.19871" lon="6.00127">
        <ele>410.62</ele>
        <time>2018-09-29T13:37:53Z</time>
      </trkpt>
      <trkpt lat="47.19875" lon="6.00128">
        <ele>411.1</ele>
        <time>2018-09-29T13:38:00Z</time>
      </trkpt>
      <trkpt lat="47.19876" lon="6.00128">
        <ele>411.1</ele>
        <time>2018-09-29T13:38:01Z</time>
      </trkpt>
      <trkpt lat="47.19878" lon="6.00128">
        <ele>411.1</ele>
        <time>2018-09-29T13:38:03Z</time>
      </trkpt>
      <trkpt lat="47.19879" lon="6.00126">
        <ele>411.1</ele>
        <time>2018-09-29T13:38:04Z</time>
      </trkpt>
      <trkpt lat="47.19879" lon="6.00125">
        <ele>411.58</ele>
        <time>2018-09-29T13:38:05Z</time>
      </trkpt>
      <trkpt lat="47.19878" lon="6.00123">
        <ele>411.58</ele>
        <time>2018-09-29T13:38:06Z</time>
      </trkpt>
      <trkpt lat="47.19878" lon="6.0012">
        <ele>411.58</ele>
        <time>2018-09-29T13:38:07Z</time>
      </trkpt>
      <trkpt lat="47.19878" lon="6.00118">
        <ele>411.58</ele>
        <time>2018-09-29T13:38:08Z</time>
      </trkpt>
      <trkpt lat="47.19877" lon="6.00116">
        <ele>411.58</ele>
        <time>2018-09-29T13:38:09Z</time>
      </trkpt>
      <trkpt lat="47.1986" lon="6.00085">
        <ele>413.02</ele>
        <time>2018-09-29T13:38:24Z</time>
      </trkpt>
      <trkpt lat="47.19839" lon="6.00043">
        <ele>413.5</ele>
        <time>2018-09-29T13:38:39Z</time>
      </trkpt>
      <trkpt lat="47.19836" lon="6.00035">
        <ele>414.47</ele>
        <time>2018-09-29T13:38:43Z</time>
      </trkpt>
      <trkpt lat="47.19835" lon="6.00033">
        <ele>414.47</ele>
        <time>2018-09-29T13:38:44Z</time>
      </trkpt>
      <trkpt lat="47.19834" lon="6.00031">
        <ele>414.95</ele>
        <time>2018-09-29T13:38:45Z</time>
      </trkpt>
      <trkpt lat="47.19833" lon="6.00029">
        <ele>414.95</ele>
        <time>2018-09-29T13:38:46Z</time>
      </trkpt>
      <trkpt lat="47.19833" lon="6.00026">
        <ele>414.95</ele>
        <time>2018-09-29T13:38:47Z</time>
      </trkpt>
      <trkpt lat="47.19832" lon="6.00024">
        <ele>414.95</ele>
        <time>2018-09-29T13:38:48Z</time>
      </trkpt>
      <trkpt lat="47.19832" lon="6.00023">
        <ele>414.95</ele>
        <time>2018-09-29T13:38:49Z</time>
      </trkpt>
      <trkpt lat="47.19831" lon="6.00021">
        <ele>414.95</ele>
        <time>2018-09-29T13:38:50Z</time>
      </trkpt>
      <trkpt lat="47.1983" lon="6.00019">
        <ele>414.95</ele>
        <time>2018-09-29T13:38:51Z</time>
      </trkpt>
      <trkpt lat="47.19829" lon="6.00016">
        <ele>415.43</ele>
        <time>2018-09-29T13:38:52Z</time>
      </trkpt>
      <trkpt lat="47.19828" lon="6.00014">
        <ele>415.91</ele>
        <time>2018-09-29T13:38:53Z</time>
      </trkpt>
      <trkpt lat="47.19827" lon="6.00012">
        <ele>416.39</ele>
        <time>2018-09-29T13:38:54Z</time>
      </trkpt>
      <trkpt lat="47.19827" lon="6.0001">
        <ele>417.35</ele>
        <time>2018-09-29T13:38:55Z</time>
      </trkpt>
      <trkpt lat="47.19826" lon="6.00009">
        <ele>417.35</ele>
        <time>2018-09-29T13:38:56Z</time>
      </trkpt>
      <trkpt lat="47.19825" lon="6.00007">
        <ele>417.83</ele>
        <time>2018-09-29T13:38:57Z</time>
      </trkpt>
      <trkpt lat="47.19822" lon="5.99995">
        <ele>420.71</ele>
        <time>2018-09-29T13:39:05Z</time>
      </trkpt>
      <trkpt lat="47.19822" lon="5.99991">
        <ele>421.19</ele>
        <time>2018-09-29T13:39:07Z</time>
      </trkpt>
      <trkpt lat="47.19815" lon="5.99975">
        <ele>424.56</ele>
        <time>2018-09-29T13:39:19Z</time>
      </trkpt>
      <trkpt lat="47.19814" lon="5.99972">
        <ele>425.04</ele>
        <time>2018-09-29T13:39:21Z</time>
      </trkpt>
      <trkpt lat="47.19811" lon="5.99968">
        <ele>426</ele>
        <time>2018-09-29T13:39:24Z</time>
      </trkpt>
      <trkpt lat="47.19804" lon="5.9995">
        <ele>428.4</ele>
        <time>2018-09-29T13:39:38Z</time>
      </trkpt>
      <trkpt lat="47.19798" lon="5.99934">
        <ele>431.77</ele>
        <time>2018-09-29T13:39:50Z</time>
      </trkpt>
      <trkpt lat="47.198" lon="5.99923">
        <ele>434.65</ele>
        <time>2018-09-29T13:40:04Z</time>
      </trkpt>
      <trkpt lat="47.19806" lon="5.99924">
        <ele>436.58</ele>
        <time>2018-09-29T13:40:16Z</time>
      </trkpt>
      <trkpt lat="47.19816" lon="5.99925">
        <ele>437.54</ele>
        <time>2018-09-29T13:40:27Z</time>
      </trkpt>
      <trkpt lat="47.19819" lon="5.99927">
        <ele>438.98</ele>
        <time>2018-09-29T13:40:38Z</time>
      </trkpt>
      <trkpt lat="47.19829" lon="5.99928">
        <ele>439.46</ele>
        <time>2018-09-29T13:40:49Z</time>
      </trkpt>
      <trkpt lat="47.19841" lon="5.99929">
        <ele>442.82</ele>
        <time>2018-09-29T13:41:02Z</time>
      </trkpt>
      <trkpt lat="47.19851" lon="5.99931">
        <ele>443.79</ele>
        <time>2018-09-29T13:41:12Z</time>
      </trkpt>
      <trkpt lat="47.19857" lon="5.99929">
        <ele>445.71</ele>
        <time>2018-09-29T13:41:23Z</time>
      </trkpt>
      <trkpt lat="47.19861" lon="5.99927">
        <ele>446.19</ele>
        <time>2018-09-29T13:41:32Z</time>
      </trkpt>
      <trkpt lat="47.19875" lon="5.99917">
        <ele>449.07</ele>
        <time>2018-09-29T13:41:45Z</time>
      </trkpt>
      <trkpt lat="47.19869" lon="5.99907">
        <ele>451.96</ele>
        <time>2018-09-29T13:41:57Z</time>
      </trkpt>
      <trkpt lat="47.19865" lon="5.99905">
        <ele>452.92</ele>
        <time>2018-09-29T13:42:01Z</time>
      </trkpt>
      <trkpt lat="47.19861" lon="5.999">
        <ele>453.4</ele>
        <time>2018-09-29T13:42:05Z</time>
      </trkpt>
      <trkpt lat="47.19849" lon="5.99888">
        <ele>454.84</ele>
        <time>2018-09-29T13:42:15Z</time>
      </trkpt>
      <trkpt lat="47.19848" lon="5.99887">
        <ele>454.84</ele>
        <time>2018-09-29T13:42:16Z</time>
      </trkpt>
      <trkpt lat="47.19841" lon="5.99881">
        <ele>454.84</ele>
        <time>2018-09-29T13:42:21Z</time>
      </trkpt>
      <trkpt lat="47.19828" lon="5.99863">
        <ele>457.24</ele>
        <time>2018-09-29T13:42:33Z</time>
      </trkpt>
      <trkpt lat="47.19826" lon="5.99856">
        <ele>459.65</ele>
        <time>2018-09-29T13:42:39Z</time>
      </trkpt>
      <trkpt lat="47.19824" lon="5.99853">
        <ele>460.61</ele>
        <time>2018-09-29T13:42:41Z</time>
      </trkpt>
      <trkpt lat="47.19817" lon="5.99845">
        <ele>462.05</ele>
        <time>2018-09-29T13:42:48Z</time>
      </trkpt>
      <trkpt lat="47.19813" lon="5.99841">
        <ele>463.01</ele>
        <time>2018-09-29T13:42:53Z</time>
      </trkpt>
      <trkpt lat="47.19807" lon="5.99828">
        <ele>464.93</ele>
        <time>2018-09-29T13:43:02Z</time>
      </trkpt>
      <trkpt lat="47.19802" lon="5.99816">
        <ele>467.82</ele>
        <time>2018-09-29T13:43:08Z</time>
      </trkpt>
      <trkpt lat="47.19792" lon="5.998">
        <ele>470.7</ele>
        <time>2018-09-29T13:43:21Z</time>
      </trkpt>
      <trkpt lat="47.19784" lon="5.99786">
        <ele>472.63</ele>
        <time>2018-09-29T13:43:32Z</time>
      </trkpt>
      <trkpt lat="47.19781" lon="5.99784">
        <ele>473.11</ele>
        <time>2018-09-29T13:43:35Z</time>
      </trkpt>
      <trkpt lat="47.19772" lon="5.99775">
        <ele>473.11</ele>
        <time>2018-09-29T13:43:41Z</time>
      </trkpt>
      <trkpt lat="47.19756" lon="5.99757">
        <ele>473.59</ele>
        <time>2018-09-29T13:43:51Z</time>
      </trkpt>
      <trkpt lat="47.19747" lon="5.99745">
        <ele>474.07</ele>
        <time>2018-09-29T13:43:57Z</time>
      </trkpt>
      <trkpt lat="47.19745" lon="5.99734">
        <ele>475.03</ele>
        <time>2018-09-29T13:44:01Z</time>
      </trkpt>
      <trkpt lat="47.1974" lon="5.99723">
        <ele>475.99</ele>
        <time>2018-09-29T13:44:06Z</time>
      </trkpt>
      <trkpt lat="47.19718" lon="5.99707">
        <ele>474.55</ele>
        <time>2018-09-29T13:44:14Z</time>
      </trkpt>
      <trkpt lat="47.19712" lon="5.99696">
        <ele>475.03</ele>
        <time>2018-09-29T13:44:18Z</time>
      </trkpt>
      <trkpt lat="47.19707" lon="5.99688">
        <ele>475.51</ele>
        <time>2018-09-29T13:44:21Z</time>
      </trkpt>
      <trkpt lat="47.19693" lon="5.99665">
        <ele>476.95</ele>
        <time>2018-09-29T13:44:31Z</time>
      </trkpt>
      <trkpt lat="47.19672" lon="5.99653">
        <ele>474.55</ele>
        <time>2018-09-29T13:44:37Z</time>
      </trkpt>
      <trkpt lat="47.19669" lon="5.99651">
        <ele>475.03</ele>
        <time>2018-09-29T13:44:38Z</time>
      </trkpt>
      <trkpt lat="47.19667" lon="5.99649">
        <ele>475.51</ele>
        <time>2018-09-29T13:44:39Z</time>
      </trkpt>
      <trkpt lat="47.19659" lon="5.99641">
        <ele>478.39</ele>
        <time>2018-09-29T13:44:46Z</time>
      </trkpt>
      <trkpt lat="47.19647" lon="5.9963">
        <ele>479.84</ele>
        <time>2018-09-29T13:44:54Z</time>
      </trkpt>
      <trkpt lat="47.19645" lon="5.99628">
        <ele>480.32</ele>
        <time>2018-09-29T13:44:55Z</time>
      </trkpt>
      <trkpt lat="47.19644" lon="5.99627">
        <ele>480.32</ele>
        <time>2018-09-29T13:44:56Z</time>
      </trkpt>
      <trkpt lat="47.19642" lon="5.99626">
        <ele>480.32</ele>
        <time>2018-09-29T13:44:57Z</time>
      </trkpt>
      <trkpt lat="47.1964" lon="5.99625">
        <ele>480.32</ele>
        <time>2018-09-29T13:44:58Z</time>
      </trkpt>
      <trkpt lat="47.19638" lon="5.99623">
        <ele>480.8</ele>
        <time>2018-09-29T13:44:59Z</time>
      </trkpt>
      <trkpt lat="47.19629" lon="5.99608">
        <ele>481.76</ele>
        <time>2018-09-29T13:45:08Z</time>
      </trkpt>
      <trkpt lat="47.19627" lon="5.99605">
        <ele>482.72</ele>
        <time>2018-09-29T13:45:10Z</time>
      </trkpt>
      <trkpt lat="47.19619" lon="5.99591">
        <ele>486.08</ele>
        <time>2018-09-29T13:45:20Z</time>
      </trkpt>
      <trkpt lat="47.19618" lon="5.99589">
        <ele>486.08</ele>
        <time>2018-09-29T13:45:21Z</time>
      </trkpt>
      <trkpt lat="47.19611" lon="5.99571">
        <ele>488.49</ele>
        <time>2018-09-29T13:45:32Z</time>
      </trkpt>
      <trkpt lat="47.1961" lon="5.99559">
        <ele>490.41</ele>
        <time>2018-09-29T13:45:39Z</time>
      </trkpt>
      <trkpt lat="47.19606" lon="5.99542">
        <ele>492.81</ele>
        <time>2018-09-29T13:45:49Z</time>
      </trkpt>
      <trkpt lat="47.19603" lon="5.99537">
        <ele>493.77</ele>
        <time>2018-09-29T13:45:53Z</time>
      </trkpt>
      <trkpt lat="47.19598" lon="5.99523">
        <ele>496.18</ele>
        <time>2018-09-29T13:46:03Z</time>
      </trkpt>
      <trkpt lat="47.19595" lon="5.99516">
        <ele>497.14</ele>
        <time>2018-09-29T13:46:08Z</time>
      </trkpt>
      <trkpt lat="47.19591" lon="5.99509">
        <ele>498.1</ele>
        <time>2018-09-29T13:46:13Z</time>
      </trkpt>
      <trkpt lat="47.19586" lon="5.99503">
        <ele>499.54</ele>
        <time>2018-09-29T13:46:21Z</time>
      </trkpt>
      <trkpt lat="47.19583" lon="5.99498">
        <ele>500.5</ele>
        <time>2018-09-29T13:46:24Z</time>
      </trkpt>
      <trkpt lat="47.19575" lon="5.99489">
        <ele>501.46</ele>
        <time>2018-09-29T13:46:32Z</time>
      </trkpt>
      <trkpt lat="47.19573" lon="5.99479">
        <ele>501.95</ele>
        <time>2018-09-29T13:46:37Z</time>
      </trkpt>
      <trkpt lat="47.19571" lon="5.99477">
        <ele>501.95</ele>
        <time>2018-09-29T13:46:38Z</time>
      </trkpt>
      <trkpt lat="47.1957" lon="5.99476">
        <ele>501.95</ele>
        <time>2018-09-29T13:46:39Z</time>
      </trkpt>
      <trkpt lat="47.19569" lon="5.99474">
        <ele>501.95</ele>
        <time>2018-09-29T13:46:40Z</time>
      </trkpt>
      <trkpt lat="47.19568" lon="5.99472">
        <ele>501.95</ele>
        <time>2018-09-29T13:46:41Z</time>
      </trkpt>
      <trkpt lat="47.19566" lon="5.9947">
        <ele>501.95</ele>
        <time>2018-09-29T13:46:43Z</time>
      </trkpt>
      <trkpt lat="47.19545" lon="5.99453">
        <ele>500.98</ele>
        <time>2018-09-29T13:46:55Z</time>
      </trkpt>
      <trkpt lat="47.19542" lon="5.9945">
        <ele>501.46</ele>
        <time>2018-09-29T13:46:56Z</time>
      </trkpt>
      <trkpt lat="47.1954" lon="5.99447">
        <ele>501.46</ele>
        <time>2018-09-29T13:46:57Z</time>
      </trkpt>
      <trkpt lat="47.19537" lon="5.99446">
        <ele>501.46</ele>
        <time>2018-09-29T13:46:58Z</time>
      </trkpt>
      <trkpt lat="47.19535" lon="5.99443">
        <ele>501.46</ele>
        <time>2018-09-29T13:46:59Z</time>
      </trkpt>
      <trkpt lat="47.19514" lon="5.99427">
        <ele>501.95</ele>
        <time>2018-09-29T13:47:08Z</time>
      </trkpt>
      <trkpt lat="47.19512" lon="5.99426">
        <ele>501.95</ele>
        <time>2018-09-29T13:47:09Z</time>
      </trkpt>
      <trkpt lat="47.19511" lon="5.99424">
        <ele>501.95</ele>
        <time>2018-09-29T13:47:10Z</time>
      </trkpt>
      <trkpt lat="47.19509" lon="5.99423">
        <ele>501.95</ele>
        <time>2018-09-29T13:47:11Z</time>
      </trkpt>
      <trkpt lat="47.19508" lon="5.99422">
        <ele>501.95</ele>
        <time>2018-09-29T13:47:12Z</time>
      </trkpt>
      <trkpt lat="47.19506" lon="5.99419">
        <ele>501.95</ele>
        <time>2018-09-29T13:47:23Z</time>
      </trkpt>
      <trkpt lat="47.19505" lon="5.99417">
        <ele>501.95</ele>
        <time>2018-09-29T13:47:27Z</time>
      </trkpt>
      <trkpt lat="47.19504" lon="5.99415">
        <ele>501.95</ele>
        <time>2018-09-29T13:47:28Z</time>
      </trkpt>
      <trkpt lat="47.19502" lon="5.99412">
        <ele>501.46</ele>
        <time>2018-09-29T13:47:29Z</time>
      </trkpt>
      <trkpt lat="47.195" lon="5.9941">
        <ele>500.98</ele>
        <time>2018-09-29T13:47:30Z</time>
      </trkpt>
      <trkpt lat="47.19498" lon="5.99406">
        <ele>500.98</ele>
        <time>2018-09-29T13:47:31Z</time>
      </trkpt>
      <trkpt lat="47.19496" lon="5.99402">
        <ele>500.5</ele>
        <time>2018-09-29T13:47:32Z</time>
      </trkpt>
      <trkpt lat="47.19493" lon="5.99398">
        <ele>500.02</ele>
        <time>2018-09-29T13:47:33Z</time>
      </trkpt>
      <trkpt lat="47.19479" lon="5.99376">
        <ele>496.66</ele>
        <time>2018-09-29T13:47:38Z</time>
      </trkpt>
      <trkpt lat="47.19474" lon="5.99364">
        <ele>494.74</ele>
        <time>2018-09-29T13:47:40Z</time>
      </trkpt>
      <trkpt lat="47.19471" lon="5.99358">
        <ele>493.77</ele>
        <time>2018-09-29T13:47:41Z</time>
      </trkpt>
      <trkpt lat="47.19468" lon="5.99353">
        <ele>493.77</ele>
        <time>2018-09-29T13:47:42Z</time>
      </trkpt>
      <trkpt lat="47.19466" lon="5.99348">
        <ele>493.29</ele>
        <time>2018-09-29T13:47:43Z</time>
      </trkpt>
      <trkpt lat="47.19464" lon="5.99334">
        <ele>492.81</ele>
        <time>2018-09-29T13:47:51Z</time>
      </trkpt>
      <trkpt lat="47.19455" lon="5.99309">
        <ele>490.41</ele>
        <time>2018-09-29T13:47:56Z</time>
      </trkpt>
      <trkpt lat="47.19453" lon="5.99303">
        <ele>489.93</ele>
        <time>2018-09-29T13:47:57Z</time>
      </trkpt>
      <trkpt lat="47.19446" lon="5.99269">
        <ele>485.6</ele>
        <time>2018-09-29T13:48:01Z</time>
      </trkpt>
      <trkpt lat="47.19431" lon="5.99207">
        <ele>482.24</ele>
        <time>2018-09-29T13:48:07Z</time>
      </trkpt>
      <trkpt lat="47.19422" lon="5.99169">
        <ele>478.39</ele>
        <time>2018-09-29T13:48:10Z</time>
      </trkpt>
      <trkpt lat="47.19408" lon="5.99115">
        <ele>475.03</ele>
        <time>2018-09-29T13:48:14Z</time>
      </trkpt>
      <trkpt lat="47.19394" lon="5.99057">
        <ele>471.66</ele>
        <time>2018-09-29T13:48:18Z</time>
      </trkpt>
      <trkpt lat="47.19391" lon="5.99043">
        <ele>471.18</ele>
        <time>2018-09-29T13:48:19Z</time>
      </trkpt>
      <trkpt lat="47.19383" lon="5.99006">
        <ele>472.63</ele>
        <time>2018-09-29T13:48:22Z</time>
      </trkpt>
      <trkpt lat="47.1938" lon="5.98998">
        <ele>473.59</ele>
        <time>2018-09-29T13:48:23Z</time>
      </trkpt>
      <trkpt lat="47.19377" lon="5.98993">
        <ele>475.03</ele>
        <time>2018-09-29T13:48:24Z</time>
      </trkpt>
      <trkpt lat="47.19373" lon="5.9899">
        <ele>475.51</ele>
        <time>2018-09-29T13:48:25Z</time>
      </trkpt>
      <trkpt lat="47.19369" lon="5.98988">
        <ele>475.99</ele>
        <time>2018-09-29T13:48:26Z</time>
      </trkpt>
      <trkpt lat="47.19368" lon="5.98987">
        <ele>476.47</ele>
        <time>2018-09-29T13:48:27Z</time>
      </trkpt>
      <trkpt lat="47.19368" lon="5.98987">
        <ele>476.47</ele>
        <time>2018-09-29T13:48:37Z</time>
      </trkpt>
      <trkpt lat="47.19367" lon="5.98985">
        <ele>476.47</ele>
        <time>2018-09-29T13:49:16Z</time>
      </trkpt>
      <trkpt lat="47.19368" lon="5.98987">
        <ele>476.47</ele>
        <time>2018-09-29T13:49:51Z</time>
      </trkpt>
      <trkpt lat="47.19367" lon="5.98987">
        <ele>477.43</ele>
        <time>2018-09-29T13:50:27Z</time>
      </trkpt>
      <trkpt lat="47.19367" lon="5.98988">
        <ele>476.47</ele>
        <time>2018-09-29T13:50:57Z</time>
      </trkpt>
      <trkpt lat="47.19368" lon="5.98987">
        <ele>476.47</ele>
        <time>2018-09-29T13:51:10Z</time>
      </trkpt>
      <trkpt lat="47.19368" lon="5.98985">
        <ele>476.95</ele>
        <time>2018-09-29T13:51:34Z</time>
      </trkpt>
      <trkpt lat="47.19365" lon="5.98982">
        <ele>476.47</ele>
        <time>2018-09-29T13:51:51Z</time>
      </trkpt>
      <trkpt lat="47.19364" lon="5.9898">
        <ele>476.47</ele>
        <time>2018-09-29T13:51:52Z</time>
      </trkpt>
      <trkpt lat="47.19363" lon="5.98978">
        <ele>476.47</ele>
        <time>2018-09-29T13:51:53Z</time>
      </trkpt>
      <trkpt lat="47.19339" lon="5.98946">
        <ele>474.55</ele>
        <time>2018-09-29T13:52:04Z</time>
      </trkpt>
      <trkpt lat="47.19327" lon="5.98933">
        <ele>474.55</ele>
        <time>2018-09-29T13:52:08Z</time>
      </trkpt>
      <trkpt lat="47.19323" lon="5.98929">
        <ele>474.07</ele>
        <time>2018-09-29T13:52:09Z</time>
      </trkpt>
      <trkpt lat="47.19319" lon="5.98926">
        <ele>473.59</ele>
        <time>2018-09-29T13:52:10Z</time>
      </trkpt>
      <trkpt lat="47.19315" lon="5.98922">
        <ele>472.63</ele>
        <time>2018-09-29T13:52:11Z</time>
      </trkpt>
      <trkpt lat="47.19311" lon="5.98919">
        <ele>472.63</ele>
        <time>2018-09-29T13:52:12Z</time>
      </trkpt>
      <trkpt lat="47.19306" lon="5.98916">
        <ele>472.63</ele>
        <time>2018-09-29T13:52:13Z</time>
      </trkpt>
      <trkpt lat="47.19301" lon="5.98913">
        <ele>472.14</ele>
        <time>2018-09-29T13:52:14Z</time>
      </trkpt>
      <trkpt lat="47.19277" lon="5.98895">
        <ele>470.7</ele>
        <time>2018-09-29T13:52:19Z</time>
      </trkpt>
      <trkpt lat="47.19267" lon="5.98886">
        <ele>469.74</ele>
        <time>2018-09-29T13:52:21Z</time>
      </trkpt>
      <trkpt lat="47.19262" lon="5.98881">
        <ele>468.78</ele>
        <time>2018-09-29T13:52:22Z</time>
      </trkpt>
      <trkpt lat="47.19249" lon="5.98875">
        <ele>467.34</ele>
        <time>2018-09-29T13:52:24Z</time>
      </trkpt>
      <trkpt lat="47.19244" lon="5.9887">
        <ele>467.34</ele>
        <time>2018-09-29T13:52:25Z</time>
      </trkpt>
      <trkpt lat="47.19201" lon="5.98834">
        <ele>463.97</ele>
        <time>2018-09-29T13:52:32Z</time>
      </trkpt>
      <trkpt lat="47.1919" lon="5.98824">
        <ele>463.49</ele>
        <time>2018-09-29T13:52:34Z</time>
      </trkpt>
      <trkpt lat="47.19173" lon="5.98804">
        <ele>460.61</ele>
        <time>2018-09-29T13:52:37Z</time>
      </trkpt>
      <trkpt lat="47.19163" lon="5.98786">
        <ele>458.21</ele>
        <time>2018-09-29T13:52:39Z</time>
      </trkpt>
      <trkpt lat="47.19158" lon="5.98775">
        <ele>457.24</ele>
        <time>2018-09-29T13:52:40Z</time>
      </trkpt>
      <trkpt lat="47.19153" lon="5.98764">
        <ele>455.8</ele>
        <time>2018-09-29T13:52:41Z</time>
      </trkpt>
      <trkpt lat="47.19148" lon="5.98754">
        <ele>454.84</ele>
        <time>2018-09-29T13:52:42Z</time>
      </trkpt>
      <trkpt lat="47.19142" lon="5.98745">
        <ele>454.36</ele>
        <time>2018-09-29T13:52:43Z</time>
      </trkpt>
      <trkpt lat="47.19122" lon="5.98703">
        <ele>452.44</ele>
        <time>2018-09-29T13:52:48Z</time>
      </trkpt>
      <trkpt lat="47.19119" lon="5.98696">
        <ele>451.48</ele>
        <time>2018-09-29T13:52:49Z</time>
      </trkpt>
      <trkpt lat="47.19117" lon="5.98689">
        <ele>451.96</ele>
        <time>2018-09-29T13:52:50Z</time>
      </trkpt>
      <trkpt lat="47.19115" lon="5.98682">
        <ele>451.96</ele>
        <time>2018-09-29T13:52:51Z</time>
      </trkpt>
      <trkpt lat="47.19112" lon="5.98674">
        <ele>451.48</ele>
        <time>2018-09-29T13:52:52Z</time>
      </trkpt>
      <trkpt lat="47.19099" lon="5.98636">
        <ele>447.63</ele>
        <time>2018-09-29T13:52:56Z</time>
      </trkpt>
      <trkpt lat="47.19086" lon="5.98586">
        <ele>443.31</ele>
        <time>2018-09-29T13:53:00Z</time>
      </trkpt>
      <trkpt lat="47.19078" lon="5.98559">
        <ele>441.86</ele>
        <time>2018-09-29T13:53:02Z</time>
      </trkpt>
      <trkpt lat="47.19064" lon="5.98523">
        <ele>438.98</ele>
        <time>2018-09-29T13:53:05Z</time>
      </trkpt>
      <trkpt lat="47.19062" lon="5.98513">
        <ele>438.5</ele>
        <time>2018-09-29T13:53:06Z</time>
      </trkpt>
      <trkpt lat="47.19062" lon="5.98503">
        <ele>438.02</ele>
        <time>2018-09-29T13:53:07Z</time>
      </trkpt>
      <trkpt lat="47.19065" lon="5.98494">
        <ele>437.06</ele>
        <time>2018-09-29T13:53:08Z</time>
      </trkpt>
      <trkpt lat="47.1907" lon="5.98488">
        <ele>436.1</ele>
        <time>2018-09-29T13:53:09Z</time>
      </trkpt>
      <trkpt lat="47.19076" lon="5.98487">
        <ele>435.61</ele>
        <time>2018-09-29T13:53:10Z</time>
      </trkpt>
      <trkpt lat="47.19083" lon="5.98488">
        <ele>435.13</ele>
        <time>2018-09-29T13:53:11Z</time>
      </trkpt>
      <trkpt lat="47.1909" lon="5.98492">
        <ele>434.65</ele>
        <time>2018-09-29T13:53:12Z</time>
      </trkpt>
      <trkpt lat="47.19113" lon="5.98502">
        <ele>431.29</ele>
        <time>2018-09-29T13:53:15Z</time>
      </trkpt>
      <trkpt lat="47.19156" lon="5.98523">
        <ele>427.44</ele>
        <time>2018-09-29T13:53:20Z</time>
      </trkpt>
      <trkpt lat="47.19185" lon="5.98535">
        <ele>424.08</ele>
        <time>2018-09-29T13:53:23Z</time>
      </trkpt>
      <trkpt lat="47.19206" lon="5.9854">
        <ele>422.64</ele>
        <time>2018-09-29T13:53:25Z</time>
      </trkpt>
      <trkpt lat="47.19217" lon="5.9854">
        <ele>422.16</ele>
        <time>2018-09-29T13:53:26Z</time>
      </trkpt>
      <trkpt lat="47.19228" lon="5.98537">
        <ele>421.19</ele>
        <time>2018-09-29T13:53:27Z</time>
      </trkpt>
      <trkpt lat="47.19238" lon="5.98532">
        <ele>418.79</ele>
        <time>2018-09-29T13:53:28Z</time>
      </trkpt>
      <trkpt lat="47.19249" lon="5.98526">
        <ele>417.35</ele>
        <time>2018-09-29T13:53:29Z</time>
      </trkpt>
      <trkpt lat="47.1927" lon="5.98514">
        <ele>413.98</ele>
        <time>2018-09-29T13:53:31Z</time>
      </trkpt>
      <trkpt lat="47.19313" lon="5.98487">
        <ele>410.14</ele>
        <time>2018-09-29T13:53:35Z</time>
      </trkpt>
      <trkpt lat="47.19359" lon="5.98451">
        <ele>407.74</ele>
        <time>2018-09-29T13:53:42Z</time>
      </trkpt>
      <trkpt lat="47.19361" lon="5.98446">
        <ele>407.26</ele>
        <time>2018-09-29T13:53:43Z</time>
      </trkpt>
      <trkpt lat="47.19361" lon="5.9844">
        <ele>406.77</ele>
        <time>2018-09-29T13:53:44Z</time>
      </trkpt>
      <trkpt lat="47.19359" lon="5.98434">
        <ele>407.26</ele>
        <time>2018-09-29T13:53:45Z</time>
      </trkpt>
      <trkpt lat="47.19357" lon="5.9843">
        <ele>407.26</ele>
        <time>2018-09-29T13:53:46Z</time>
      </trkpt>
      <trkpt lat="47.19355" lon="5.98425">
        <ele>407.74</ele>
        <time>2018-09-29T13:53:47Z</time>
      </trkpt>
      <trkpt lat="47.19346" lon="5.98404">
        <ele>407.26</ele>
        <time>2018-09-29T13:53:51Z</time>
      </trkpt>
      <trkpt lat="47.19343" lon="5.98399">
        <ele>406.77</ele>
        <time>2018-09-29T13:53:52Z</time>
      </trkpt>
      <trkpt lat="47.19336" lon="5.98383">
        <ele>406.77</ele>
        <time>2018-09-29T13:53:55Z</time>
      </trkpt>
      <trkpt lat="47.19325" lon="5.98356">
        <ele>407.26</ele>
        <time>2018-09-29T13:54:00Z</time>
      </trkpt>
      <trkpt lat="47.19325" lon="5.98352">
        <ele>407.26</ele>
        <time>2018-09-29T13:54:01Z</time>
      </trkpt>
      <trkpt lat="47.19327" lon="5.98348">
        <ele>407.26</ele>
        <time>2018-09-29T13:54:02Z</time>
      </trkpt>
      <trkpt lat="47.19329" lon="5.98345">
        <ele>406.77</ele>
        <time>2018-09-29T13:54:03Z</time>
      </trkpt>
      <trkpt lat="47.19333" lon="5.98341">
        <ele>406.29</ele>
        <time>2018-09-29T13:54:04Z</time>
      </trkpt>
      <trkpt lat="47.19336" lon="5.98338">
        <ele>405.81</ele>
        <time>2018-09-29T13:54:05Z</time>
      </trkpt>
      <trkpt lat="47.1934" lon="5.98334">
        <ele>405.33</ele>
        <time>2018-09-29T13:54:06Z</time>
      </trkpt>
      <trkpt lat="47.19345" lon="5.98329">
        <ele>404.85</ele>
        <time>2018-09-29T13:54:07Z</time>
      </trkpt>
      <trkpt lat="47.1935" lon="5.98325">
        <ele>404.37</ele>
        <time>2018-09-29T13:54:08Z</time>
      </trkpt>
      <trkpt lat="47.19372" lon="5.98311">
        <ele>401.01</ele>
        <time>2018-09-29T13:54:13Z</time>
      </trkpt>
      <trkpt lat="47.19385" lon="5.98302">
        <ele>398.6</ele>
        <time>2018-09-29T13:54:17Z</time>
      </trkpt>
      <trkpt lat="47.19394" lon="5.98296">
        <ele>396.68</ele>
        <time>2018-09-29T13:54:19Z</time>
      </trkpt>
      <trkpt lat="47.19408" lon="5.98284">
        <ele>395.72</ele>
        <time>2018-09-29T13:54:22Z</time>
      </trkpt>
      <trkpt lat="47.19413" lon="5.98279">
        <ele>395.24</ele>
        <time>2018-09-29T13:54:23Z</time>
      </trkpt>
      <trkpt lat="47.19421" lon="5.98267">
        <ele>395.24</ele>
        <time>2018-09-29T13:54:25Z</time>
      </trkpt>
      <trkpt lat="47.19425" lon="5.98262">
        <ele>394.76</ele>
        <time>2018-09-29T13:54:26Z</time>
      </trkpt>
      <trkpt lat="47.19429" lon="5.98257">
        <ele>394.76</ele>
        <time>2018-09-29T13:54:27Z</time>
      </trkpt>
      <trkpt lat="47.19433" lon="5.9825">
        <ele>393.8</ele>
        <time>2018-09-29T13:54:28Z</time>
      </trkpt>
      <trkpt lat="47.19438" lon="5.98243">
        <ele>392.84</ele>
        <time>2018-09-29T13:54:29Z</time>
      </trkpt>
      <trkpt lat="47.19465" lon="5.98201">
        <ele>389.47</ele>
        <time>2018-09-29T13:54:34Z</time>
      </trkpt>
      <trkpt lat="47.19486" lon="5.9816">
        <ele>386.11</ele>
        <time>2018-09-29T13:54:38Z</time>
      </trkpt>
      <trkpt lat="47.19491" lon="5.98151">
        <ele>386.11</ele>
        <time>2018-09-29T13:54:39Z</time>
      </trkpt>
      <trkpt lat="47.19497" lon="5.98142">
        <ele>386.11</ele>
        <time>2018-09-29T13:54:40Z</time>
      </trkpt>
      <trkpt lat="47.19508" lon="5.98127">
        <ele>387.07</ele>
        <time>2018-09-29T13:54:42Z</time>
      </trkpt>
      <trkpt lat="47.19522" lon="5.98098">
        <ele>388.03</ele>
        <time>2018-09-29T13:54:46Z</time>
      </trkpt>
      <trkpt lat="47.1953" lon="5.98087">
        <ele>388.03</ele>
        <time>2018-09-29T13:54:48Z</time>
      </trkpt>
      <trkpt lat="47.19534" lon="5.98082">
        <ele>388.03</ele>
        <time>2018-09-29T13:54:49Z</time>
      </trkpt>
      <trkpt lat="47.19538" lon="5.98077">
        <ele>388.03</ele>
        <time>2018-09-29T13:54:50Z</time>
      </trkpt>
      <trkpt lat="47.19541" lon="5.98072">
        <ele>388.51</ele>
        <time>2018-09-29T13:54:51Z</time>
      </trkpt>
      <trkpt lat="47.19545" lon="5.98067">
        <ele>388.03</ele>
        <time>2018-09-29T13:54:52Z</time>
      </trkpt>
      <trkpt lat="47.19548" lon="5.98061">
        <ele>388.03</ele>
        <time>2018-09-29T13:54:53Z</time>
      </trkpt>
      <trkpt lat="47.1955" lon="5.98053">
        <ele>388.03</ele>
        <time>2018-09-29T13:54:54Z</time>
      </trkpt>
      <trkpt lat="47.19553" lon="5.98046">
        <ele>388.03</ele>
        <time>2018-09-29T13:54:55Z</time>
      </trkpt>
      <trkpt lat="47.19555" lon="5.98039">
        <ele>388.03</ele>
        <time>2018-09-29T13:54:56Z</time>
      </trkpt>
      <trkpt lat="47.19556" lon="5.98031">
        <ele>388.03</ele>
        <time>2018-09-29T13:54:57Z</time>
      </trkpt>
      <trkpt lat="47.1956" lon="5.98018">
        <ele>387.55</ele>
        <time>2018-09-29T13:54:59Z</time>
      </trkpt>
      <trkpt lat="47.1957" lon="5.97999">
        <ele>384.66</ele>
        <time>2018-09-29T13:55:02Z</time>
      </trkpt>
      <trkpt lat="47.19573" lon="5.97991">
        <ele>383.7</ele>
        <time>2018-09-29T13:55:03Z</time>
      </trkpt>
      <trkpt lat="47.19574" lon="5.9798">
        <ele>382.74</ele>
        <time>2018-09-29T13:55:04Z</time>
      </trkpt>
      <trkpt lat="47.19574" lon="5.97968">
        <ele>380.82</ele>
        <time>2018-09-29T13:55:05Z</time>
      </trkpt>
      <trkpt lat="47.19573" lon="5.97956">
        <ele>379.86</ele>
        <time>2018-09-29T13:55:06Z</time>
      </trkpt>
      <trkpt lat="47.19572" lon="5.97942">
        <ele>376.97</ele>
        <time>2018-09-29T13:55:07Z</time>
      </trkpt>
      <trkpt lat="47.19569" lon="5.97913">
        <ele>375.05</ele>
        <time>2018-09-29T13:55:09Z</time>
      </trkpt>
      <trkpt lat="47.19567" lon="5.97901">
        <ele>375.05</ele>
        <time>2018-09-29T13:55:10Z</time>
      </trkpt>
      <trkpt lat="47.19563" lon="5.97891">
        <ele>374.57</ele>
        <time>2018-09-29T13:55:11Z</time>
      </trkpt>
      <trkpt lat="47.19559" lon="5.97883">
        <ele>374.09</ele>
        <time>2018-09-29T13:55:12Z</time>
      </trkpt>
      <trkpt lat="47.19554" lon="5.97876">
        <ele>373.61</ele>
        <time>2018-09-29T13:55:13Z</time>
      </trkpt>
      <trkpt lat="47.19549" lon="5.97869">
        <ele>372.65</ele>
        <time>2018-09-29T13:55:14Z</time>
      </trkpt>
      <trkpt lat="47.19545" lon="5.9786">
        <ele>371.69</ele>
        <time>2018-09-29T13:55:15Z</time>
      </trkpt>
      <trkpt lat="47.19542" lon="5.97849">
        <ele>370.24</ele>
        <time>2018-09-29T13:55:16Z</time>
      </trkpt>
      <trkpt lat="47.19541" lon="5.97837">
        <ele>369.28</ele>
        <time>2018-09-29T13:55:17Z</time>
      </trkpt>
      <trkpt lat="47.19539" lon="5.97824">
        <ele>368.32</ele>
        <time>2018-09-29T13:55:18Z</time>
      </trkpt>
      <trkpt lat="47.19532" lon="5.97748">
        <ele>364.96</ele>
        <time>2018-09-29T13:55:24Z</time>
      </trkpt>
      <trkpt lat="47.19527" lon="5.97713">
        <ele>364</ele>
        <time>2018-09-29T13:55:27Z</time>
      </trkpt>
      <trkpt lat="47.19522" lon="5.97688">
        <ele>362.55</ele>
        <time>2018-09-29T13:55:29Z</time>
      </trkpt>
      <trkpt lat="47.19515" lon="5.9765">
        <ele>360.63</ele>
        <time>2018-09-29T13:55:32Z</time>
      </trkpt>
      <trkpt lat="47.19511" lon="5.9764">
        <ele>360.63</ele>
        <time>2018-09-29T13:55:33Z</time>
      </trkpt>
      <trkpt lat="47.19507" lon="5.9763">
        <ele>360.63</ele>
        <time>2018-09-29T13:55:34Z</time>
      </trkpt>
      <trkpt lat="47.19488" lon="5.97583">
        <ele>359.67</ele>
        <time>2018-09-29T13:55:39Z</time>
      </trkpt>
      <trkpt lat="47.19485" lon="5.97574">
        <ele>359.19</ele>
        <time>2018-09-29T13:55:40Z</time>
      </trkpt>
      <trkpt lat="47.19482" lon="5.97565">
        <ele>359.19</ele>
        <time>2018-09-29T13:55:41Z</time>
      </trkpt>
      <trkpt lat="47.1948" lon="5.97555">
        <ele>358.71</ele>
        <time>2018-09-29T13:55:42Z</time>
      </trkpt>
      <trkpt lat="47.19479" lon="5.97545">
        <ele>358.23</ele>
        <time>2018-09-29T13:55:43Z</time>
      </trkpt>
      <trkpt lat="47.19481" lon="5.97536">
        <ele>357.75</ele>
        <time>2018-09-29T13:55:44Z</time>
      </trkpt>
      <trkpt lat="47.19484" lon="5.97527">
        <ele>357.75</ele>
        <time>2018-09-29T13:55:45Z</time>
      </trkpt>
      <trkpt lat="47.19487" lon="5.9752">
        <ele>358.23</ele>
        <time>2018-09-29T13:55:46Z</time>
      </trkpt>
      <trkpt lat="47.1949" lon="5.97512">
        <ele>358.23</ele>
        <time>2018-09-29T13:55:47Z</time>
      </trkpt>
      <trkpt lat="47.19493" lon="5.97505">
        <ele>358.23</ele>
        <time>2018-09-29T13:55:48Z</time>
      </trkpt>
      <trkpt lat="47.19496" lon="5.97499">
        <ele>358.23</ele>
        <time>2018-09-29T13:55:49Z</time>
      </trkpt>
      <trkpt lat="47.19504" lon="5.9748">
        <ele>357.75</ele>
        <time>2018-09-29T13:55:52Z</time>
      </trkpt>
      <trkpt lat="47.19506" lon="5.97472">
        <ele>357.27</ele>
        <time>2018-09-29T13:55:53Z</time>
      </trkpt>
      <trkpt lat="47.19507" lon="5.97464">
        <ele>356.79</ele>
        <time>2018-09-29T13:55:54Z</time>
      </trkpt>
      <trkpt lat="47.19508" lon="5.97456">
        <ele>356.31</ele>
        <time>2018-09-29T13:55:55Z</time>
      </trkpt>
      <trkpt lat="47.19508" lon="5.97447">
        <ele>355.34</ele>
        <time>2018-09-29T13:55:56Z</time>
      </trkpt>
      <trkpt lat="47.19507" lon="5.97437">
        <ele>354.86</ele>
        <time>2018-09-29T13:55:57Z</time>
      </trkpt>
      <trkpt lat="47.19503" lon="5.97419">
        <ele>353.9</ele>
        <time>2018-09-29T13:55:59Z</time>
      </trkpt>
      <trkpt lat="47.19497" lon="5.97394">
        <ele>352.46</ele>
        <time>2018-09-29T13:56:02Z</time>
      </trkpt>
      <trkpt lat="47.19476" lon="5.97318">
        <ele>350.54</ele>
        <time>2018-09-29T13:56:11Z</time>
      </trkpt>
      <trkpt lat="47.19474" lon="5.97311">
        <ele>350.06</ele>
        <time>2018-09-29T13:56:12Z</time>
      </trkpt>
      <trkpt lat="47.19463" lon="5.97284">
        <ele>348.62</ele>
        <time>2018-09-29T13:56:15Z</time>
      </trkpt>
      <trkpt lat="47.19454" lon="5.97257">
        <ele>349.1</ele>
        <time>2018-09-29T13:56:18Z</time>
      </trkpt>
      <trkpt lat="47.19453" lon="5.97249">
        <ele>349.1</ele>
        <time>2018-09-29T13:56:19Z</time>
      </trkpt>
      <trkpt lat="47.19453" lon="5.9724">
        <ele>349.1</ele>
        <time>2018-09-29T13:56:20Z</time>
      </trkpt>
      <trkpt lat="47.19454" lon="5.9723">
        <ele>348.62</ele>
        <time>2018-09-29T13:56:21Z</time>
      </trkpt>
      <trkpt lat="47.19455" lon="5.97222">
        <ele>348.62</ele>
        <time>2018-09-29T13:56:22Z</time>
      </trkpt>
      <trkpt lat="47.19457" lon="5.97214">
        <ele>347.65</ele>
        <time>2018-09-29T13:56:23Z</time>
      </trkpt>
      <trkpt lat="47.19461" lon="5.97196">
        <ele>346.69</ele>
        <time>2018-09-29T13:56:25Z</time>
      </trkpt>
      <trkpt lat="47.19461" lon="5.97187">
        <ele>346.69</ele>
        <time>2018-09-29T13:56:26Z</time>
      </trkpt>
      <trkpt lat="47.1946" lon="5.97178">
        <ele>347.17</ele>
        <time>2018-09-29T13:56:27Z</time>
      </trkpt>
      <trkpt lat="47.19458" lon="5.97171">
        <ele>347.65</ele>
        <time>2018-09-29T13:56:28Z</time>
      </trkpt>
      <trkpt lat="47.19456" lon="5.97163">
        <ele>347.65</ele>
        <time>2018-09-29T13:56:29Z</time>
      </trkpt>
      <trkpt lat="47.19455" lon="5.97155">
        <ele>347.65</ele>
        <time>2018-09-29T13:56:30Z</time>
      </trkpt>
      <trkpt lat="47.19452" lon="5.97148">
        <ele>348.13</ele>
        <time>2018-09-29T13:56:31Z</time>
      </trkpt>
      <trkpt lat="47.19451" lon="5.97141">
        <ele>348.13</ele>
        <time>2018-09-29T13:56:32Z</time>
      </trkpt>
      <trkpt lat="47.1945" lon="5.97134">
        <ele>348.13</ele>
        <time>2018-09-29T13:56:33Z</time>
      </trkpt>
      <trkpt lat="47.19449" lon="5.97127">
        <ele>347.65</ele>
        <time>2018-09-29T13:56:34Z</time>
      </trkpt>
      <trkpt lat="47.19449" lon="5.97118">
        <ele>347.65</ele>
        <time>2018-09-29T13:56:35Z</time>
      </trkpt>
      <trkpt lat="47.19449" lon="5.97111">
        <ele>347.65</ele>
        <time>2018-09-29T13:56:36Z</time>
      </trkpt>
      <trkpt lat="47.19449" lon="5.97103">
        <ele>347.17</ele>
        <time>2018-09-29T13:56:37Z</time>
      </trkpt>
      <trkpt lat="47.19452" lon="5.97088">
        <ele>346.21</ele>
        <time>2018-09-29T13:56:39Z</time>
      </trkpt>
      <trkpt lat="47.19459" lon="5.97066">
        <ele>345.25</ele>
        <time>2018-09-29T13:56:42Z</time>
      </trkpt>
      <trkpt lat="47.1947" lon="5.97027">
        <ele>343.81</ele>
        <time>2018-09-29T13:56:47Z</time>
      </trkpt>
      <trkpt lat="47.19479" lon="5.96998">
        <ele>342.85</ele>
        <time>2018-09-29T13:56:51Z</time>
      </trkpt>
      <trkpt lat="47.19482" lon="5.96991">
        <ele>342.37</ele>
        <time>2018-09-29T13:56:52Z</time>
      </trkpt>
      <trkpt lat="47.19485" lon="5.96981">
        <ele>341.89</ele>
        <time>2018-09-29T13:56:53Z</time>
      </trkpt>
      <trkpt lat="47.19491" lon="5.96962">
        <ele>339.96</ele>
        <time>2018-09-29T13:56:55Z</time>
      </trkpt>
      <trkpt lat="47.19501" lon="5.96929">
        <ele>336.6</ele>
        <time>2018-09-29T13:56:58Z</time>
      </trkpt>
      <trkpt lat="47.19514" lon="5.969">
        <ele>334.2</ele>
        <time>2018-09-29T13:57:01Z</time>
      </trkpt>
      <trkpt lat="47.19521" lon="5.96892">
        <ele>333.23</ele>
        <time>2018-09-29T13:57:02Z</time>
      </trkpt>
      <trkpt lat="47.19528" lon="5.96886">
        <ele>331.79</ele>
        <time>2018-09-29T13:57:03Z</time>
      </trkpt>
      <trkpt lat="47.19536" lon="5.96879">
        <ele>331.31</ele>
        <time>2018-09-29T13:57:04Z</time>
      </trkpt>
      <trkpt lat="47.19545" lon="5.96872">
        <ele>329.39</ele>
        <time>2018-09-29T13:57:05Z</time>
      </trkpt>
      <trkpt lat="47.19566" lon="5.96851">
        <ele>326.02</ele>
        <time>2018-09-29T13:57:08Z</time>
      </trkpt>
      <trkpt lat="47.19579" lon="5.96841">
        <ele>324.1</ele>
        <time>2018-09-29T13:57:10Z</time>
      </trkpt>
      <trkpt lat="47.1959" lon="5.96836">
        <ele>321.22</ele>
        <time>2018-09-29T13:57:12Z</time>
      </trkpt>
      <trkpt lat="47.19597" lon="5.96836">
        <ele>319.78</ele>
        <time>2018-09-29T13:57:13Z</time>
      </trkpt>
      <trkpt lat="47.19603" lon="5.96838">
        <ele>318.81</ele>
        <time>2018-09-29T13:57:14Z</time>
      </trkpt>
      <trkpt lat="47.19614" lon="5.96842">
        <ele>317.37</ele>
        <time>2018-09-29T13:57:16Z</time>
      </trkpt>
      <trkpt lat="47.19625" lon="5.96845">
        <ele>316.89</ele>
        <time>2018-09-29T13:57:19Z</time>
      </trkpt>
      <trkpt lat="47.19628" lon="5.96843">
        <ele>316.89</ele>
        <time>2018-09-29T13:57:20Z</time>
      </trkpt>
      <trkpt lat="47.19629" lon="5.9684">
        <ele>316.89</ele>
        <time>2018-09-29T13:57:21Z</time>
      </trkpt>
      <trkpt lat="47.1963" lon="5.96836">
        <ele>317.37</ele>
        <time>2018-09-29T13:57:22Z</time>
      </trkpt>
      <trkpt lat="47.19631" lon="5.96833">
        <ele>317.37</ele>
        <time>2018-09-29T13:57:23Z</time>
      </trkpt>
      <trkpt lat="47.19631" lon="5.96829">
        <ele>317.37</ele>
        <time>2018-09-29T13:57:24Z</time>
      </trkpt>
      <trkpt lat="47.19629" lon="5.96826">
        <ele>316.89</ele>
        <time>2018-09-29T13:57:25Z</time>
      </trkpt>
      <trkpt lat="47.19627" lon="5.96824">
        <ele>316.41</ele>
        <time>2018-09-29T13:57:26Z</time>
      </trkpt>
      <trkpt lat="47.19624" lon="5.9682">
        <ele>315.93</ele>
        <time>2018-09-29T13:57:27Z</time>
      </trkpt>
      <trkpt lat="47.1962" lon="5.96816">
        <ele>314.97</ele>
        <time>2018-09-29T13:57:28Z</time>
      </trkpt>
      <trkpt lat="47.19605" lon="5.96798">
        <ele>310.64</ele>
        <time>2018-09-29T13:57:31Z</time>
      </trkpt>
      <trkpt lat="47.19592" lon="5.96784">
        <ele>307.76</ele>
        <time>2018-09-29T13:57:33Z</time>
      </trkpt>
      <trkpt lat="47.19586" lon="5.96776">
        <ele>306.8</ele>
        <time>2018-09-29T13:57:34Z</time>
      </trkpt>
      <trkpt lat="47.19582" lon="5.96766">
        <ele>305.84</ele>
        <time>2018-09-29T13:57:35Z</time>
      </trkpt>
      <trkpt lat="47.1958" lon="5.96753">
        <ele>302.95</ele>
        <time>2018-09-29T13:57:36Z</time>
      </trkpt>
      <trkpt lat="47.19579" lon="5.96739">
        <ele>301.99</ele>
        <time>2018-09-29T13:57:37Z</time>
      </trkpt>
      <trkpt lat="47.19579" lon="5.96725">
        <ele>300.07</ele>
        <time>2018-09-29T13:57:38Z</time>
      </trkpt>
      <trkpt lat="47.19577" lon="5.96695">
        <ele>297.18</ele>
        <time>2018-09-29T13:57:40Z</time>
      </trkpt>
      <trkpt lat="47.19577" lon="5.96679">
        <ele>295.74</ele>
        <time>2018-09-29T13:57:41Z</time>
      </trkpt>
      <trkpt lat="47.19579" lon="5.96651">
        <ele>293.34</ele>
        <time>2018-09-29T13:57:43Z</time>
      </trkpt>
      <trkpt lat="47.19583" lon="5.96623">
        <ele>292.38</ele>
        <time>2018-09-29T13:57:46Z</time>
      </trkpt>
      <trkpt lat="47.19586" lon="5.96612">
        <ele>291.42</ele>
        <time>2018-09-29T13:57:48Z</time>
      </trkpt>
      <trkpt lat="47.19589" lon="5.96606">
        <ele>290.46</ele>
        <time>2018-09-29T13:57:49Z</time>
      </trkpt>
      <trkpt lat="47.19602" lon="5.96582">
        <ele>287.57</ele>
        <time>2018-09-29T13:57:52Z</time>
      </trkpt>
      <trkpt lat="47.19612" lon="5.96559">
        <ele>285.17</ele>
        <time>2018-09-29T13:57:54Z</time>
      </trkpt>
      <trkpt lat="47.19615" lon="5.96547">
        <ele>283.73</ele>
        <time>2018-09-29T13:57:55Z</time>
      </trkpt>
      <trkpt lat="47.19617" lon="5.96533">
        <ele>283.25</ele>
        <time>2018-09-29T13:57:56Z</time>
      </trkpt>
      <trkpt lat="47.19616" lon="5.96519">
        <ele>282.28</ele>
        <time>2018-09-29T13:57:57Z</time>
      </trkpt>
      <trkpt lat="47.19613" lon="5.96506">
        <ele>282.28</ele>
        <time>2018-09-29T13:57:58Z</time>
      </trkpt>
      <trkpt lat="47.19609" lon="5.96494">
        <ele>282.28</ele>
        <time>2018-09-29T13:57:59Z</time>
      </trkpt>
      <trkpt lat="47.19604" lon="5.96482">
        <ele>281.8</ele>
        <time>2018-09-29T13:58:00Z</time>
      </trkpt>
      <trkpt lat="47.19581" lon="5.96419">
        <ele>278.44</ele>
        <time>2018-09-29T13:58:05Z</time>
      </trkpt>
      <trkpt lat="47.19574" lon="5.96382">
        <ele>278.44</ele>
        <time>2018-09-29T13:58:08Z</time>
      </trkpt>
      <trkpt lat="47.19571" lon="5.96363">
        <ele>278.44</ele>
        <time>2018-09-29T13:58:11Z</time>
      </trkpt>
      <trkpt lat="47.19569" lon="5.96362">
        <ele>278.92</ele>
        <time>2018-09-29T13:58:12Z</time>
      </trkpt>
      <trkpt lat="47.19568" lon="5.96364">
        <ele>278.44</ele>
        <time>2018-09-29T13:58:13Z</time>
      </trkpt>
      <trkpt lat="47.19568" lon="5.96367">
        <ele>278.44</ele>
        <time>2018-09-29T13:58:14Z</time>
      </trkpt>
      <trkpt lat="47.19569" lon="5.96371">
        <ele>278.44</ele>
        <time>2018-09-29T13:58:15Z</time>
      </trkpt>
      <trkpt lat="47.1957" lon="5.96375">
        <ele>278.44</ele>
        <time>2018-09-29T13:58:16Z</time>
      </trkpt>
      <trkpt lat="47.19571" lon="5.9638">
        <ele>278.44</ele>
        <time>2018-09-29T13:58:17Z</time>
      </trkpt>
      <trkpt lat="47.19572" lon="5.96385">
        <ele>278.44</ele>
        <time>2018-09-29T13:58:18Z</time>
      </trkpt>
      <trkpt lat="47.19578" lon="5.96405">
        <ele>279.4</ele>
        <time>2018-09-29T13:58:22Z</time>
      </trkpt>
      <trkpt lat="47.19582" lon="5.96407">
        <ele>279.88</ele>
        <time>2018-09-29T13:58:23Z</time>
      </trkpt>
      <trkpt lat="47.19585" lon="5.96404">
        <ele>279.88</ele>
        <time>2018-09-29T13:58:24Z</time>
      </trkpt>
      <trkpt lat="47.19599" lon="5.96384">
        <ele>278.44</ele>
        <time>2018-09-29T13:58:28Z</time>
      </trkpt>
      <trkpt lat="47.19624" lon="5.96355">
        <ele>277.48</ele>
        <time>2018-09-29T13:58:34Z</time>
      </trkpt>
      <trkpt lat="47.19629" lon="5.96353">
        <ele>277.48</ele>
        <time>2018-09-29T13:58:35Z</time>
      </trkpt>
      <trkpt lat="47.19635" lon="5.96352">
        <ele>277.48</ele>
        <time>2018-09-29T13:58:36Z</time>
      </trkpt>
      <trkpt lat="47.1964" lon="5.96354">
        <ele>277.48</ele>
        <time>2018-09-29T13:58:37Z</time>
      </trkpt>
      <trkpt lat="47.19646" lon="5.96358">
        <ele>277.48</ele>
        <time>2018-09-29T13:58:38Z</time>
      </trkpt>
      <trkpt lat="47.19651" lon="5.96361">
        <ele>277.48</ele>
        <time>2018-09-29T13:58:39Z</time>
      </trkpt>
      <trkpt lat="47.19678" lon="5.96378">
        <ele>277.48</ele>
        <time>2018-09-29T13:58:44Z</time>
      </trkpt>
      <trkpt lat="47.19721" lon="5.96391">
        <ele>277</ele>
        <time>2018-09-29T13:58:53Z</time>
      </trkpt>
      <trkpt lat="47.19739" lon="5.96396">
        <ele>275.56</ele>
        <time>2018-09-29T13:58:56Z</time>
      </trkpt>
      <trkpt lat="47.19744" lon="5.96399">
        <ele>275.07</ele>
        <time>2018-09-29T13:58:57Z</time>
      </trkpt>
      <trkpt lat="47.19764" lon="5.96418">
        <ele>271.71</ele>
        <time>2018-09-29T13:59:01Z</time>
      </trkpt>
      <trkpt lat="47.19768" lon="5.96422">
        <ele>271.23</ele>
        <time>2018-09-29T13:59:02Z</time>
      </trkpt>
      <trkpt lat="47.19773" lon="5.96425">
        <ele>270.27</ele>
        <time>2018-09-29T13:59:03Z</time>
      </trkpt>
      <trkpt lat="47.19779" lon="5.96424">
        <ele>269.31</ele>
        <time>2018-09-29T13:59:04Z</time>
      </trkpt>
      <trkpt lat="47.19784" lon="5.96422">
        <ele>268.35</ele>
        <time>2018-09-29T13:59:05Z</time>
      </trkpt>
      <trkpt lat="47.1979" lon="5.96418">
        <ele>267.38</ele>
        <time>2018-09-29T13:59:06Z</time>
      </trkpt>
      <trkpt lat="47.19795" lon="5.96414">
        <ele>266.42</ele>
        <time>2018-09-29T13:59:07Z</time>
      </trkpt>
      <trkpt lat="47.198" lon="5.96408">
        <ele>264.98</ele>
        <time>2018-09-29T13:59:08Z</time>
      </trkpt>
      <trkpt lat="47.19806" lon="5.96402">
        <ele>264.02</ele>
        <time>2018-09-29T13:59:09Z</time>
      </trkpt>
      <trkpt lat="47.19821" lon="5.96379">
        <ele>260.65</ele>
        <time>2018-09-29T13:59:12Z</time>
      </trkpt>
      <trkpt lat="47.19824" lon="5.9637">
        <ele>260.17</ele>
        <time>2018-09-29T13:59:13Z</time>
      </trkpt>
      <trkpt lat="47.19825" lon="5.9636">
        <ele>259.21</ele>
        <time>2018-09-29T13:59:14Z</time>
      </trkpt>
      <trkpt lat="47.19822" lon="5.96329">
        <ele>255.85</ele>
        <time>2018-09-29T13:59:17Z</time>
      </trkpt>
      <trkpt lat="47.19819" lon="5.96305">
        <ele>253.44</ele>
        <time>2018-09-29T13:59:19Z</time>
      </trkpt>
      <trkpt lat="47.19817" lon="5.96293">
        <ele>252.96</ele>
        <time>2018-09-29T13:59:20Z</time>
      </trkpt>
      <trkpt lat="47.19811" lon="5.96261">
        <ele>251.04</ele>
        <time>2018-09-29T13:59:23Z</time>
      </trkpt>
      <trkpt lat="47.19811" lon="5.96251">
        <ele>250.56</ele>
        <time>2018-09-29T13:59:24Z</time>
      </trkpt>
      <trkpt lat="47.19813" lon="5.96241">
        <ele>250.08</ele>
        <time>2018-09-29T13:59:25Z</time>
      </trkpt>
      <trkpt lat="47.19816" lon="5.9623">
        <ele>249.6</ele>
        <time>2018-09-29T13:59:26Z</time>
      </trkpt>
      <trkpt lat="47.19819" lon="5.9622">
        <ele>248.64</ele>
        <time>2018-09-29T13:59:27Z</time>
      </trkpt>
      <trkpt lat="47.19823" lon="5.9621">
        <ele>247.2</ele>
        <time>2018-09-29T13:59:28Z</time>
      </trkpt>
      <trkpt lat="47.19826" lon="5.96202">
        <ele>246.23</ele>
        <time>2018-09-29T13:59:29Z</time>
      </trkpt>
      <trkpt lat="47.19828" lon="5.96196">
        <ele>245.75</ele>
        <time>2018-09-29T13:59:30Z</time>
      </trkpt>
      <trkpt lat="47.19831" lon="5.96193">
        <ele>245.75</ele>
        <time>2018-09-29T13:59:31Z</time>
      </trkpt>
      <trkpt lat="47.19835" lon="5.96194">
        <ele>244.31</ele>
        <time>2018-09-29T13:59:32Z</time>
      </trkpt>
      <trkpt lat="47.19839" lon="5.96198">
        <ele>243.35</ele>
        <time>2018-09-29T13:59:33Z</time>
      </trkpt>
      <trkpt lat="47.19843" lon="5.96204">
        <ele>242.87</ele>
        <time>2018-09-29T13:59:34Z</time>
      </trkpt>
      <trkpt lat="47.19857" lon="5.96223">
        <ele>242.39</ele>
        <time>2018-09-29T13:59:37Z</time>
      </trkpt>
      <trkpt lat="47.19863" lon="5.96228">
        <ele>241.91</ele>
        <time>2018-09-29T13:59:38Z</time>
      </trkpt>
      <trkpt lat="47.19869" lon="5.96232">
        <ele>241.91</ele>
        <time>2018-09-29T13:59:39Z</time>
      </trkpt>
      <trkpt lat="47.19875" lon="5.96234">
        <ele>241.91</ele>
        <time>2018-09-29T13:59:40Z</time>
      </trkpt>
      <trkpt lat="47.19881" lon="5.96234">
        <ele>241.43</ele>
        <time>2018-09-29T13:59:41Z</time>
      </trkpt>
      <trkpt lat="47.19897" lon="5.96233">
        <ele>243.83</ele>
        <time>2018-09-29T13:59:44Z</time>
      </trkpt>
      <trkpt lat="47.19901" lon="5.96235">
        <ele>243.83</ele>
        <time>2018-09-29T13:59:45Z</time>
      </trkpt>
      <trkpt lat="47.19903" lon="5.96239">
        <ele>244.31</ele>
        <time>2018-09-29T13:59:46Z</time>
      </trkpt>
      <trkpt lat="47.19904" lon="5.96246">
        <ele>243.83</ele>
        <time>2018-09-29T13:59:47Z</time>
      </trkpt>
      <trkpt lat="47.19903" lon="5.96253">
        <ele>243.83</ele>
        <time>2018-09-29T13:59:48Z</time>
      </trkpt>
      <trkpt lat="47.19903" lon="5.96261">
        <ele>243.35</ele>
        <time>2018-09-29T13:59:49Z</time>
      </trkpt>
      <trkpt lat="47.19903" lon="5.96269">
        <ele>243.83</ele>
        <time>2018-09-29T13:59:50Z</time>
      </trkpt>
      <trkpt lat="47.19902" lon="5.96294">
        <ele>243.35</ele>
        <time>2018-09-29T13:59:53Z</time>
      </trkpt>
      <trkpt lat="47.19901" lon="5.96347">
        <ele>242.39</ele>
        <time>2018-09-29T13:59:59Z</time>
      </trkpt>
      <trkpt lat="47.19905" lon="5.96478">
        <ele>242.87</ele>
        <time>2018-09-29T14:00:15Z</time>
      </trkpt>
      <trkpt lat="47.19908" lon="5.96527">
        <ele>243.35</ele>
        <time>2018-09-29T14:00:21Z</time>
      </trkpt>
      <trkpt lat="47.19908" lon="5.96535">
        <ele>243.83</ele>
        <time>2018-09-29T14:00:22Z</time>
      </trkpt>
      <trkpt lat="47.19908" lon="5.96543">
        <ele>243.83</ele>
        <time>2018-09-29T14:00:23Z</time>
      </trkpt>
      <trkpt lat="47.19908" lon="5.96551">
        <ele>243.35</ele>
        <time>2018-09-29T14:00:24Z</time>
      </trkpt>
      <trkpt lat="47.19907" lon="5.96559">
        <ele>243.83</ele>
        <time>2018-09-29T14:00:25Z</time>
      </trkpt>
      <trkpt lat="47.19907" lon="5.96568">
        <ele>243.35</ele>
        <time>2018-09-29T14:00:26Z</time>
      </trkpt>
      <trkpt lat="47.19908" lon="5.96576">
        <ele>243.35</ele>
        <time>2018-09-29T14:00:27Z</time>
      </trkpt>
      <trkpt lat="47.19908" lon="5.96585">
        <ele>243.35</ele>
        <time>2018-09-29T14:00:28Z</time>
      </trkpt>
      <trkpt lat="47.19908" lon="5.96593">
        <ele>243.35</ele>
        <time>2018-09-29T14:00:29Z</time>
      </trkpt>
      <trkpt lat="47.19907" lon="5.96602">
        <ele>243.83</ele>
        <time>2018-09-29T14:00:30Z</time>
      </trkpt>
      <trkpt lat="47.19907" lon="5.96611">
        <ele>243.83</ele>
        <time>2018-09-29T14:00:31Z</time>
      </trkpt>
      <trkpt lat="47.199" lon="5.96722">
        <ele>242.87</ele>
        <time>2018-09-29T14:00:43Z</time>
      </trkpt>
      <trkpt lat="47.19919" lon="5.96833">
        <ele>242.87</ele>
        <time>2018-09-29T14:00:56Z</time>
      </trkpt>
      <trkpt lat="47.19931" lon="5.96903">
        <ele>242.39</ele>
        <time>2018-09-29T14:01:05Z</time>
      </trkpt>
      <trkpt lat="47.1993" lon="5.97026">
        <ele>241.91</ele>
        <time>2018-09-29T14:01:21Z</time>
      </trkpt>
      <trkpt lat="47.19927" lon="5.97165">
        <ele>240.47</ele>
        <time>2018-09-29T14:01:38Z</time>
      </trkpt>
      <trkpt lat="47.19925" lon="5.97198">
        <ele>242.39</ele>
        <time>2018-09-29T14:01:42Z</time>
      </trkpt>
      <trkpt lat="47.19917" lon="5.9731">
        <ele>240.95</ele>
        <time>2018-09-29T14:01:56Z</time>
      </trkpt>
      <trkpt lat="47.19916" lon="5.97351">
        <ele>241.43</ele>
        <time>2018-09-29T14:02:01Z</time>
      </trkpt>
      <trkpt lat="47.19912" lon="5.97417">
        <ele>241.43</ele>
        <time>2018-09-29T14:02:09Z</time>
      </trkpt>
      <trkpt lat="47.19912" lon="5.97426">
        <ele>240.95</ele>
        <time>2018-09-29T14:02:10Z</time>
      </trkpt>
      <trkpt lat="47.19909" lon="5.97494">
        <ele>242.39</ele>
        <time>2018-09-29T14:02:18Z</time>
      </trkpt>
      <trkpt lat="47.19903" lon="5.97636">
        <ele>241.43</ele>
        <time>2018-09-29T14:02:35Z</time>
      </trkpt>
      <trkpt lat="47.19898" lon="5.97757">
        <ele>240.95</ele>
        <time>2018-09-29T14:02:50Z</time>
      </trkpt>
      <trkpt lat="47.19892" lon="5.9788">
        <ele>241.43</ele>
        <time>2018-09-29T14:03:05Z</time>
      </trkpt>
      <trkpt lat="47.19887" lon="5.97988">
        <ele>241.43</ele>
        <time>2018-09-29T14:03:18Z</time>
      </trkpt>
      <trkpt lat="47.19868" lon="5.98108">
        <ele>241.91</ele>
        <time>2018-09-29T14:03:33Z</time>
      </trkpt>
      <trkpt lat="47.19867" lon="5.98115">
        <ele>241.91</ele>
        <time>2018-09-29T14:03:34Z</time>
      </trkpt>
      <trkpt lat="47.19851" lon="5.98219">
        <ele>241.43</ele>
        <time>2018-09-29T14:03:48Z</time>
      </trkpt>
      <trkpt lat="47.19831" lon="5.98262">
        <ele>241.43</ele>
        <time>2018-09-29T14:03:55Z</time>
      </trkpt>
      <trkpt lat="47.19828" lon="5.98269">
        <ele>241.43</ele>
        <time>2018-09-29T14:03:56Z</time>
      </trkpt>
      <trkpt lat="47.19806" lon="5.98368">
        <ele>241.43</ele>
        <time>2018-09-29T14:04:09Z</time>
      </trkpt>
      <trkpt lat="47.19805" lon="5.98376">
        <ele>240.95</ele>
        <time>2018-09-29T14:04:10Z</time>
      </trkpt>
      <trkpt lat="47.19804" lon="5.98384">
        <ele>240.95</ele>
        <time>2018-09-29T14:04:11Z</time>
      </trkpt>
      <trkpt lat="47.19818" lon="5.985">
        <ele>240.47</ele>
        <time>2018-09-29T14:04:25Z</time>
      </trkpt>
      <trkpt lat="47.19824" lon="5.98522">
        <ele>241.91</ele>
        <time>2018-09-29T14:04:28Z</time>
      </trkpt>
      <trkpt lat="47.19854" lon="5.98607">
        <ele>241.43</ele>
        <time>2018-09-29T14:04:40Z</time>
      </trkpt>
      <trkpt lat="47.19856" lon="5.98613">
        <ele>241.43</ele>
        <time>2018-09-29T14:04:41Z</time>
      </trkpt>
      <trkpt lat="47.19904" lon="5.98735">
        <ele>240.95</ele>
        <time>2018-09-29T14:04:59Z</time>
      </trkpt>
      <trkpt lat="47.1995" lon="5.9885">
        <ele>240.47</ele>
        <time>2018-09-29T14:05:16Z</time>
      </trkpt>
      <trkpt lat="47.19981" lon="5.98942">
        <ele>241.43</ele>
        <time>2018-09-29T14:05:29Z</time>
      </trkpt>
      <trkpt lat="47.20028" lon="5.99055">
        <ele>241.91</ele>
        <time>2018-09-29T14:05:46Z</time>
      </trkpt>
      <trkpt lat="47.2003" lon="5.99062">
        <ele>241.91</ele>
        <time>2018-09-29T14:05:47Z</time>
      </trkpt>
      <trkpt lat="47.20031" lon="5.99069">
        <ele>241.91</ele>
        <time>2018-09-29T14:05:48Z</time>
      </trkpt>
      <trkpt lat="47.20031" lon="5.99077">
        <ele>241.91</ele>
        <time>2018-09-29T14:05:49Z</time>
      </trkpt>
      <trkpt lat="47.20031" lon="5.99084">
        <ele>241.91</ele>
        <time>2018-09-29T14:05:50Z</time>
      </trkpt>
      <trkpt lat="47.20031" lon="5.9912">
        <ele>242.39</ele>
        <time>2018-09-29T14:05:55Z</time>
      </trkpt>
      <trkpt lat="47.20033" lon="5.99126">
        <ele>242.39</ele>
        <time>2018-09-29T14:05:56Z</time>
      </trkpt>
      <trkpt lat="47.20037" lon="5.99138">
        <ele>242.87</ele>
        <time>2018-09-29T14:05:58Z</time>
      </trkpt>
      <trkpt lat="47.2006" lon="5.99192">
        <ele>244.31</ele>
        <time>2018-09-29T14:06:07Z</time>
      </trkpt>
      <trkpt lat="47.2009" lon="5.99243">
        <ele>243.35</ele>
        <time>2018-09-29T14:06:16Z</time>
      </trkpt>
      <trkpt lat="47.20094" lon="5.99248">
        <ele>243.35</ele>
        <time>2018-09-29T14:06:17Z</time>
      </trkpt>
      <trkpt lat="47.20159" lon="5.99323">
        <ele>242.39</ele>
        <time>2018-09-29T14:06:32Z</time>
      </trkpt>
      <trkpt lat="47.20169" lon="5.99332">
        <ele>242.39</ele>
        <time>2018-09-29T14:06:34Z</time>
      </trkpt>
      <trkpt lat="47.20241" lon="5.99394">
        <ele>242.39</ele>
        <time>2018-09-29T14:06:49Z</time>
      </trkpt>
      <trkpt lat="47.20339" lon="5.99443">
        <ele>241.43</ele>
        <time>2018-09-29T14:07:07Z</time>
      </trkpt>
      <trkpt lat="47.20345" lon="5.99445">
        <ele>241.43</ele>
        <time>2018-09-29T14:07:08Z</time>
      </trkpt>
      <trkpt lat="47.2035" lon="5.99446">
        <ele>241.43</ele>
        <time>2018-09-29T14:07:09Z</time>
      </trkpt>
      <trkpt lat="47.20356" lon="5.99448">
        <ele>241.43</ele>
        <time>2018-09-29T14:07:10Z</time>
      </trkpt>
      <trkpt lat="47.20361" lon="5.9945">
        <ele>241.43</ele>
        <time>2018-09-29T14:07:11Z</time>
      </trkpt>
      <trkpt lat="47.20367" lon="5.99452">
        <ele>241.91</ele>
        <time>2018-09-29T14:07:12Z</time>
      </trkpt>
      <trkpt lat="47.20447" lon="5.99485">
        <ele>241.43</ele>
        <time>2018-09-29T14:07:27Z</time>
      </trkpt>
      <trkpt lat="47.20529" lon="5.99523">
        <ele>241.43</ele>
        <time>2018-09-29T14:07:42Z</time>
      </trkpt>
      <trkpt lat="47.2062" lon="5.9956">
        <ele>241.43</ele>
        <time>2018-09-29T14:07:59Z</time>
      </trkpt>
      <trkpt lat="47.2066" lon="5.99582">
        <ele>241.91</ele>
        <time>2018-09-29T14:08:08Z</time>
      </trkpt>
      <trkpt lat="47.20663" lon="5.99579">
        <ele>242.39</ele>
        <time>2018-09-29T14:08:09Z</time>
      </trkpt>
      <trkpt lat="47.20663" lon="5.99574">
        <ele>242.87</ele>
        <time>2018-09-29T14:08:10Z</time>
      </trkpt>
      <trkpt lat="47.20664" lon="5.99568">
        <ele>243.35</ele>
        <time>2018-09-29T14:08:11Z</time>
      </trkpt>
      <trkpt lat="47.20666" lon="5.99562">
        <ele>242.87</ele>
        <time>2018-09-29T14:08:12Z</time>
      </trkpt>
      <trkpt lat="47.20668" lon="5.99555">
        <ele>242.87</ele>
        <time>2018-09-29T14:08:13Z</time>
      </trkpt>
      <trkpt lat="47.2067" lon="5.99548">
        <ele>242.87</ele>
        <time>2018-09-29T14:08:14Z</time>
      </trkpt>
      <trkpt lat="47.20671" lon="5.99541">
        <ele>242.87</ele>
        <time>2018-09-29T14:08:15Z</time>
      </trkpt>
      <trkpt lat="47.20673" lon="5.99526">
        <ele>242.39</ele>
        <time>2018-09-29T14:08:17Z</time>
      </trkpt>
      <trkpt lat="47.20674" lon="5.99519">
        <ele>242.39</ele>
        <time>2018-09-29T14:08:18Z</time>
      </trkpt>
      <trkpt lat="47.20677" lon="5.99514">
        <ele>241.91</ele>
        <time>2018-09-29T14:08:19Z</time>
      </trkpt>
      <trkpt lat="47.20681" lon="5.99511">
        <ele>241.91</ele>
        <time>2018-09-29T14:08:20Z</time>
      </trkpt>
      <trkpt lat="47.20686" lon="5.99512">
        <ele>241.43</ele>
        <time>2018-09-29T14:08:21Z</time>
      </trkpt>
      <trkpt lat="47.20691" lon="5.99515">
        <ele>241.43</ele>
        <time>2018-09-29T14:08:22Z</time>
      </trkpt>
      <trkpt lat="47.2078" lon="5.99553">
        <ele>241.91</ele>
        <time>2018-09-29T14:08:40Z</time>
      </trkpt>
      <trkpt lat="47.20836" lon="5.99582">
        <ele>242.39</ele>
        <time>2018-09-29T14:08:51Z</time>
      </trkpt>
      <trkpt lat="47.20889" lon="5.99605">
        <ele>241.43</ele>
        <time>2018-09-29T14:09:01Z</time>
      </trkpt>
      <trkpt lat="47.20941" lon="5.99653">
        <ele>241.91</ele>
        <time>2018-09-29T14:09:12Z</time>
      </trkpt>
      <trkpt lat="47.20976" lon="5.99693">
        <ele>241.91</ele>
        <time>2018-09-29T14:09:20Z</time>
      </trkpt>
      <trkpt lat="47.21069" lon="5.99787">
        <ele>242.87</ele>
        <time>2018-09-29T14:09:40Z</time>
      </trkpt>
      <trkpt lat="47.21107" lon="5.99824">
        <ele>241.43</ele>
        <time>2018-09-29T14:09:48Z</time>
      </trkpt>
      <trkpt lat="47.21111" lon="5.99829">
        <ele>241.43</ele>
        <time>2018-09-29T14:09:49Z</time>
      </trkpt>
      <trkpt lat="47.21196" lon="5.99911">
        <ele>242.39</ele>
        <time>2018-09-29T14:10:07Z</time>
      </trkpt>
      <trkpt lat="47.21283" lon="5.99997">
        <ele>241.91</ele>
        <time>2018-09-29T14:10:25Z</time>
      </trkpt>
      <trkpt lat="47.21358" lon="6.00074">
        <ele>242.39</ele>
        <time>2018-09-29T14:10:42Z</time>
      </trkpt>
      <trkpt lat="47.21367" lon="6.00083">
        <ele>243.35</ele>
        <time>2018-09-29T14:10:44Z</time>
      </trkpt>
      <trkpt lat="47.21431" lon="6.00155">
        <ele>242.39</ele>
        <time>2018-09-29T14:10:59Z</time>
      </trkpt>
      <trkpt lat="47.21504" lon="6.00254">
        <ele>243.35</ele>
        <time>2018-09-29T14:11:17Z</time>
      </trkpt>
      <trkpt lat="47.2157" lon="6.00349">
        <ele>244.79</ele>
        <time>2018-09-29T14:11:34Z</time>
      </trkpt>
      <trkpt lat="47.21606" lon="6.00463">
        <ele>242.87</ele>
        <time>2018-09-29T14:11:48Z</time>
      </trkpt>
      <trkpt lat="47.21632" lon="6.00616">
        <ele>242.87</ele>
        <time>2018-09-29T14:12:06Z</time>
      </trkpt>
      <trkpt lat="47.21633" lon="6.00623">
        <ele>242.87</ele>
        <time>2018-09-29T14:12:07Z</time>
      </trkpt>
      <trkpt lat="47.21634" lon="6.00631">
        <ele>242.87</ele>
        <time>2018-09-29T14:12:08Z</time>
      </trkpt>
      <trkpt lat="47.21635" lon="6.00647">
        <ele>243.83</ele>
        <time>2018-09-29T14:12:10Z</time>
      </trkpt>
      <trkpt lat="47.21646" lon="6.0079">
        <ele>243.35</ele>
        <time>2018-09-29T14:12:27Z</time>
      </trkpt>
      <trkpt lat="47.21646" lon="6.00818">
        <ele>243.35</ele>
        <time>2018-09-29T14:12:30Z</time>
      </trkpt>
      <trkpt lat="47.21654" lon="6.00952">
        <ele>242.87</ele>
        <time>2018-09-29T14:12:46Z</time>
      </trkpt>
      <trkpt lat="47.21662" lon="6.01091">
        <ele>241.43</ele>
        <time>2018-09-29T14:13:03Z</time>
      </trkpt>
      <trkpt lat="47.21663" lon="6.0113">
        <ele>242.39</ele>
        <time>2018-09-29T14:13:09Z</time>
      </trkpt>
      <trkpt lat="47.21668" lon="6.01232">
        <ele>243.35</ele>
        <time>2018-09-29T14:13:23Z</time>
      </trkpt>
      <trkpt lat="47.21679" lon="6.01356">
        <ele>241.91</ele>
        <time>2018-09-29T14:13:37Z</time>
      </trkpt>
      <trkpt lat="47.2169" lon="6.01465">
        <ele>242.39</ele>
        <time>2018-09-29T14:13:50Z</time>
      </trkpt>
      <trkpt lat="47.217" lon="6.01625">
        <ele>241.91</ele>
        <time>2018-09-29T14:14:08Z</time>
      </trkpt>
      <trkpt lat="47.21712" lon="6.01763">
        <ele>242.87</ele>
        <time>2018-09-29T14:14:24Z</time>
      </trkpt>
      <trkpt lat="47.21721" lon="6.01803">
        <ele>243.35</ele>
        <time>2018-09-29T14:14:29Z</time>
      </trkpt>
      <trkpt lat="47.21737" lon="6.01852">
        <ele>240.95</ele>
        <time>2018-09-29T14:14:35Z</time>
      </trkpt>
      <trkpt lat="47.21739" lon="6.01861">
        <ele>241.43</ele>
        <time>2018-09-29T14:14:36Z</time>
      </trkpt>
      <trkpt lat="47.21744" lon="6.01893">
        <ele>244.31</ele>
        <time>2018-09-29T14:14:41Z</time>
      </trkpt>
      <trkpt lat="47.21742" lon="6.01896">
        <ele>244.31</ele>
        <time>2018-09-29T14:14:42Z</time>
      </trkpt>
      <trkpt lat="47.21739" lon="6.01895">
        <ele>244.31</ele>
        <time>2018-09-29T14:14:43Z</time>
      </trkpt>
      <trkpt lat="47.21738" lon="6.0189">
        <ele>244.31</ele>
        <time>2018-09-29T14:14:44Z</time>
      </trkpt>
      <trkpt lat="47.21737" lon="6.01886">
        <ele>244.79</ele>
        <time>2018-09-29T14:14:45Z</time>
      </trkpt>
      <trkpt lat="47.21735" lon="6.01878">
        <ele>244.79</ele>
        <time>2018-09-29T14:14:47Z</time>
      </trkpt>
      <trkpt lat="47.21733" lon="6.01875">
        <ele>244.79</ele>
        <time>2018-09-29T14:14:48Z</time>
      </trkpt>
      <trkpt lat="47.21731" lon="6.01872">
        <ele>245.27</ele>
        <time>2018-09-29T14:14:49Z</time>
      </trkpt>
      <trkpt lat="47.21729" lon="6.01868">
        <ele>245.27</ele>
        <time>2018-09-29T14:14:50Z</time>
      </trkpt>
      <trkpt lat="47.21728" lon="6.01865">
        <ele>245.27</ele>
        <time>2018-09-29T14:14:51Z</time>
      </trkpt>
      <trkpt lat="47.21728" lon="6.01861">
        <ele>245.75</ele>
        <time>2018-09-29T14:14:52Z</time>
      </trkpt>
      <trkpt lat="47.21729" lon="6.01857">
        <ele>246.23</ele>
        <time>2018-09-29T14:14:53Z</time>
      </trkpt>
      <trkpt lat="47.21732" lon="6.01855">
        <ele>246.23</ele>
        <time>2018-09-29T14:14:54Z</time>
      </trkpt>
      <trkpt lat="47.21734" lon="6.01855">
        <ele>246.23</ele>
        <time>2018-09-29T14:14:55Z</time>
      </trkpt>
      <trkpt lat="47.21773" lon="6.01837">
        <ele>247.68</ele>
        <time>2018-09-29T14:15:06Z</time>
      </trkpt>
      <trkpt lat="47.2179" lon="6.0183">
        <ele>246.72</ele>
        <time>2018-09-29T14:15:10Z</time>
      </trkpt>
      <trkpt lat="47.21829" lon="6.01815">
        <ele>246.23</ele>
        <time>2018-09-29T14:15:18Z</time>
      </trkpt>
      <trkpt lat="47.21834" lon="6.01813">
        <ele>246.23</ele>
        <time>2018-09-29T14:15:19Z</time>
      </trkpt>
      <trkpt lat="47.21879" lon="6.01794">
        <ele>244.31</ele>
        <time>2018-09-29T14:15:27Z</time>
      </trkpt>
      <trkpt lat="47.21884" lon="6.01789">
        <ele>244.31</ele>
        <time>2018-09-29T14:15:28Z</time>
      </trkpt>
      <trkpt lat="47.21888" lon="6.01784">
        <ele>244.79</ele>
        <time>2018-09-29T14:15:29Z</time>
      </trkpt>
      <trkpt lat="47.21891" lon="6.01779">
        <ele>244.79</ele>
        <time>2018-09-29T14:15:30Z</time>
      </trkpt>
      <trkpt lat="47.21894" lon="6.01774">
        <ele>245.75</ele>
        <time>2018-09-29T14:15:31Z</time>
      </trkpt>
      <trkpt lat="47.21897" lon="6.01769">
        <ele>245.75</ele>
        <time>2018-09-29T14:15:32Z</time>
      </trkpt>
      <trkpt lat="47.21923" lon="6.01733">
        <ele>247.68</ele>
        <time>2018-09-29T14:15:43Z</time>
      </trkpt>
      <trkpt lat="47.21948" lon="6.01708">
        <ele>251.04</ele>
        <time>2018-09-29T14:15:55Z</time>
      </trkpt>
      <trkpt lat="47.21949" lon="6.01708">
        <ele>251.04</ele>
        <time>2018-09-29T14:15:56Z</time>
      </trkpt>
      <trkpt lat="47.21951" lon="6.01709">
        <ele>251.04</ele>
        <time>2018-09-29T14:15:57Z</time>
      </trkpt>
      <trkpt lat="47.21951" lon="6.01711">
        <ele>251.04</ele>
        <time>2018-09-29T14:15:58Z</time>
      </trkpt>
      <trkpt lat="47.21952" lon="6.01713">
        <ele>251.04</ele>
        <time>2018-09-29T14:15:59Z</time>
      </trkpt>
      <trkpt lat="47.21953" lon="6.01714">
        <ele>251.52</ele>
        <time>2018-09-29T14:16:00Z</time>
      </trkpt>
      <trkpt lat="47.21954" lon="6.01715">
        <ele>251.52</ele>
        <time>2018-09-29T14:16:01Z</time>
      </trkpt>
      <trkpt lat="47.21954" lon="6.01717">
        <ele>252</ele>
        <time>2018-09-29T14:16:02Z</time>
      </trkpt>
      <trkpt lat="47.21955" lon="6.01719">
        <ele>252</ele>
        <time>2018-09-29T14:16:03Z</time>
      </trkpt>
      <trkpt lat="47.21956" lon="6.01721">
        <ele>252</ele>
        <time>2018-09-29T14:16:04Z</time>
      </trkpt>
      <trkpt lat="47.21957" lon="6.01723">
        <ele>252.48</ele>
        <time>2018-09-29T14:16:05Z</time>
      </trkpt>
      <trkpt lat="47.21957" lon="6.01725">
        <ele>252.96</ele>
        <time>2018-09-29T14:16:06Z</time>
      </trkpt>
      <trkpt lat="47.21958" lon="6.01727">
        <ele>252.96</ele>
        <time>2018-09-29T14:16:07Z</time>
      </trkpt>
      <trkpt lat="47.21968" lon="6.01756">
        <ele>255.85</ele>
        <time>2018-09-29T14:16:20Z</time>
      </trkpt>
      <trkpt lat="47.21969" lon="6.01758">
        <ele>256.33</ele>
        <time>2018-09-29T14:16:21Z</time>
      </trkpt>
      <trkpt lat="47.21969" lon="6.0176">
        <ele>256.33</ele>
        <time>2018-09-29T14:16:22Z</time>
      </trkpt>
      <trkpt lat="47.2197" lon="6.01762">
        <ele>256.33</ele>
        <time>2018-09-29T14:16:23Z</time>
      </trkpt>
      <trkpt lat="47.21971" lon="6.01764">
        <ele>256.33</ele>
        <time>2018-09-29T14:16:24Z</time>
      </trkpt>
      <trkpt lat="47.21972" lon="6.01765">
        <ele>256.33</ele>
        <time>2018-09-29T14:16:25Z</time>
      </trkpt>
      <trkpt lat="47.21993" lon="6.01776">
        <ele>259.21</ele>
        <time>2018-09-29T14:16:38Z</time>
      </trkpt>
      <trkpt lat="47.22023" lon="6.01782">
        <ele>260.65</ele>
        <time>2018-09-29T14:16:54Z</time>
      </trkpt>
      <trkpt lat="47.22042" lon="6.018">
        <ele>264.02</ele>
        <time>2018-09-29T14:17:07Z</time>
      </trkpt>
      <trkpt lat="47.22056" lon="6.01815">
        <ele>267.38</ele>
        <time>2018-09-29T14:17:19Z</time>
      </trkpt>
      <trkpt lat="47.22073" lon="6.01832">
        <ele>270.27</ele>
        <time>2018-09-29T14:17:32Z</time>
      </trkpt>
      <trkpt lat="47.22091" lon="6.01851">
        <ele>273.63</ele>
        <time>2018-09-29T14:17:47Z</time>
      </trkpt>
      <trkpt lat="47.2211" lon="6.01871">
        <ele>276.04</ele>
        <time>2018-09-29T14:18:02Z</time>
      </trkpt>
      <trkpt lat="47.22122" lon="6.01888">
        <ele>279.4</ele>
        <time>2018-09-29T14:18:13Z</time>
      </trkpt>
      <trkpt lat="47.22137" lon="6.01905">
        <ele>281.8</ele>
        <time>2018-09-29T14:18:24Z</time>
      </trkpt>
      <trkpt lat="47.22137" lon="6.01906">
        <ele>281.8</ele>
        <time>2018-09-29T14:18:25Z</time>
      </trkpt>
      <trkpt lat="47.22138" lon="6.01907">
        <ele>282.28</ele>
        <time>2018-09-29T14:18:26Z</time>
      </trkpt>
      <trkpt lat="47.22139" lon="6.01909">
        <ele>282.28</ele>
        <time>2018-09-29T14:18:27Z</time>
      </trkpt>
      <trkpt lat="47.22141" lon="6.01911">
        <ele>282.28</ele>
        <time>2018-09-29T14:18:28Z</time>
      </trkpt>
      <trkpt lat="47.22142" lon="6.01912">
        <ele>282.77</ele>
        <time>2018-09-29T14:18:29Z</time>
      </trkpt>
      <trkpt lat="47.2216" lon="6.01929">
        <ele>284.69</ele>
        <time>2018-09-29T14:18:41Z</time>
      </trkpt>
      <trkpt lat="47.22178" lon="6.01949">
        <ele>287.09</ele>
        <time>2018-09-29T14:18:55Z</time>
      </trkpt>
      <trkpt lat="47.22188" lon="6.01968">
        <ele>289.97</ele>
        <time>2018-09-29T14:19:08Z</time>
      </trkpt>
      <trkpt lat="47.22189" lon="6.0197">
        <ele>290.46</ele>
        <time>2018-09-29T14:19:09Z</time>
      </trkpt>
      <trkpt lat="47.2219" lon="6.01971">
        <ele>290.46</ele>
        <time>2018-09-29T14:19:10Z</time>
      </trkpt>
      <trkpt lat="47.22192" lon="6.01973">
        <ele>290.94</ele>
        <time>2018-09-29T14:19:11Z</time>
      </trkpt>
      <trkpt lat="47.22193" lon="6.01975">
        <ele>291.42</ele>
        <time>2018-09-29T14:19:12Z</time>
      </trkpt>
      <trkpt lat="47.22194" lon="6.01977">
        <ele>291.9</ele>
        <time>2018-09-29T14:19:13Z</time>
      </trkpt>
      <trkpt lat="47.22195" lon="6.01978">
        <ele>291.9</ele>
        <time>2018-09-29T14:19:14Z</time>
      </trkpt>
      <trkpt lat="47.22209" lon="6.02002">
        <ele>294.3</ele>
        <time>2018-09-29T14:19:27Z</time>
      </trkpt>
      <trkpt lat="47.2222" lon="6.02019">
        <ele>296.7</ele>
        <time>2018-09-29T14:19:36Z</time>
      </trkpt>
      <trkpt lat="47.22221" lon="6.02021">
        <ele>297.18</ele>
        <time>2018-09-29T14:19:37Z</time>
      </trkpt>
      <trkpt lat="47.22222" lon="6.02022">
        <ele>297.67</ele>
        <time>2018-09-29T14:19:38Z</time>
      </trkpt>
      <trkpt lat="47.22223" lon="6.02024">
        <ele>297.67</ele>
        <time>2018-09-29T14:19:39Z</time>
      </trkpt>
      <trkpt lat="47.22224" lon="6.02025">
        <ele>298.15</ele>
        <time>2018-09-29T14:19:40Z</time>
      </trkpt>
      <trkpt lat="47.22225" lon="6.02027">
        <ele>298.15</ele>
        <time>2018-09-29T14:19:41Z</time>
      </trkpt>
      <trkpt lat="47.22237" lon="6.02044">
        <ele>301.03</ele>
        <time>2018-09-29T14:19:51Z</time>
      </trkpt>
      <trkpt lat="47.22248" lon="6.02058">
        <ele>302.95</ele>
        <time>2018-09-29T14:20:00Z</time>
      </trkpt>
      <trkpt lat="47.22249" lon="6.0206">
        <ele>303.43</ele>
        <time>2018-09-29T14:20:01Z</time>
      </trkpt>
      <trkpt lat="47.22254" lon="6.02069">
        <ele>304.39</ele>
        <time>2018-09-29T14:20:06Z</time>
      </trkpt>
      <trkpt lat="47.22255" lon="6.02071">
        <ele>304.39</ele>
        <time>2018-09-29T14:20:07Z</time>
      </trkpt>
      <trkpt lat="47.22256" lon="6.02073">
        <ele>304.88</ele>
        <time>2018-09-29T14:20:08Z</time>
      </trkpt>
      <trkpt lat="47.22257" lon="6.02074">
        <ele>304.88</ele>
        <time>2018-09-29T14:20:09Z</time>
      </trkpt>
      <trkpt lat="47.22258" lon="6.02076">
        <ele>305.36</ele>
        <time>2018-09-29T14:20:10Z</time>
      </trkpt>
      <trkpt lat="47.22259" lon="6.02079">
        <ele>305.84</ele>
        <time>2018-09-29T14:20:11Z</time>
      </trkpt>
      <trkpt lat="47.22268" lon="6.02097">
        <ele>308.72</ele>
        <time>2018-09-29T14:20:21Z</time>
      </trkpt>
      <trkpt lat="47.22278" lon="6.02121">
        <ele>312.09</ele>
        <time>2018-09-29T14:20:34Z</time>
      </trkpt>
      <trkpt lat="47.2228" lon="6.02126">
        <ele>312.57</ele>
        <time>2018-09-29T14:20:37Z</time>
      </trkpt>
      <trkpt lat="47.22286" lon="6.02144">
        <ele>315.45</ele>
        <time>2018-09-29T14:20:47Z</time>
      </trkpt>
      <trkpt lat="47.22293" lon="6.0217">
        <ele>318.33</ele>
        <time>2018-09-29T14:21:01Z</time>
      </trkpt>
      <trkpt lat="47.22297" lon="6.02182">
        <ele>320.74</ele>
        <time>2018-09-29T14:21:07Z</time>
      </trkpt>
      <trkpt lat="47.22304" lon="6.022">
        <ele>324.1</ele>
        <time>2018-09-29T14:21:18Z</time>
      </trkpt>
      <trkpt lat="47.22313" lon="6.02223">
        <ele>327.47</ele>
        <time>2018-09-29T14:21:32Z</time>
      </trkpt>
      <trkpt lat="47.22322" lon="6.02246">
        <ele>328.91</ele>
        <time>2018-09-29T14:21:46Z</time>
      </trkpt>
      <trkpt lat="47.22324" lon="6.02247">
        <ele>329.39</ele>
        <time>2018-09-29T14:21:49Z</time>
      </trkpt>
      <trkpt lat="47.22325" lon="6.02246">
        <ele>329.39</ele>
        <time>2018-09-29T14:21:50Z</time>
      </trkpt>
      <trkpt lat="47.22327" lon="6.02245">
        <ele>329.87</ele>
        <time>2018-09-29T14:21:51Z</time>
      </trkpt>
      <trkpt lat="47.22329" lon="6.02245">
        <ele>329.87</ele>
        <time>2018-09-29T14:21:52Z</time>
      </trkpt>
      <trkpt lat="47.2233" lon="6.02244">
        <ele>330.35</ele>
        <time>2018-09-29T14:21:53Z</time>
      </trkpt>
      <trkpt lat="47.22332" lon="6.02243">
        <ele>329.87</ele>
        <time>2018-09-29T14:21:54Z</time>
      </trkpt>
      <trkpt lat="47.22333" lon="6.02242">
        <ele>329.87</ele>
        <time>2018-09-29T14:21:55Z</time>
      </trkpt>
      <trkpt lat="47.22335" lon="6.02241">
        <ele>330.35</ele>
        <time>2018-09-29T14:21:56Z</time>
      </trkpt>
      <trkpt lat="47.22354" lon="6.02229">
        <ele>332.27</ele>
        <time>2018-09-29T14:22:10Z</time>
      </trkpt>
      <trkpt lat="47.22355" lon="6.02229">
        <ele>332.75</ele>
        <time>2018-09-29T14:22:11Z</time>
      </trkpt>
      <trkpt lat="47.22357" lon="6.02228">
        <ele>332.75</ele>
        <time>2018-09-29T14:22:12Z</time>
      </trkpt>
      <trkpt lat="47.22358" lon="6.02228">
        <ele>332.75</ele>
        <time>2018-09-29T14:22:13Z</time>
      </trkpt>
      <trkpt lat="47.2236" lon="6.02227">
        <ele>332.75</ele>
        <time>2018-09-29T14:22:14Z</time>
      </trkpt>
      <trkpt lat="47.22361" lon="6.02225">
        <ele>333.23</ele>
        <time>2018-09-29T14:22:15Z</time>
      </trkpt>
      <trkpt lat="47.22362" lon="6.02225">
        <ele>333.23</ele>
        <time>2018-09-29T14:22:16Z</time>
      </trkpt>
      <trkpt lat="47.22363" lon="6.02224">
        <ele>333.71</ele>
        <time>2018-09-29T14:22:17Z</time>
      </trkpt>
      <trkpt lat="47.22364" lon="6.02223">
        <ele>333.71</ele>
        <time>2018-09-29T14:22:18Z</time>
      </trkpt>
      <trkpt lat="47.22365" lon="6.02223">
        <ele>334.2</ele>
        <time>2018-09-29T14:22:19Z</time>
      </trkpt>
      <trkpt lat="47.22367" lon="6.02223">
        <ele>334.68</ele>
        <time>2018-09-29T14:22:20Z</time>
      </trkpt>
      <trkpt lat="47.22368" lon="6.02222">
        <ele>334.68</ele>
        <time>2018-09-29T14:22:21Z</time>
      </trkpt>
      <trkpt lat="47.22369" lon="6.02222">
        <ele>335.16</ele>
        <time>2018-09-29T14:22:22Z</time>
      </trkpt>
      <trkpt lat="47.2237" lon="6.02221">
        <ele>335.16</ele>
        <time>2018-09-29T14:22:23Z</time>
      </trkpt>
      <trkpt lat="47.22371" lon="6.02219">
        <ele>335.64</ele>
        <time>2018-09-29T14:22:24Z</time>
      </trkpt>
      <trkpt lat="47.22373" lon="6.02218">
        <ele>336.12</ele>
        <time>2018-09-29T14:22:25Z</time>
      </trkpt>
      <trkpt lat="47.22374" lon="6.02217">
        <ele>336.12</ele>
        <time>2018-09-29T14:22:26Z</time>
      </trkpt>
      <trkpt lat="47.22374" lon="6.02215">
        <ele>336.6</ele>
        <time>2018-09-29T14:22:27Z</time>
      </trkpt>
      <trkpt lat="47.22375" lon="6.02213">
        <ele>337.08</ele>
        <time>2018-09-29T14:22:28Z</time>
      </trkpt>
      <trkpt lat="47.22376" lon="6.02211">
        <ele>337.56</ele>
        <time>2018-09-29T14:22:29Z</time>
      </trkpt>
      <trkpt lat="47.22376" lon="6.0221">
        <ele>338.04</ele>
        <time>2018-09-29T14:22:30Z</time>
      </trkpt>
      <trkpt lat="47.22377" lon="6.02208">
        <ele>338.52</ele>
        <time>2018-09-29T14:22:31Z</time>
      </trkpt>
      <trkpt lat="47.22377" lon="6.02206">
        <ele>339</ele>
        <time>2018-09-29T14:22:32Z</time>
      </trkpt>
      <trkpt lat="47.22378" lon="6.02204">
        <ele>339.48</ele>
        <time>2018-09-29T14:22:33Z</time>
      </trkpt>
      <trkpt lat="47.22378" lon="6.02202">
        <ele>339.96</ele>
        <time>2018-09-29T14:22:34Z</time>
      </trkpt>
      <trkpt lat="47.22378" lon="6.02165">
        <ele>339</ele>
        <time>2018-09-29T14:22:44Z</time>
      </trkpt>
      <trkpt lat="47.22378" lon="6.02153">
        <ele>338.52</ele>
        <time>2018-09-29T14:22:46Z</time>
      </trkpt>
      <trkpt lat="47.22378" lon="6.0214">
        <ele>337.56</ele>
        <time>2018-09-29T14:22:48Z</time>
      </trkpt>
      <trkpt lat="47.2238" lon="6.02134">
        <ele>337.56</ele>
        <time>2018-09-29T14:22:49Z</time>
      </trkpt>
      <trkpt lat="47.22381" lon="6.02131">
        <ele>338.04</ele>
        <time>2018-09-29T14:22:50Z</time>
      </trkpt>
      <trkpt lat="47.22382" lon="6.02129">
        <ele>339</ele>
        <time>2018-09-29T14:22:51Z</time>
      </trkpt>
      <trkpt lat="47.22383" lon="6.02128">
        <ele>339</ele>
        <time>2018-09-29T14:22:52Z</time>
      </trkpt>
      <trkpt lat="47.22384" lon="6.02127">
        <ele>339.48</ele>
        <time>2018-09-29T14:22:53Z</time>
      </trkpt>
      <trkpt lat="47.22385" lon="6.02124">
        <ele>339.96</ele>
        <time>2018-09-29T14:22:54Z</time>
      </trkpt>
      <trkpt lat="47.22387" lon="6.02123">
        <ele>340.44</ele>
        <time>2018-09-29T14:22:55Z</time>
      </trkpt>
      <trkpt lat="47.22388" lon="6.02121">
        <ele>340.92</ele>
        <time>2018-09-29T14:22:56Z</time>
      </trkpt>
      <trkpt lat="47.22392" lon="6.02116">
        <ele>342.85</ele>
        <time>2018-09-29T14:23:07Z</time>
      </trkpt>
      <trkpt lat="47.22395" lon="6.02111">
        <ele>343.81</ele>
        <time>2018-09-29T14:23:16Z</time>
      </trkpt>
      <trkpt lat="47.22402" lon="6.02106">
        <ele>345.73</ele>
        <time>2018-09-29T14:23:27Z</time>
      </trkpt>
      <trkpt lat="47.22406" lon="6.021">
        <ele>347.65</ele>
        <time>2018-09-29T14:23:39Z</time>
      </trkpt>
      <trkpt lat="47.22407" lon="6.02097">
        <ele>347.65</ele>
        <time>2018-09-29T14:23:44Z</time>
      </trkpt>
      <trkpt lat="47.22408" lon="6.02095">
        <ele>349.1</ele>
        <time>2018-09-29T14:23:46Z</time>
      </trkpt>
      <trkpt lat="47.22409" lon="6.02095">
        <ele>349.1</ele>
        <time>2018-09-29T14:23:47Z</time>
      </trkpt>
      <trkpt lat="47.22413" lon="6.02088">
        <ele>351.02</ele>
        <time>2018-09-29T14:24:00Z</time>
      </trkpt>
      <trkpt lat="47.22418" lon="6.02082">
        <ele>353.9</ele>
        <time>2018-09-29T14:24:12Z</time>
      </trkpt>
      <trkpt lat="47.22423" lon="6.02076">
        <ele>354.86</ele>
        <time>2018-09-29T14:24:23Z</time>
      </trkpt>
      <trkpt lat="47.22426" lon="6.02069">
        <ele>356.31</ele>
        <time>2018-09-29T14:24:33Z</time>
      </trkpt>
      <trkpt lat="47.22427" lon="6.02067">
        <ele>356.31</ele>
        <time>2018-09-29T14:24:34Z</time>
      </trkpt>
      <trkpt lat="47.22427" lon="6.02065">
        <ele>356.31</ele>
        <time>2018-09-29T14:24:35Z</time>
      </trkpt>
      <trkpt lat="47.22427" lon="6.02063">
        <ele>356.31</ele>
        <time>2018-09-29T14:24:36Z</time>
      </trkpt>
      <trkpt lat="47.22427" lon="6.02061">
        <ele>356.31</ele>
        <time>2018-09-29T14:24:37Z</time>
      </trkpt>
      <trkpt lat="47.22427" lon="6.02058">
        <ele>356.31</ele>
        <time>2018-09-29T14:24:38Z</time>
      </trkpt>
      <trkpt lat="47.22429" lon="6.02025">
        <ele>357.27</ele>
        <time>2018-09-29T14:24:51Z</time>
      </trkpt>
      <trkpt lat="47.22429" lon="6.02023">
        <ele>357.27</ele>
        <time>2018-09-29T14:24:52Z</time>
      </trkpt>
      <trkpt lat="47.2243" lon="6.0202">
        <ele>357.75</ele>
        <time>2018-09-29T14:24:53Z</time>
      </trkpt>
      <trkpt lat="47.2243" lon="6.02017">
        <ele>357.27</ele>
        <time>2018-09-29T14:24:54Z</time>
      </trkpt>
      <trkpt lat="47.22431" lon="6.02014">
        <ele>357.75</ele>
        <time>2018-09-29T14:24:55Z</time>
      </trkpt>
      <trkpt lat="47.22431" lon="6.02012">
        <ele>357.75</ele>
        <time>2018-09-29T14:24:56Z</time>
      </trkpt>
      <trkpt lat="47.22436" lon="6.01972">
        <ele>360.15</ele>
        <time>2018-09-29T14:25:11Z</time>
      </trkpt>
      <trkpt lat="47.22444" lon="6.01937">
        <ele>362.55</ele>
        <time>2018-09-29T14:25:25Z</time>
      </trkpt>
      <trkpt lat="47.22456" lon="6.01904">
        <ele>364.96</ele>
        <time>2018-09-29T14:25:39Z</time>
      </trkpt>
      <trkpt lat="47.22463" lon="6.01895">
        <ele>365.92</ele>
        <time>2018-09-29T14:25:45Z</time>
      </trkpt>
      <trkpt lat="47.22464" lon="6.01895">
        <ele>366.4</ele>
        <time>2018-09-29T14:25:46Z</time>
      </trkpt>
      <trkpt lat="47.22465" lon="6.01896">
        <ele>365.92</ele>
        <time>2018-09-29T14:25:47Z</time>
      </trkpt>
      <trkpt lat="47.22465" lon="6.01898">
        <ele>366.4</ele>
        <time>2018-09-29T14:25:48Z</time>
      </trkpt>
      <trkpt lat="47.22465" lon="6.019">
        <ele>366.4</ele>
        <time>2018-09-29T14:25:49Z</time>
      </trkpt>
      <trkpt lat="47.22465" lon="6.01903">
        <ele>366.4</ele>
        <time>2018-09-29T14:25:50Z</time>
      </trkpt>
      <trkpt lat="47.22465" lon="6.01905">
        <ele>366.4</ele>
        <time>2018-09-29T14:25:51Z</time>
      </trkpt>
      <trkpt lat="47.22465" lon="6.01908">
        <ele>366.4</ele>
        <time>2018-09-29T14:25:52Z</time>
      </trkpt>
      <trkpt lat="47.22465" lon="6.0191">
        <ele>366.4</ele>
        <time>2018-09-29T14:25:53Z</time>
      </trkpt>
      <trkpt lat="47.22473" lon="6.01938">
        <ele>369.28</ele>
        <time>2018-09-29T14:26:04Z</time>
      </trkpt>
      <trkpt lat="47.22474" lon="6.01941">
        <ele>369.28</ele>
        <time>2018-09-29T14:26:05Z</time>
      </trkpt>
      <trkpt lat="47.22475" lon="6.01943">
        <ele>368.8</ele>
        <time>2018-09-29T14:26:06Z</time>
      </trkpt>
      <trkpt lat="47.22476" lon="6.01945">
        <ele>369.28</ele>
        <time>2018-09-29T14:26:07Z</time>
      </trkpt>
      <trkpt lat="47.22476" lon="6.01948">
        <ele>369.76</ele>
        <time>2018-09-29T14:26:08Z</time>
      </trkpt>
      <trkpt lat="47.22491" lon="6.01987">
        <ele>372.65</ele>
        <time>2018-09-29T14:26:24Z</time>
      </trkpt>
      <trkpt lat="47.22501" lon="6.02017">
        <ele>375.53</ele>
        <time>2018-09-29T14:26:36Z</time>
      </trkpt>
      <trkpt lat="47.22502" lon="6.0202">
        <ele>376.01</ele>
        <time>2018-09-29T14:26:37Z</time>
      </trkpt>
      <trkpt lat="47.22517" lon="6.02041">
        <ele>377.94</ele>
        <time>2018-09-29T14:26:50Z</time>
      </trkpt>
      <trkpt lat="47.22534" lon="6.02049">
        <ele>380.82</ele>
        <time>2018-09-29T14:27:02Z</time>
      </trkpt>
      <trkpt lat="47.2254" lon="6.02049">
        <ele>381.78</ele>
        <time>2018-09-29T14:27:06Z</time>
      </trkpt>
      <trkpt lat="47.22548" lon="6.02051">
        <ele>382.74</ele>
        <time>2018-09-29T14:27:11Z</time>
      </trkpt>
      <trkpt lat="47.22549" lon="6.0205">
        <ele>382.74</ele>
        <time>2018-09-29T14:27:12Z</time>
      </trkpt>
      <trkpt lat="47.2255" lon="6.02051">
        <ele>383.22</ele>
        <time>2018-09-29T14:27:13Z</time>
      </trkpt>
      <trkpt lat="47.2255" lon="6.02053">
        <ele>383.22</ele>
        <time>2018-09-29T14:27:14Z</time>
      </trkpt>
      <trkpt lat="47.22551" lon="6.02055">
        <ele>383.7</ele>
        <time>2018-09-29T14:27:15Z</time>
      </trkpt>
      <trkpt lat="47.22552" lon="6.02056">
        <ele>383.22</ele>
        <time>2018-09-29T14:27:16Z</time>
      </trkpt>
      <trkpt lat="47.22553" lon="6.02057">
        <ele>383.7</ele>
        <time>2018-09-29T14:27:17Z</time>
      </trkpt>
      <trkpt lat="47.22572" lon="6.02063">
        <ele>386.59</ele>
        <time>2018-09-29T14:27:29Z</time>
      </trkpt>
      <trkpt lat="47.22589" lon="6.0207">
        <ele>389.47</ele>
        <time>2018-09-29T14:27:42Z</time>
      </trkpt>
      <trkpt lat="47.22607" lon="6.02077">
        <ele>393.32</ele>
        <time>2018-09-29T14:27:55Z</time>
      </trkpt>
      <trkpt lat="47.22626" lon="6.02088">
        <ele>396.2</ele>
        <time>2018-09-29T14:28:09Z</time>
      </trkpt>
      <trkpt lat="47.2264" lon="6.02097">
        <ele>398.12</ele>
        <time>2018-09-29T14:28:20Z</time>
      </trkpt>
      <trkpt lat="47.22641" lon="6.02098">
        <ele>398.12</ele>
        <time>2018-09-29T14:28:21Z</time>
      </trkpt>
      <trkpt lat="47.22642" lon="6.02099">
        <ele>398.6</ele>
        <time>2018-09-29T14:28:22Z</time>
      </trkpt>
      <trkpt lat="47.22658" lon="6.0211">
        <ele>401.49</ele>
        <time>2018-09-29T14:28:34Z</time>
      </trkpt>
      <trkpt lat="47.22676" lon="6.02116">
        <ele>404.37</ele>
        <time>2018-09-29T14:28:47Z</time>
      </trkpt>
      <trkpt lat="47.22698" lon="6.02127">
        <ele>407.74</ele>
        <time>2018-09-29T14:29:04Z</time>
      </trkpt>
      <trkpt lat="47.2272" lon="6.02135">
        <ele>410.14</ele>
        <time>2018-09-29T14:29:20Z</time>
      </trkpt>
      <trkpt lat="47.22735" lon="6.02156">
        <ele>412.54</ele>
        <time>2018-09-29T14:29:34Z</time>
      </trkpt>
      <trkpt lat="47.22737" lon="6.02172">
        <ele>413.98</ele>
        <time>2018-09-29T14:29:41Z</time>
      </trkpt>
      <trkpt lat="47.22737" lon="6.02174">
        <ele>413.98</ele>
        <time>2018-09-29T14:29:42Z</time>
      </trkpt>
      <trkpt lat="47.22736" lon="6.02176">
        <ele>414.47</ele>
        <time>2018-09-29T14:29:43Z</time>
      </trkpt>
      <trkpt lat="47.22734" lon="6.02177">
        <ele>414.47</ele>
        <time>2018-09-29T14:29:44Z</time>
      </trkpt>
      <trkpt lat="47.22733" lon="6.02178">
        <ele>414.47</ele>
        <time>2018-09-29T14:29:45Z</time>
      </trkpt>
      <trkpt lat="47.22731" lon="6.02179">
        <ele>414.95</ele>
        <time>2018-09-29T14:29:46Z</time>
      </trkpt>
      <trkpt lat="47.2273" lon="6.02181">
        <ele>414.95</ele>
        <time>2018-09-29T14:29:47Z</time>
      </trkpt>
      <trkpt lat="47.22716" lon="6.02198">
        <ele>415.43</ele>
        <time>2018-09-29T14:29:57Z</time>
      </trkpt>
      <trkpt lat="47.2268" lon="6.02232">
        <ele>413.5</ele>
        <time>2018-09-29T14:30:09Z</time>
      </trkpt>
      <trkpt lat="47.22637" lon="6.02265">
        <ele>412.06</ele>
        <time>2018-09-29T14:30:20Z</time>
      </trkpt>
      <trkpt lat="47.22633" lon="6.02269">
        <ele>412.06</ele>
        <time>2018-09-29T14:30:21Z</time>
      </trkpt>
      <trkpt lat="47.2263" lon="6.02274">
        <ele>411.58</ele>
        <time>2018-09-29T14:30:22Z</time>
      </trkpt>
      <trkpt lat="47.22627" lon="6.02279">
        <ele>411.58</ele>
        <time>2018-09-29T14:30:23Z</time>
      </trkpt>
      <trkpt lat="47.22626" lon="6.02285">
        <ele>411.1</ele>
        <time>2018-09-29T14:30:24Z</time>
      </trkpt>
      <trkpt lat="47.22626" lon="6.02291">
        <ele>410.62</ele>
        <time>2018-09-29T14:30:25Z</time>
      </trkpt>
      <trkpt lat="47.22627" lon="6.02296">
        <ele>410.14</ele>
        <time>2018-09-29T14:30:26Z</time>
      </trkpt>
      <trkpt lat="47.22628" lon="6.02301">
        <ele>410.14</ele>
        <time>2018-09-29T14:30:27Z</time>
      </trkpt>
      <trkpt lat="47.22628" lon="6.02306">
        <ele>411.1</ele>
        <time>2018-09-29T14:30:28Z</time>
      </trkpt>
      <trkpt lat="47.22629" lon="6.0231">
        <ele>411.58</ele>
        <time>2018-09-29T14:30:29Z</time>
      </trkpt>
      <trkpt lat="47.22629" lon="6.02314">
        <ele>411.58</ele>
        <time>2018-09-29T14:30:30Z</time>
      </trkpt>
      <trkpt lat="47.2263" lon="6.02317">
        <ele>411.58</ele>
        <time>2018-09-29T14:30:31Z</time>
      </trkpt>
      <trkpt lat="47.22635" lon="6.02349">
        <ele>412.06</ele>
        <time>2018-09-29T14:30:41Z</time>
      </trkpt>
      <trkpt lat="47.22637" lon="6.0238">
        <ele>413.5</ele>
        <time>2018-09-29T14:30:52Z</time>
      </trkpt>
      <trkpt lat="47.22634" lon="6.02397">
        <ele>413.98</ele>
        <time>2018-09-29T14:30:57Z</time>
      </trkpt>
      <trkpt lat="47.22634" lon="6.02401">
        <ele>413.5</ele>
        <time>2018-09-29T14:30:58Z</time>
      </trkpt>
      <trkpt lat="47.22634" lon="6.02405">
        <ele>413.5</ele>
        <time>2018-09-29T14:30:59Z</time>
      </trkpt>
      <trkpt lat="47.22632" lon="6.02434">
        <ele>412.06</ele>
        <time>2018-09-29T14:31:09Z</time>
      </trkpt>
      <trkpt lat="47.2263" lon="6.02433">
        <ele>411.58</ele>
        <time>2018-09-29T14:31:15Z</time>
      </trkpt>
      <trkpt lat="47.22629" lon="6.02434">
        <ele>411.58</ele>
        <time>2018-09-29T14:31:16Z</time>
      </trkpt>
      <trkpt lat="47.22629" lon="6.02437">
        <ele>411.1</ele>
        <time>2018-09-29T14:31:19Z</time>
      </trkpt>
      <trkpt lat="47.22629" lon="6.02441">
        <ele>409.66</ele>
        <time>2018-09-29T14:31:22Z</time>
      </trkpt>
      <trkpt lat="47.22629" lon="6.02443">
        <ele>409.18</ele>
        <time>2018-09-29T14:31:23Z</time>
      </trkpt>
      <trkpt lat="47.22629" lon="6.02444">
        <ele>408.7</ele>
        <time>2018-09-29T14:31:24Z</time>
      </trkpt>
      <trkpt lat="47.2263" lon="6.0245">
        <ele>408.7</ele>
        <time>2018-09-29T14:31:32Z</time>
      </trkpt>
      <trkpt lat="47.2263" lon="6.02452">
        <ele>408.7</ele>
        <time>2018-09-29T14:31:33Z</time>
      </trkpt>
      <trkpt lat="47.2263" lon="6.02455">
        <ele>408.7</ele>
        <time>2018-09-29T14:31:34Z</time>
      </trkpt>
      <trkpt lat="47.22629" lon="6.02457">
        <ele>408.7</ele>
        <time>2018-09-29T14:31:35Z</time>
      </trkpt>
      <trkpt lat="47.22629" lon="6.0246">
        <ele>408.22</ele>
        <time>2018-09-29T14:31:36Z</time>
      </trkpt>
      <trkpt lat="47.22629" lon="6.02463">
        <ele>408.22</ele>
        <time>2018-09-29T14:31:37Z</time>
      </trkpt>
      <trkpt lat="47.22628" lon="6.02465">
        <ele>408.22</ele>
        <time>2018-09-29T14:31:38Z</time>
      </trkpt>
      <trkpt lat="47.22628" lon="6.02467">
        <ele>407.74</ele>
        <time>2018-09-29T14:31:39Z</time>
      </trkpt>
      <trkpt lat="47.22627" lon="6.02469">
        <ele>407.74</ele>
        <time>2018-09-29T14:31:40Z</time>
      </trkpt>
      <trkpt lat="47.22627" lon="6.02472">
        <ele>407.74</ele>
        <time>2018-09-29T14:31:41Z</time>
      </trkpt>
      <trkpt lat="47.22626" lon="6.02474">
        <ele>407.74</ele>
        <time>2018-09-29T14:31:42Z</time>
      </trkpt>
      <trkpt lat="47.22627" lon="6.02476">
        <ele>407.74</ele>
        <time>2018-09-29T14:31:43Z</time>
      </trkpt>
      <trkpt lat="47.22629" lon="6.02478">
        <ele>407.74</ele>
        <time>2018-09-29T14:31:44Z</time>
      </trkpt>
      <trkpt lat="47.22631" lon="6.02479">
        <ele>407.74</ele>
        <time>2018-09-29T14:31:45Z</time>
      </trkpt>
      <trkpt lat="47.22633" lon="6.02479">
        <ele>407.74</ele>
        <time>2018-09-29T14:31:46Z</time>
      </trkpt>
      <trkpt lat="47.22635" lon="6.0248">
        <ele>408.22</ele>
        <time>2018-09-29T14:31:47Z</time>
      </trkpt>
      <trkpt lat="47.22638" lon="6.0248">
        <ele>408.7</ele>
        <time>2018-09-29T14:31:48Z</time>
      </trkpt>
      <trkpt lat="47.2264" lon="6.02481">
        <ele>408.7</ele>
        <time>2018-09-29T14:31:49Z</time>
      </trkpt>
      <trkpt lat="47.22642" lon="6.02481">
        <ele>408.7</ele>
        <time>2018-09-29T14:31:50Z</time>
      </trkpt>
      <trkpt lat="47.22645" lon="6.0248">
        <ele>408.7</ele>
        <time>2018-09-29T14:31:51Z</time>
      </trkpt>
      <trkpt lat="47.22647" lon="6.02479">
        <ele>408.7</ele>
        <time>2018-09-29T14:31:52Z</time>
      </trkpt>
      <trkpt lat="47.2265" lon="6.02479">
        <ele>408.7</ele>
        <time>2018-09-29T14:31:53Z</time>
      </trkpt>
      <trkpt lat="47.22652" lon="6.02479">
        <ele>409.18</ele>
        <time>2018-09-29T14:31:54Z</time>
      </trkpt>
      <trkpt lat="47.22681" lon="6.02463">
        <ele>412.06</ele>
        <time>2018-09-29T14:32:07Z</time>
      </trkpt>
      <trkpt lat="47.22713" lon="6.02457">
        <ele>411.58</ele>
        <time>2018-09-29T14:32:19Z</time>
      </trkpt>
      <trkpt lat="47.22728" lon="6.02456">
        <ele>411.1</ele>
        <time>2018-09-29T14:32:24Z</time>
      </trkpt>
      <trkpt lat="47.22732" lon="6.02454">
        <ele>410.14</ele>
        <time>2018-09-29T14:32:25Z</time>
      </trkpt>
      <trkpt lat="47.22735" lon="6.0245">
        <ele>410.14</ele>
        <time>2018-09-29T14:32:26Z</time>
      </trkpt>
      <trkpt lat="47.22736" lon="6.02446">
        <ele>409.18</ele>
        <time>2018-09-29T14:32:27Z</time>
      </trkpt>
      <trkpt lat="47.22737" lon="6.02443">
        <ele>408.7</ele>
        <time>2018-09-29T14:32:28Z</time>
      </trkpt>
      <trkpt lat="47.22737" lon="6.0244">
        <ele>408.22</ele>
        <time>2018-09-29T14:32:29Z</time>
      </trkpt>
      <trkpt lat="47.22741" lon="6.02421">
        <ele>405.81</ele>
        <time>2018-09-29T14:32:32Z</time>
      </trkpt>
      <trkpt lat="47.22742" lon="6.02412">
        <ele>405.33</ele>
        <time>2018-09-29T14:32:33Z</time>
      </trkpt>
      <trkpt lat="47.22744" lon="6.02404">
        <ele>404.85</ele>
        <time>2018-09-29T14:32:34Z</time>
      </trkpt>
      <trkpt lat="47.22756" lon="6.02347">
        <ele>407.74</ele>
        <time>2018-09-29T14:32:44Z</time>
      </trkpt>
      <trkpt lat="47.2276" lon="6.02337">
        <ele>407.26</ele>
        <time>2018-09-29T14:32:47Z</time>
      </trkpt>
      <trkpt lat="47.22763" lon="6.02335">
        <ele>406.77</ele>
        <time>2018-09-29T14:32:48Z</time>
      </trkpt>
      <trkpt lat="47.22764" lon="6.02332">
        <ele>406.29</ele>
        <time>2018-09-29T14:32:49Z</time>
      </trkpt>
      <trkpt lat="47.22765" lon="6.02327">
        <ele>405.33</ele>
        <time>2018-09-29T14:32:50Z</time>
      </trkpt>
      <trkpt lat="47.22765" lon="6.02322">
        <ele>404.85</ele>
        <time>2018-09-29T14:32:51Z</time>
      </trkpt>
      <trkpt lat="47.22766" lon="6.02317">
        <ele>403.41</ele>
        <time>2018-09-29T14:32:52Z</time>
      </trkpt>
      <trkpt lat="47.22766" lon="6.02305">
        <ele>401.01</ele>
        <time>2018-09-29T14:32:55Z</time>
      </trkpt>
      <trkpt lat="47.22767" lon="6.02301">
        <ele>400.53</ele>
        <time>2018-09-29T14:32:56Z</time>
      </trkpt>
      <trkpt lat="47.22769" lon="6.02297">
        <ele>399.08</ele>
        <time>2018-09-29T14:32:57Z</time>
      </trkpt>
      <trkpt lat="47.2277" lon="6.02293">
        <ele>398.12</ele>
        <time>2018-09-29T14:32:58Z</time>
      </trkpt>
      <trkpt lat="47.22771" lon="6.02289">
        <ele>397.16</ele>
        <time>2018-09-29T14:32:59Z</time>
      </trkpt>
      <trkpt lat="47.22772" lon="6.02284">
        <ele>396.2</ele>
        <time>2018-09-29T14:33:00Z</time>
      </trkpt>
      <trkpt lat="47.22772" lon="6.0228">
        <ele>395.72</ele>
        <time>2018-09-29T14:33:01Z</time>
      </trkpt>
      <trkpt lat="47.22773" lon="6.02274">
        <ele>395.24</ele>
        <time>2018-09-29T14:33:03Z</time>
      </trkpt>
      <trkpt lat="47.22775" lon="6.02266">
        <ele>392.84</ele>
        <time>2018-09-29T14:33:08Z</time>
      </trkpt>
      <trkpt lat="47.22777" lon="6.02266">
        <ele>392.36</ele>
        <time>2018-09-29T14:33:09Z</time>
      </trkpt>
      <trkpt lat="47.22778" lon="6.02267">
        <ele>390.91</ele>
        <time>2018-09-29T14:33:10Z</time>
      </trkpt>
      <trkpt lat="47.22779" lon="6.02268">
        <ele>390.43</ele>
        <time>2018-09-29T14:33:11Z</time>
      </trkpt>
      <trkpt lat="47.22779" lon="6.02271">
        <ele>389.95</ele>
        <time>2018-09-29T14:33:12Z</time>
      </trkpt>
      <trkpt lat="47.22779" lon="6.02274">
        <ele>388.99</ele>
        <time>2018-09-29T14:33:13Z</time>
      </trkpt>
      <trkpt lat="47.22779" lon="6.02277">
        <ele>388.51</ele>
        <time>2018-09-29T14:33:14Z</time>
      </trkpt>
      <trkpt lat="47.2278" lon="6.0228">
        <ele>388.03</ele>
        <time>2018-09-29T14:33:15Z</time>
      </trkpt>
      <trkpt lat="47.22781" lon="6.02283">
        <ele>387.55</ele>
        <time>2018-09-29T14:33:16Z</time>
      </trkpt>
      <trkpt lat="47.22784" lon="6.02299">
        <ele>383.7</ele>
        <time>2018-09-29T14:33:20Z</time>
      </trkpt>
      <trkpt lat="47.22789" lon="6.02316">
        <ele>380.34</ele>
        <time>2018-09-29T14:33:23Z</time>
      </trkpt>
      <trkpt lat="47.22796" lon="6.02329">
        <ele>378.42</ele>
        <time>2018-09-29T14:33:25Z</time>
      </trkpt>
      <trkpt lat="47.22799" lon="6.02335">
        <ele>377.45</ele>
        <time>2018-09-29T14:33:26Z</time>
      </trkpt>
      <trkpt lat="47.22802" lon="6.02341">
        <ele>376.01</ele>
        <time>2018-09-29T14:33:27Z</time>
      </trkpt>
      <trkpt lat="47.22809" lon="6.02353">
        <ele>373.61</ele>
        <time>2018-09-29T14:33:30Z</time>
      </trkpt>
      <trkpt lat="47.2281" lon="6.02358">
        <ele>372.65</ele>
        <time>2018-09-29T14:33:31Z</time>
      </trkpt>
      <trkpt lat="47.22811" lon="6.02363">
        <ele>371.69</ele>
        <time>2018-09-29T14:33:32Z</time>
      </trkpt>
      <trkpt lat="47.22813" lon="6.02366">
        <ele>371.21</ele>
        <time>2018-09-29T14:33:33Z</time>
      </trkpt>
      <trkpt lat="47.22817" lon="6.02367">
        <ele>370.73</ele>
        <time>2018-09-29T14:33:35Z</time>
      </trkpt>
      <trkpt lat="47.22819" lon="6.02365">
        <ele>370.24</ele>
        <time>2018-09-29T14:33:36Z</time>
      </trkpt>
      <trkpt lat="47.2282" lon="6.02361">
        <ele>369.28</ele>
        <time>2018-09-29T14:33:37Z</time>
      </trkpt>
      <trkpt lat="47.22821" lon="6.02356">
        <ele>368.8</ele>
        <time>2018-09-29T14:33:38Z</time>
      </trkpt>
      <trkpt lat="47.22822" lon="6.02349">
        <ele>368.32</ele>
        <time>2018-09-29T14:33:39Z</time>
      </trkpt>
      <trkpt lat="47.22822" lon="6.02342">
        <ele>367.84</ele>
        <time>2018-09-29T14:33:40Z</time>
      </trkpt>
      <trkpt lat="47.22822" lon="6.02325">
        <ele>366.4</ele>
        <time>2018-09-29T14:33:42Z</time>
      </trkpt>
      <trkpt lat="47.22823" lon="6.02316">
        <ele>364.96</ele>
        <time>2018-09-29T14:33:43Z</time>
      </trkpt>
      <trkpt lat="47.22825" lon="6.02299">
        <ele>361.59</ele>
        <time>2018-09-29T14:33:45Z</time>
      </trkpt>
      <trkpt lat="47.22826" lon="6.0229">
        <ele>360.63</ele>
        <time>2018-09-29T14:33:46Z</time>
      </trkpt>
      <trkpt lat="47.22827" lon="6.02283">
        <ele>359.67</ele>
        <time>2018-09-29T14:33:47Z</time>
      </trkpt>
      <trkpt lat="47.2283" lon="6.02267">
        <ele>355.83</ele>
        <time>2018-09-29T14:33:49Z</time>
      </trkpt>
      <trkpt lat="47.22831" lon="6.02258">
        <ele>354.86</ele>
        <time>2018-09-29T14:33:50Z</time>
      </trkpt>
      <trkpt lat="47.2283" lon="6.0224">
        <ele>352.94</ele>
        <time>2018-09-29T14:33:52Z</time>
      </trkpt>
      <trkpt lat="47.22831" lon="6.02231">
        <ele>352.46</ele>
        <time>2018-09-29T14:33:53Z</time>
      </trkpt>
      <trkpt lat="47.22837" lon="6.02203">
        <ele>348.62</ele>
        <time>2018-09-29T14:33:58Z</time>
      </trkpt>
      <trkpt lat="47.22842" lon="6.02189">
        <ele>345.25</ele>
        <time>2018-09-29T14:34:01Z</time>
      </trkpt>
      <trkpt lat="47.22845" lon="6.02177">
        <ele>341.89</ele>
        <time>2018-09-29T14:34:05Z</time>
      </trkpt>
      <trkpt lat="47.22847" lon="6.02169">
        <ele>339.48</ele>
        <time>2018-09-29T14:34:08Z</time>
      </trkpt>
      <trkpt lat="47.2285" lon="6.02165">
        <ele>336.12</ele>
        <time>2018-09-29T14:34:10Z</time>
      </trkpt>
      <trkpt lat="47.22851" lon="6.02163">
        <ele>335.16</ele>
        <time>2018-09-29T14:34:11Z</time>
      </trkpt>
      <trkpt lat="47.22857" lon="6.02159">
        <ele>330.83</ele>
        <time>2018-09-29T14:34:15Z</time>
      </trkpt>
      <trkpt lat="47.22864" lon="6.0215">
        <ele>326.99</ele>
        <time>2018-09-29T14:34:18Z</time>
      </trkpt>
      <trkpt lat="47.22869" lon="6.02141">
        <ele>324.58</ele>
        <time>2018-09-29T14:34:21Z</time>
      </trkpt>
      <trkpt lat="47.2287" lon="6.02139">
        <ele>323.62</ele>
        <time>2018-09-29T14:34:22Z</time>
      </trkpt>
      <trkpt lat="47.22871" lon="6.02137">
        <ele>323.14</ele>
        <time>2018-09-29T14:34:23Z</time>
      </trkpt>
      <trkpt lat="47.22873" lon="6.02136">
        <ele>321.7</ele>
        <time>2018-09-29T14:34:24Z</time>
      </trkpt>
      <trkpt lat="47.22875" lon="6.02136">
        <ele>320.26</ele>
        <time>2018-09-29T14:34:25Z</time>
      </trkpt>
      <trkpt lat="47.22881" lon="6.02138">
        <ele>315.93</ele>
        <time>2018-09-29T14:34:28Z</time>
      </trkpt>
      <trkpt lat="47.22888" lon="6.02141">
        <ele>313.05</ele>
        <time>2018-09-29T14:34:31Z</time>
      </trkpt>
      <trkpt lat="47.22889" lon="6.02144">
        <ele>312.57</ele>
        <time>2018-09-29T14:34:32Z</time>
      </trkpt>
      <trkpt lat="47.2289" lon="6.02149">
        <ele>312.09</ele>
        <time>2018-09-29T14:34:35Z</time>
      </trkpt>
      <trkpt lat="47.2289" lon="6.02151">
        <ele>311.6</ele>
        <time>2018-09-29T14:34:36Z</time>
      </trkpt>
      <trkpt lat="47.2289" lon="6.02153">
        <ele>311.6</ele>
        <time>2018-09-29T14:34:37Z</time>
      </trkpt>
      <trkpt lat="47.22896" lon="6.02163">
        <ele>310.16</ele>
        <time>2018-09-29T14:34:48Z</time>
      </trkpt>
      <trkpt lat="47.229" lon="6.02163">
        <ele>310.16</ele>
        <time>2018-09-29T14:35:14Z</time>
      </trkpt>
      <trkpt lat="47.22903" lon="6.02164">
        <ele>310.64</ele>
        <time>2018-09-29T14:35:48Z</time>
      </trkpt>
      <trkpt lat="47.22905" lon="6.02166">
        <ele>309.68</ele>
        <time>2018-09-29T14:36:02Z</time>
      </trkpt>
      <trkpt lat="47.22905" lon="6.02168">
        <ele>309.68</ele>
        <time>2018-09-29T14:36:03Z</time>
      </trkpt>
      <trkpt lat="47.22905" lon="6.02172">
        <ele>309.2</ele>
        <time>2018-09-29T14:36:04Z</time>
      </trkpt>
      <trkpt lat="47.22905" lon="6.02176">
        <ele>308.72</ele>
        <time>2018-09-29T14:36:05Z</time>
      </trkpt>
      <trkpt lat="47.22906" lon="6.02181">
        <ele>307.76</ele>
        <time>2018-09-29T14:36:06Z</time>
      </trkpt>
      <trkpt lat="47.22908" lon="6.02187">
        <ele>307.28</ele>
        <time>2018-09-29T14:36:07Z</time>
      </trkpt>
      <trkpt lat="47.22909" lon="6.02193">
        <ele>305.84</ele>
        <time>2018-09-29T14:36:08Z</time>
      </trkpt>
      <trkpt lat="47.22916" lon="6.02218">
        <ele>302.95</ele>
        <time>2018-09-29T14:36:12Z</time>
      </trkpt>
      <trkpt lat="47.22919" lon="6.0224">
        <ele>299.59</ele>
        <time>2018-09-29T14:36:17Z</time>
      </trkpt>
      <trkpt lat="47.22918" lon="6.02243">
        <ele>299.11</ele>
        <time>2018-09-29T14:36:18Z</time>
      </trkpt>
      <trkpt lat="47.22918" lon="6.02247">
        <ele>298.15</ele>
        <time>2018-09-29T14:36:19Z</time>
      </trkpt>
      <trkpt lat="47.22918" lon="6.02253">
        <ele>296.7</ele>
        <time>2018-09-29T14:36:20Z</time>
      </trkpt>
      <trkpt lat="47.22918" lon="6.02261">
        <ele>295.74</ele>
        <time>2018-09-29T14:36:21Z</time>
      </trkpt>
      <trkpt lat="47.22918" lon="6.0227">
        <ele>294.3</ele>
        <time>2018-09-29T14:36:22Z</time>
      </trkpt>
      <trkpt lat="47.22919" lon="6.02279">
        <ele>293.34</ele>
        <time>2018-09-29T14:36:23Z</time>
      </trkpt>
      <trkpt lat="47.22921" lon="6.02289">
        <ele>292.86</ele>
        <time>2018-09-29T14:36:24Z</time>
      </trkpt>
      <trkpt lat="47.22924" lon="6.02299">
        <ele>291.9</ele>
        <time>2018-09-29T14:36:25Z</time>
      </trkpt>
      <trkpt lat="47.22927" lon="6.02309">
        <ele>291.42</ele>
        <time>2018-09-29T14:36:26Z</time>
      </trkpt>
      <trkpt lat="47.22929" lon="6.02318">
        <ele>290.46</ele>
        <time>2018-09-29T14:36:27Z</time>
      </trkpt>
      <trkpt lat="47.22934" lon="6.02333">
        <ele>289.01</ele>
        <time>2018-09-29T14:36:29Z</time>
      </trkpt>
      <trkpt lat="47.22936" lon="6.02348">
        <ele>288.05</ele>
        <time>2018-09-29T14:36:31Z</time>
      </trkpt>
      <trkpt lat="47.22938" lon="6.02375">
        <ele>284.69</ele>
        <time>2018-09-29T14:36:35Z</time>
      </trkpt>
      <trkpt lat="47.2294" lon="6.02391">
        <ele>282.77</ele>
        <time>2018-09-29T14:36:38Z</time>
      </trkpt>
      <trkpt lat="47.22948" lon="6.02395">
        <ele>280.84</ele>
        <time>2018-09-29T14:36:44Z</time>
      </trkpt>
      <trkpt lat="47.2295" lon="6.02392">
        <ele>279.88</ele>
        <time>2018-09-29T14:36:45Z</time>
      </trkpt>
      <trkpt lat="47.22953" lon="6.02388">
        <ele>278.92</ele>
        <time>2018-09-29T14:36:46Z</time>
      </trkpt>
      <trkpt lat="47.22955" lon="6.02382">
        <ele>277.48</ele>
        <time>2018-09-29T14:36:47Z</time>
      </trkpt>
      <trkpt lat="47.22957" lon="6.02375">
        <ele>277</ele>
        <time>2018-09-29T14:36:48Z</time>
      </trkpt>
      <trkpt lat="47.2296" lon="6.0237">
        <ele>276.04</ele>
        <time>2018-09-29T14:36:49Z</time>
      </trkpt>
      <trkpt lat="47.22965" lon="6.02357">
        <ele>274.11</ele>
        <time>2018-09-29T14:36:51Z</time>
      </trkpt>
      <trkpt lat="47.22967" lon="6.0235">
        <ele>273.15</ele>
        <time>2018-09-29T14:36:52Z</time>
      </trkpt>
      <trkpt lat="47.22974" lon="6.02321">
        <ele>269.79</ele>
        <time>2018-09-29T14:36:58Z</time>
      </trkpt>
      <trkpt lat="47.22975" lon="6.02304">
        <ele>266.42</ele>
        <time>2018-09-29T14:37:01Z</time>
      </trkpt>
      <trkpt lat="47.22977" lon="6.02291">
        <ele>264.02</ele>
        <time>2018-09-29T14:37:04Z</time>
      </trkpt>
      <trkpt lat="47.22977" lon="6.02286">
        <ele>263.54</ele>
        <time>2018-09-29T14:37:05Z</time>
      </trkpt>
      <trkpt lat="47.22979" lon="6.0228">
        <ele>262.58</ele>
        <time>2018-09-29T14:37:06Z</time>
      </trkpt>
      <trkpt lat="47.22984" lon="6.02264">
        <ele>262.1</ele>
        <time>2018-09-29T14:37:09Z</time>
      </trkpt>
      <trkpt lat="47.22985" lon="6.02261">
        <ele>262.1</ele>
        <time>2018-09-29T14:37:10Z</time>
      </trkpt>
      <trkpt lat="47.22986" lon="6.02258">
        <ele>261.14</ele>
        <time>2018-09-29T14:37:11Z</time>
      </trkpt>
      <trkpt lat="47.22986" lon="6.02255">
        <ele>260.65</ele>
        <time>2018-09-29T14:37:12Z</time>
      </trkpt>
      <trkpt lat="47.22987" lon="6.0225">
        <ele>260.17</ele>
        <time>2018-09-29T14:37:13Z</time>
      </trkpt>
      <trkpt lat="47.22988" lon="6.02247">
        <ele>259.69</ele>
        <time>2018-09-29T14:37:14Z</time>
      </trkpt>
      <trkpt lat="47.22991" lon="6.02233">
        <ele>258.25</ele>
        <time>2018-09-29T14:37:24Z</time>
      </trkpt>
      <trkpt lat="47.22991" lon="6.02231">
        <ele>257.77</ele>
        <time>2018-09-29T14:37:26Z</time>
      </trkpt>
      <trkpt lat="47.22992" lon="6.02228">
        <ele>256.81</ele>
        <time>2018-09-29T14:37:29Z</time>
      </trkpt>
      <trkpt lat="47.22994" lon="6.02225">
        <ele>255.37</ele>
        <time>2018-09-29T14:37:44Z</time>
      </trkpt>
      <trkpt lat="47.22998" lon="6.02225">
        <ele>252.48</ele>
        <time>2018-09-29T14:37:56Z</time>
      </trkpt>
      <trkpt lat="47.23" lon="6.02223">
        <ele>249.12</ele>
        <time>2018-09-29T14:38:08Z</time>
      </trkpt>
      <trkpt lat="47.22999" lon="6.02226">
        <ele>249.12</ele>
        <time>2018-09-29T14:38:14Z</time>
      </trkpt>
      <trkpt lat="47.23" lon="6.02228">
        <ele>249.12</ele>
        <time>2018-09-29T14:38:15Z</time>
      </trkpt>
      <trkpt lat="47.23" lon="6.02232">
        <ele>249.12</ele>
        <time>2018-09-29T14:38:17Z</time>
      </trkpt>
      <trkpt lat="47.23001" lon="6.02234">
        <ele>248.64</ele>
        <time>2018-09-29T14:38:18Z</time>
      </trkpt>
      <trkpt lat="47.23001" lon="6.02238">
        <ele>248.64</ele>
        <time>2018-09-29T14:38:19Z</time>
      </trkpt>
      <trkpt lat="47.23001" lon="6.02241">
        <ele>248.64</ele>
        <time>2018-09-29T14:38:20Z</time>
      </trkpt>
      <trkpt lat="47.23" lon="6.02245">
        <ele>248.64</ele>
        <time>2018-09-29T14:38:21Z</time>
      </trkpt>
      <trkpt lat="47.22995" lon="6.02307">
        <ele>247.2</ele>
        <time>2018-09-29T14:38:33Z</time>
      </trkpt>
      <trkpt lat="47.22989" lon="6.02381">
        <ele>246.72</ele>
        <time>2018-09-29T14:38:45Z</time>
      </trkpt>
      <trkpt lat="47.22975" lon="6.02435">
        <ele>248.64</ele>
        <time>2018-09-29T14:38:54Z</time>
      </trkpt>
      <trkpt lat="47.22973" lon="6.02455">
        <ele>248.16</ele>
        <time>2018-09-29T14:38:57Z</time>
      </trkpt>
      <trkpt lat="47.22972" lon="6.02486">
        <ele>247.2</ele>
        <time>2018-09-29T14:39:01Z</time>
      </trkpt>
      <trkpt lat="47.22971" lon="6.02494">
        <ele>246.72</ele>
        <time>2018-09-29T14:39:02Z</time>
      </trkpt>
      <trkpt lat="47.22963" lon="6.02534">
        <ele>246.72</ele>
        <time>2018-09-29T14:39:07Z</time>
      </trkpt>
      <trkpt lat="47.22961" lon="6.0255">
        <ele>247.2</ele>
        <time>2018-09-29T14:39:09Z</time>
      </trkpt>
      <trkpt lat="47.22961" lon="6.02558">
        <ele>246.72</ele>
        <time>2018-09-29T14:39:10Z</time>
      </trkpt>
      <trkpt lat="47.2296" lon="6.02566">
        <ele>246.72</ele>
        <time>2018-09-29T14:39:11Z</time>
      </trkpt>
      <trkpt lat="47.22958" lon="6.02573">
        <ele>246.72</ele>
        <time>2018-09-29T14:39:12Z</time>
      </trkpt>
      <trkpt lat="47.22957" lon="6.02579">
        <ele>247.2</ele>
        <time>2018-09-29T14:39:13Z</time>
      </trkpt>
      <trkpt lat="47.22955" lon="6.02586">
        <ele>247.2</ele>
        <time>2018-09-29T14:39:14Z</time>
      </trkpt>
      <trkpt lat="47.22953" lon="6.02593">
        <ele>247.2</ele>
        <time>2018-09-29T14:39:15Z</time>
      </trkpt>
      <trkpt lat="47.22952" lon="6.026">
        <ele>246.72</ele>
        <time>2018-09-29T14:39:16Z</time>
      </trkpt>
      <trkpt lat="47.22944" lon="6.02632">
        <ele>247.2</ele>
        <time>2018-09-29T14:39:21Z</time>
      </trkpt>
      <trkpt lat="47.22941" lon="6.02639">
        <ele>246.72</ele>
        <time>2018-09-29T14:39:22Z</time>
      </trkpt>
      <trkpt lat="47.2294" lon="6.02646">
        <ele>247.2</ele>
        <time>2018-09-29T14:39:23Z</time>
      </trkpt>
      <trkpt lat="47.22938" lon="6.02652">
        <ele>246.72</ele>
        <time>2018-09-29T14:39:24Z</time>
      </trkpt>
      <trkpt lat="47.22936" lon="6.02658">
        <ele>247.2</ele>
        <time>2018-09-29T14:39:25Z</time>
      </trkpt>
      <trkpt lat="47.22933" lon="6.02664">
        <ele>247.2</ele>
        <time>2018-09-29T14:39:26Z</time>
      </trkpt>
      <trkpt lat="47.22931" lon="6.02671">
        <ele>247.2</ele>
        <time>2018-09-29T14:39:27Z</time>
      </trkpt>
      <trkpt lat="47.22929" lon="6.02679">
        <ele>247.2</ele>
        <time>2018-09-29T14:39:28Z</time>
      </trkpt>
      <trkpt lat="47.22927" lon="6.02686">
        <ele>247.2</ele>
        <time>2018-09-29T14:39:29Z</time>
      </trkpt>
      <trkpt lat="47.22917" lon="6.02721">
        <ele>247.2</ele>
        <time>2018-09-29T14:39:34Z</time>
      </trkpt>
      <trkpt lat="47.22913" lon="6.02737">
        <ele>246.72</ele>
        <time>2018-09-29T14:39:36Z</time>
      </trkpt>
      <trkpt lat="47.22911" lon="6.02745">
        <ele>246.72</ele>
        <time>2018-09-29T14:39:37Z</time>
      </trkpt>
      <trkpt lat="47.22904" lon="6.0277">
        <ele>246.23</ele>
        <time>2018-09-29T14:39:40Z</time>
      </trkpt>
      <trkpt lat="47.22902" lon="6.02779">
        <ele>245.27</ele>
        <time>2018-09-29T14:39:41Z</time>
      </trkpt>
      <trkpt lat="47.22889" lon="6.02808">
        <ele>244.79</ele>
        <time>2018-09-29T14:39:44Z</time>
      </trkpt>
      <trkpt lat="47.22869" lon="6.02876">
        <ele>245.27</ele>
        <time>2018-09-29T14:39:52Z</time>
      </trkpt>
      <trkpt lat="47.22854" lon="6.02924">
        <ele>245.75</ele>
        <time>2018-09-29T14:39:58Z</time>
      </trkpt>
      <trkpt lat="47.22851" lon="6.02932">
        <ele>245.27</ele>
        <time>2018-09-29T14:39:59Z</time>
      </trkpt>
      <trkpt lat="47.22847" lon="6.02939">
        <ele>245.27</ele>
        <time>2018-09-29T14:40:00Z</time>
      </trkpt>
      <trkpt lat="47.22837" lon="6.02959">
        <ele>245.27</ele>
        <time>2018-09-29T14:40:03Z</time>
      </trkpt>
      <trkpt lat="47.22832" lon="6.02965">
        <ele>245.27</ele>
        <time>2018-09-29T14:40:04Z</time>
      </trkpt>
      <trkpt lat="47.22824" lon="6.02975">
        <ele>245.27</ele>
        <time>2018-09-29T14:40:06Z</time>
      </trkpt>
      <trkpt lat="47.2282" lon="6.02981">
        <ele>244.79</ele>
        <time>2018-09-29T14:40:07Z</time>
      </trkpt>
      <trkpt lat="47.22806" lon="6.03008">
        <ele>244.79</ele>
        <time>2018-09-29T14:40:11Z</time>
      </trkpt>
      <trkpt lat="47.22803" lon="6.03014">
        <ele>244.79</ele>
        <time>2018-09-29T14:40:12Z</time>
      </trkpt>
      <trkpt lat="47.22791" lon="6.03032">
        <ele>245.27</ele>
        <time>2018-09-29T14:40:15Z</time>
      </trkpt>
      <trkpt lat="47.22787" lon="6.03037">
        <ele>245.27</ele>
        <time>2018-09-29T14:40:16Z</time>
      </trkpt>
      <trkpt lat="47.22783" lon="6.03043">
        <ele>245.27</ele>
        <time>2018-09-29T14:40:17Z</time>
      </trkpt>
      <trkpt lat="47.22757" lon="6.03074">
        <ele>246.72</ele>
        <time>2018-09-29T14:40:23Z</time>
      </trkpt>
      <trkpt lat="47.22752" lon="6.03078">
        <ele>246.72</ele>
        <time>2018-09-29T14:40:24Z</time>
      </trkpt>
      <trkpt lat="47.22705" lon="6.03119">
        <ele>249.6</ele>
        <time>2018-09-29T14:40:36Z</time>
      </trkpt>
      <trkpt lat="47.22701" lon="6.03121">
        <ele>250.08</ele>
        <time>2018-09-29T14:40:37Z</time>
      </trkpt>
      <trkpt lat="47.22699" lon="6.03125">
        <ele>250.08</ele>
        <time>2018-09-29T14:40:38Z</time>
      </trkpt>
      <trkpt lat="47.22697" lon="6.0313">
        <ele>250.56</ele>
        <time>2018-09-29T14:40:39Z</time>
      </trkpt>
      <trkpt lat="47.22697" lon="6.03135">
        <ele>250.56</ele>
        <time>2018-09-29T14:40:40Z</time>
      </trkpt>
      <trkpt lat="47.22699" lon="6.0314">
        <ele>251.04</ele>
        <time>2018-09-29T14:40:41Z</time>
      </trkpt>
      <trkpt lat="47.22716" lon="6.03233">
        <ele>250.08</ele>
        <time>2018-09-29T14:40:56Z</time>
      </trkpt>
      <trkpt lat="47.22717" lon="6.03238">
        <ele>249.6</ele>
        <time>2018-09-29T14:40:57Z</time>
      </trkpt>
      <trkpt lat="47.2272" lon="6.0324">
        <ele>249.6</ele>
        <time>2018-09-29T14:40:58Z</time>
      </trkpt>
      <trkpt lat="47.22724" lon="6.03239">
        <ele>249.6</ele>
        <time>2018-09-29T14:40:59Z</time>
      </trkpt>
      <trkpt lat="47.22728" lon="6.03237">
        <ele>249.6</ele>
        <time>2018-09-29T14:41:00Z</time>
      </trkpt>
      <trkpt lat="47.22732" lon="6.03236">
        <ele>249.6</ele>
        <time>2018-09-29T14:41:01Z</time>
      </trkpt>
      <trkpt lat="47.22737" lon="6.03234">
        <ele>249.12</ele>
        <time>2018-09-29T14:41:02Z</time>
      </trkpt>
      <trkpt lat="47.22754" lon="6.03227">
        <ele>248.16</ele>
        <time>2018-09-29T14:41:05Z</time>
      </trkpt>
      <trkpt lat="47.22765" lon="6.03218">
        <ele>247.68</ele>
        <time>2018-09-29T14:41:07Z</time>
      </trkpt>
      <trkpt lat="47.22824" lon="6.03169">
        <ele>247.2</ele>
        <time>2018-09-29T14:41:18Z</time>
      </trkpt>
      <trkpt lat="47.22828" lon="6.03162">
        <ele>245.75</ele>
        <time>2018-09-29T14:41:19Z</time>
      </trkpt>
      <trkpt lat="47.2285" lon="6.03121">
        <ele>246.72</ele>
        <time>2018-09-29T14:41:26Z</time>
      </trkpt>
      <trkpt lat="47.22853" lon="6.03116">
        <ele>246.72</ele>
        <time>2018-09-29T14:41:27Z</time>
      </trkpt>
      <trkpt lat="47.22885" lon="6.03069">
        <ele>246.72</ele>
        <time>2018-09-29T14:41:36Z</time>
      </trkpt>
      <trkpt lat="47.22888" lon="6.03065">
        <ele>247.2</ele>
        <time>2018-09-29T14:41:37Z</time>
      </trkpt>
      <trkpt lat="47.22896" lon="6.03057">
        <ele>248.16</ele>
        <time>2018-09-29T14:41:39Z</time>
      </trkpt>
      <trkpt lat="47.22901" lon="6.03054">
        <ele>248.16</ele>
        <time>2018-09-29T14:41:40Z</time>
      </trkpt>
      <trkpt lat="47.22905" lon="6.03051">
        <ele>248.16</ele>
        <time>2018-09-29T14:41:41Z</time>
      </trkpt>
      <trkpt lat="47.22933" lon="6.0304">
        <ele>248.64</ele>
        <time>2018-09-29T14:41:47Z</time>
      </trkpt>
      <trkpt lat="47.22937" lon="6.03039">
        <ele>248.16</ele>
        <time>2018-09-29T14:41:48Z</time>
      </trkpt>
      <trkpt lat="47.22941" lon="6.03039">
        <ele>247.68</ele>
        <time>2018-09-29T14:41:49Z</time>
      </trkpt>
      <trkpt lat="47.22964" lon="6.03042">
        <ele>248.16</ele>
        <time>2018-09-29T14:41:54Z</time>
      </trkpt>
      <trkpt lat="47.22968" lon="6.03043">
        <ele>248.16</ele>
        <time>2018-09-29T14:41:55Z</time>
      </trkpt>
      <trkpt lat="47.22972" lon="6.03044">
        <ele>248.16</ele>
        <time>2018-09-29T14:41:56Z</time>
      </trkpt>
      <trkpt lat="47.22976" lon="6.03045">
        <ele>248.16</ele>
        <time>2018-09-29T14:41:58Z</time>
      </trkpt>
      <trkpt lat="47.22978" lon="6.03044">
        <ele>248.16</ele>
        <time>2018-09-29T14:41:59Z</time>
      </trkpt>
      <trkpt lat="47.2298" lon="6.03043">
        <ele>247.68</ele>
        <time>2018-09-29T14:42:00Z</time>
      </trkpt>
      <trkpt lat="47.22982" lon="6.03043">
        <ele>247.2</ele>
        <time>2018-09-29T14:42:01Z</time>
      </trkpt>
      <trkpt lat="47.22985" lon="6.03046">
        <ele>247.2</ele>
        <time>2018-09-29T14:42:02Z</time>
      </trkpt>
      <trkpt lat="47.22987" lon="6.03049">
        <ele>247.68</ele>
        <time>2018-09-29T14:42:03Z</time>
      </trkpt>
      <trkpt lat="47.22996" lon="6.0306">
        <ele>248.64</ele>
        <time>2018-09-29T14:42:07Z</time>
      </trkpt>
      <trkpt lat="47.22996" lon="6.03065">
        <ele>248.64</ele>
        <time>2018-09-29T14:42:08Z</time>
      </trkpt>
      <trkpt lat="47.23" lon="6.03084">
        <ele>248.64</ele>
        <time>2018-09-29T14:42:21Z</time>
      </trkpt>
      <trkpt lat="47.23158" lon="6.03564">
        <ele>249.12</ele>
        <time>2018-09-29T14:43:32Z</time>
      </trkpt>
      <trkpt lat="47.23157" lon="6.03575">
        <ele>250.56</ele>
        <time>2018-09-29T14:43:35Z</time>
      </trkpt>
      <trkpt lat="47.23144" lon="6.03609">
        <ele>251.04</ele>
        <time>2018-09-29T14:43:41Z</time>
      </trkpt>
      <trkpt lat="47.23125" lon="6.03641">
        <ele>251.04</ele>
        <time>2018-09-29T14:43:48Z</time>
      </trkpt>
      <trkpt lat="47.23121" lon="6.0364">
        <ele>251.04</ele>
        <time>2018-09-29T14:43:49Z</time>
      </trkpt>
      <trkpt lat="47.2312" lon="6.03636">
        <ele>251.04</ele>
        <time>2018-09-29T14:43:50Z</time>
      </trkpt>
      <trkpt lat="47.23121" lon="6.03632">
        <ele>250.56</ele>
        <time>2018-09-29T14:43:51Z</time>
      </trkpt>
      <trkpt lat="47.23123" lon="6.03629">
        <ele>250.56</ele>
        <time>2018-09-29T14:43:52Z</time>
      </trkpt>
      <trkpt lat="47.23126" lon="6.03627">
        <ele>251.04</ele>
        <time>2018-09-29T14:43:53Z</time>
      </trkpt>
      <trkpt lat="47.23128" lon="6.03623">
        <ele>251.04</ele>
        <time>2018-09-29T14:43:54Z</time>
      </trkpt>
      <trkpt lat="47.2313" lon="6.03619">
        <ele>251.52</ele>
        <time>2018-09-29T14:43:55Z</time>
      </trkpt>
      <trkpt lat="47.23131" lon="6.03615">
        <ele>252</ele>
        <time>2018-09-29T14:43:56Z</time>
      </trkpt>
      <trkpt lat="47.23132" lon="6.03611">
        <ele>252.48</ele>
        <time>2018-09-29T14:43:57Z</time>
      </trkpt>
      <trkpt lat="47.23133" lon="6.03608">
        <ele>252.48</ele>
        <time>2018-09-29T14:43:58Z</time>
      </trkpt>
      <trkpt lat="47.23134" lon="6.03604">
        <ele>252.96</ele>
        <time>2018-09-29T14:43:59Z</time>
      </trkpt>
      <trkpt lat="47.23135" lon="6.036">
        <ele>252.96</ele>
        <time>2018-09-29T14:44:00Z</time>
      </trkpt>
      <trkpt lat="47.23136" lon="6.03597">
        <ele>253.44</ele>
        <time>2018-09-29T14:44:01Z</time>
      </trkpt>
      <trkpt lat="47.23158" lon="6.03576">
        <ele>253.44</ele>
        <time>2018-09-29T14:44:09Z</time>
      </trkpt>
      <trkpt lat="47.23162" lon="6.03576">
        <ele>253.44</ele>
        <time>2018-09-29T14:44:10Z</time>
      </trkpt>
      <trkpt lat="47.23166" lon="6.03577">
        <ele>253.44</ele>
        <time>2018-09-29T14:44:11Z</time>
      </trkpt>
      <trkpt lat="47.2317" lon="6.0358">
        <ele>252.96</ele>
        <time>2018-09-29T14:44:12Z</time>
      </trkpt>
      <trkpt lat="47.23175" lon="6.03583">
        <ele>252.96</ele>
        <time>2018-09-29T14:44:13Z</time>
      </trkpt>
      <trkpt lat="47.23185" lon="6.03587">
        <ele>252.48</ele>
        <time>2018-09-29T14:44:15Z</time>
      </trkpt>
      <trkpt lat="47.23231" lon="6.03595">
        <ele>249.6</ele>
        <time>2018-09-29T14:44:23Z</time>
      </trkpt>
      <trkpt lat="47.23237" lon="6.03594">
        <ele>250.08</ele>
        <time>2018-09-29T14:44:24Z</time>
      </trkpt>
      <trkpt lat="47.23242" lon="6.03593">
        <ele>250.08</ele>
        <time>2018-09-29T14:44:25Z</time>
      </trkpt>
      <trkpt lat="47.23247" lon="6.03591">
        <ele>250.08</ele>
        <time>2018-09-29T14:44:26Z</time>
      </trkpt>
      <trkpt lat="47.23252" lon="6.03589">
        <ele>249.6</ele>
        <time>2018-09-29T14:44:27Z</time>
      </trkpt>
      <trkpt lat="47.23299" lon="6.03567">
        <ele>249.12</ele>
        <time>2018-09-29T14:44:38Z</time>
      </trkpt>
      <trkpt lat="47.23304" lon="6.03564">
        <ele>249.12</ele>
        <time>2018-09-29T14:44:39Z</time>
      </trkpt>
      <trkpt lat="47.23385" lon="6.03521">
        <ele>249.6</ele>
        <time>2018-09-29T14:44:57Z</time>
      </trkpt>
      <trkpt lat="47.23417" lon="6.03502">
        <ele>251.04</ele>
        <time>2018-09-29T14:45:04Z</time>
      </trkpt>
      <trkpt lat="47.23451" lon="6.03485">
        <ele>251.04</ele>
        <time>2018-09-29T14:45:12Z</time>
      </trkpt>
      <trkpt lat="47.23454" lon="6.03488">
        <ele>251.52</ele>
        <time>2018-09-29T14:45:13Z</time>
      </trkpt>
      <trkpt lat="47.23455" lon="6.03492">
        <ele>251.52</ele>
        <time>2018-09-29T14:45:14Z</time>
      </trkpt>
      <trkpt lat="47.23454" lon="6.03496">
        <ele>251.52</ele>
        <time>2018-09-29T14:45:15Z</time>
      </trkpt>
      <trkpt lat="47.23452" lon="6.035">
        <ele>251.52</ele>
        <time>2018-09-29T14:45:16Z</time>
      </trkpt>
      <trkpt lat="47.2345" lon="6.03504">
        <ele>251.52</ele>
        <time>2018-09-29T14:45:17Z</time>
      </trkpt>
      <trkpt lat="47.23434" lon="6.03544">
        <ele>252.48</ele>
        <time>2018-09-29T14:45:25Z</time>
      </trkpt>
      <trkpt lat="47.2342" lon="6.0357">
        <ele>252.48</ele>
        <time>2018-09-29T14:45:30Z</time>
      </trkpt>
      <trkpt lat="47.23382" lon="6.03661">
        <ele>252.48</ele>
        <time>2018-09-29T14:45:46Z</time>
      </trkpt>
      <trkpt lat="47.23381" lon="6.03665">
        <ele>252.48</ele>
        <time>2018-09-29T14:45:47Z</time>
      </trkpt>
      <trkpt lat="47.23387" lon="6.03668">
        <ele>252.48</ele>
        <time>2018-09-29T14:45:50Z</time>
      </trkpt>
      <trkpt lat="47.23415" lon="6.03652">
        <ele>252</ele>
        <time>2018-09-29T14:45:59Z</time>
      </trkpt>
      <trkpt lat="47.23441" lon="6.0364">
        <ele>252.48</ele>
        <time>2018-09-29T14:46:08Z</time>
      </trkpt>
      <trkpt lat="47.23484" lon="6.0362">
        <ele>253.44</ele>
        <time>2018-09-29T14:46:19Z</time>
      </trkpt>
      <trkpt lat="47.23508" lon="6.03607">
        <ele>253.44</ele>
        <time>2018-09-29T14:46:24Z</time>
      </trkpt>
      <trkpt lat="47.23528" lon="6.03598">
        <ele>252.96</ele>
        <time>2018-09-29T14:46:28Z</time>
      </trkpt>
      <trkpt lat="47.23547" lon="6.03593">
        <ele>253.93</ele>
        <time>2018-09-29T14:46:32Z</time>
      </trkpt>
      <trkpt lat="47.23551" lon="6.0359">
        <ele>253.93</ele>
        <time>2018-09-29T14:46:33Z</time>
      </trkpt>
      <trkpt lat="47.23556" lon="6.03587">
        <ele>253.44</ele>
        <time>2018-09-29T14:46:34Z</time>
      </trkpt>
      <trkpt lat="47.23561" lon="6.03584">
        <ele>252.96</ele>
        <time>2018-09-29T14:46:35Z</time>
      </trkpt>
      <trkpt lat="47.23566" lon="6.03581">
        <ele>252.48</ele>
        <time>2018-09-29T14:46:36Z</time>
      </trkpt>
      <trkpt lat="47.23572" lon="6.0358">
        <ele>252</ele>
        <time>2018-09-29T14:46:37Z</time>
      </trkpt>
      <trkpt lat="47.23587" lon="6.03575">
        <ele>250.56</ele>
        <time>2018-09-29T14:46:40Z</time>
      </trkpt>
      <trkpt lat="47.23599" lon="6.0357">
        <ele>250.56</ele>
        <time>2018-09-29T14:46:42Z</time>
      </trkpt>
      <trkpt lat="47.23605" lon="6.03568">
        <ele>250.56</ele>
        <time>2018-09-29T14:46:43Z</time>
      </trkpt>
      <trkpt lat="47.23611" lon="6.03566">
        <ele>250.56</ele>
        <time>2018-09-29T14:46:44Z</time>
      </trkpt>
      <trkpt lat="47.23622" lon="6.03564">
        <ele>250.56</ele>
        <time>2018-09-29T14:46:46Z</time>
      </trkpt>
      <trkpt lat="47.23626" lon="6.03564">
        <ele>250.56</ele>
        <time>2018-09-29T14:46:47Z</time>
      </trkpt>
      <trkpt lat="47.2363" lon="6.03568">
        <ele>251.04</ele>
        <time>2018-09-29T14:46:48Z</time>
      </trkpt>
      <trkpt lat="47.23633" lon="6.03571">
        <ele>250.56</ele>
        <time>2018-09-29T14:46:49Z</time>
      </trkpt>
      <trkpt lat="47.23634" lon="6.03574">
        <ele>250.08</ele>
        <time>2018-09-29T14:46:50Z</time>
      </trkpt>
      <trkpt lat="47.23637" lon="6.03576">
        <ele>250.08</ele>
        <time>2018-09-29T14:46:51Z</time>
      </trkpt>
      <trkpt lat="47.2364" lon="6.03578">
        <ele>250.08</ele>
        <time>2018-09-29T14:46:52Z</time>
      </trkpt>
      <trkpt lat="47.23657" lon="6.03584">
        <ele>250.08</ele>
        <time>2018-09-29T14:46:56Z</time>
      </trkpt>
      <trkpt lat="47.23661" lon="6.03587">
        <ele>250.08</ele>
        <time>2018-09-29T14:46:57Z</time>
      </trkpt>
      <trkpt lat="47.23665" lon="6.03591">
        <ele>249.6</ele>
        <time>2018-09-29T14:46:58Z</time>
      </trkpt>
      <trkpt lat="47.23669" lon="6.03595">
        <ele>249.6</ele>
        <time>2018-09-29T14:46:59Z</time>
      </trkpt>
      <trkpt lat="47.23671" lon="6.03601">
        <ele>250.08</ele>
        <time>2018-09-29T14:47:00Z</time>
      </trkpt>
      <trkpt lat="47.23674" lon="6.03607">
        <ele>250.08</ele>
        <time>2018-09-29T14:47:01Z</time>
      </trkpt>
      <trkpt lat="47.23675" lon="6.03613">
        <ele>250.56</ele>
        <time>2018-09-29T14:47:02Z</time>
      </trkpt>
      <trkpt lat="47.23676" lon="6.03619">
        <ele>251.04</ele>
        <time>2018-09-29T14:47:03Z</time>
      </trkpt>
      <trkpt lat="47.23677" lon="6.03625">
        <ele>251.04</ele>
        <time>2018-09-29T14:47:04Z</time>
      </trkpt>
      <trkpt lat="47.23682" lon="6.03634">
        <ele>251.04</ele>
        <time>2018-09-29T14:47:06Z</time>
      </trkpt>
      <trkpt lat="47.23686" lon="6.03637">
        <ele>251.04</ele>
        <time>2018-09-29T14:47:07Z</time>
      </trkpt>
      <trkpt lat="47.2369" lon="6.03639">
        <ele>251.04</ele>
        <time>2018-09-29T14:47:08Z</time>
      </trkpt>
      <trkpt lat="47.23694" lon="6.0364">
        <ele>251.04</ele>
        <time>2018-09-29T14:47:09Z</time>
      </trkpt>
      <trkpt lat="47.23698" lon="6.0364">
        <ele>251.04</ele>
        <time>2018-09-29T14:47:10Z</time>
      </trkpt>
      <trkpt lat="47.23742" lon="6.03642">
        <ele>252.96</ele>
        <time>2018-09-29T14:47:21Z</time>
      </trkpt>
      <trkpt lat="47.23805" lon="6.0364">
        <ele>254.89</ele>
        <time>2018-09-29T14:47:37Z</time>
      </trkpt>
      <trkpt lat="47.23819" lon="6.03641">
        <ele>254.89</ele>
        <time>2018-09-29T14:47:41Z</time>
      </trkpt>
      <trkpt lat="47.23821" lon="6.03645">
        <ele>254.41</ele>
        <time>2018-09-29T14:47:42Z</time>
      </trkpt>
      <trkpt lat="47.2382" lon="6.0365">
        <ele>255.37</ele>
        <time>2018-09-29T14:47:43Z</time>
      </trkpt>
      <trkpt lat="47.23818" lon="6.03653">
        <ele>255.85</ele>
        <time>2018-09-29T14:47:44Z</time>
      </trkpt>
      <trkpt lat="47.23815" lon="6.03655">
        <ele>255.85</ele>
        <time>2018-09-29T14:47:45Z</time>
      </trkpt>
      <trkpt lat="47.23813" lon="6.03657">
        <ele>256.33</ele>
        <time>2018-09-29T14:47:46Z</time>
      </trkpt>
      <trkpt lat="47.23793" lon="6.03674">
        <ele>258.25</ele>
        <time>2018-09-29T14:47:56Z</time>
      </trkpt>
      <trkpt lat="47.23793" lon="6.03677">
        <ele>258.73</ele>
        <time>2018-09-29T14:47:57Z</time>
      </trkpt>
      <trkpt lat="47.23792" lon="6.0368">
        <ele>259.21</ele>
        <time>2018-09-29T14:47:58Z</time>
      </trkpt>
      <trkpt lat="47.23792" lon="6.03682">
        <ele>259.21</ele>
        <time>2018-09-29T14:47:59Z</time>
      </trkpt>
      <trkpt lat="47.23793" lon="6.03686">
        <ele>259.69</ele>
        <time>2018-09-29T14:48:00Z</time>
      </trkpt>
      <trkpt lat="47.23793" lon="6.03689">
        <ele>259.69</ele>
        <time>2018-09-29T14:48:01Z</time>
      </trkpt>
      <trkpt lat="47.23805" lon="6.03736">
        <ele>262.58</ele>
        <time>2018-09-29T14:48:16Z</time>
      </trkpt>
      <trkpt lat="47.23809" lon="6.03755">
        <ele>264.02</ele>
        <time>2018-09-29T14:48:22Z</time>
      </trkpt>
      <trkpt lat="47.2381" lon="6.03758">
        <ele>264.02</ele>
        <time>2018-09-29T14:48:23Z</time>
      </trkpt>
      <trkpt lat="47.23811" lon="6.03761">
        <ele>264.02</ele>
        <time>2018-09-29T14:48:24Z</time>
      </trkpt>
      <trkpt lat="47.23824" lon="6.03799">
        <ele>266.9</ele>
        <time>2018-09-29T14:48:39Z</time>
      </trkpt>
      <trkpt lat="47.23827" lon="6.03807">
        <ele>267.38</ele>
        <time>2018-09-29T14:48:42Z</time>
      </trkpt>
      <trkpt lat="47.23829" lon="6.03812">
        <ele>267.86</ele>
        <time>2018-09-29T14:48:44Z</time>
      </trkpt>
      <trkpt lat="47.2383" lon="6.03815">
        <ele>267.86</ele>
        <time>2018-09-29T14:48:45Z</time>
      </trkpt>
      <trkpt lat="47.23843" lon="6.0385">
        <ele>270.27</ele>
        <time>2018-09-29T14:48:58Z</time>
      </trkpt>
      <trkpt lat="47.2386" lon="6.03886">
        <ele>273.63</ele>
        <time>2018-09-29T14:49:13Z</time>
      </trkpt>
      <trkpt lat="47.23874" lon="6.03919">
        <ele>275.07</ele>
        <time>2018-09-29T14:49:26Z</time>
      </trkpt>
      <trkpt lat="47.23892" lon="6.03954">
        <ele>277.96</ele>
        <time>2018-09-29T14:49:40Z</time>
      </trkpt>
      <trkpt lat="47.2391" lon="6.03991">
        <ele>280.84</ele>
        <time>2018-09-29T14:49:55Z</time>
      </trkpt>
      <trkpt lat="47.23929" lon="6.04028">
        <ele>283.73</ele>
        <time>2018-09-29T14:50:11Z</time>
      </trkpt>
      <trkpt lat="47.23948" lon="6.04058">
        <ele>286.61</ele>
        <time>2018-09-29T14:50:24Z</time>
      </trkpt>
      <trkpt lat="47.23966" lon="6.04087">
        <ele>289.49</ele>
        <time>2018-09-29T14:50:37Z</time>
      </trkpt>
      <trkpt lat="47.23987" lon="6.04119">
        <ele>292.38</ele>
        <time>2018-09-29T14:50:51Z</time>
      </trkpt>
      <trkpt lat="47.24005" lon="6.04144">
        <ele>294.3</ele>
        <time>2018-09-29T14:51:04Z</time>
      </trkpt>
      <trkpt lat="47.24016" lon="6.04155">
        <ele>296.7</ele>
        <time>2018-09-29T14:51:11Z</time>
      </trkpt>
      <trkpt lat="47.24026" lon="6.0416">
        <ele>298.15</ele>
        <time>2018-09-29T14:51:16Z</time>
      </trkpt>
      <trkpt lat="47.24029" lon="6.0416">
        <ele>298.15</ele>
        <time>2018-09-29T14:51:17Z</time>
      </trkpt>
      <trkpt lat="47.24031" lon="6.0416">
        <ele>298.15</ele>
        <time>2018-09-29T14:51:18Z</time>
      </trkpt>
      <trkpt lat="47.24033" lon="6.0416">
        <ele>298.15</ele>
        <time>2018-09-29T14:51:19Z</time>
      </trkpt>
      <trkpt lat="47.24035" lon="6.04159">
        <ele>298.63</ele>
        <time>2018-09-29T14:51:20Z</time>
      </trkpt>
      <trkpt lat="47.24038" lon="6.04158">
        <ele>299.11</ele>
        <time>2018-09-29T14:51:21Z</time>
      </trkpt>
      <trkpt lat="47.24039" lon="6.04156">
        <ele>299.11</ele>
        <time>2018-09-29T14:51:22Z</time>
      </trkpt>
      <trkpt lat="47.24041" lon="6.04155">
        <ele>299.11</ele>
        <time>2018-09-29T14:51:23Z</time>
      </trkpt>
      <trkpt lat="47.24044" lon="6.04154">
        <ele>299.11</ele>
        <time>2018-09-29T14:51:24Z</time>
      </trkpt>
      <trkpt lat="47.24046" lon="6.04153">
        <ele>299.59</ele>
        <time>2018-09-29T14:51:25Z</time>
      </trkpt>
      <trkpt lat="47.24048" lon="6.04151">
        <ele>299.59</ele>
        <time>2018-09-29T14:51:26Z</time>
      </trkpt>
      <trkpt lat="47.2405" lon="6.04149">
        <ele>300.07</ele>
        <time>2018-09-29T14:51:27Z</time>
      </trkpt>
      <trkpt lat="47.24052" lon="6.04146">
        <ele>299.59</ele>
        <time>2018-09-29T14:51:28Z</time>
      </trkpt>
      <trkpt lat="47.24053" lon="6.04144">
        <ele>300.07</ele>
        <time>2018-09-29T14:51:29Z</time>
      </trkpt>
      <trkpt lat="47.24054" lon="6.04142">
        <ele>300.55</ele>
        <time>2018-09-29T14:51:30Z</time>
      </trkpt>
      <trkpt lat="47.24055" lon="6.04139">
        <ele>300.55</ele>
        <time>2018-09-29T14:51:31Z</time>
      </trkpt>
      <trkpt lat="47.24056" lon="6.04136">
        <ele>300.55</ele>
        <time>2018-09-29T14:51:32Z</time>
      </trkpt>
      <trkpt lat="47.24057" lon="6.04133">
        <ele>301.03</ele>
        <time>2018-09-29T14:51:33Z</time>
      </trkpt>
      <trkpt lat="47.24058" lon="6.0413">
        <ele>301.51</ele>
        <time>2018-09-29T14:51:34Z</time>
      </trkpt>
      <trkpt lat="47.24059" lon="6.04127">
        <ele>301.51</ele>
        <time>2018-09-29T14:51:35Z</time>
      </trkpt>
      <trkpt lat="47.2406" lon="6.04124">
        <ele>301.51</ele>
        <time>2018-09-29T14:51:36Z</time>
      </trkpt>
      <trkpt lat="47.24062" lon="6.04121">
        <ele>301.99</ele>
        <time>2018-09-29T14:51:37Z</time>
      </trkpt>
      <trkpt lat="47.24063" lon="6.04118">
        <ele>301.99</ele>
        <time>2018-09-29T14:51:38Z</time>
      </trkpt>
      <trkpt lat="47.24064" lon="6.04114">
        <ele>301.99</ele>
        <time>2018-09-29T14:51:39Z</time>
      </trkpt>
      <trkpt lat="47.24065" lon="6.04111">
        <ele>302.47</ele>
        <time>2018-09-29T14:51:40Z</time>
      </trkpt>
      <trkpt lat="47.24066" lon="6.04108">
        <ele>302.47</ele>
        <time>2018-09-29T14:51:41Z</time>
      </trkpt>
      <trkpt lat="47.24067" lon="6.04104">
        <ele>302.47</ele>
        <time>2018-09-29T14:51:42Z</time>
      </trkpt>
      <trkpt lat="47.24067" lon="6.041">
        <ele>302.95</ele>
        <time>2018-09-29T14:51:43Z</time>
      </trkpt>
      <trkpt lat="47.24075" lon="6.04059">
        <ele>304.88</ele>
        <time>2018-09-29T14:51:56Z</time>
      </trkpt>
      <trkpt lat="47.24079" lon="6.04015">
        <ele>307.76</ele>
        <time>2018-09-29T14:52:10Z</time>
      </trkpt>
      <trkpt lat="47.24083" lon="6.03967">
        <ele>311.12</ele>
        <time>2018-09-29T14:52:26Z</time>
      </trkpt>
      <trkpt lat="47.24082" lon="6.03923">
        <ele>313.53</ele>
        <time>2018-09-29T14:52:40Z</time>
      </trkpt>
      <trkpt lat="47.24077" lon="6.03877">
        <ele>316.89</ele>
        <time>2018-09-29T14:52:54Z</time>
      </trkpt>
      <trkpt lat="47.24076" lon="6.03852">
        <ele>318.33</ele>
        <time>2018-09-29T14:53:02Z</time>
      </trkpt>
      <trkpt lat="47.24078" lon="6.03851">
        <ele>318.33</ele>
        <time>2018-09-29T14:53:03Z</time>
      </trkpt>
      <trkpt lat="47.2408" lon="6.03852">
        <ele>318.33</ele>
        <time>2018-09-29T14:53:04Z</time>
      </trkpt>
      <trkpt lat="47.24081" lon="6.03855">
        <ele>318.81</ele>
        <time>2018-09-29T14:53:05Z</time>
      </trkpt>
      <trkpt lat="47.24082" lon="6.03859">
        <ele>318.81</ele>
        <time>2018-09-29T14:53:06Z</time>
      </trkpt>
      <trkpt lat="47.24083" lon="6.03863">
        <ele>319.3</ele>
        <time>2018-09-29T14:53:07Z</time>
      </trkpt>
      <trkpt lat="47.24083" lon="6.03866">
        <ele>319.3</ele>
        <time>2018-09-29T14:53:08Z</time>
      </trkpt>
      <trkpt lat="47.24084" lon="6.0387">
        <ele>319.78</ele>
        <time>2018-09-29T14:53:09Z</time>
      </trkpt>
      <trkpt lat="47.24102" lon="6.03932">
        <ele>322.66</ele>
        <time>2018-09-29T14:53:25Z</time>
      </trkpt>
      <trkpt lat="47.24108" lon="6.03979">
        <ele>324.58</ele>
        <time>2018-09-29T14:53:37Z</time>
      </trkpt>
      <trkpt lat="47.24114" lon="6.04033">
        <ele>327.47</ele>
        <time>2018-09-29T14:53:50Z</time>
      </trkpt>
      <trkpt lat="47.24116" lon="6.0409">
        <ele>330.83</ele>
        <time>2018-09-29T14:54:04Z</time>
      </trkpt>
      <trkpt lat="47.24116" lon="6.04148">
        <ele>333.71</ele>
        <time>2018-09-29T14:54:18Z</time>
      </trkpt>
      <trkpt lat="47.24116" lon="6.04199">
        <ele>337.08</ele>
        <time>2018-09-29T14:54:31Z</time>
      </trkpt>
      <trkpt lat="47.24109" lon="6.04261">
        <ele>339.96</ele>
        <time>2018-09-29T14:54:46Z</time>
      </trkpt>
      <trkpt lat="47.24116" lon="6.04312">
        <ele>342.85</ele>
        <time>2018-09-29T14:55:00Z</time>
      </trkpt>
      <trkpt lat="47.24119" lon="6.04333">
        <ele>344.29</ele>
        <time>2018-09-29T14:55:05Z</time>
      </trkpt>
      <trkpt lat="47.24117" lon="6.04337">
        <ele>344.77</ele>
        <time>2018-09-29T14:55:06Z</time>
      </trkpt>
      <trkpt lat="47.24115" lon="6.0434">
        <ele>345.25</ele>
        <time>2018-09-29T14:55:07Z</time>
      </trkpt>
      <trkpt lat="47.24112" lon="6.04342">
        <ele>345.73</ele>
        <time>2018-09-29T14:55:08Z</time>
      </trkpt>
      <trkpt lat="47.24109" lon="6.04344">
        <ele>346.69</ele>
        <time>2018-09-29T14:55:09Z</time>
      </trkpt>
      <trkpt lat="47.24106" lon="6.04345">
        <ele>347.17</ele>
        <time>2018-09-29T14:55:10Z</time>
      </trkpt>
      <trkpt lat="47.24072" lon="6.04343">
        <ele>349.1</ele>
        <time>2018-09-29T14:55:21Z</time>
      </trkpt>
      <trkpt lat="47.24029" lon="6.0433">
        <ele>350.54</ele>
        <time>2018-09-29T14:55:36Z</time>
      </trkpt>
      <trkpt lat="47.24025" lon="6.04333">
        <ele>351.02</ele>
        <time>2018-09-29T14:55:39Z</time>
      </trkpt>
      <trkpt lat="47.24024" lon="6.04334">
        <ele>351.5</ele>
        <time>2018-09-29T14:55:40Z</time>
      </trkpt>
      <trkpt lat="47.24024" lon="6.04341">
        <ele>352.46</ele>
        <time>2018-09-29T14:55:44Z</time>
      </trkpt>
      <trkpt lat="47.24024" lon="6.04344">
        <ele>352.46</ele>
        <time>2018-09-29T14:55:45Z</time>
      </trkpt>
      <trkpt lat="47.24024" lon="6.04347">
        <ele>352.46</ele>
        <time>2018-09-29T14:55:46Z</time>
      </trkpt>
      <trkpt lat="47.24023" lon="6.04349">
        <ele>352.46</ele>
        <time>2018-09-29T14:55:47Z</time>
      </trkpt>
      <trkpt lat="47.24023" lon="6.04352">
        <ele>352.94</ele>
        <time>2018-09-29T14:55:48Z</time>
      </trkpt>
      <trkpt lat="47.24022" lon="6.04354">
        <ele>352.94</ele>
        <time>2018-09-29T14:55:49Z</time>
      </trkpt>
      <trkpt lat="47.24022" lon="6.04356">
        <ele>353.42</ele>
        <time>2018-09-29T14:55:50Z</time>
      </trkpt>
      <trkpt lat="47.24021" lon="6.04359">
        <ele>353.42</ele>
        <time>2018-09-29T14:55:51Z</time>
      </trkpt>
      <trkpt lat="47.2402" lon="6.04361">
        <ele>353.9</ele>
        <time>2018-09-29T14:55:52Z</time>
      </trkpt>
      <trkpt lat="47.24018" lon="6.04386">
        <ele>356.31</ele>
        <time>2018-09-29T14:56:04Z</time>
      </trkpt>
      <trkpt lat="47.24018" lon="6.04392">
        <ele>357.27</ele>
        <time>2018-09-29T14:56:09Z</time>
      </trkpt>
      <trkpt lat="47.24018" lon="6.04393">
        <ele>357.75</ele>
        <time>2018-09-29T14:56:10Z</time>
      </trkpt>
      <trkpt lat="47.24017" lon="6.04404">
        <ele>358.71</ele>
        <time>2018-09-29T14:56:17Z</time>
      </trkpt>
      <trkpt lat="47.24013" lon="6.04418">
        <ele>360.63</ele>
        <time>2018-09-29T14:56:26Z</time>
      </trkpt>
      <trkpt lat="47.24011" lon="6.04423">
        <ele>361.11</ele>
        <time>2018-09-29T14:56:29Z</time>
      </trkpt>
      <trkpt lat="47.2401" lon="6.04431">
        <ele>362.07</ele>
        <time>2018-09-29T14:56:32Z</time>
      </trkpt>
      <trkpt lat="47.24009" lon="6.04436">
        <ele>363.04</ele>
        <time>2018-09-29T14:56:34Z</time>
      </trkpt>
      <trkpt lat="47.24004" lon="6.04449">
        <ele>366.4</ele>
        <time>2018-09-29T14:56:42Z</time>
      </trkpt>
      <trkpt lat="47.24003" lon="6.04454">
        <ele>367.36</ele>
        <time>2018-09-29T14:56:44Z</time>
      </trkpt>
      <trkpt lat="47.24002" lon="6.0446">
        <ele>369.28</ele>
        <time>2018-09-29T14:56:48Z</time>
      </trkpt>
      <trkpt lat="47.23997" lon="6.04471">
        <ele>370.24</ele>
        <time>2018-09-29T14:57:02Z</time>
      </trkpt>
      <trkpt lat="47.23997" lon="6.04471">
        <ele>370.24</ele>
        <time>2018-09-29T14:57:03Z</time>
      </trkpt>
      <trkpt lat="47.23995" lon="6.04477">
        <ele>370.24</ele>
        <time>2018-09-29T14:57:07Z</time>
      </trkpt>
      <trkpt lat="47.23995" lon="6.0448">
        <ele>370.73</ele>
        <time>2018-09-29T14:57:09Z</time>
      </trkpt>
      <trkpt lat="47.23995" lon="6.04483">
        <ele>370.73</ele>
        <time>2018-09-29T14:57:12Z</time>
      </trkpt>
      <trkpt lat="47.23997" lon="6.04489">
        <ele>370.73</ele>
        <time>2018-09-29T14:57:16Z</time>
      </trkpt>
      <trkpt lat="47.24006" lon="6.04511">
        <ele>372.17</ele>
        <time>2018-09-29T14:57:29Z</time>
      </trkpt>
      <trkpt lat="47.24006" lon="6.0453">
        <ele>374.57</ele>
        <time>2018-09-29T14:57:39Z</time>
      </trkpt>
      <trkpt lat="47.23993" lon="6.04529">
        <ele>376.49</ele>
        <time>2018-09-29T14:57:49Z</time>
      </trkpt>
      <trkpt lat="47.23988" lon="6.04544">
        <ele>379.38</ele>
        <time>2018-09-29T14:57:58Z</time>
      </trkpt>
      <trkpt lat="47.23983" lon="6.04554">
        <ele>382.26</ele>
        <time>2018-09-29T14:58:08Z</time>
      </trkpt>
      <trkpt lat="47.23982" lon="6.04559">
        <ele>382.74</ele>
        <time>2018-09-29T14:58:19Z</time>
      </trkpt>
      <trkpt lat="47.23983" lon="6.04561">
        <ele>382.74</ele>
        <time>2018-09-29T14:58:36Z</time>
      </trkpt>
      <trkpt lat="47.23984" lon="6.04562">
        <ele>382.74</ele>
        <time>2018-09-29T14:58:54Z</time>
      </trkpt>
      <trkpt lat="47.23982" lon="6.04562">
        <ele>382.74</ele>
        <time>2018-09-29T14:59:15Z</time>
      </trkpt>
      <trkpt lat="47.23981" lon="6.04563">
        <ele>383.22</ele>
        <time>2018-09-29T14:59:23Z</time>
      </trkpt>
      <trkpt lat="47.23975" lon="6.04566">
        <ele>383.7</ele>
        <time>2018-09-29T14:59:28Z</time>
      </trkpt>
      <trkpt lat="47.23959" lon="6.04577">
        <ele>385.15</ele>
        <time>2018-09-29T14:59:41Z</time>
      </trkpt>
      <trkpt lat="47.23957" lon="6.04578">
        <ele>385.15</ele>
        <time>2018-09-29T14:59:42Z</time>
      </trkpt>
      <trkpt lat="47.23946" lon="6.04591">
        <ele>388.51</ele>
        <time>2018-09-29T14:59:55Z</time>
      </trkpt>
      <trkpt lat="47.2394" lon="6.046">
        <ele>389.95</ele>
        <time>2018-09-29T15:00:04Z</time>
      </trkpt>
      <trkpt lat="47.23931" lon="6.04608">
        <ele>390.91</ele>
        <time>2018-09-29T15:00:11Z</time>
      </trkpt>
      <trkpt lat="47.23927" lon="6.04625">
        <ele>392.84</ele>
        <time>2018-09-29T15:00:24Z</time>
      </trkpt>
      <trkpt lat="47.23926" lon="6.04626">
        <ele>393.32</ele>
        <time>2018-09-29T15:00:25Z</time>
      </trkpt>
      <trkpt lat="47.23919" lon="6.04635">
        <ele>394.28</ele>
        <time>2018-09-29T15:00:35Z</time>
      </trkpt>
      <trkpt lat="47.23906" lon="6.0465">
        <ele>395.72</ele>
        <time>2018-09-29T15:00:47Z</time>
      </trkpt>
      <trkpt lat="47.23898" lon="6.04655">
        <ele>397.64</ele>
        <time>2018-09-29T15:00:57Z</time>
      </trkpt>
      <trkpt lat="47.23894" lon="6.04662">
        <ele>399.57</ele>
        <time>2018-09-29T15:01:08Z</time>
      </trkpt>
      <trkpt lat="47.23886" lon="6.04674">
        <ele>402.45</ele>
        <time>2018-09-29T15:01:20Z</time>
      </trkpt>
      <trkpt lat="47.23873" lon="6.04688">
        <ele>404.85</ele>
        <time>2018-09-29T15:01:31Z</time>
      </trkpt>
      <trkpt lat="47.23864" lon="6.04695">
        <ele>405.81</ele>
        <time>2018-09-29T15:01:34Z</time>
      </trkpt>
      <trkpt lat="47.23851" lon="6.04709">
        <ele>408.7</ele>
        <time>2018-09-29T15:01:46Z</time>
      </trkpt>
      <trkpt lat="47.23846" lon="6.0472">
        <ele>410.62</ele>
        <time>2018-09-29T15:01:56Z</time>
      </trkpt>
      <trkpt lat="47.23842" lon="6.04726">
        <ele>412.54</ele>
        <time>2018-09-29T15:02:02Z</time>
      </trkpt>
      <trkpt lat="47.23837" lon="6.0474">
        <ele>415.43</ele>
        <time>2018-09-29T15:02:15Z</time>
      </trkpt>
      <trkpt lat="47.23835" lon="6.04742">
        <ele>415.91</ele>
        <time>2018-09-29T15:02:18Z</time>
      </trkpt>
      <trkpt lat="47.23834" lon="6.04745">
        <ele>418.31</ele>
        <time>2018-09-29T15:02:23Z</time>
      </trkpt>
      <trkpt lat="47.23813" lon="6.04766">
        <ele>420.71</ele>
        <time>2018-09-29T15:02:34Z</time>
      </trkpt>
      <trkpt lat="47.23814" lon="6.04771">
        <ele>420.23</ele>
        <time>2018-09-29T15:02:37Z</time>
      </trkpt>
      <trkpt lat="47.23829" lon="6.0481">
        <ele>418.79</ele>
        <time>2018-09-29T15:02:48Z</time>
      </trkpt>
      <trkpt lat="47.23838" lon="6.04841">
        <ele>418.79</ele>
        <time>2018-09-29T15:02:56Z</time>
      </trkpt>
      <trkpt lat="47.23854" lon="6.04897">
        <ele>417.35</ele>
        <time>2018-09-29T15:03:07Z</time>
      </trkpt>
      <trkpt lat="47.23863" lon="6.0492">
        <ele>416.39</ele>
        <time>2018-09-29T15:03:11Z</time>
      </trkpt>
      <trkpt lat="47.23866" lon="6.04926">
        <ele>415.43</ele>
        <time>2018-09-29T15:03:12Z</time>
      </trkpt>
      <trkpt lat="47.23869" lon="6.04932">
        <ele>414.95</ele>
        <time>2018-09-29T15:03:13Z</time>
      </trkpt>
      <trkpt lat="47.23877" lon="6.04945">
        <ele>414.95</ele>
        <time>2018-09-29T15:03:15Z</time>
      </trkpt>
      <trkpt lat="47.23882" lon="6.04958">
        <ele>414.95</ele>
        <time>2018-09-29T15:03:17Z</time>
      </trkpt>
      <trkpt lat="47.23886" lon="6.04969">
        <ele>415.43</ele>
        <time>2018-09-29T15:03:19Z</time>
      </trkpt>
      <trkpt lat="47.23887" lon="6.04974">
        <ele>415.43</ele>
        <time>2018-09-29T15:03:20Z</time>
      </trkpt>
      <trkpt lat="47.23888" lon="6.04979">
        <ele>415.43</ele>
        <time>2018-09-29T15:03:21Z</time>
      </trkpt>
      <trkpt lat="47.2389" lon="6.04983">
        <ele>415.43</ele>
        <time>2018-09-29T15:03:22Z</time>
      </trkpt>
      <trkpt lat="47.23892" lon="6.04988">
        <ele>415.43</ele>
        <time>2018-09-29T15:03:23Z</time>
      </trkpt>
      <trkpt lat="47.23907" lon="6.05026">
        <ele>414.95</ele>
        <time>2018-09-29T15:03:30Z</time>
      </trkpt>
      <trkpt lat="47.2391" lon="6.0503">
        <ele>414.95</ele>
        <time>2018-09-29T15:03:31Z</time>
      </trkpt>
      <trkpt lat="47.23943" lon="6.05095">
        <ele>414.47</ele>
        <time>2018-09-29T15:03:43Z</time>
      </trkpt>
      <trkpt lat="47.23956" lon="6.05123">
        <ele>414.47</ele>
        <time>2018-09-29T15:03:48Z</time>
      </trkpt>
      <trkpt lat="47.23964" lon="6.05138">
        <ele>414.47</ele>
        <time>2018-09-29T15:03:51Z</time>
      </trkpt>
      <trkpt lat="47.23993" lon="6.05203">
        <ele>414.47</ele>
        <time>2018-09-29T15:04:03Z</time>
      </trkpt>
      <trkpt lat="47.23996" lon="6.05208">
        <ele>414.95</ele>
        <time>2018-09-29T15:04:04Z</time>
      </trkpt>
      <trkpt lat="47.23999" lon="6.05214">
        <ele>414.47</ele>
        <time>2018-09-29T15:04:05Z</time>
      </trkpt>
      <trkpt lat="47.24003" lon="6.0522">
        <ele>414.47</ele>
        <time>2018-09-29T15:04:06Z</time>
      </trkpt>
      <trkpt lat="47.24005" lon="6.05226">
        <ele>414.95</ele>
        <time>2018-09-29T15:04:07Z</time>
      </trkpt>
      <trkpt lat="47.24016" lon="6.05248">
        <ele>414.95</ele>
        <time>2018-09-29T15:04:11Z</time>
      </trkpt>
      <trkpt lat="47.24019" lon="6.05254">
        <ele>414.95</ele>
        <time>2018-09-29T15:04:12Z</time>
      </trkpt>
      <trkpt lat="47.24021" lon="6.05259">
        <ele>414.95</ele>
        <time>2018-09-29T15:04:13Z</time>
      </trkpt>
      <trkpt lat="47.24024" lon="6.05265">
        <ele>415.43</ele>
        <time>2018-09-29T15:04:14Z</time>
      </trkpt>
      <trkpt lat="47.24027" lon="6.0527">
        <ele>414.95</ele>
        <time>2018-09-29T15:04:15Z</time>
      </trkpt>
      <trkpt lat="47.2403" lon="6.05276">
        <ele>415.43</ele>
        <time>2018-09-29T15:04:16Z</time>
      </trkpt>
      <trkpt lat="47.24033" lon="6.05281">
        <ele>415.43</ele>
        <time>2018-09-29T15:04:17Z</time>
      </trkpt>
      <trkpt lat="47.24035" lon="6.05286">
        <ele>415.43</ele>
        <time>2018-09-29T15:04:18Z</time>
      </trkpt>
      <trkpt lat="47.24037" lon="6.05291">
        <ele>415.43</ele>
        <time>2018-09-29T15:04:19Z</time>
      </trkpt>
      <trkpt lat="47.2404" lon="6.05297">
        <ele>415.43</ele>
        <time>2018-09-29T15:04:20Z</time>
      </trkpt>
      <trkpt lat="47.24043" lon="6.05303">
        <ele>415.43</ele>
        <time>2018-09-29T15:04:21Z</time>
      </trkpt>
      <trkpt lat="47.24045" lon="6.05309">
        <ele>415.43</ele>
        <time>2018-09-29T15:04:22Z</time>
      </trkpt>
      <trkpt lat="47.24048" lon="6.05316">
        <ele>415.43</ele>
        <time>2018-09-29T15:04:23Z</time>
      </trkpt>
      <trkpt lat="47.24052" lon="6.05322">
        <ele>415.43</ele>
        <time>2018-09-29T15:04:24Z</time>
      </trkpt>
      <trkpt lat="47.24059" lon="6.05331">
        <ele>415.43</ele>
        <time>2018-09-29T15:04:26Z</time>
      </trkpt>
      <trkpt lat="47.24062" lon="6.05336">
        <ele>415.43</ele>
        <time>2018-09-29T15:04:27Z</time>
      </trkpt>
      <trkpt lat="47.24069" lon="6.05346">
        <ele>415.43</ele>
        <time>2018-09-29T15:04:29Z</time>
      </trkpt>
      <trkpt lat="47.24071" lon="6.05352">
        <ele>415.43</ele>
        <time>2018-09-29T15:04:30Z</time>
      </trkpt>
      <trkpt lat="47.24077" lon="6.05374">
        <ele>415.43</ele>
        <time>2018-09-29T15:04:34Z</time>
      </trkpt>
      <trkpt lat="47.24081" lon="6.05379">
        <ele>415.43</ele>
        <time>2018-09-29T15:04:35Z</time>
      </trkpt>
      <trkpt lat="47.24084" lon="6.05384">
        <ele>415.43</ele>
        <time>2018-09-29T15:04:36Z</time>
      </trkpt>
      <trkpt lat="47.24087" lon="6.0539">
        <ele>415.43</ele>
        <time>2018-09-29T15:04:37Z</time>
      </trkpt>
      <trkpt lat="47.24091" lon="6.05396">
        <ele>415.43</ele>
        <time>2018-09-29T15:04:38Z</time>
      </trkpt>
      <trkpt lat="47.24109" lon="6.05442">
        <ele>414.95</ele>
        <time>2018-09-29T15:04:46Z</time>
      </trkpt>
      <trkpt lat="47.24114" lon="6.05455">
        <ele>414.95</ele>
        <time>2018-09-29T15:04:48Z</time>
      </trkpt>
      <trkpt lat="47.24116" lon="6.05461">
        <ele>414.95</ele>
        <time>2018-09-29T15:04:49Z</time>
      </trkpt>
      <trkpt lat="47.24118" lon="6.05467">
        <ele>414.95</ele>
        <time>2018-09-29T15:04:50Z</time>
      </trkpt>
      <trkpt lat="47.24121" lon="6.05473">
        <ele>414.95</ele>
        <time>2018-09-29T15:04:51Z</time>
      </trkpt>
      <trkpt lat="47.24123" lon="6.05479">
        <ele>414.95</ele>
        <time>2018-09-29T15:04:52Z</time>
      </trkpt>
      <trkpt lat="47.24134" lon="6.05504">
        <ele>414.95</ele>
        <time>2018-09-29T15:04:56Z</time>
      </trkpt>
      <trkpt lat="47.2414" lon="6.05517">
        <ele>414.95</ele>
        <time>2018-09-29T15:04:58Z</time>
      </trkpt>
      <trkpt lat="47.24145" lon="6.0553">
        <ele>414.95</ele>
        <time>2018-09-29T15:05:00Z</time>
      </trkpt>
      <trkpt lat="47.24151" lon="6.05541">
        <ele>414.47</ele>
        <time>2018-09-29T15:05:02Z</time>
      </trkpt>
      <trkpt lat="47.24154" lon="6.05547">
        <ele>414.95</ele>
        <time>2018-09-29T15:05:03Z</time>
      </trkpt>
      <trkpt lat="47.24156" lon="6.05554">
        <ele>414.47</ele>
        <time>2018-09-29T15:05:04Z</time>
      </trkpt>
      <trkpt lat="47.24158" lon="6.0556">
        <ele>414.95</ele>
        <time>2018-09-29T15:05:05Z</time>
      </trkpt>
      <trkpt lat="47.24161" lon="6.05566">
        <ele>414.47</ele>
        <time>2018-09-29T15:05:06Z</time>
      </trkpt>
      <trkpt lat="47.24167" lon="6.05578">
        <ele>414.95</ele>
        <time>2018-09-29T15:05:08Z</time>
      </trkpt>
      <trkpt lat="47.2417" lon="6.05584">
        <ele>414.95</ele>
        <time>2018-09-29T15:05:09Z</time>
      </trkpt>
      <trkpt lat="47.24174" lon="6.05589">
        <ele>414.95</ele>
        <time>2018-09-29T15:05:10Z</time>
      </trkpt>
      <trkpt lat="47.24176" lon="6.05595">
        <ele>414.47</ele>
        <time>2018-09-29T15:05:11Z</time>
      </trkpt>
      <trkpt lat="47.24179" lon="6.05601">
        <ele>414.47</ele>
        <time>2018-09-29T15:05:12Z</time>
      </trkpt>
      <trkpt lat="47.24188" lon="6.05625">
        <ele>414.95</ele>
        <time>2018-09-29T15:05:16Z</time>
      </trkpt>
      <trkpt lat="47.24212" lon="6.05681">
        <ele>413.98</ele>
        <time>2018-09-29T15:05:26Z</time>
      </trkpt>
      <trkpt lat="47.2422" lon="6.05698">
        <ele>413.98</ele>
        <time>2018-09-29T15:05:29Z</time>
      </trkpt>
      <trkpt lat="47.24223" lon="6.05704">
        <ele>413.5</ele>
        <time>2018-09-29T15:05:30Z</time>
      </trkpt>
      <trkpt lat="47.24226" lon="6.0571">
        <ele>413.5</ele>
        <time>2018-09-29T15:05:31Z</time>
      </trkpt>
      <trkpt lat="47.24232" lon="6.05721">
        <ele>413.5</ele>
        <time>2018-09-29T15:05:33Z</time>
      </trkpt>
      <trkpt lat="47.2424" lon="6.05731">
        <ele>413.02</ele>
        <time>2018-09-29T15:05:35Z</time>
      </trkpt>
      <trkpt lat="47.24245" lon="6.05735">
        <ele>412.54</ele>
        <time>2018-09-29T15:05:36Z</time>
      </trkpt>
      <trkpt lat="47.24254" lon="6.05742">
        <ele>411.58</ele>
        <time>2018-09-29T15:05:38Z</time>
      </trkpt>
      <trkpt lat="47.2426" lon="6.05746">
        <ele>411.1</ele>
        <time>2018-09-29T15:05:39Z</time>
      </trkpt>
      <trkpt lat="47.24311" lon="6.05783">
        <ele>408.22</ele>
        <time>2018-09-29T15:05:48Z</time>
      </trkpt>
      <trkpt lat="47.24317" lon="6.05787">
        <ele>407.74</ele>
        <time>2018-09-29T15:05:49Z</time>
      </trkpt>
      <trkpt lat="47.24322" lon="6.05792">
        <ele>407.26</ele>
        <time>2018-09-29T15:05:50Z</time>
      </trkpt>
      <trkpt lat="47.24327" lon="6.05797">
        <ele>406.77</ele>
        <time>2018-09-29T15:05:51Z</time>
      </trkpt>
      <trkpt lat="47.24356" lon="6.0582">
        <ele>405.81</ele>
        <time>2018-09-29T15:05:56Z</time>
      </trkpt>
      <trkpt lat="47.2436" lon="6.05824">
        <ele>405.33</ele>
        <time>2018-09-29T15:05:57Z</time>
      </trkpt>
      <trkpt lat="47.24363" lon="6.05827">
        <ele>404.85</ele>
        <time>2018-09-29T15:05:58Z</time>
      </trkpt>
      <trkpt lat="47.24365" lon="6.05833">
        <ele>404.85</ele>
        <time>2018-09-29T15:05:59Z</time>
      </trkpt>
      <trkpt lat="47.24366" lon="6.05839">
        <ele>404.85</ele>
        <time>2018-09-29T15:06:00Z</time>
      </trkpt>
      <trkpt lat="47.24367" lon="6.05844">
        <ele>404.85</ele>
        <time>2018-09-29T15:06:01Z</time>
      </trkpt>
      <trkpt lat="47.2437" lon="6.05847">
        <ele>404.37</ele>
        <time>2018-09-29T15:06:02Z</time>
      </trkpt>
      <trkpt lat="47.24373" lon="6.05848">
        <ele>403.89</ele>
        <time>2018-09-29T15:06:03Z</time>
      </trkpt>
      <trkpt lat="47.24377" lon="6.05849">
        <ele>403.41</ele>
        <time>2018-09-29T15:06:04Z</time>
      </trkpt>
      <trkpt lat="47.24382" lon="6.05851">
        <ele>401.97</ele>
        <time>2018-09-29T15:06:05Z</time>
      </trkpt>
      <trkpt lat="47.24387" lon="6.05854">
        <ele>401.49</ele>
        <time>2018-09-29T15:06:06Z</time>
      </trkpt>
      <trkpt lat="47.24393" lon="6.05859">
        <ele>400.53</ele>
        <time>2018-09-29T15:06:07Z</time>
      </trkpt>
      <trkpt lat="47.24405" lon="6.05869">
        <ele>399.08</ele>
        <time>2018-09-29T15:06:09Z</time>
      </trkpt>
      <trkpt lat="47.24419" lon="6.05878">
        <ele>398.12</ele>
        <time>2018-09-29T15:06:11Z</time>
      </trkpt>
      <trkpt lat="47.24425" lon="6.05881">
        <ele>397.64</ele>
        <time>2018-09-29T15:06:12Z</time>
      </trkpt>
      <trkpt lat="47.2443" lon="6.05886">
        <ele>397.64</ele>
        <time>2018-09-29T15:06:13Z</time>
      </trkpt>
      <trkpt lat="47.24435" lon="6.05889">
        <ele>397.16</ele>
        <time>2018-09-29T15:06:14Z</time>
      </trkpt>
      <trkpt lat="47.2444" lon="6.05893">
        <ele>396.68</ele>
        <time>2018-09-29T15:06:15Z</time>
      </trkpt>
      <trkpt lat="47.24445" lon="6.05898">
        <ele>395.72</ele>
        <time>2018-09-29T15:06:16Z</time>
      </trkpt>
      <trkpt lat="47.2445" lon="6.05904">
        <ele>395.24</ele>
        <time>2018-09-29T15:06:17Z</time>
      </trkpt>
      <trkpt lat="47.24454" lon="6.05911">
        <ele>394.76</ele>
        <time>2018-09-29T15:06:18Z</time>
      </trkpt>
      <trkpt lat="47.24458" lon="6.05917">
        <ele>395.24</ele>
        <time>2018-09-29T15:06:19Z</time>
      </trkpt>
      <trkpt lat="47.24462" lon="6.05922">
        <ele>394.76</ele>
        <time>2018-09-29T15:06:20Z</time>
      </trkpt>
      <trkpt lat="47.24466" lon="6.05926">
        <ele>394.76</ele>
        <time>2018-09-29T15:06:21Z</time>
      </trkpt>
      <trkpt lat="47.2447" lon="6.05929">
        <ele>394.76</ele>
        <time>2018-09-29T15:06:22Z</time>
      </trkpt>
      <trkpt lat="47.24473" lon="6.05932">
        <ele>394.76</ele>
        <time>2018-09-29T15:06:23Z</time>
      </trkpt>
      <trkpt lat="47.2448" lon="6.05936">
        <ele>394.76</ele>
        <time>2018-09-29T15:06:31Z</time>
      </trkpt>
      <trkpt lat="47.24486" lon="6.05941">
        <ele>393.8</ele>
        <time>2018-09-29T15:06:38Z</time>
      </trkpt>
      <trkpt lat="47.2449" lon="6.05942">
        <ele>393.8</ele>
        <time>2018-09-29T15:06:41Z</time>
      </trkpt>
      <trkpt lat="47.24492" lon="6.05942">
        <ele>393.32</ele>
        <time>2018-09-29T15:06:42Z</time>
      </trkpt>
      <trkpt lat="47.24494" lon="6.05943">
        <ele>393.32</ele>
        <time>2018-09-29T15:06:43Z</time>
      </trkpt>
      <trkpt lat="47.24497" lon="6.05944">
        <ele>392.84</ele>
        <time>2018-09-29T15:06:44Z</time>
      </trkpt>
      <trkpt lat="47.245" lon="6.05946">
        <ele>392.36</ele>
        <time>2018-09-29T15:06:45Z</time>
      </trkpt>
      <trkpt lat="47.24503" lon="6.05949">
        <ele>391.87</ele>
        <time>2018-09-29T15:06:46Z</time>
      </trkpt>
      <trkpt lat="47.24516" lon="6.05965">
        <ele>391.39</ele>
        <time>2018-09-29T15:06:52Z</time>
      </trkpt>
      <trkpt lat="47.24519" lon="6.05968">
        <ele>391.39</ele>
        <time>2018-09-29T15:06:56Z</time>
      </trkpt>
      <trkpt lat="47.24521" lon="6.05969">
        <ele>391.39</ele>
        <time>2018-09-29T15:06:57Z</time>
      </trkpt>
      <trkpt lat="47.24523" lon="6.0597">
        <ele>391.87</ele>
        <time>2018-09-29T15:06:58Z</time>
      </trkpt>
      <trkpt lat="47.24527" lon="6.05972">
        <ele>391.87</ele>
        <time>2018-09-29T15:07:01Z</time>
      </trkpt>
      <trkpt lat="47.24529" lon="6.05972">
        <ele>391.87</ele>
        <time>2018-09-29T15:07:02Z</time>
      </trkpt>
      <trkpt lat="47.24532" lon="6.05972">
        <ele>391.39</ele>
        <time>2018-09-29T15:07:03Z</time>
      </trkpt>
      <trkpt lat="47.24534" lon="6.05973">
        <ele>391.39</ele>
        <time>2018-09-29T15:07:04Z</time>
      </trkpt>
      <trkpt lat="47.24537" lon="6.05976">
        <ele>391.39</ele>
        <time>2018-09-29T15:07:06Z</time>
      </trkpt>
      <trkpt lat="47.24538" lon="6.05978">
        <ele>390.91</ele>
        <time>2018-09-29T15:07:07Z</time>
      </trkpt>
      <trkpt lat="47.2454" lon="6.0598">
        <ele>390.91</ele>
        <time>2018-09-29T15:07:08Z</time>
      </trkpt>
      <trkpt lat="47.24541" lon="6.05983">
        <ele>390.91</ele>
        <time>2018-09-29T15:07:09Z</time>
      </trkpt>
      <trkpt lat="47.24543" lon="6.05985">
        <ele>391.39</ele>
        <time>2018-09-29T15:07:10Z</time>
      </trkpt>
      <trkpt lat="47.24545" lon="6.05986">
        <ele>390.91</ele>
        <time>2018-09-29T15:07:11Z</time>
      </trkpt>
      <trkpt lat="47.24548" lon="6.05986">
        <ele>390.91</ele>
        <time>2018-09-29T15:07:12Z</time>
      </trkpt>
      <trkpt lat="47.2455" lon="6.05987">
        <ele>390.91</ele>
        <time>2018-09-29T15:07:13Z</time>
      </trkpt>
      <trkpt lat="47.24552" lon="6.05988">
        <ele>390.43</ele>
        <time>2018-09-29T15:07:14Z</time>
      </trkpt>
      <trkpt lat="47.24569" lon="6.06003">
        <ele>390.91</ele>
        <time>2018-09-29T15:07:21Z</time>
      </trkpt>
      <trkpt lat="47.24571" lon="6.06007">
        <ele>390.91</ele>
        <time>2018-09-29T15:07:22Z</time>
      </trkpt>
      <trkpt lat="47.24592" lon="6.06031">
        <ele>390.91</ele>
        <time>2018-09-29T15:07:32Z</time>
      </trkpt>
      <trkpt lat="47.24597" lon="6.06037">
        <ele>390.43</ele>
        <time>2018-09-29T15:07:34Z</time>
      </trkpt>
      <trkpt lat="47.24599" lon="6.06041">
        <ele>390.91</ele>
        <time>2018-09-29T15:07:35Z</time>
      </trkpt>
      <trkpt lat="47.24601" lon="6.06045">
        <ele>390.43</ele>
        <time>2018-09-29T15:07:36Z</time>
      </trkpt>
      <trkpt lat="47.24603" lon="6.06048">
        <ele>390.91</ele>
        <time>2018-09-29T15:07:37Z</time>
      </trkpt>
      <trkpt lat="47.24605" lon="6.06051">
        <ele>390.91</ele>
        <time>2018-09-29T15:07:38Z</time>
      </trkpt>
      <trkpt lat="47.24608" lon="6.06053">
        <ele>391.39</ele>
        <time>2018-09-29T15:07:39Z</time>
      </trkpt>
      <trkpt lat="47.2463" lon="6.06076">
        <ele>390.43</ele>
        <time>2018-09-29T15:07:48Z</time>
      </trkpt>
      <trkpt lat="47.24648" lon="6.06098">
        <ele>389.95</ele>
        <time>2018-09-29T15:07:55Z</time>
      </trkpt>
      <trkpt lat="47.24651" lon="6.06098">
        <ele>389.95</ele>
        <time>2018-09-29T15:07:56Z</time>
      </trkpt>
      <trkpt lat="47.24653" lon="6.061">
        <ele>389.95</ele>
        <time>2018-09-29T15:07:57Z</time>
      </trkpt>
      <trkpt lat="47.24657" lon="6.06103">
        <ele>389.47</ele>
        <time>2018-09-29T15:07:58Z</time>
      </trkpt>
      <trkpt lat="47.2466" lon="6.06107">
        <ele>388.99</ele>
        <time>2018-09-29T15:07:59Z</time>
      </trkpt>
      <trkpt lat="47.24662" lon="6.06111">
        <ele>388.99</ele>
        <time>2018-09-29T15:08:00Z</time>
      </trkpt>
      <trkpt lat="47.24665" lon="6.06116">
        <ele>388.51</ele>
        <time>2018-09-29T15:08:01Z</time>
      </trkpt>
      <trkpt lat="47.24668" lon="6.06119">
        <ele>388.03</ele>
        <time>2018-09-29T15:08:02Z</time>
      </trkpt>
      <trkpt lat="47.24672" lon="6.06122">
        <ele>387.55</ele>
        <time>2018-09-29T15:08:03Z</time>
      </trkpt>
      <trkpt lat="47.24676" lon="6.06125">
        <ele>387.07</ele>
        <time>2018-09-29T15:08:04Z</time>
      </trkpt>
      <trkpt lat="47.24686" lon="6.06132">
        <ele>386.11</ele>
        <time>2018-09-29T15:08:06Z</time>
      </trkpt>
      <trkpt lat="47.24691" lon="6.06135">
        <ele>385.15</ele>
        <time>2018-09-29T15:08:07Z</time>
      </trkpt>
      <trkpt lat="47.24696" lon="6.06138">
        <ele>385.15</ele>
        <time>2018-09-29T15:08:08Z</time>
      </trkpt>
      <trkpt lat="47.247" lon="6.06141">
        <ele>384.18</ele>
        <time>2018-09-29T15:08:09Z</time>
      </trkpt>
      <trkpt lat="47.24704" lon="6.06146">
        <ele>384.18</ele>
        <time>2018-09-29T15:08:10Z</time>
      </trkpt>
      <trkpt lat="47.24705" lon="6.0615">
        <ele>383.7</ele>
        <time>2018-09-29T15:08:11Z</time>
      </trkpt>
      <trkpt lat="47.24705" lon="6.06154">
        <ele>383.7</ele>
        <time>2018-09-29T15:08:12Z</time>
      </trkpt>
      <trkpt lat="47.24704" lon="6.06158">
        <ele>383.7</ele>
        <time>2018-09-29T15:08:13Z</time>
      </trkpt>
      <trkpt lat="47.24704" lon="6.06162">
        <ele>383.22</ele>
        <time>2018-09-29T15:08:14Z</time>
      </trkpt>
      <trkpt lat="47.24704" lon="6.06166">
        <ele>382.26</ele>
        <time>2018-09-29T15:08:15Z</time>
      </trkpt>
      <trkpt lat="47.24705" lon="6.06171">
        <ele>381.3</ele>
        <time>2018-09-29T15:08:16Z</time>
      </trkpt>
      <trkpt lat="47.24707" lon="6.06176">
        <ele>380.82</ele>
        <time>2018-09-29T15:08:17Z</time>
      </trkpt>
      <trkpt lat="47.24711" lon="6.0618">
        <ele>379.86</ele>
        <time>2018-09-29T15:08:18Z</time>
      </trkpt>
      <trkpt lat="47.24715" lon="6.06183">
        <ele>379.38</ele>
        <time>2018-09-29T15:08:19Z</time>
      </trkpt>
      <trkpt lat="47.24719" lon="6.06186">
        <ele>380.34</ele>
        <time>2018-09-29T15:08:20Z</time>
      </trkpt>
      <trkpt lat="47.24723" lon="6.06189">
        <ele>380.82</ele>
        <time>2018-09-29T15:08:21Z</time>
      </trkpt>
      <trkpt lat="47.24726" lon="6.06192">
        <ele>380.82</ele>
        <time>2018-09-29T15:08:22Z</time>
      </trkpt>
      <trkpt lat="47.24729" lon="6.06193">
        <ele>380.82</ele>
        <time>2018-09-29T15:08:23Z</time>
      </trkpt>
      <trkpt lat="47.24732" lon="6.06194">
        <ele>379.86</ele>
        <time>2018-09-29T15:08:24Z</time>
      </trkpt>
      <trkpt lat="47.24735" lon="6.06198">
        <ele>378.9</ele>
        <time>2018-09-29T15:08:25Z</time>
      </trkpt>
      <trkpt lat="47.24738" lon="6.06203">
        <ele>378.42</ele>
        <time>2018-09-29T15:08:26Z</time>
      </trkpt>
      <trkpt lat="47.24741" lon="6.06208">
        <ele>377.94</ele>
        <time>2018-09-29T15:08:27Z</time>
      </trkpt>
      <trkpt lat="47.24744" lon="6.06212">
        <ele>377.45</ele>
        <time>2018-09-29T15:08:28Z</time>
      </trkpt>
      <trkpt lat="47.24748" lon="6.06215">
        <ele>377.45</ele>
        <time>2018-09-29T15:08:29Z</time>
      </trkpt>
      <trkpt lat="47.24751" lon="6.06217">
        <ele>377.45</ele>
        <time>2018-09-29T15:08:30Z</time>
      </trkpt>
      <trkpt lat="47.24754" lon="6.06219">
        <ele>377.45</ele>
        <time>2018-09-29T15:08:31Z</time>
      </trkpt>
      <trkpt lat="47.24783" lon="6.0623">
        <ele>374.57</ele>
        <time>2018-09-29T15:08:37Z</time>
      </trkpt>
      <trkpt lat="47.24804" lon="6.06243">
        <ele>371.21</ele>
        <time>2018-09-29T15:08:40Z</time>
      </trkpt>
      <trkpt lat="47.24812" lon="6.06245">
        <ele>370.73</ele>
        <time>2018-09-29T15:08:41Z</time>
      </trkpt>
      <trkpt lat="47.2482" lon="6.06243">
        <ele>370.24</ele>
        <time>2018-09-29T15:08:42Z</time>
      </trkpt>
      <trkpt lat="47.24828" lon="6.06239">
        <ele>368.32</ele>
        <time>2018-09-29T15:08:43Z</time>
      </trkpt>
      <trkpt lat="47.24836" lon="6.06233">
        <ele>366.4</ele>
        <time>2018-09-29T15:08:44Z</time>
      </trkpt>
      <trkpt lat="47.24845" lon="6.06228">
        <ele>365.92</ele>
        <time>2018-09-29T15:08:45Z</time>
      </trkpt>
      <trkpt lat="47.24875" lon="6.06212">
        <ele>360.63</ele>
        <time>2018-09-29T15:08:48Z</time>
      </trkpt>
      <trkpt lat="47.24912" lon="6.06195">
        <ele>358.23</ele>
        <time>2018-09-29T15:08:53Z</time>
      </trkpt>
      <trkpt lat="47.24917" lon="6.06197">
        <ele>357.75</ele>
        <time>2018-09-29T15:08:54Z</time>
      </trkpt>
      <trkpt lat="47.24922" lon="6.06202">
        <ele>357.27</ele>
        <time>2018-09-29T15:08:55Z</time>
      </trkpt>
      <trkpt lat="47.24978" lon="6.06261">
        <ele>355.83</ele>
        <time>2018-09-29T15:09:07Z</time>
      </trkpt>
      <trkpt lat="47.24986" lon="6.06269">
        <ele>356.31</ele>
        <time>2018-09-29T15:09:09Z</time>
      </trkpt>
      <trkpt lat="47.25009" lon="6.0629">
        <ele>357.75</ele>
        <time>2018-09-29T15:09:15Z</time>
      </trkpt>
      <trkpt lat="47.25013" lon="6.06292">
        <ele>358.23</ele>
        <time>2018-09-29T15:09:16Z</time>
      </trkpt>
      <trkpt lat="47.25027" lon="6.06301">
        <ele>358.71</ele>
        <time>2018-09-29T15:09:20Z</time>
      </trkpt>
      <trkpt lat="47.2503" lon="6.06305">
        <ele>358.71</ele>
        <time>2018-09-29T15:09:21Z</time>
      </trkpt>
      <trkpt lat="47.25033" lon="6.0631">
        <ele>358.71</ele>
        <time>2018-09-29T15:09:22Z</time>
      </trkpt>
      <trkpt lat="47.25036" lon="6.06314">
        <ele>359.19</ele>
        <time>2018-09-29T15:09:23Z</time>
      </trkpt>
      <trkpt lat="47.25038" lon="6.06319">
        <ele>359.19</ele>
        <time>2018-09-29T15:09:24Z</time>
      </trkpt>
      <trkpt lat="47.2504" lon="6.06324">
        <ele>359.19</ele>
        <time>2018-09-29T15:09:25Z</time>
      </trkpt>
      <trkpt lat="47.25043" lon="6.06328">
        <ele>359.19</ele>
        <time>2018-09-29T15:09:26Z</time>
      </trkpt>
      <trkpt lat="47.25045" lon="6.06333">
        <ele>359.19</ele>
        <time>2018-09-29T15:09:27Z</time>
      </trkpt>
      <trkpt lat="47.25082" lon="6.06397">
        <ele>359.67</ele>
        <time>2018-09-29T15:09:40Z</time>
      </trkpt>
      <trkpt lat="47.25086" lon="6.06401">
        <ele>359.19</ele>
        <time>2018-09-29T15:09:41Z</time>
      </trkpt>
      <trkpt lat="47.25103" lon="6.06415">
        <ele>360.15</ele>
        <time>2018-09-29T15:09:45Z</time>
      </trkpt>
      <trkpt lat="47.25111" lon="6.06419">
        <ele>360.63</ele>
        <time>2018-09-29T15:09:47Z</time>
      </trkpt>
      <trkpt lat="47.25115" lon="6.06421">
        <ele>361.11</ele>
        <time>2018-09-29T15:09:48Z</time>
      </trkpt>
      <trkpt lat="47.25119" lon="6.06423">
        <ele>361.11</ele>
        <time>2018-09-29T15:09:49Z</time>
      </trkpt>
      <trkpt lat="47.25123" lon="6.06425">
        <ele>361.59</ele>
        <time>2018-09-29T15:09:50Z</time>
      </trkpt>
      <trkpt lat="47.25128" lon="6.06427">
        <ele>361.59</ele>
        <time>2018-09-29T15:09:51Z</time>
      </trkpt>
      <trkpt lat="47.25163" lon="6.06441">
        <ele>361.59</ele>
        <time>2018-09-29T15:09:59Z</time>
      </trkpt>
      <trkpt lat="47.25208" lon="6.06462">
        <ele>362.55</ele>
        <time>2018-09-29T15:10:09Z</time>
      </trkpt>
      <trkpt lat="47.25242" lon="6.06485">
        <ele>359.19</ele>
        <time>2018-09-29T15:10:15Z</time>
      </trkpt>
      <trkpt lat="47.25249" lon="6.06489">
        <ele>358.23</ele>
        <time>2018-09-29T15:10:16Z</time>
      </trkpt>
      <trkpt lat="47.25256" lon="6.06492">
        <ele>357.75</ele>
        <time>2018-09-29T15:10:17Z</time>
      </trkpt>
      <trkpt lat="47.25264" lon="6.06492">
        <ele>357.27</ele>
        <time>2018-09-29T15:10:18Z</time>
      </trkpt>
      <trkpt lat="47.25272" lon="6.06489">
        <ele>356.79</ele>
        <time>2018-09-29T15:10:19Z</time>
      </trkpt>
      <trkpt lat="47.2528" lon="6.06484">
        <ele>355.34</ele>
        <time>2018-09-29T15:10:20Z</time>
      </trkpt>
      <trkpt lat="47.25287" lon="6.06477">
        <ele>354.38</ele>
        <time>2018-09-29T15:10:21Z</time>
      </trkpt>
      <trkpt lat="47.25294" lon="6.06468">
        <ele>353.9</ele>
        <time>2018-09-29T15:10:22Z</time>
      </trkpt>
      <trkpt lat="47.25314" lon="6.06441">
        <ele>350.54</ele>
        <time>2018-09-29T15:10:25Z</time>
      </trkpt>
      <trkpt lat="47.25321" lon="6.06434">
        <ele>350.54</ele>
        <time>2018-09-29T15:10:26Z</time>
      </trkpt>
      <trkpt lat="47.25327" lon="6.0643">
        <ele>350.54</ele>
        <time>2018-09-29T15:10:27Z</time>
      </trkpt>
      <trkpt lat="47.25332" lon="6.06426">
        <ele>350.54</ele>
        <time>2018-09-29T15:10:28Z</time>
      </trkpt>
      <trkpt lat="47.25335" lon="6.06421">
        <ele>351.02</ele>
        <time>2018-09-29T15:10:29Z</time>
      </trkpt>
      <trkpt lat="47.25336" lon="6.06414">
        <ele>351.02</ele>
        <time>2018-09-29T15:10:30Z</time>
      </trkpt>
      <trkpt lat="47.25335" lon="6.06407">
        <ele>351.02</ele>
        <time>2018-09-29T15:10:31Z</time>
      </trkpt>
      <trkpt lat="47.25334" lon="6.064">
        <ele>351.02</ele>
        <time>2018-09-29T15:10:32Z</time>
      </trkpt>
      <trkpt lat="47.25327" lon="6.06371">
        <ele>350.54</ele>
        <time>2018-09-29T15:10:36Z</time>
      </trkpt>
      <trkpt lat="47.25324" lon="6.06364">
        <ele>350.54</ele>
        <time>2018-09-29T15:10:37Z</time>
      </trkpt>
      <trkpt lat="47.25319" lon="6.06351">
        <ele>351.02</ele>
        <time>2018-09-29T15:10:39Z</time>
      </trkpt>
      <trkpt lat="47.25316" lon="6.06345">
        <ele>351.02</ele>
        <time>2018-09-29T15:10:40Z</time>
      </trkpt>
      <trkpt lat="47.25314" lon="6.06338">
        <ele>350.54</ele>
        <time>2018-09-29T15:10:41Z</time>
      </trkpt>
      <trkpt lat="47.25295" lon="6.06299">
        <ele>351.02</ele>
        <time>2018-09-29T15:10:50Z</time>
      </trkpt>
      <trkpt lat="47.25297" lon="6.06298">
        <ele>351.02</ele>
        <time>2018-09-29T15:10:51Z</time>
      </trkpt>
      <trkpt lat="47.25299" lon="6.06296">
        <ele>350.54</ele>
        <time>2018-09-29T15:10:52Z</time>
      </trkpt>
      <trkpt lat="47.25319" lon="6.06277">
        <ele>349.58</ele>
        <time>2018-09-29T15:10:59Z</time>
      </trkpt>
      <trkpt lat="47.25323" lon="6.06274">
        <ele>349.58</ele>
        <time>2018-09-29T15:11:00Z</time>
      </trkpt>
      <trkpt lat="47.25326" lon="6.06271">
        <ele>349.1</ele>
        <time>2018-09-29T15:11:01Z</time>
      </trkpt>
      <trkpt lat="47.25347" lon="6.06247">
        <ele>348.62</ele>
        <time>2018-09-29T15:11:07Z</time>
      </trkpt>
      <trkpt lat="47.2535" lon="6.06242">
        <ele>348.62</ele>
        <time>2018-09-29T15:11:08Z</time>
      </trkpt>
      <trkpt lat="47.25353" lon="6.06238">
        <ele>348.13</ele>
        <time>2018-09-29T15:11:09Z</time>
      </trkpt>
      <trkpt lat="47.25357" lon="6.06235">
        <ele>349.1</ele>
        <time>2018-09-29T15:11:10Z</time>
      </trkpt>
      <trkpt lat="47.2536" lon="6.06231">
        <ele>348.62</ele>
        <time>2018-09-29T15:11:11Z</time>
      </trkpt>
      <trkpt lat="47.25364" lon="6.06227">
        <ele>348.13</ele>
        <time>2018-09-29T15:11:12Z</time>
      </trkpt>
      <trkpt lat="47.2539" lon="6.06192">
        <ele>348.13</ele>
        <time>2018-09-29T15:11:22Z</time>
      </trkpt>
      <trkpt lat="47.25394" lon="6.06177">
        <ele>347.17</ele>
        <time>2018-09-29T15:11:27Z</time>
      </trkpt>
      <trkpt lat="47.25394" lon="6.06172">
        <ele>347.17</ele>
        <time>2018-09-29T15:11:28Z</time>
      </trkpt>
      <trkpt lat="47.25395" lon="6.06167">
        <ele>347.65</ele>
        <time>2018-09-29T15:11:29Z</time>
      </trkpt>
      <trkpt lat="47.25397" lon="6.06162">
        <ele>347.17</ele>
        <time>2018-09-29T15:11:30Z</time>
      </trkpt>
      <trkpt lat="47.254" lon="6.06158">
        <ele>347.17</ele>
        <time>2018-09-29T15:11:31Z</time>
      </trkpt>
      <trkpt lat="47.25423" lon="6.06139">
        <ele>347.17</ele>
        <time>2018-09-29T15:11:38Z</time>
      </trkpt>
      <trkpt lat="47.25445" lon="6.06115">
        <ele>347.65</ele>
        <time>2018-09-29T15:11:48Z</time>
      </trkpt>
      <trkpt lat="47.25453" lon="6.0611">
        <ele>347.65</ele>
        <time>2018-09-29T15:11:50Z</time>
      </trkpt>
      <trkpt lat="47.2547" lon="6.06097">
        <ele>347.65</ele>
        <time>2018-09-29T15:11:55Z</time>
      </trkpt>
      <trkpt lat="47.25501" lon="6.06053">
        <ele>347.65</ele>
        <time>2018-09-29T15:12:06Z</time>
      </trkpt>
      <trkpt lat="47.25506" lon="6.06045">
        <ele>347.65</ele>
        <time>2018-09-29T15:12:08Z</time>
      </trkpt>
      <trkpt lat="47.25506" lon="6.06031">
        <ele>347.65</ele>
        <time>2018-09-29T15:12:11Z</time>
      </trkpt>
      <trkpt lat="47.25512" lon="6.05995">
        <ele>348.13</ele>
        <time>2018-09-29T15:12:20Z</time>
      </trkpt>
      <trkpt lat="47.25525" lon="6.05972">
        <ele>348.13</ele>
        <time>2018-09-29T15:12:27Z</time>
      </trkpt>
      <trkpt lat="47.25531" lon="6.05971">
        <ele>348.13</ele>
        <time>2018-09-29T15:12:29Z</time>
      </trkpt>
      <trkpt lat="47.25544" lon="6.05949">
        <ele>348.62</ele>
        <time>2018-09-29T15:12:33Z</time>
      </trkpt>
      <trkpt lat="47.25564" lon="6.05905">
        <ele>349.1</ele>
        <time>2018-09-29T15:12:42Z</time>
      </trkpt>
      <trkpt lat="47.25595" lon="6.05872">
        <ele>348.13</ele>
        <time>2018-09-29T15:12:52Z</time>
      </trkpt>
      <trkpt lat="47.25603" lon="6.05858">
        <ele>348.62</ele>
        <time>2018-09-29T15:12:55Z</time>
      </trkpt>
      <trkpt lat="47.25617" lon="6.05816">
        <ele>350.06</ele>
        <time>2018-09-29T15:13:04Z</time>
      </trkpt>
      <trkpt lat="47.25634" lon="6.05787">
        <ele>350.06</ele>
        <time>2018-09-29T15:13:12Z</time>
      </trkpt>
      <trkpt lat="47.2565" lon="6.05773">
        <ele>350.06</ele>
        <time>2018-09-29T15:13:17Z</time>
      </trkpt>
      <trkpt lat="47.25669" lon="6.05766">
        <ele>349.58</ele>
        <time>2018-09-29T15:13:22Z</time>
      </trkpt>
      <trkpt lat="47.25674" lon="6.05765">
        <ele>349.58</ele>
        <time>2018-09-29T15:13:23Z</time>
      </trkpt>
      <trkpt lat="47.25678" lon="6.05764">
        <ele>349.58</ele>
        <time>2018-09-29T15:13:24Z</time>
      </trkpt>
      <trkpt lat="47.25682" lon="6.05761">
        <ele>349.58</ele>
        <time>2018-09-29T15:13:25Z</time>
      </trkpt>
      <trkpt lat="47.25685" lon="6.05758">
        <ele>349.58</ele>
        <time>2018-09-29T15:13:26Z</time>
      </trkpt>
      <trkpt lat="47.25688" lon="6.05755">
        <ele>349.58</ele>
        <time>2018-09-29T15:13:27Z</time>
      </trkpt>
      <trkpt lat="47.25691" lon="6.05752">
        <ele>349.58</ele>
        <time>2018-09-29T15:13:28Z</time>
      </trkpt>
      <trkpt lat="47.25693" lon="6.05748">
        <ele>350.06</ele>
        <time>2018-09-29T15:13:29Z</time>
      </trkpt>
      <trkpt lat="47.25696" lon="6.05743">
        <ele>350.06</ele>
        <time>2018-09-29T15:13:30Z</time>
      </trkpt>
      <trkpt lat="47.25708" lon="6.05725">
        <ele>351.02</ele>
        <time>2018-09-29T15:13:35Z</time>
      </trkpt>
      <trkpt lat="47.2571" lon="6.05721">
        <ele>351.02</ele>
        <time>2018-09-29T15:13:36Z</time>
      </trkpt>
      <trkpt lat="47.25717" lon="6.05709">
        <ele>351.02</ele>
        <time>2018-09-29T15:13:39Z</time>
      </trkpt>
      <trkpt lat="47.25734" lon="6.05685">
        <ele>351.5</ele>
        <time>2018-09-29T15:13:45Z</time>
      </trkpt>
      <trkpt lat="47.25737" lon="6.05682">
        <ele>351.98</ele>
        <time>2018-09-29T15:13:46Z</time>
      </trkpt>
      <trkpt lat="47.2574" lon="6.05679">
        <ele>351.98</ele>
        <time>2018-09-29T15:13:47Z</time>
      </trkpt>
      <trkpt lat="47.25741" lon="6.05676">
        <ele>351.98</ele>
        <time>2018-09-29T15:13:48Z</time>
      </trkpt>
      <trkpt lat="47.25743" lon="6.05673">
        <ele>351.98</ele>
        <time>2018-09-29T15:13:49Z</time>
      </trkpt>
      <trkpt lat="47.25744" lon="6.0567">
        <ele>352.46</ele>
        <time>2018-09-29T15:13:50Z</time>
      </trkpt>
      <trkpt lat="47.25744" lon="6.05667">
        <ele>352.46</ele>
        <time>2018-09-29T15:13:51Z</time>
      </trkpt>
      <trkpt lat="47.25745" lon="6.05664">
        <ele>351.98</ele>
        <time>2018-09-29T15:13:52Z</time>
      </trkpt>
      <trkpt lat="47.25745" lon="6.0566">
        <ele>352.46</ele>
        <time>2018-09-29T15:13:53Z</time>
      </trkpt>
      <trkpt lat="47.25745" lon="6.05656">
        <ele>352.46</ele>
        <time>2018-09-29T15:13:54Z</time>
      </trkpt>
      <trkpt lat="47.25748" lon="6.0565">
        <ele>352.46</ele>
        <time>2018-09-29T15:13:55Z</time>
      </trkpt>
      <trkpt lat="47.25752" lon="6.05645">
        <ele>352.46</ele>
        <time>2018-09-29T15:13:56Z</time>
      </trkpt>
      <trkpt lat="47.25755" lon="6.05641">
        <ele>352.46</ele>
        <time>2018-09-29T15:13:57Z</time>
      </trkpt>
      <trkpt lat="47.25759" lon="6.05639">
        <ele>352.46</ele>
        <time>2018-09-29T15:13:58Z</time>
      </trkpt>
      <trkpt lat="47.25763" lon="6.05635">
        <ele>351.98</ele>
        <time>2018-09-29T15:13:59Z</time>
      </trkpt>
      <trkpt lat="47.25766" lon="6.05633">
        <ele>352.46</ele>
        <time>2018-09-29T15:14:00Z</time>
      </trkpt>
      <trkpt lat="47.25769" lon="6.05631">
        <ele>352.46</ele>
        <time>2018-09-29T15:14:01Z</time>
      </trkpt>
      <trkpt lat="47.25773" lon="6.05629">
        <ele>352.46</ele>
        <time>2018-09-29T15:14:02Z</time>
      </trkpt>
      <trkpt lat="47.25778" lon="6.05627">
        <ele>352.46</ele>
        <time>2018-09-29T15:14:03Z</time>
      </trkpt>
      <trkpt lat="47.25781" lon="6.05626">
        <ele>352.46</ele>
        <time>2018-09-29T15:14:04Z</time>
      </trkpt>
      <trkpt lat="47.25808" lon="6.05603">
        <ele>352.94</ele>
        <time>2018-09-29T15:14:12Z</time>
      </trkpt>
      <trkpt lat="47.25833" lon="6.05574">
        <ele>353.9</ele>
        <time>2018-09-29T15:14:22Z</time>
      </trkpt>
      <trkpt lat="47.25845" lon="6.05567">
        <ele>354.38</ele>
        <time>2018-09-29T15:14:26Z</time>
      </trkpt>
      <trkpt lat="47.25846" lon="6.05566">
        <ele>354.38</ele>
        <time>2018-09-29T15:14:27Z</time>
      </trkpt>
      <trkpt lat="47.25849" lon="6.05566">
        <ele>354.38</ele>
        <time>2018-09-29T15:14:28Z</time>
      </trkpt>
      <trkpt lat="47.25852" lon="6.05563">
        <ele>354.86</ele>
        <time>2018-09-29T15:14:29Z</time>
      </trkpt>
      <trkpt lat="47.25855" lon="6.05561">
        <ele>354.86</ele>
        <time>2018-09-29T15:14:30Z</time>
      </trkpt>
      <trkpt lat="47.25859" lon="6.0556">
        <ele>354.86</ele>
        <time>2018-09-29T15:14:31Z</time>
      </trkpt>
      <trkpt lat="47.25875" lon="6.05552">
        <ele>357.75</ele>
        <time>2018-09-29T15:14:37Z</time>
      </trkpt>
      <trkpt lat="47.25879" lon="6.0555">
        <ele>359.19</ele>
        <time>2018-09-29T15:14:39Z</time>
      </trkpt>
      <trkpt lat="47.25881" lon="6.05548">
        <ele>358.71</ele>
        <time>2018-09-29T15:14:40Z</time>
      </trkpt>
      <trkpt lat="47.25894" lon="6.05537">
        <ele>358.71</ele>
        <time>2018-09-29T15:14:45Z</time>
      </trkpt>
      <trkpt lat="47.259" lon="6.05525">
        <ele>357.75</ele>
        <time>2018-09-29T15:14:49Z</time>
      </trkpt>
      <trkpt lat="47.25902" lon="6.05523">
        <ele>358.23</ele>
        <time>2018-09-29T15:14:50Z</time>
      </trkpt>
      <trkpt lat="47.25903" lon="6.05521">
        <ele>358.71</ele>
        <time>2018-09-29T15:14:51Z</time>
      </trkpt>
      <trkpt lat="47.25903" lon="6.05518">
        <ele>359.19</ele>
        <time>2018-09-29T15:14:52Z</time>
      </trkpt>
      <trkpt lat="47.25906" lon="6.05509">
        <ele>360.15</ele>
        <time>2018-09-29T15:14:58Z</time>
      </trkpt>
      <trkpt lat="47.25908" lon="6.05508">
        <ele>359.67</ele>
        <time>2018-09-29T15:14:59Z</time>
      </trkpt>
      <trkpt lat="47.2591" lon="6.0551">
        <ele>359.19</ele>
        <time>2018-09-29T15:15:00Z</time>
      </trkpt>
      <trkpt lat="47.25912" lon="6.05512">
        <ele>358.23</ele>
        <time>2018-09-29T15:15:01Z</time>
      </trkpt>
      <trkpt lat="47.25915" lon="6.05515">
        <ele>357.75</ele>
        <time>2018-09-29T15:15:02Z</time>
      </trkpt>
      <trkpt lat="47.25918" lon="6.05516">
        <ele>357.75</ele>
        <time>2018-09-29T15:15:03Z</time>
      </trkpt>
      <trkpt lat="47.25922" lon="6.05517">
        <ele>357.75</ele>
        <time>2018-09-29T15:15:04Z</time>
      </trkpt>
      <trkpt lat="47.25925" lon="6.05517">
        <ele>357.75</ele>
        <time>2018-09-29T15:15:05Z</time>
      </trkpt>
      <trkpt lat="47.25928" lon="6.05515">
        <ele>357.75</ele>
        <time>2018-09-29T15:15:06Z</time>
      </trkpt>
      <trkpt lat="47.25932" lon="6.05513">
        <ele>357.75</ele>
        <time>2018-09-29T15:15:07Z</time>
      </trkpt>
      <trkpt lat="47.25936" lon="6.05511">
        <ele>357.27</ele>
        <time>2018-09-29T15:15:08Z</time>
      </trkpt>
      <trkpt lat="47.25939" lon="6.05508">
        <ele>357.27</ele>
        <time>2018-09-29T15:15:09Z</time>
      </trkpt>
      <trkpt lat="47.25964" lon="6.05494">
        <ele>356.79</ele>
        <time>2018-09-29T15:15:16Z</time>
      </trkpt>
      <trkpt lat="47.2598" lon="6.05479">
        <ele>357.27</ele>
        <time>2018-09-29T15:15:20Z</time>
      </trkpt>
      <trkpt lat="47.25984" lon="6.05477">
        <ele>356.79</ele>
        <time>2018-09-29T15:15:21Z</time>
      </trkpt>
      <trkpt lat="47.25988" lon="6.05475">
        <ele>356.79</ele>
        <time>2018-09-29T15:15:22Z</time>
      </trkpt>
      <trkpt lat="47.25992" lon="6.05472">
        <ele>356.79</ele>
        <time>2018-09-29T15:15:23Z</time>
      </trkpt>
      <trkpt lat="47.25996" lon="6.0547">
        <ele>357.27</ele>
        <time>2018-09-29T15:15:24Z</time>
      </trkpt>
      <trkpt lat="47.26" lon="6.05468">
        <ele>356.79</ele>
        <time>2018-09-29T15:15:25Z</time>
      </trkpt>
      <trkpt lat="47.26008" lon="6.05464">
        <ele>356.79</ele>
        <time>2018-09-29T15:15:27Z</time>
      </trkpt>
      <trkpt lat="47.26012" lon="6.05463">
        <ele>356.79</ele>
        <time>2018-09-29T15:15:28Z</time>
      </trkpt>
      <trkpt lat="47.26021" lon="6.05459">
        <ele>356.79</ele>
        <time>2018-09-29T15:15:30Z</time>
      </trkpt>
      <trkpt lat="47.26034" lon="6.05452">
        <ele>356.79</ele>
        <time>2018-09-29T15:15:33Z</time>
      </trkpt>
      <trkpt lat="47.26038" lon="6.05449">
        <ele>357.27</ele>
        <time>2018-09-29T15:15:34Z</time>
      </trkpt>
      <trkpt lat="47.26079" lon="6.05431">
        <ele>356.79</ele>
        <time>2018-09-29T15:15:44Z</time>
      </trkpt>
      <trkpt lat="47.26091" lon="6.05427">
        <ele>355.83</ele>
        <time>2018-09-29T15:15:47Z</time>
      </trkpt>
      <trkpt lat="47.26097" lon="6.05426">
        <ele>354.86</ele>
        <time>2018-09-29T15:15:48Z</time>
      </trkpt>
      <trkpt lat="47.26117" lon="6.05422">
        <ele>352.46</ele>
        <time>2018-09-29T15:15:51Z</time>
      </trkpt>
      <trkpt lat="47.26123" lon="6.05421">
        <ele>352.46</ele>
        <time>2018-09-29T15:15:52Z</time>
      </trkpt>
      <trkpt lat="47.26128" lon="6.05418">
        <ele>352.94</ele>
        <time>2018-09-29T15:15:53Z</time>
      </trkpt>
      <trkpt lat="47.26132" lon="6.05416">
        <ele>352.94</ele>
        <time>2018-09-29T15:15:54Z</time>
      </trkpt>
      <trkpt lat="47.26134" lon="6.05412">
        <ele>353.42</ele>
        <time>2018-09-29T15:15:55Z</time>
      </trkpt>
      <trkpt lat="47.26135" lon="6.05408">
        <ele>352.94</ele>
        <time>2018-09-29T15:15:56Z</time>
      </trkpt>
      <trkpt lat="47.26138" lon="6.05396">
        <ele>351.5</ele>
        <time>2018-09-29T15:15:58Z</time>
      </trkpt>
      <trkpt lat="47.26139" lon="6.05382">
        <ele>350.06</ele>
        <time>2018-09-29T15:16:00Z</time>
      </trkpt>
      <trkpt lat="47.26139" lon="6.05375">
        <ele>349.1</ele>
        <time>2018-09-29T15:16:01Z</time>
      </trkpt>
      <trkpt lat="47.26138" lon="6.05368">
        <ele>349.58</ele>
        <time>2018-09-29T15:16:02Z</time>
      </trkpt>
      <trkpt lat="47.26136" lon="6.05361">
        <ele>349.1</ele>
        <time>2018-09-29T15:16:03Z</time>
      </trkpt>
      <trkpt lat="47.26134" lon="6.05355">
        <ele>349.1</ele>
        <time>2018-09-29T15:16:04Z</time>
      </trkpt>
      <trkpt lat="47.26131" lon="6.05349">
        <ele>349.1</ele>
        <time>2018-09-29T15:16:05Z</time>
      </trkpt>
      <trkpt lat="47.26128" lon="6.05342">
        <ele>348.62</ele>
        <time>2018-09-29T15:16:06Z</time>
      </trkpt>
      <trkpt lat="47.26124" lon="6.05335">
        <ele>348.62</ele>
        <time>2018-09-29T15:16:07Z</time>
      </trkpt>
      <trkpt lat="47.26121" lon="6.05328">
        <ele>348.62</ele>
        <time>2018-09-29T15:16:08Z</time>
      </trkpt>
      <trkpt lat="47.26117" lon="6.0532">
        <ele>348.13</ele>
        <time>2018-09-29T15:16:09Z</time>
      </trkpt>
      <trkpt lat="47.261" lon="6.05284">
        <ele>345.25</ele>
        <time>2018-09-29T15:16:14Z</time>
      </trkpt>
      <trkpt lat="47.26097" lon="6.05278">
        <ele>344.29</ele>
        <time>2018-09-29T15:16:15Z</time>
      </trkpt>
      <trkpt lat="47.26094" lon="6.0527">
        <ele>342.85</ele>
        <time>2018-09-29T15:16:16Z</time>
      </trkpt>
      <trkpt lat="47.26087" lon="6.05249">
        <ele>339.48</ele>
        <time>2018-09-29T15:16:20Z</time>
      </trkpt>
      <trkpt lat="47.26085" lon="6.05242">
        <ele>338.52</ele>
        <time>2018-09-29T15:16:21Z</time>
      </trkpt>
      <trkpt lat="47.26084" lon="6.05236">
        <ele>337.56</ele>
        <time>2018-09-29T15:16:22Z</time>
      </trkpt>
      <trkpt lat="47.26083" lon="6.05228">
        <ele>336.6</ele>
        <time>2018-09-29T15:16:23Z</time>
      </trkpt>
      <trkpt lat="47.26084" lon="6.05219">
        <ele>335.64</ele>
        <time>2018-09-29T15:16:24Z</time>
      </trkpt>
      <trkpt lat="47.26086" lon="6.0521">
        <ele>335.16</ele>
        <time>2018-09-29T15:16:25Z</time>
      </trkpt>
      <trkpt lat="47.26085" lon="6.05201">
        <ele>334.68</ele>
        <time>2018-09-29T15:16:26Z</time>
      </trkpt>
      <trkpt lat="47.26082" lon="6.05193">
        <ele>332.75</ele>
        <time>2018-09-29T15:16:27Z</time>
      </trkpt>
      <trkpt lat="47.26076" lon="6.05186">
        <ele>332.27</ele>
        <time>2018-09-29T15:16:28Z</time>
      </trkpt>
      <trkpt lat="47.26069" lon="6.0518">
        <ele>331.79</ele>
        <time>2018-09-29T15:16:29Z</time>
      </trkpt>
      <trkpt lat="47.26061" lon="6.05176">
        <ele>331.79</ele>
        <time>2018-09-29T15:16:30Z</time>
      </trkpt>
      <trkpt lat="47.26047" lon="6.05171">
        <ele>330.83</ele>
        <time>2018-09-29T15:16:32Z</time>
      </trkpt>
      <trkpt lat="47.2604" lon="6.05166">
        <ele>330.35</ele>
        <time>2018-09-29T15:16:33Z</time>
      </trkpt>
      <trkpt lat="47.26035" lon="6.05158">
        <ele>329.39</ele>
        <time>2018-09-29T15:16:34Z</time>
      </trkpt>
      <trkpt lat="47.26033" lon="6.05147">
        <ele>328.43</ele>
        <time>2018-09-29T15:16:35Z</time>
      </trkpt>
      <trkpt lat="47.26036" lon="6.05136">
        <ele>327.95</ele>
        <time>2018-09-29T15:16:36Z</time>
      </trkpt>
      <trkpt lat="47.26042" lon="6.05129">
        <ele>326.99</ele>
        <time>2018-09-29T15:16:37Z</time>
      </trkpt>
      <trkpt lat="47.2605" lon="6.05127">
        <ele>325.06</ele>
        <time>2018-09-29T15:16:38Z</time>
      </trkpt>
      <trkpt lat="47.26058" lon="6.05127">
        <ele>324.1</ele>
        <time>2018-09-29T15:16:39Z</time>
      </trkpt>
      <trkpt lat="47.26066" lon="6.05129">
        <ele>324.1</ele>
        <time>2018-09-29T15:16:40Z</time>
      </trkpt>
      <trkpt lat="47.26089" lon="6.05131">
        <ele>324.1</ele>
        <time>2018-09-29T15:16:43Z</time>
      </trkpt>
      <trkpt lat="47.26096" lon="6.05128">
        <ele>323.62</ele>
        <time>2018-09-29T15:16:44Z</time>
      </trkpt>
      <trkpt lat="47.26102" lon="6.05123">
        <ele>322.66</ele>
        <time>2018-09-29T15:16:45Z</time>
      </trkpt>
      <trkpt lat="47.26108" lon="6.05115">
        <ele>322.66</ele>
        <time>2018-09-29T15:16:46Z</time>
      </trkpt>
      <trkpt lat="47.26113" lon="6.05105">
        <ele>322.66</ele>
        <time>2018-09-29T15:16:47Z</time>
      </trkpt>
      <trkpt lat="47.26118" lon="6.05095">
        <ele>322.66</ele>
        <time>2018-09-29T15:16:48Z</time>
      </trkpt>
      <trkpt lat="47.26159" lon="6.05016">
        <ele>319.78</ele>
        <time>2018-09-29T15:16:57Z</time>
      </trkpt>
      <trkpt lat="47.26164" lon="6.05008">
        <ele>319.78</ele>
        <time>2018-09-29T15:16:58Z</time>
      </trkpt>
      <trkpt lat="47.26168" lon="6.05003">
        <ele>319.3</ele>
        <time>2018-09-29T15:16:59Z</time>
      </trkpt>
      <trkpt lat="47.26173" lon="6.04999">
        <ele>319.3</ele>
        <time>2018-09-29T15:17:00Z</time>
      </trkpt>
      <trkpt lat="47.26178" lon="6.04994">
        <ele>319.3</ele>
        <time>2018-09-29T15:17:01Z</time>
      </trkpt>
      <trkpt lat="47.26182" lon="6.04989">
        <ele>319.78</ele>
        <time>2018-09-29T15:17:02Z</time>
      </trkpt>
      <trkpt lat="47.26186" lon="6.04984">
        <ele>319.3</ele>
        <time>2018-09-29T15:17:03Z</time>
      </trkpt>
      <trkpt lat="47.26188" lon="6.04978">
        <ele>319.3</ele>
        <time>2018-09-29T15:17:04Z</time>
      </trkpt>
      <trkpt lat="47.26195" lon="6.0494">
        <ele>319.78</ele>
        <time>2018-09-29T15:17:10Z</time>
      </trkpt>
      <trkpt lat="47.26197" lon="6.04935">
        <ele>319.78</ele>
        <time>2018-09-29T15:17:11Z</time>
      </trkpt>
      <trkpt lat="47.26197" lon="6.04929">
        <ele>318.81</ele>
        <time>2018-09-29T15:17:12Z</time>
      </trkpt>
      <trkpt lat="47.26195" lon="6.04924">
        <ele>319.3</ele>
        <time>2018-09-29T15:17:13Z</time>
      </trkpt>
      <trkpt lat="47.26192" lon="6.0492">
        <ele>319.78</ele>
        <time>2018-09-29T15:17:14Z</time>
      </trkpt>
      <trkpt lat="47.26188" lon="6.04916">
        <ele>319.78</ele>
        <time>2018-09-29T15:17:15Z</time>
      </trkpt>
      <trkpt lat="47.26185" lon="6.04912">
        <ele>319.78</ele>
        <time>2018-09-29T15:17:16Z</time>
      </trkpt>
      <trkpt lat="47.26182" lon="6.04908">
        <ele>319.3</ele>
        <time>2018-09-29T15:17:17Z</time>
      </trkpt>
      <trkpt lat="47.26179" lon="6.04903">
        <ele>319.3</ele>
        <time>2018-09-29T15:17:18Z</time>
      </trkpt>
      <trkpt lat="47.26178" lon="6.04897">
        <ele>319.3</ele>
        <time>2018-09-29T15:17:19Z</time>
      </trkpt>
      <trkpt lat="47.26179" lon="6.0489">
        <ele>318.81</ele>
        <time>2018-09-29T15:17:20Z</time>
      </trkpt>
      <trkpt lat="47.26182" lon="6.04884">
        <ele>318.81</ele>
        <time>2018-09-29T15:17:21Z</time>
      </trkpt>
      <trkpt lat="47.26184" lon="6.0488">
        <ele>318.81</ele>
        <time>2018-09-29T15:17:22Z</time>
      </trkpt>
      <trkpt lat="47.26187" lon="6.04876">
        <ele>319.3</ele>
        <time>2018-09-29T15:17:23Z</time>
      </trkpt>
      <trkpt lat="47.2622" lon="6.04823">
        <ele>321.22</ele>
        <time>2018-09-29T15:17:36Z</time>
      </trkpt>
      <trkpt lat="47.26223" lon="6.04762">
        <ele>322.18</ele>
        <time>2018-09-29T15:17:47Z</time>
      </trkpt>
      <trkpt lat="47.26217" lon="6.04653">
        <ele>322.66</ele>
        <time>2018-09-29T15:18:04Z</time>
      </trkpt>
      <trkpt lat="47.26217" lon="6.04591">
        <ele>323.14</ele>
        <time>2018-09-29T15:18:13Z</time>
      </trkpt>
      <trkpt lat="47.26216" lon="6.04584">
        <ele>323.14</ele>
        <time>2018-09-29T15:18:14Z</time>
      </trkpt>
      <trkpt lat="47.26208" lon="6.04479">
        <ele>324.1</ele>
        <time>2018-09-29T15:18:29Z</time>
      </trkpt>
      <trkpt lat="47.26207" lon="6.0442">
        <ele>325.06</ele>
        <time>2018-09-29T15:18:38Z</time>
      </trkpt>
      <trkpt lat="47.26209" lon="6.04397">
        <ele>326.02</ele>
        <time>2018-09-29T15:18:43Z</time>
      </trkpt>
      <trkpt lat="47.26208" lon="6.04395">
        <ele>326.02</ele>
        <time>2018-09-29T15:18:44Z</time>
      </trkpt>
      <trkpt lat="47.26207" lon="6.04394">
        <ele>326.02</ele>
        <time>2018-09-29T15:18:45Z</time>
      </trkpt>
      <trkpt lat="47.26181" lon="6.04356">
        <ele>325.06</ele>
        <time>2018-09-29T15:18:57Z</time>
      </trkpt>
      <trkpt lat="47.26164" lon="6.04332">
        <ele>325.06</ele>
        <time>2018-09-29T15:19:03Z</time>
      </trkpt>
      <trkpt lat="47.26161" lon="6.04327">
        <ele>324.58</ele>
        <time>2018-09-29T15:19:04Z</time>
      </trkpt>
      <trkpt lat="47.26145" lon="6.04305">
        <ele>324.58</ele>
        <time>2018-09-29T15:19:09Z</time>
      </trkpt>
      <trkpt lat="47.26136" lon="6.04291">
        <ele>324.58</ele>
        <time>2018-09-29T15:19:12Z</time>
      </trkpt>
      <trkpt lat="47.26102" lon="6.0424">
        <ele>323.62</ele>
        <time>2018-09-29T15:19:25Z</time>
      </trkpt>
      <trkpt lat="47.26102" lon="6.0424">
        <ele>323.62</ele>
        <time>2018-09-29T15:19:32Z</time>
      </trkpt>
    </trkseg>
  </trk>
</gpx>